<?xml version="1.0" encoding="UTF-8" standalone="no" ?>
<gpx xmlns="http://www.topografix.com/GPX/1/1" xmlns:xsi="http://www.w3.org/2001/XMLSchema-instance" xsi:schemaLocation="http://www.topografix.com/GPX/1/1 http://www.topografix.com/GPX/1/1/gpx.xsd" version="1.1" creator="VisuGPX - https://www.visugpx.com">
  <metadata>
    <name>Guillaume J1</name>
    <desc><![CDATA[La futur balade de guillaume]]></desc>
  </metadata>
  <trk>
    <name><![CDATA[Trip MTB Vercors Sud 01]]></name>
    <trkseg>
      <trkpt lat="45.0244" lon="5.51737">
        <ele>1144.11</ele>
        <time>2011-04-23T08:39:40Z</time>
      </trkpt>
      <trkpt lat="45.02444" lon="5.51739">
        <ele>1145.07</ele>
        <time>2011-04-23T08:40:04Z</time>
      </trkpt>
      <trkpt lat="45.02444" lon="5.51739">
        <ele>1150.84</ele>
        <time>2011-04-23T08:40:07Z</time>
      </trkpt>
      <trkpt lat="45.02444" lon="5.51739">
        <ele>1145.07</ele>
        <time>2011-04-23T08:40:08Z</time>
      </trkpt>
      <trkpt lat="45.02444" lon="5.51739">
        <ele>1145.07</ele>
        <time>2011-04-23T08:40:09Z</time>
      </trkpt>
      <trkpt lat="45.02446" lon="5.5174">
        <ele>1146.03</ele>
        <time>2011-04-23T08:42:06Z</time>
      </trkpt>
      <trkpt lat="45.02445" lon="5.51741">
        <ele>1145.07</ele>
        <time>2011-04-23T08:42:14Z</time>
      </trkpt>
      <trkpt lat="45.0243" lon="5.51741">
        <ele>1145.55</ele>
        <time>2011-04-23T08:42:24Z</time>
      </trkpt>
      <trkpt lat="45.02428" lon="5.5174">
        <ele>1145.55</ele>
        <time>2011-04-23T08:42:25Z</time>
      </trkpt>
      <trkpt lat="45.02402" lon="5.51734">
        <ele>1147.95</ele>
        <time>2011-04-23T08:42:39Z</time>
      </trkpt>
      <trkpt lat="45.02402" lon="5.51734">
        <ele>1151.32</ele>
        <time>2011-04-23T08:42:42Z</time>
      </trkpt>
      <trkpt lat="45.02402" lon="5.51734">
        <ele>1147.95</ele>
        <time>2011-04-23T08:42:43Z</time>
      </trkpt>
      <trkpt lat="45.02402" lon="5.51734">
        <ele>1147.95</ele>
        <time>2011-04-23T08:42:48Z</time>
      </trkpt>
      <trkpt lat="45.02393" lon="5.51734">
        <ele>1148.43</ele>
        <time>2011-04-23T08:42:54Z</time>
      </trkpt>
      <trkpt lat="45.02359" lon="5.51737">
        <ele>1149.39</ele>
        <time>2011-04-23T08:43:08Z</time>
      </trkpt>
      <trkpt lat="45.02334" lon="5.51744">
        <ele>1151.32</ele>
        <time>2011-04-23T08:43:21Z</time>
      </trkpt>
      <trkpt lat="45.02309" lon="5.51738">
        <ele>1153.24</ele>
        <time>2011-04-23T08:43:35Z</time>
      </trkpt>
      <trkpt lat="45.02287" lon="5.51727">
        <ele>1154.68</ele>
        <time>2011-04-23T08:43:48Z</time>
      </trkpt>
      <trkpt lat="45.02261" lon="5.51718">
        <ele>1156.6</ele>
        <time>2011-04-23T08:44:04Z</time>
      </trkpt>
      <trkpt lat="45.0223" lon="5.51713">
        <ele>1157.08</ele>
        <time>2011-04-23T08:44:21Z</time>
      </trkpt>
      <trkpt lat="45.02202" lon="5.51697">
        <ele>1159.01</ele>
        <time>2011-04-23T08:44:38Z</time>
      </trkpt>
      <trkpt lat="45.02188" lon="5.51687">
        <ele>1159.49</ele>
        <time>2011-04-23T08:44:47Z</time>
      </trkpt>
      <trkpt lat="45.02158" lon="5.51672">
        <ele>1160.45</ele>
        <time>2011-04-23T08:45:04Z</time>
      </trkpt>
      <trkpt lat="45.02139" lon="5.51666">
        <ele>1160.93</ele>
        <time>2011-04-23T08:45:14Z</time>
      </trkpt>
      <trkpt lat="45.02113" lon="5.51652">
        <ele>1162.37</ele>
        <time>2011-04-23T08:45:29Z</time>
      </trkpt>
      <trkpt lat="45.0209" lon="5.51618">
        <ele>1163.81</ele>
        <time>2011-04-23T08:45:46Z</time>
      </trkpt>
      <trkpt lat="45.02078" lon="5.51581">
        <ele>1165.26</ele>
        <time>2011-04-23T08:46:02Z</time>
      </trkpt>
      <trkpt lat="45.02054" lon="5.51564">
        <ele>1167.18</ele>
        <time>2011-04-23T08:46:17Z</time>
      </trkpt>
      <trkpt lat="45.02033" lon="5.51541">
        <ele>1168.62</ele>
        <time>2011-04-23T08:46:33Z</time>
      </trkpt>
      <trkpt lat="45.02011" lon="5.51509">
        <ele>1170.06</ele>
        <time>2011-04-23T08:46:50Z</time>
      </trkpt>
      <trkpt lat="45.0199" lon="5.51479">
        <ele>1171.02</ele>
        <time>2011-04-23T08:47:05Z</time>
      </trkpt>
      <trkpt lat="45.01972" lon="5.51435">
        <ele>1171.98</ele>
        <time>2011-04-23T08:47:24Z</time>
      </trkpt>
      <trkpt lat="45.01962" lon="5.51387">
        <ele>1172.47</ele>
        <time>2011-04-23T08:47:42Z</time>
      </trkpt>
      <trkpt lat="45.01961" lon="5.51379">
        <ele>1172.47</ele>
        <time>2011-04-23T08:47:45Z</time>
      </trkpt>
      <trkpt lat="45.01956" lon="5.5136">
        <ele>1172.47</ele>
        <time>2011-04-23T08:47:52Z</time>
      </trkpt>
      <trkpt lat="45.0195" lon="5.51307">
        <ele>1172.47</ele>
        <time>2011-04-23T08:48:11Z</time>
      </trkpt>
      <trkpt lat="45.01924" lon="5.51275">
        <ele>1172.95</ele>
        <time>2011-04-23T08:48:29Z</time>
      </trkpt>
      <trkpt lat="45.01899" lon="5.5125">
        <ele>1174.39</ele>
        <time>2011-04-23T08:48:45Z</time>
      </trkpt>
      <trkpt lat="45.01876" lon="5.51227">
        <ele>1174.87</ele>
        <time>2011-04-23T08:49:00Z</time>
      </trkpt>
      <trkpt lat="45.01854" lon="5.51201">
        <ele>1176.31</ele>
        <time>2011-04-23T08:49:16Z</time>
      </trkpt>
      <trkpt lat="45.01846" lon="5.51169">
        <ele>1178.71</ele>
        <time>2011-04-23T08:49:32Z</time>
      </trkpt>
      <trkpt lat="45.01847" lon="5.51167">
        <ele>1178.23</ele>
        <time>2011-04-23T08:49:43Z</time>
      </trkpt>
      <trkpt lat="45.01849" lon="5.51163">
        <ele>1179.19</ele>
        <time>2011-04-23T08:49:46Z</time>
      </trkpt>
      <trkpt lat="45.01846" lon="5.51148">
        <ele>1179.19</ele>
        <time>2011-04-23T08:49:54Z</time>
      </trkpt>
      <trkpt lat="45.01832" lon="5.51114">
        <ele>1181.6</ele>
        <time>2011-04-23T08:50:12Z</time>
      </trkpt>
      <trkpt lat="45.01831" lon="5.51113">
        <ele>1181.6</ele>
        <time>2011-04-23T08:50:13Z</time>
      </trkpt>
      <trkpt lat="45.01819" lon="5.51095">
        <ele>1184.48</ele>
        <time>2011-04-23T08:50:24Z</time>
      </trkpt>
      <trkpt lat="45.01815" lon="5.5109">
        <ele>1184.96</ele>
        <time>2011-04-23T08:50:28Z</time>
      </trkpt>
      <trkpt lat="45.01812" lon="5.51088">
        <ele>1184.96</ele>
        <time>2011-04-23T08:50:30Z</time>
      </trkpt>
      <trkpt lat="45.01805" lon="5.51078">
        <ele>1186.88</ele>
        <time>2011-04-23T08:50:37Z</time>
      </trkpt>
      <trkpt lat="45.018" lon="5.51071">
        <ele>1187.85</ele>
        <time>2011-04-23T08:50:42Z</time>
      </trkpt>
      <trkpt lat="45.01784" lon="5.51054">
        <ele>1191.21</ele>
        <time>2011-04-23T08:50:57Z</time>
      </trkpt>
      <trkpt lat="45.01773" lon="5.51033">
        <ele>1194.09</ele>
        <time>2011-04-23T08:51:10Z</time>
      </trkpt>
      <trkpt lat="45.01772" lon="5.51025">
        <ele>1194.58</ele>
        <time>2011-04-23T08:51:15Z</time>
      </trkpt>
      <trkpt lat="45.01767" lon="5.51005">
        <ele>1198.9</ele>
        <time>2011-04-23T08:51:27Z</time>
      </trkpt>
      <trkpt lat="45.01766" lon="5.51002">
        <ele>1198.9</ele>
        <time>2011-04-23T08:51:29Z</time>
      </trkpt>
      <trkpt lat="45.01764" lon="5.50991">
        <ele>1200.34</ele>
        <time>2011-04-23T08:51:35Z</time>
      </trkpt>
      <trkpt lat="45.01758" lon="5.50968">
        <ele>1202.75</ele>
        <time>2011-04-23T08:51:49Z</time>
      </trkpt>
      <trkpt lat="45.01753" lon="5.50958">
        <ele>1203.23</ele>
        <time>2011-04-23T08:51:55Z</time>
      </trkpt>
      <trkpt lat="45.01749" lon="5.5095">
        <ele>1203.71</ele>
        <time>2011-04-23T08:52:00Z</time>
      </trkpt>
      <trkpt lat="45.01741" lon="5.50932">
        <ele>1204.67</ele>
        <time>2011-04-23T08:52:10Z</time>
      </trkpt>
      <trkpt lat="45.01729" lon="5.50914">
        <ele>1205.15</ele>
        <time>2011-04-23T08:52:22Z</time>
      </trkpt>
      <trkpt lat="45.01715" lon="5.50896">
        <ele>1205.63</ele>
        <time>2011-04-23T08:52:35Z</time>
      </trkpt>
      <trkpt lat="45.01691" lon="5.50885">
        <ele>1205.63</ele>
        <time>2011-04-23T08:52:51Z</time>
      </trkpt>
      <trkpt lat="45.01667" lon="5.50874">
        <ele>1207.07</ele>
        <time>2011-04-23T08:53:06Z</time>
      </trkpt>
      <trkpt lat="45.01663" lon="5.50871">
        <ele>1207.07</ele>
        <time>2011-04-23T08:53:09Z</time>
      </trkpt>
      <trkpt lat="45.01654" lon="5.50862">
        <ele>1207.07</ele>
        <time>2011-04-23T08:53:16Z</time>
      </trkpt>
      <trkpt lat="45.01649" lon="5.50857">
        <ele>1207.07</ele>
        <time>2011-04-23T08:53:20Z</time>
      </trkpt>
      <trkpt lat="45.01632" lon="5.50843">
        <ele>1208.51</ele>
        <time>2011-04-23T08:53:33Z</time>
      </trkpt>
      <trkpt lat="45.0163" lon="5.50842">
        <ele>1208.03</ele>
        <time>2011-04-23T08:53:34Z</time>
      </trkpt>
      <trkpt lat="45.01608" lon="5.50825">
        <ele>1209.48</ele>
        <time>2011-04-23T08:53:50Z</time>
      </trkpt>
      <trkpt lat="45.01589" lon="5.50815">
        <ele>1210.44</ele>
        <time>2011-04-23T08:54:03Z</time>
      </trkpt>
      <trkpt lat="45.01569" lon="5.50803">
        <ele>1211.88</ele>
        <time>2011-04-23T08:54:16Z</time>
      </trkpt>
      <trkpt lat="45.01548" lon="5.5079">
        <ele>1212.84</ele>
        <time>2011-04-23T08:54:31Z</time>
      </trkpt>
      <trkpt lat="45.01544" lon="5.50786">
        <ele>1213.32</ele>
        <time>2011-04-23T08:54:34Z</time>
      </trkpt>
      <trkpt lat="45.01527" lon="5.5077">
        <ele>1214.76</ele>
        <time>2011-04-23T08:54:48Z</time>
      </trkpt>
      <trkpt lat="45.01511" lon="5.50746">
        <ele>1217.17</ele>
        <time>2011-04-23T08:55:03Z</time>
      </trkpt>
      <trkpt lat="45.01509" lon="5.50739">
        <ele>1217.65</ele>
        <time>2011-04-23T08:55:07Z</time>
      </trkpt>
      <trkpt lat="45.01506" lon="5.50731">
        <ele>1218.61</ele>
        <time>2011-04-23T08:55:11Z</time>
      </trkpt>
      <trkpt lat="45.01489" lon="5.50707">
        <ele>1220.05</ele>
        <time>2011-04-23T08:55:27Z</time>
      </trkpt>
      <trkpt lat="45.01484" lon="5.50702">
        <ele>1221.01</ele>
        <time>2011-04-23T08:55:31Z</time>
      </trkpt>
      <trkpt lat="45.01477" lon="5.50696">
        <ele>1221.01</ele>
        <time>2011-04-23T08:55:36Z</time>
      </trkpt>
      <trkpt lat="45.01459" lon="5.50676">
        <ele>1223.42</ele>
        <time>2011-04-23T08:55:52Z</time>
      </trkpt>
      <trkpt lat="45.01444" lon="5.50658">
        <ele>1224.86</ele>
        <time>2011-04-23T08:56:05Z</time>
      </trkpt>
      <trkpt lat="45.01438" lon="5.50651">
        <ele>1225.82</ele>
        <time>2011-04-23T08:56:11Z</time>
      </trkpt>
      <trkpt lat="45.01434" lon="5.50642">
        <ele>1226.3</ele>
        <time>2011-04-23T08:56:16Z</time>
      </trkpt>
      <trkpt lat="45.01422" lon="5.50628">
        <ele>1228.7</ele>
        <time>2011-04-23T08:56:28Z</time>
      </trkpt>
      <trkpt lat="45.01411" lon="5.50619">
        <ele>1229.66</ele>
        <time>2011-04-23T08:56:37Z</time>
      </trkpt>
      <trkpt lat="45.01398" lon="5.50603">
        <ele>1231.11</ele>
        <time>2011-04-23T08:56:50Z</time>
      </trkpt>
      <trkpt lat="45.01393" lon="5.50597">
        <ele>1232.07</ele>
        <time>2011-04-23T08:56:54Z</time>
      </trkpt>
      <trkpt lat="45.01376" lon="5.50583">
        <ele>1233.99</ele>
        <time>2011-04-23T08:57:08Z</time>
      </trkpt>
      <trkpt lat="45.01369" lon="5.50574">
        <ele>1235.43</ele>
        <time>2011-04-23T08:57:14Z</time>
      </trkpt>
      <trkpt lat="45.01355" lon="5.50563">
        <ele>1238.32</ele>
        <time>2011-04-23T08:57:26Z</time>
      </trkpt>
      <trkpt lat="45.01352" lon="5.50561">
        <ele>1238.8</ele>
        <time>2011-04-23T08:57:28Z</time>
      </trkpt>
      <trkpt lat="45.01346" lon="5.50558">
        <ele>1240.24</ele>
        <time>2011-04-23T08:57:33Z</time>
      </trkpt>
      <trkpt lat="45.01333" lon="5.5055">
        <ele>1243.6</ele>
        <time>2011-04-23T08:57:45Z</time>
      </trkpt>
      <trkpt lat="45.01317" lon="5.50542">
        <ele>1246.97</ele>
        <time>2011-04-23T08:57:59Z</time>
      </trkpt>
      <trkpt lat="45.01313" lon="5.50539">
        <ele>1247.93</ele>
        <time>2011-04-23T08:58:03Z</time>
      </trkpt>
      <trkpt lat="45.01296" lon="5.50532">
        <ele>1250.33</ele>
        <time>2011-04-23T08:58:19Z</time>
      </trkpt>
      <trkpt lat="45.01287" lon="5.50528">
        <ele>1251.29</ele>
        <time>2011-04-23T08:58:27Z</time>
      </trkpt>
      <trkpt lat="45.01271" lon="5.50521">
        <ele>1251.77</ele>
        <time>2011-04-23T08:58:39Z</time>
      </trkpt>
      <trkpt lat="45.01267" lon="5.50519">
        <ele>1252.25</ele>
        <time>2011-04-23T08:58:42Z</time>
      </trkpt>
      <trkpt lat="45.01261" lon="5.50518">
        <ele>1253.22</ele>
        <time>2011-04-23T08:58:46Z</time>
      </trkpt>
      <trkpt lat="45.01252" lon="5.50513">
        <ele>1254.18</ele>
        <time>2011-04-23T08:58:54Z</time>
      </trkpt>
      <trkpt lat="45.01242" lon="5.50506">
        <ele>1255.14</ele>
        <time>2011-04-23T08:59:03Z</time>
      </trkpt>
      <trkpt lat="45.01238" lon="5.50502">
        <ele>1255.62</ele>
        <time>2011-04-23T08:59:07Z</time>
      </trkpt>
      <trkpt lat="45.01234" lon="5.50499">
        <ele>1256.1</ele>
        <time>2011-04-23T08:59:11Z</time>
      </trkpt>
      <trkpt lat="45.01232" lon="5.50495">
        <ele>1257.54</ele>
        <time>2011-04-23T08:59:14Z</time>
      </trkpt>
      <trkpt lat="45.01216" lon="5.50486">
        <ele>1260.43</ele>
        <time>2011-04-23T08:59:26Z</time>
      </trkpt>
      <trkpt lat="45.01214" lon="5.50485">
        <ele>1260.43</ele>
        <time>2011-04-23T08:59:28Z</time>
      </trkpt>
      <trkpt lat="45.01196" lon="5.50474">
        <ele>1262.83</ele>
        <time>2011-04-23T08:59:43Z</time>
      </trkpt>
      <trkpt lat="45.01186" lon="5.50468">
        <ele>1264.27</ele>
        <time>2011-04-23T08:59:51Z</time>
      </trkpt>
      <trkpt lat="45.01184" lon="5.50465">
        <ele>1264.75</ele>
        <time>2011-04-23T08:59:53Z</time>
      </trkpt>
      <trkpt lat="45.01182" lon="5.50463">
        <ele>1265.23</ele>
        <time>2011-04-23T08:59:56Z</time>
      </trkpt>
      <trkpt lat="45.01174" lon="5.50461">
        <ele>1266.19</ele>
        <time>2011-04-23T09:00:02Z</time>
      </trkpt>
      <trkpt lat="45.01172" lon="5.5046">
        <ele>1266.67</ele>
        <time>2011-04-23T09:00:04Z</time>
      </trkpt>
      <trkpt lat="45.01167" lon="5.50459">
        <ele>1267.16</ele>
        <time>2011-04-23T09:00:09Z</time>
      </trkpt>
      <trkpt lat="45.01159" lon="5.50454">
        <ele>1268.12</ele>
        <time>2011-04-23T09:00:15Z</time>
      </trkpt>
      <trkpt lat="45.01157" lon="5.50449">
        <ele>1268.6</ele>
        <time>2011-04-23T09:00:18Z</time>
      </trkpt>
      <trkpt lat="45.01156" lon="5.50448">
        <ele>1269.56</ele>
        <time>2011-04-23T09:00:20Z</time>
      </trkpt>
      <trkpt lat="45.01139" lon="5.50439">
        <ele>1272.44</ele>
        <time>2011-04-23T09:00:35Z</time>
      </trkpt>
      <trkpt lat="45.01134" lon="5.50435">
        <ele>1273.88</ele>
        <time>2011-04-23T09:00:39Z</time>
      </trkpt>
      <trkpt lat="45.01124" lon="5.50429">
        <ele>1275.33</ele>
        <time>2011-04-23T09:00:47Z</time>
      </trkpt>
      <trkpt lat="45.0112" lon="5.50427">
        <ele>1275.81</ele>
        <time>2011-04-23T09:00:50Z</time>
      </trkpt>
      <trkpt lat="45.01107" lon="5.50424">
        <ele>1276.29</ele>
        <time>2011-04-23T09:00:59Z</time>
      </trkpt>
      <trkpt lat="45.01085" lon="5.50416">
        <ele>1277.25</ele>
        <time>2011-04-23T09:01:13Z</time>
      </trkpt>
      <trkpt lat="45.01077" lon="5.50412">
        <ele>1277.73</ele>
        <time>2011-04-23T09:01:18Z</time>
      </trkpt>
      <trkpt lat="45.01068" lon="5.50407">
        <ele>1277.73</ele>
        <time>2011-04-23T09:01:24Z</time>
      </trkpt>
      <trkpt lat="45.01052" lon="5.50404">
        <ele>1278.69</ele>
        <time>2011-04-23T09:01:36Z</time>
      </trkpt>
      <trkpt lat="45.01038" lon="5.50398">
        <ele>1278.69</ele>
        <time>2011-04-23T09:01:45Z</time>
      </trkpt>
      <trkpt lat="45.01021" lon="5.50393">
        <ele>1279.17</ele>
        <time>2011-04-23T09:01:55Z</time>
      </trkpt>
      <trkpt lat="45.00997" lon="5.5039">
        <ele>1279.17</ele>
        <time>2011-04-23T09:02:06Z</time>
      </trkpt>
      <trkpt lat="45.00973" lon="5.50367">
        <ele>1278.69</ele>
        <time>2011-04-23T09:02:18Z</time>
      </trkpt>
      <trkpt lat="45.00954" lon="5.50343">
        <ele>1279.65</ele>
        <time>2011-04-23T09:02:32Z</time>
      </trkpt>
      <trkpt lat="45.00936" lon="5.50336">
        <ele>1283.02</ele>
        <time>2011-04-23T09:02:46Z</time>
      </trkpt>
      <trkpt lat="45.00927" lon="5.50336">
        <ele>1284.46</ele>
        <time>2011-04-23T09:02:55Z</time>
      </trkpt>
      <trkpt lat="45.00912" lon="5.50333">
        <ele>1286.86</ele>
        <time>2011-04-23T09:03:07Z</time>
      </trkpt>
      <trkpt lat="45.00894" lon="5.50322">
        <ele>1288.78</ele>
        <time>2011-04-23T09:03:19Z</time>
      </trkpt>
      <trkpt lat="45.00889" lon="5.50313">
        <ele>1289.75</ele>
        <time>2011-04-23T09:03:26Z</time>
      </trkpt>
      <trkpt lat="45.00883" lon="5.50304">
        <ele>1290.71</ele>
        <time>2011-04-23T09:03:32Z</time>
      </trkpt>
      <trkpt lat="45.0088" lon="5.50303">
        <ele>1291.19</ele>
        <time>2011-04-23T09:03:34Z</time>
      </trkpt>
      <trkpt lat="45.00875" lon="5.50293">
        <ele>1292.15</ele>
        <time>2011-04-23T09:03:41Z</time>
      </trkpt>
      <trkpt lat="45.00872" lon="5.50284">
        <ele>1293.11</ele>
        <time>2011-04-23T09:03:46Z</time>
      </trkpt>
      <trkpt lat="45.00873" lon="5.50279">
        <ele>1293.59</ele>
        <time>2011-04-23T09:03:49Z</time>
      </trkpt>
      <trkpt lat="45.00872" lon="5.50275">
        <ele>1294.07</ele>
        <time>2011-04-23T09:03:51Z</time>
      </trkpt>
      <trkpt lat="45.00862" lon="5.50255">
        <ele>1296.48</ele>
        <time>2011-04-23T09:04:03Z</time>
      </trkpt>
      <trkpt lat="45.0086" lon="5.50244">
        <ele>1298.4</ele>
        <time>2011-04-23T09:04:08Z</time>
      </trkpt>
      <trkpt lat="45.00855" lon="5.50226">
        <ele>1300.8</ele>
        <time>2011-04-23T09:04:18Z</time>
      </trkpt>
      <trkpt lat="45.00853" lon="5.50218">
        <ele>1302.72</ele>
        <time>2011-04-23T09:04:24Z</time>
      </trkpt>
      <trkpt lat="45.00852" lon="5.50214">
        <ele>1303.2</ele>
        <time>2011-04-23T09:04:26Z</time>
      </trkpt>
      <trkpt lat="45.0086" lon="5.5019">
        <ele>1306.09</ele>
        <time>2011-04-23T09:04:38Z</time>
      </trkpt>
      <trkpt lat="45.0086" lon="5.50186">
        <ele>1306.57</ele>
        <time>2011-04-23T09:04:40Z</time>
      </trkpt>
      <trkpt lat="45.00862" lon="5.50173">
        <ele>1308.01</ele>
        <time>2011-04-23T09:04:48Z</time>
      </trkpt>
      <trkpt lat="45.00863" lon="5.50166">
        <ele>1308.49</ele>
        <time>2011-04-23T09:04:52Z</time>
      </trkpt>
      <trkpt lat="45.00869" lon="5.50154">
        <ele>1309.93</ele>
        <time>2011-04-23T09:05:03Z</time>
      </trkpt>
      <trkpt lat="45.00877" lon="5.50143">
        <ele>1311.38</ele>
        <time>2011-04-23T09:05:14Z</time>
      </trkpt>
      <trkpt lat="45.00885" lon="5.50128">
        <ele>1312.34</ele>
        <time>2011-04-23T09:05:25Z</time>
      </trkpt>
      <trkpt lat="45.00895" lon="5.50117">
        <ele>1312.82</ele>
        <time>2011-04-23T09:05:33Z</time>
      </trkpt>
      <trkpt lat="45.009" lon="5.50109">
        <ele>1312.82</ele>
        <time>2011-04-23T09:05:37Z</time>
      </trkpt>
      <trkpt lat="45.00901" lon="5.50103">
        <ele>1312.34</ele>
        <time>2011-04-23T09:05:40Z</time>
      </trkpt>
      <trkpt lat="45.00903" lon="5.50099">
        <ele>1312.34</ele>
        <time>2011-04-23T09:05:42Z</time>
      </trkpt>
      <trkpt lat="45.00906" lon="5.50088">
        <ele>1312.34</ele>
        <time>2011-04-23T09:05:47Z</time>
      </trkpt>
      <trkpt lat="45.00907" lon="5.50081">
        <ele>1312.34</ele>
        <time>2011-04-23T09:05:50Z</time>
      </trkpt>
      <trkpt lat="45.00908" lon="5.50068">
        <ele>1313.3</ele>
        <time>2011-04-23T09:05:58Z</time>
      </trkpt>
      <trkpt lat="45.00909" lon="5.50047">
        <ele>1315.7</ele>
        <time>2011-04-23T09:06:09Z</time>
      </trkpt>
      <trkpt lat="45.0091" lon="5.50045">
        <ele>1316.18</ele>
        <time>2011-04-23T09:06:10Z</time>
      </trkpt>
      <trkpt lat="45.00911" lon="5.50036">
        <ele>1316.66</ele>
        <time>2011-04-23T09:06:14Z</time>
      </trkpt>
      <trkpt lat="45.00917" lon="5.50015">
        <ele>1320.03</ele>
        <time>2011-04-23T09:06:25Z</time>
      </trkpt>
      <trkpt lat="45.00924" lon="5.49999">
        <ele>1321.47</ele>
        <time>2011-04-23T09:06:34Z</time>
      </trkpt>
      <trkpt lat="45.00922" lon="5.49985">
        <ele>1322.91</ele>
        <time>2011-04-23T09:06:41Z</time>
      </trkpt>
      <trkpt lat="45.00925" lon="5.49978">
        <ele>1323.39</ele>
        <time>2011-04-23T09:06:45Z</time>
      </trkpt>
      <trkpt lat="45.00926" lon="5.49976">
        <ele>1324.35</ele>
        <time>2011-04-23T09:06:47Z</time>
      </trkpt>
      <trkpt lat="45.00932" lon="5.49964">
        <ele>1326.28</ele>
        <time>2011-04-23T09:06:53Z</time>
      </trkpt>
      <trkpt lat="45.00931" lon="5.49961">
        <ele>1326.76</ele>
        <time>2011-04-23T09:06:55Z</time>
      </trkpt>
      <trkpt lat="45.00929" lon="5.4995">
        <ele>1328.2</ele>
        <time>2011-04-23T09:07:01Z</time>
      </trkpt>
      <trkpt lat="45.00929" lon="5.49937">
        <ele>1329.16</ele>
        <time>2011-04-23T09:07:09Z</time>
      </trkpt>
      <trkpt lat="45.00929" lon="5.49934">
        <ele>1329.64</ele>
        <time>2011-04-23T09:07:11Z</time>
      </trkpt>
      <trkpt lat="45.00927" lon="5.49927">
        <ele>1330.6</ele>
        <time>2011-04-23T09:07:17Z</time>
      </trkpt>
      <trkpt lat="45.00928" lon="5.49922">
        <ele>1331.08</ele>
        <time>2011-04-23T09:07:20Z</time>
      </trkpt>
      <trkpt lat="45.00929" lon="5.49912">
        <ele>1333.01</ele>
        <time>2011-04-23T09:07:27Z</time>
      </trkpt>
      <trkpt lat="45.00926" lon="5.49898">
        <ele>1334.93</ele>
        <time>2011-04-23T09:07:38Z</time>
      </trkpt>
      <trkpt lat="45.00926" lon="5.49879">
        <ele>1335.89</ele>
        <time>2011-04-23T09:07:51Z</time>
      </trkpt>
      <trkpt lat="45.00926" lon="5.49877">
        <ele>1336.37</ele>
        <time>2011-04-23T09:07:53Z</time>
      </trkpt>
      <trkpt lat="45.00927" lon="5.49864">
        <ele>1336.85</ele>
        <time>2011-04-23T09:08:01Z</time>
      </trkpt>
      <trkpt lat="45.00929" lon="5.49858">
        <ele>1337.33</ele>
        <time>2011-04-23T09:08:05Z</time>
      </trkpt>
      <trkpt lat="45.00924" lon="5.49835">
        <ele>1338.77</ele>
        <time>2011-04-23T09:08:18Z</time>
      </trkpt>
      <trkpt lat="45.00913" lon="5.49828">
        <ele>1340.7</ele>
        <time>2011-04-23T09:08:28Z</time>
      </trkpt>
      <trkpt lat="45.009" lon="5.49825">
        <ele>1342.14</ele>
        <time>2011-04-23T09:08:38Z</time>
      </trkpt>
      <trkpt lat="45.00886" lon="5.49814">
        <ele>1343.58</ele>
        <time>2011-04-23T09:08:50Z</time>
      </trkpt>
      <trkpt lat="45.00881" lon="5.49807">
        <ele>1344.06</ele>
        <time>2011-04-23T09:08:55Z</time>
      </trkpt>
      <trkpt lat="45.00881" lon="5.49798">
        <ele>1345.02</ele>
        <time>2011-04-23T09:08:59Z</time>
      </trkpt>
      <trkpt lat="45.00897" lon="5.49775">
        <ele>1343.58</ele>
        <time>2011-04-23T09:09:08Z</time>
      </trkpt>
      <trkpt lat="45.009" lon="5.4977">
        <ele>1343.1</ele>
        <time>2011-04-23T09:09:09Z</time>
      </trkpt>
      <trkpt lat="45.00903" lon="5.49765">
        <ele>1342.62</ele>
        <time>2011-04-23T09:09:10Z</time>
      </trkpt>
      <trkpt lat="45.00907" lon="5.49746">
        <ele>1343.1</ele>
        <time>2011-04-23T09:09:14Z</time>
      </trkpt>
      <trkpt lat="45.00909" lon="5.4974">
        <ele>1343.1</ele>
        <time>2011-04-23T09:09:16Z</time>
      </trkpt>
      <trkpt lat="45.00909" lon="5.49735">
        <ele>1343.58</ele>
        <time>2011-04-23T09:09:17Z</time>
      </trkpt>
      <trkpt lat="45.00909" lon="5.49732">
        <ele>1343.58</ele>
        <time>2011-04-23T09:09:18Z</time>
      </trkpt>
      <trkpt lat="45.00917" lon="5.49697">
        <ele>1345.98</ele>
        <time>2011-04-23T09:09:33Z</time>
      </trkpt>
      <trkpt lat="45.00922" lon="5.49693">
        <ele>1346.46</ele>
        <time>2011-04-23T09:09:37Z</time>
      </trkpt>
      <trkpt lat="45.00923" lon="5.49692">
        <ele>1346.46</ele>
        <time>2011-04-23T09:09:38Z</time>
      </trkpt>
      <trkpt lat="45.00923" lon="5.49687">
        <ele>1346.46</ele>
        <time>2011-04-23T09:09:54Z</time>
      </trkpt>
      <trkpt lat="45.00923" lon="5.49687">
        <ele>1346.46</ele>
        <time>2011-04-23T09:10:11Z</time>
      </trkpt>
      <trkpt lat="45.00921" lon="5.49688">
        <ele>1347.43</ele>
        <time>2011-04-23T09:12:00Z</time>
      </trkpt>
      <trkpt lat="45.00917" lon="5.49688">
        <ele>1346.94</ele>
        <time>2011-04-23T09:12:03Z</time>
      </trkpt>
      <trkpt lat="45.00916" lon="5.49688">
        <ele>1347.43</ele>
        <time>2011-04-23T09:12:04Z</time>
      </trkpt>
      <trkpt lat="45.00914" lon="5.49687">
        <ele>1347.43</ele>
        <time>2011-04-23T09:12:05Z</time>
      </trkpt>
      <trkpt lat="45.00913" lon="5.49687">
        <ele>1347.91</ele>
        <time>2011-04-23T09:12:06Z</time>
      </trkpt>
      <trkpt lat="45.00911" lon="5.49687">
        <ele>1347.91</ele>
        <time>2011-04-23T09:12:07Z</time>
      </trkpt>
      <trkpt lat="45.0091" lon="5.49686">
        <ele>1347.91</ele>
        <time>2011-04-23T09:12:08Z</time>
      </trkpt>
      <trkpt lat="45.00909" lon="5.49686">
        <ele>1347.91</ele>
        <time>2011-04-23T09:12:09Z</time>
      </trkpt>
      <trkpt lat="45.00907" lon="5.49684">
        <ele>1347.91</ele>
        <time>2011-04-23T09:12:10Z</time>
      </trkpt>
      <trkpt lat="45.00906" lon="5.49683">
        <ele>1348.39</ele>
        <time>2011-04-23T09:12:11Z</time>
      </trkpt>
      <trkpt lat="45.00905" lon="5.49681">
        <ele>1348.39</ele>
        <time>2011-04-23T09:12:12Z</time>
      </trkpt>
      <trkpt lat="45.00903" lon="5.4968">
        <ele>1348.87</ele>
        <time>2011-04-23T09:12:13Z</time>
      </trkpt>
      <trkpt lat="45.00901" lon="5.4968">
        <ele>1348.87</ele>
        <time>2011-04-23T09:12:14Z</time>
      </trkpt>
      <trkpt lat="45.009" lon="5.4968">
        <ele>1348.87</ele>
        <time>2011-04-23T09:12:15Z</time>
      </trkpt>
      <trkpt lat="45.00898" lon="5.4968">
        <ele>1349.35</ele>
        <time>2011-04-23T09:12:16Z</time>
      </trkpt>
      <trkpt lat="45.00897" lon="5.49679">
        <ele>1348.87</ele>
        <time>2011-04-23T09:12:17Z</time>
      </trkpt>
      <trkpt lat="45.00879" lon="5.49672">
        <ele>1351.27</ele>
        <time>2011-04-23T09:12:29Z</time>
      </trkpt>
      <trkpt lat="45.00874" lon="5.49674">
        <ele>1351.75</ele>
        <time>2011-04-23T09:12:34Z</time>
      </trkpt>
      <trkpt lat="45.00872" lon="5.49672">
        <ele>1352.71</ele>
        <time>2011-04-23T09:12:35Z</time>
      </trkpt>
      <trkpt lat="45.00872" lon="5.49671">
        <ele>1352.71</ele>
        <time>2011-04-23T09:12:36Z</time>
      </trkpt>
      <trkpt lat="45.00871" lon="5.4967">
        <ele>1352.71</ele>
        <time>2011-04-23T09:12:37Z</time>
      </trkpt>
      <trkpt lat="45.00869" lon="5.49669">
        <ele>1352.23</ele>
        <time>2011-04-23T09:12:38Z</time>
      </trkpt>
      <trkpt lat="45.00868" lon="5.49669">
        <ele>1353.19</ele>
        <time>2011-04-23T09:12:39Z</time>
      </trkpt>
      <trkpt lat="45.00867" lon="5.49669">
        <ele>1352.71</ele>
        <time>2011-04-23T09:12:40Z</time>
      </trkpt>
      <trkpt lat="45.0085" lon="5.49661">
        <ele>1355.12</ele>
        <time>2011-04-23T09:12:53Z</time>
      </trkpt>
      <trkpt lat="45.00835" lon="5.49647">
        <ele>1356.56</ele>
        <time>2011-04-23T09:13:07Z</time>
      </trkpt>
      <trkpt lat="45.00821" lon="5.49632">
        <ele>1357.52</ele>
        <time>2011-04-23T09:13:20Z</time>
      </trkpt>
      <trkpt lat="45.0082" lon="5.49631">
        <ele>1357.52</ele>
        <time>2011-04-23T09:13:21Z</time>
      </trkpt>
      <trkpt lat="45.00819" lon="5.49629">
        <ele>1358</ele>
        <time>2011-04-23T09:13:22Z</time>
      </trkpt>
      <trkpt lat="45.00809" lon="5.496">
        <ele>1360.4</ele>
        <time>2011-04-23T09:13:38Z</time>
      </trkpt>
      <trkpt lat="45.00798" lon="5.49576">
        <ele>1362.81</ele>
        <time>2011-04-23T09:13:53Z</time>
      </trkpt>
      <trkpt lat="45.00797" lon="5.49575">
        <ele>1363.29</ele>
        <time>2011-04-23T09:13:54Z</time>
      </trkpt>
      <trkpt lat="45.00795" lon="5.49574">
        <ele>1363.77</ele>
        <time>2011-04-23T09:13:55Z</time>
      </trkpt>
      <trkpt lat="45.00794" lon="5.49573">
        <ele>1363.77</ele>
        <time>2011-04-23T09:13:56Z</time>
      </trkpt>
      <trkpt lat="45.00793" lon="5.49572">
        <ele>1363.77</ele>
        <time>2011-04-23T09:13:57Z</time>
      </trkpt>
      <trkpt lat="45.00778" lon="5.49558">
        <ele>1366.17</ele>
        <time>2011-04-23T09:14:10Z</time>
      </trkpt>
      <trkpt lat="45.00757" lon="5.49548">
        <ele>1368.57</ele>
        <time>2011-04-23T09:14:27Z</time>
      </trkpt>
      <trkpt lat="45.00752" lon="5.49544">
        <ele>1369.05</ele>
        <time>2011-04-23T09:14:31Z</time>
      </trkpt>
      <trkpt lat="45.00751" lon="5.49542">
        <ele>1369.54</ele>
        <time>2011-04-23T09:14:32Z</time>
      </trkpt>
      <trkpt lat="45.0075" lon="5.49541">
        <ele>1369.54</ele>
        <time>2011-04-23T09:14:33Z</time>
      </trkpt>
      <trkpt lat="45.00749" lon="5.4954">
        <ele>1369.54</ele>
        <time>2011-04-23T09:14:34Z</time>
      </trkpt>
      <trkpt lat="45.00749" lon="5.49538">
        <ele>1369.54</ele>
        <time>2011-04-23T09:14:35Z</time>
      </trkpt>
      <trkpt lat="45.00748" lon="5.49536">
        <ele>1369.54</ele>
        <time>2011-04-23T09:14:36Z</time>
      </trkpt>
      <trkpt lat="45.00748" lon="5.49534">
        <ele>1370.5</ele>
        <time>2011-04-23T09:14:37Z</time>
      </trkpt>
      <trkpt lat="45.00747" lon="5.49528">
        <ele>1370.02</ele>
        <time>2011-04-23T09:14:40Z</time>
      </trkpt>
      <trkpt lat="45.00747" lon="5.49526">
        <ele>1370.5</ele>
        <time>2011-04-23T09:14:41Z</time>
      </trkpt>
      <trkpt lat="45.00748" lon="5.49524">
        <ele>1370.5</ele>
        <time>2011-04-23T09:14:43Z</time>
      </trkpt>
      <trkpt lat="45.00763" lon="5.49506">
        <ele>1371.94</ele>
        <time>2011-04-23T09:14:57Z</time>
      </trkpt>
      <trkpt lat="45.00766" lon="5.49503">
        <ele>1372.9</ele>
        <time>2011-04-23T09:15:00Z</time>
      </trkpt>
      <trkpt lat="45.00767" lon="5.49502">
        <ele>1372.9</ele>
        <time>2011-04-23T09:15:01Z</time>
      </trkpt>
      <trkpt lat="45.00769" lon="5.49501">
        <ele>1373.38</ele>
        <time>2011-04-23T09:15:02Z</time>
      </trkpt>
      <trkpt lat="45.0077" lon="5.495">
        <ele>1373.38</ele>
        <time>2011-04-23T09:15:03Z</time>
      </trkpt>
      <trkpt lat="45.00771" lon="5.49498">
        <ele>1373.38</ele>
        <time>2011-04-23T09:15:04Z</time>
      </trkpt>
      <trkpt lat="45.00773" lon="5.49497">
        <ele>1373.38</ele>
        <time>2011-04-23T09:15:05Z</time>
      </trkpt>
      <trkpt lat="45.00774" lon="5.49496">
        <ele>1373.86</ele>
        <time>2011-04-23T09:15:06Z</time>
      </trkpt>
      <trkpt lat="45.00775" lon="5.49495">
        <ele>1374.34</ele>
        <time>2011-04-23T09:15:07Z</time>
      </trkpt>
      <trkpt lat="45.00776" lon="5.49494">
        <ele>1374.34</ele>
        <time>2011-04-23T09:15:08Z</time>
      </trkpt>
      <trkpt lat="45.00778" lon="5.49493">
        <ele>1374.34</ele>
        <time>2011-04-23T09:15:09Z</time>
      </trkpt>
      <trkpt lat="45.00779" lon="5.49492">
        <ele>1374.82</ele>
        <time>2011-04-23T09:15:10Z</time>
      </trkpt>
      <trkpt lat="45.0078" lon="5.4949">
        <ele>1375.3</ele>
        <time>2011-04-23T09:15:11Z</time>
      </trkpt>
      <trkpt lat="45.00782" lon="5.49489">
        <ele>1375.3</ele>
        <time>2011-04-23T09:15:12Z</time>
      </trkpt>
      <trkpt lat="45.00783" lon="5.49487">
        <ele>1375.3</ele>
        <time>2011-04-23T09:15:13Z</time>
      </trkpt>
      <trkpt lat="45.00784" lon="5.49486">
        <ele>1375.3</ele>
        <time>2011-04-23T09:15:14Z</time>
      </trkpt>
      <trkpt lat="45.00786" lon="5.49484">
        <ele>1375.3</ele>
        <time>2011-04-23T09:15:15Z</time>
      </trkpt>
      <trkpt lat="45.00799" lon="5.49463">
        <ele>1376.26</ele>
        <time>2011-04-23T09:15:30Z</time>
      </trkpt>
      <trkpt lat="45.0081" lon="5.49442">
        <ele>1375.78</ele>
        <time>2011-04-23T09:15:42Z</time>
      </trkpt>
      <trkpt lat="45.00824" lon="5.49417">
        <ele>1376.75</ele>
        <time>2011-04-23T09:15:53Z</time>
      </trkpt>
      <trkpt lat="45.00826" lon="5.49413">
        <ele>1376.75</ele>
        <time>2011-04-23T09:15:55Z</time>
      </trkpt>
      <trkpt lat="45.00835" lon="5.49393">
        <ele>1377.71</ele>
        <time>2011-04-23T09:16:06Z</time>
      </trkpt>
      <trkpt lat="45.00846" lon="5.49369">
        <ele>1378.67</ele>
        <time>2011-04-23T09:16:19Z</time>
      </trkpt>
      <trkpt lat="45.00857" lon="5.49352">
        <ele>1378.67</ele>
        <time>2011-04-23T09:16:29Z</time>
      </trkpt>
      <trkpt lat="45.00859" lon="5.4935">
        <ele>1378.67</ele>
        <time>2011-04-23T09:16:30Z</time>
      </trkpt>
      <trkpt lat="45.0086" lon="5.49349">
        <ele>1379.15</ele>
        <time>2011-04-23T09:16:31Z</time>
      </trkpt>
      <trkpt lat="45.00861" lon="5.49347">
        <ele>1379.15</ele>
        <time>2011-04-23T09:16:32Z</time>
      </trkpt>
      <trkpt lat="45.00862" lon="5.49345">
        <ele>1379.15</ele>
        <time>2011-04-23T09:16:33Z</time>
      </trkpt>
      <trkpt lat="45.00874" lon="5.49326">
        <ele>1381.07</ele>
        <time>2011-04-23T09:16:46Z</time>
      </trkpt>
      <trkpt lat="45.00879" lon="5.49322">
        <ele>1382.51</ele>
        <time>2011-04-23T09:16:50Z</time>
      </trkpt>
      <trkpt lat="45.0088" lon="5.49321">
        <ele>1382.51</ele>
        <time>2011-04-23T09:16:51Z</time>
      </trkpt>
      <trkpt lat="45.00884" lon="5.49316">
        <ele>1382.51</ele>
        <time>2011-04-23T09:16:55Z</time>
      </trkpt>
      <trkpt lat="45.00888" lon="5.49314">
        <ele>1382.99</ele>
        <time>2011-04-23T09:16:58Z</time>
      </trkpt>
      <trkpt lat="45.0089" lon="5.49313">
        <ele>1383.47</ele>
        <time>2011-04-23T09:16:59Z</time>
      </trkpt>
      <trkpt lat="45.00891" lon="5.49312">
        <ele>1383.47</ele>
        <time>2011-04-23T09:17:00Z</time>
      </trkpt>
      <trkpt lat="45.00893" lon="5.4931">
        <ele>1383.96</ele>
        <time>2011-04-23T09:17:01Z</time>
      </trkpt>
      <trkpt lat="45.00895" lon="5.49309">
        <ele>1383.96</ele>
        <time>2011-04-23T09:17:02Z</time>
      </trkpt>
      <trkpt lat="45.00896" lon="5.49308">
        <ele>1383.96</ele>
        <time>2011-04-23T09:17:03Z</time>
      </trkpt>
      <trkpt lat="45.00912" lon="5.49298">
        <ele>1385.88</ele>
        <time>2011-04-23T09:17:14Z</time>
      </trkpt>
      <trkpt lat="45.00924" lon="5.49292">
        <ele>1387.32</ele>
        <time>2011-04-23T09:17:24Z</time>
      </trkpt>
      <trkpt lat="45.00938" lon="5.4929">
        <ele>1388.76</ele>
        <time>2011-04-23T09:17:35Z</time>
      </trkpt>
      <trkpt lat="45.00947" lon="5.49289">
        <ele>1390.2</ele>
        <time>2011-04-23T09:17:42Z</time>
      </trkpt>
      <trkpt lat="45.00949" lon="5.49289">
        <ele>1390.68</ele>
        <time>2011-04-23T09:17:43Z</time>
      </trkpt>
      <trkpt lat="45.0095" lon="5.49289">
        <ele>1390.2</ele>
        <time>2011-04-23T09:17:44Z</time>
      </trkpt>
      <trkpt lat="45.00955" lon="5.49289">
        <ele>1391.65</ele>
        <time>2011-04-23T09:17:48Z</time>
      </trkpt>
      <trkpt lat="45.00956" lon="5.49289">
        <ele>1391.17</ele>
        <time>2011-04-23T09:17:49Z</time>
      </trkpt>
      <trkpt lat="45.00957" lon="5.49289">
        <ele>1391.65</ele>
        <time>2011-04-23T09:17:50Z</time>
      </trkpt>
      <trkpt lat="45.00958" lon="5.49289">
        <ele>1392.13</ele>
        <time>2011-04-23T09:17:51Z</time>
      </trkpt>
      <trkpt lat="45.0096" lon="5.4929">
        <ele>1392.13</ele>
        <time>2011-04-23T09:17:52Z</time>
      </trkpt>
      <trkpt lat="45.00961" lon="5.4929">
        <ele>1392.13</ele>
        <time>2011-04-23T09:17:53Z</time>
      </trkpt>
      <trkpt lat="45.00964" lon="5.4929">
        <ele>1392.61</ele>
        <time>2011-04-23T09:17:56Z</time>
      </trkpt>
      <trkpt lat="45.00965" lon="5.49289">
        <ele>1393.57</ele>
        <time>2011-04-23T09:17:57Z</time>
      </trkpt>
      <trkpt lat="45.00972" lon="5.49286">
        <ele>1394.05</ele>
        <time>2011-04-23T09:18:02Z</time>
      </trkpt>
      <trkpt lat="45.00973" lon="5.49286">
        <ele>1394.53</ele>
        <time>2011-04-23T09:18:03Z</time>
      </trkpt>
      <trkpt lat="45.00974" lon="5.49286">
        <ele>1394.53</ele>
        <time>2011-04-23T09:18:04Z</time>
      </trkpt>
      <trkpt lat="45.00976" lon="5.49286">
        <ele>1394.53</ele>
        <time>2011-04-23T09:18:05Z</time>
      </trkpt>
      <trkpt lat="45.00977" lon="5.49284">
        <ele>1394.53</ele>
        <time>2011-04-23T09:18:06Z</time>
      </trkpt>
      <trkpt lat="45.00978" lon="5.49284">
        <ele>1395.49</ele>
        <time>2011-04-23T09:18:07Z</time>
      </trkpt>
      <trkpt lat="45.0098" lon="5.49283">
        <ele>1395.01</ele>
        <time>2011-04-23T09:18:08Z</time>
      </trkpt>
      <trkpt lat="45.00994" lon="5.49275">
        <ele>1396.45</ele>
        <time>2011-04-23T09:18:20Z</time>
      </trkpt>
      <trkpt lat="45.01002" lon="5.4927">
        <ele>1397.89</ele>
        <time>2011-04-23T09:18:26Z</time>
      </trkpt>
      <trkpt lat="45.01003" lon="5.49268">
        <ele>1397.89</ele>
        <time>2011-04-23T09:18:27Z</time>
      </trkpt>
      <trkpt lat="45.01004" lon="5.49267">
        <ele>1398.37</ele>
        <time>2011-04-23T09:18:28Z</time>
      </trkpt>
      <trkpt lat="45.01005" lon="5.49266">
        <ele>1398.37</ele>
        <time>2011-04-23T09:18:29Z</time>
      </trkpt>
      <trkpt lat="45.01006" lon="5.49265">
        <ele>1398.86</ele>
        <time>2011-04-23T09:18:30Z</time>
      </trkpt>
      <trkpt lat="45.01008" lon="5.49264">
        <ele>1398.86</ele>
        <time>2011-04-23T09:18:32Z</time>
      </trkpt>
      <trkpt lat="45.01009" lon="5.49263">
        <ele>1398.37</ele>
        <time>2011-04-23T09:18:33Z</time>
      </trkpt>
      <trkpt lat="45.01009" lon="5.49261">
        <ele>1399.34</ele>
        <time>2011-04-23T09:18:34Z</time>
      </trkpt>
      <trkpt lat="45.0101" lon="5.4926">
        <ele>1399.34</ele>
        <time>2011-04-23T09:18:35Z</time>
      </trkpt>
      <trkpt lat="45.01011" lon="5.49259">
        <ele>1398.86</ele>
        <time>2011-04-23T09:18:36Z</time>
      </trkpt>
      <trkpt lat="45.01012" lon="5.49258">
        <ele>1399.82</ele>
        <time>2011-04-23T09:18:37Z</time>
      </trkpt>
      <trkpt lat="45.01013" lon="5.49256">
        <ele>1399.34</ele>
        <time>2011-04-23T09:18:38Z</time>
      </trkpt>
      <trkpt lat="45.01013" lon="5.49255">
        <ele>1399.82</ele>
        <time>2011-04-23T09:18:39Z</time>
      </trkpt>
      <trkpt lat="45.01014" lon="5.49253">
        <ele>1399.82</ele>
        <time>2011-04-23T09:18:40Z</time>
      </trkpt>
      <trkpt lat="45.01022" lon="5.49234">
        <ele>1401.26</ele>
        <time>2011-04-23T09:18:51Z</time>
      </trkpt>
      <trkpt lat="45.01023" lon="5.49232">
        <ele>1401.26</ele>
        <time>2011-04-23T09:18:52Z</time>
      </trkpt>
      <trkpt lat="45.01023" lon="5.4923">
        <ele>1401.74</ele>
        <time>2011-04-23T09:18:53Z</time>
      </trkpt>
      <trkpt lat="45.01024" lon="5.49228">
        <ele>1401.74</ele>
        <time>2011-04-23T09:18:54Z</time>
      </trkpt>
      <trkpt lat="45.01025" lon="5.49226">
        <ele>1402.22</ele>
        <time>2011-04-23T09:18:55Z</time>
      </trkpt>
      <trkpt lat="45.01025" lon="5.49224">
        <ele>1401.74</ele>
        <time>2011-04-23T09:18:56Z</time>
      </trkpt>
      <trkpt lat="45.01025" lon="5.49222">
        <ele>1402.22</ele>
        <time>2011-04-23T09:18:57Z</time>
      </trkpt>
      <trkpt lat="45.01026" lon="5.49221">
        <ele>1401.74</ele>
        <time>2011-04-23T09:18:58Z</time>
      </trkpt>
      <trkpt lat="45.01026" lon="5.49219">
        <ele>1402.22</ele>
        <time>2011-04-23T09:18:59Z</time>
      </trkpt>
      <trkpt lat="45.01026" lon="5.49217">
        <ele>1402.7</ele>
        <time>2011-04-23T09:19:00Z</time>
      </trkpt>
      <trkpt lat="45.01035" lon="5.4919">
        <ele>1404.62</ele>
        <time>2011-04-23T09:19:15Z</time>
      </trkpt>
      <trkpt lat="45.01041" lon="5.49171">
        <ele>1407.03</ele>
        <time>2011-04-23T09:19:28Z</time>
      </trkpt>
      <trkpt lat="45.01044" lon="5.49168">
        <ele>1407.51</ele>
        <time>2011-04-23T09:19:32Z</time>
      </trkpt>
      <trkpt lat="45.0105" lon="5.49163">
        <ele>1407.99</ele>
        <time>2011-04-23T09:19:37Z</time>
      </trkpt>
      <trkpt lat="45.01051" lon="5.4916">
        <ele>1408.47</ele>
        <time>2011-04-23T09:19:38Z</time>
      </trkpt>
      <trkpt lat="45.01052" lon="5.49158">
        <ele>1408.47</ele>
        <time>2011-04-23T09:19:39Z</time>
      </trkpt>
      <trkpt lat="45.01054" lon="5.49156">
        <ele>1408.47</ele>
        <time>2011-04-23T09:19:40Z</time>
      </trkpt>
      <trkpt lat="45.01055" lon="5.49154">
        <ele>1408.47</ele>
        <time>2011-04-23T09:19:41Z</time>
      </trkpt>
      <trkpt lat="45.01057" lon="5.49153">
        <ele>1408.47</ele>
        <time>2011-04-23T09:19:42Z</time>
      </trkpt>
      <trkpt lat="45.01064" lon="5.49145">
        <ele>1409.43</ele>
        <time>2011-04-23T09:19:47Z</time>
      </trkpt>
      <trkpt lat="45.01066" lon="5.49143">
        <ele>1409.43</ele>
        <time>2011-04-23T09:19:48Z</time>
      </trkpt>
      <trkpt lat="45.01068" lon="5.49141">
        <ele>1409.43</ele>
        <time>2011-04-23T09:19:49Z</time>
      </trkpt>
      <trkpt lat="45.01071" lon="5.49137">
        <ele>1409.91</ele>
        <time>2011-04-23T09:19:53Z</time>
      </trkpt>
      <trkpt lat="45.01072" lon="5.49135">
        <ele>1409.91</ele>
        <time>2011-04-23T09:19:54Z</time>
      </trkpt>
      <trkpt lat="45.01082" lon="5.49124">
        <ele>1411.35</ele>
        <time>2011-04-23T09:20:06Z</time>
      </trkpt>
      <trkpt lat="45.01084" lon="5.4912">
        <ele>1411.83</ele>
        <time>2011-04-23T09:20:08Z</time>
      </trkpt>
      <trkpt lat="45.01085" lon="5.49119">
        <ele>1411.83</ele>
        <time>2011-04-23T09:20:09Z</time>
      </trkpt>
      <trkpt lat="45.01094" lon="5.49107">
        <ele>1412.79</ele>
        <time>2011-04-23T09:20:16Z</time>
      </trkpt>
      <trkpt lat="45.01089" lon="5.49077">
        <ele>1414.72</ele>
        <time>2011-04-23T09:20:33Z</time>
      </trkpt>
      <trkpt lat="45.01083" lon="5.49057">
        <ele>1414.72</ele>
        <time>2011-04-23T09:20:44Z</time>
      </trkpt>
      <trkpt lat="45.01081" lon="5.49042">
        <ele>1415.2</ele>
        <time>2011-04-23T09:20:50Z</time>
      </trkpt>
      <trkpt lat="45.01071" lon="5.49013">
        <ele>1414.72</ele>
        <time>2011-04-23T09:21:03Z</time>
      </trkpt>
      <trkpt lat="45.01058" lon="5.49003">
        <ele>1412.31</ele>
        <time>2011-04-23T09:21:08Z</time>
      </trkpt>
      <trkpt lat="45.0104" lon="5.48997">
        <ele>1409.91</ele>
        <time>2011-04-23T09:21:13Z</time>
      </trkpt>
      <trkpt lat="45.01035" lon="5.48994">
        <ele>1409.43</ele>
        <time>2011-04-23T09:21:14Z</time>
      </trkpt>
      <trkpt lat="45.01031" lon="5.4899">
        <ele>1408.47</ele>
        <time>2011-04-23T09:21:15Z</time>
      </trkpt>
      <trkpt lat="45.01028" lon="5.48983">
        <ele>1408.47</ele>
        <time>2011-04-23T09:21:16Z</time>
      </trkpt>
      <trkpt lat="45.01025" lon="5.48976">
        <ele>1408.47</ele>
        <time>2011-04-23T09:21:17Z</time>
      </trkpt>
      <trkpt lat="45.01024" lon="5.48969">
        <ele>1407.99</ele>
        <time>2011-04-23T09:21:18Z</time>
      </trkpt>
      <trkpt lat="45.01024" lon="5.48962">
        <ele>1407.51</ele>
        <time>2011-04-23T09:21:19Z</time>
      </trkpt>
      <trkpt lat="45.01025" lon="5.48955">
        <ele>1407.99</ele>
        <time>2011-04-23T09:21:20Z</time>
      </trkpt>
      <trkpt lat="45.01026" lon="5.48949">
        <ele>1407.99</ele>
        <time>2011-04-23T09:21:21Z</time>
      </trkpt>
      <trkpt lat="45.01027" lon="5.48943">
        <ele>1407.99</ele>
        <time>2011-04-23T09:21:22Z</time>
      </trkpt>
      <trkpt lat="45.01028" lon="5.48937">
        <ele>1407.51</ele>
        <time>2011-04-23T09:21:23Z</time>
      </trkpt>
      <trkpt lat="45.01028" lon="5.48931">
        <ele>1407.03</ele>
        <time>2011-04-23T09:21:24Z</time>
      </trkpt>
      <trkpt lat="45.01028" lon="5.48925">
        <ele>1407.51</ele>
        <time>2011-04-23T09:21:25Z</time>
      </trkpt>
      <trkpt lat="45.01028" lon="5.48919">
        <ele>1407.03</ele>
        <time>2011-04-23T09:21:26Z</time>
      </trkpt>
      <trkpt lat="45.01019" lon="5.48874">
        <ele>1406.07</ele>
        <time>2011-04-23T09:21:35Z</time>
      </trkpt>
      <trkpt lat="45.01019" lon="5.48847">
        <ele>1406.07</ele>
        <time>2011-04-23T09:21:43Z</time>
      </trkpt>
      <trkpt lat="45.0102" lon="5.48846">
        <ele>1406.07</ele>
        <time>2011-04-23T09:22:00Z</time>
      </trkpt>
      <trkpt lat="45.0102" lon="5.4884">
        <ele>1406.07</ele>
        <time>2011-04-23T09:22:48Z</time>
      </trkpt>
      <trkpt lat="45.0102" lon="5.48839">
        <ele>1406.07</ele>
        <time>2011-04-23T09:22:49Z</time>
      </trkpt>
      <trkpt lat="45.01019" lon="5.48837">
        <ele>1406.07</ele>
        <time>2011-04-23T09:22:50Z</time>
      </trkpt>
      <trkpt lat="45.01019" lon="5.48835">
        <ele>1406.07</ele>
        <time>2011-04-23T09:22:51Z</time>
      </trkpt>
      <trkpt lat="45.01018" lon="5.48833">
        <ele>1405.58</ele>
        <time>2011-04-23T09:22:52Z</time>
      </trkpt>
      <trkpt lat="45.01018" lon="5.48831">
        <ele>1406.07</ele>
        <time>2011-04-23T09:22:53Z</time>
      </trkpt>
      <trkpt lat="45.01017" lon="5.48829">
        <ele>1405.58</ele>
        <time>2011-04-23T09:22:54Z</time>
      </trkpt>
      <trkpt lat="45.01003" lon="5.48794">
        <ele>1405.58</ele>
        <time>2011-04-23T09:23:06Z</time>
      </trkpt>
      <trkpt lat="45.00977" lon="5.48769">
        <ele>1402.7</ele>
        <time>2011-04-23T09:23:17Z</time>
      </trkpt>
      <trkpt lat="45.00964" lon="5.48762">
        <ele>1402.22</ele>
        <time>2011-04-23T09:23:20Z</time>
      </trkpt>
      <trkpt lat="45.00943" lon="5.48755">
        <ele>1403.66</ele>
        <time>2011-04-23T09:23:28Z</time>
      </trkpt>
      <trkpt lat="45.00919" lon="5.48748">
        <ele>1406.55</ele>
        <time>2011-04-23T09:23:41Z</time>
      </trkpt>
      <trkpt lat="45.00918" lon="5.48748">
        <ele>1406.55</ele>
        <time>2011-04-23T09:23:42Z</time>
      </trkpt>
      <trkpt lat="45.00916" lon="5.48749">
        <ele>1407.03</ele>
        <time>2011-04-23T09:23:43Z</time>
      </trkpt>
      <trkpt lat="45.00914" lon="5.48749">
        <ele>1407.03</ele>
        <time>2011-04-23T09:23:44Z</time>
      </trkpt>
      <trkpt lat="45.00911" lon="5.4875">
        <ele>1407.03</ele>
        <time>2011-04-23T09:23:45Z</time>
      </trkpt>
      <trkpt lat="45.0091" lon="5.48751">
        <ele>1407.03</ele>
        <time>2011-04-23T09:23:46Z</time>
      </trkpt>
      <trkpt lat="45.00902" lon="5.48755">
        <ele>1407.03</ele>
        <time>2011-04-23T09:23:51Z</time>
      </trkpt>
      <trkpt lat="45.009" lon="5.48756">
        <ele>1407.99</ele>
        <time>2011-04-23T09:23:52Z</time>
      </trkpt>
      <trkpt lat="45.00893" lon="5.48761">
        <ele>1407.03</ele>
        <time>2011-04-23T09:23:56Z</time>
      </trkpt>
      <trkpt lat="45.00892" lon="5.48762">
        <ele>1407.51</ele>
        <time>2011-04-23T09:23:57Z</time>
      </trkpt>
      <trkpt lat="45.0089" lon="5.48763">
        <ele>1407.51</ele>
        <time>2011-04-23T09:23:58Z</time>
      </trkpt>
      <trkpt lat="45.00877" lon="5.4877">
        <ele>1407.03</ele>
        <time>2011-04-23T09:24:06Z</time>
      </trkpt>
      <trkpt lat="45.00875" lon="5.48771">
        <ele>1407.03</ele>
        <time>2011-04-23T09:24:07Z</time>
      </trkpt>
      <trkpt lat="45.00873" lon="5.48772">
        <ele>1407.03</ele>
        <time>2011-04-23T09:24:08Z</time>
      </trkpt>
      <trkpt lat="45.00871" lon="5.48773">
        <ele>1406.07</ele>
        <time>2011-04-23T09:24:09Z</time>
      </trkpt>
      <trkpt lat="45.00868" lon="5.48775">
        <ele>1406.07</ele>
        <time>2011-04-23T09:24:10Z</time>
      </trkpt>
      <trkpt lat="45.00862" lon="5.48778">
        <ele>1406.07</ele>
        <time>2011-04-23T09:24:12Z</time>
      </trkpt>
      <trkpt lat="45.00859" lon="5.48778">
        <ele>1406.07</ele>
        <time>2011-04-23T09:24:13Z</time>
      </trkpt>
      <trkpt lat="45.00819" lon="5.4879">
        <ele>1405.1</ele>
        <time>2011-04-23T09:24:25Z</time>
      </trkpt>
      <trkpt lat="45.00785" lon="5.48806">
        <ele>1403.66</ele>
        <time>2011-04-23T09:24:33Z</time>
      </trkpt>
      <trkpt lat="45.00779" lon="5.48809">
        <ele>1402.7</ele>
        <time>2011-04-23T09:24:34Z</time>
      </trkpt>
      <trkpt lat="45.00775" lon="5.4881">
        <ele>1402.7</ele>
        <time>2011-04-23T09:24:35Z</time>
      </trkpt>
      <trkpt lat="45.00743" lon="5.4883">
        <ele>1399.34</ele>
        <time>2011-04-23T09:24:43Z</time>
      </trkpt>
      <trkpt lat="45.00738" lon="5.48832">
        <ele>1398.86</ele>
        <time>2011-04-23T09:24:44Z</time>
      </trkpt>
      <trkpt lat="45.00733" lon="5.48833">
        <ele>1398.37</ele>
        <time>2011-04-23T09:24:45Z</time>
      </trkpt>
      <trkpt lat="45.00728" lon="5.48833">
        <ele>1397.41</ele>
        <time>2011-04-23T09:24:46Z</time>
      </trkpt>
      <trkpt lat="45.00723" lon="5.4883">
        <ele>1397.41</ele>
        <time>2011-04-23T09:24:47Z</time>
      </trkpt>
      <trkpt lat="45.00719" lon="5.48825">
        <ele>1397.41</ele>
        <time>2011-04-23T09:24:48Z</time>
      </trkpt>
      <trkpt lat="45.00716" lon="5.4882">
        <ele>1396.93</ele>
        <time>2011-04-23T09:24:49Z</time>
      </trkpt>
      <trkpt lat="45.00714" lon="5.48814">
        <ele>1396.93</ele>
        <time>2011-04-23T09:24:50Z</time>
      </trkpt>
      <trkpt lat="45.00714" lon="5.48807">
        <ele>1396.93</ele>
        <time>2011-04-23T09:24:51Z</time>
      </trkpt>
      <trkpt lat="45.00713" lon="5.488">
        <ele>1396.93</ele>
        <time>2011-04-23T09:24:52Z</time>
      </trkpt>
      <trkpt lat="45.00707" lon="5.48766">
        <ele>1398.37</ele>
        <time>2011-04-23T09:25:01Z</time>
      </trkpt>
      <trkpt lat="45.00704" lon="5.48755">
        <ele>1399.34</ele>
        <time>2011-04-23T09:25:06Z</time>
      </trkpt>
      <trkpt lat="45.00702" lon="5.48753">
        <ele>1399.82</ele>
        <time>2011-04-23T09:25:07Z</time>
      </trkpt>
      <trkpt lat="45.00702" lon="5.48751">
        <ele>1399.82</ele>
        <time>2011-04-23T09:25:08Z</time>
      </trkpt>
      <trkpt lat="45.00701" lon="5.48749">
        <ele>1400.3</ele>
        <time>2011-04-23T09:25:09Z</time>
      </trkpt>
      <trkpt lat="45.007" lon="5.48747">
        <ele>1400.3</ele>
        <time>2011-04-23T09:25:10Z</time>
      </trkpt>
      <trkpt lat="45.00684" lon="5.487">
        <ele>1400.3</ele>
        <time>2011-04-23T09:25:27Z</time>
      </trkpt>
      <trkpt lat="45.00666" lon="5.48661">
        <ele>1401.26</ele>
        <time>2011-04-23T09:25:38Z</time>
      </trkpt>
      <trkpt lat="45.00651" lon="5.48641">
        <ele>1405.1</ele>
        <time>2011-04-23T09:25:51Z</time>
      </trkpt>
      <trkpt lat="45.00642" lon="5.48632">
        <ele>1406.07</ele>
        <time>2011-04-23T09:25:58Z</time>
      </trkpt>
      <trkpt lat="45.00641" lon="5.4863">
        <ele>1406.07</ele>
        <time>2011-04-23T09:25:59Z</time>
      </trkpt>
      <trkpt lat="45.0064" lon="5.48629">
        <ele>1406.07</ele>
        <time>2011-04-23T09:26:00Z</time>
      </trkpt>
      <trkpt lat="45.00639" lon="5.48627">
        <ele>1406.07</ele>
        <time>2011-04-23T09:26:01Z</time>
      </trkpt>
      <trkpt lat="45.00638" lon="5.48626">
        <ele>1406.07</ele>
        <time>2011-04-23T09:26:02Z</time>
      </trkpt>
      <trkpt lat="45.00636" lon="5.48624">
        <ele>1406.55</ele>
        <time>2011-04-23T09:26:03Z</time>
      </trkpt>
      <trkpt lat="45.00635" lon="5.48622">
        <ele>1406.07</ele>
        <time>2011-04-23T09:26:04Z</time>
      </trkpt>
      <trkpt lat="45.00629" lon="5.48612">
        <ele>1406.55</ele>
        <time>2011-04-23T09:26:10Z</time>
      </trkpt>
      <trkpt lat="45.00627" lon="5.4861">
        <ele>1406.55</ele>
        <time>2011-04-23T09:26:11Z</time>
      </trkpt>
      <trkpt lat="45.00625" lon="5.48609">
        <ele>1407.51</ele>
        <time>2011-04-23T09:26:12Z</time>
      </trkpt>
      <trkpt lat="45.00624" lon="5.48608">
        <ele>1407.51</ele>
        <time>2011-04-23T09:26:13Z</time>
      </trkpt>
      <trkpt lat="45.00622" lon="5.48606">
        <ele>1407.03</ele>
        <time>2011-04-23T09:26:14Z</time>
      </trkpt>
      <trkpt lat="45.00621" lon="5.48605">
        <ele>1407.99</ele>
        <time>2011-04-23T09:26:15Z</time>
      </trkpt>
      <trkpt lat="45.0062" lon="5.48604">
        <ele>1408.47</ele>
        <time>2011-04-23T09:26:16Z</time>
      </trkpt>
      <trkpt lat="45.00618" lon="5.48603">
        <ele>1407.99</ele>
        <time>2011-04-23T09:26:17Z</time>
      </trkpt>
      <trkpt lat="45.00617" lon="5.48601">
        <ele>1408.47</ele>
        <time>2011-04-23T09:26:18Z</time>
      </trkpt>
      <trkpt lat="45.00603" lon="5.48587">
        <ele>1408.95</ele>
        <time>2011-04-23T09:26:29Z</time>
      </trkpt>
      <trkpt lat="45.00603" lon="5.48585">
        <ele>1408.95</ele>
        <time>2011-04-23T09:26:30Z</time>
      </trkpt>
      <trkpt lat="45.00602" lon="5.48584">
        <ele>1408.95</ele>
        <time>2011-04-23T09:26:31Z</time>
      </trkpt>
      <trkpt lat="45.00601" lon="5.48582">
        <ele>1408.95</ele>
        <time>2011-04-23T09:26:32Z</time>
      </trkpt>
      <trkpt lat="45.00594" lon="5.48574">
        <ele>1408.95</ele>
        <time>2011-04-23T09:26:36Z</time>
      </trkpt>
      <trkpt lat="45.00592" lon="5.48572">
        <ele>1408.47</ele>
        <time>2011-04-23T09:26:37Z</time>
      </trkpt>
      <trkpt lat="45.0059" lon="5.4857">
        <ele>1408.47</ele>
        <time>2011-04-23T09:26:38Z</time>
      </trkpt>
      <trkpt lat="45.00588" lon="5.48567">
        <ele>1408.47</ele>
        <time>2011-04-23T09:26:39Z</time>
      </trkpt>
      <trkpt lat="45.00586" lon="5.48565">
        <ele>1408.47</ele>
        <time>2011-04-23T09:26:40Z</time>
      </trkpt>
      <trkpt lat="45.0056" lon="5.48539">
        <ele>1407.99</ele>
        <time>2011-04-23T09:26:52Z</time>
      </trkpt>
      <trkpt lat="45.0055" lon="5.48537">
        <ele>1408.47</ele>
        <time>2011-04-23T09:26:57Z</time>
      </trkpt>
      <trkpt lat="45.00549" lon="5.48536">
        <ele>1408.95</ele>
        <time>2011-04-23T09:26:58Z</time>
      </trkpt>
      <trkpt lat="45.00538" lon="5.48541">
        <ele>1410.39</ele>
        <time>2011-04-23T09:27:08Z</time>
      </trkpt>
      <trkpt lat="45.00531" lon="5.48542">
        <ele>1410.87</ele>
        <time>2011-04-23T09:27:13Z</time>
      </trkpt>
      <trkpt lat="45.00508" lon="5.48542">
        <ele>1412.79</ele>
        <time>2011-04-23T09:27:26Z</time>
      </trkpt>
      <trkpt lat="45.00495" lon="5.48545">
        <ele>1414.24</ele>
        <time>2011-04-23T09:27:35Z</time>
      </trkpt>
      <trkpt lat="45.00483" lon="5.48551">
        <ele>1416.16</ele>
        <time>2011-04-23T09:27:45Z</time>
      </trkpt>
      <trkpt lat="45.00471" lon="5.48561">
        <ele>1418.08</ele>
        <time>2011-04-23T09:27:54Z</time>
      </trkpt>
      <trkpt lat="45.00462" lon="5.48567">
        <ele>1419.04</ele>
        <time>2011-04-23T09:28:01Z</time>
      </trkpt>
      <trkpt lat="45.00461" lon="5.48569">
        <ele>1419.52</ele>
        <time>2011-04-23T09:28:02Z</time>
      </trkpt>
      <trkpt lat="45.00456" lon="5.48571">
        <ele>1420</ele>
        <time>2011-04-23T09:28:05Z</time>
      </trkpt>
      <trkpt lat="45.00454" lon="5.48574">
        <ele>1420.49</ele>
        <time>2011-04-23T09:28:07Z</time>
      </trkpt>
      <trkpt lat="45.00452" lon="5.48576">
        <ele>1420.49</ele>
        <time>2011-04-23T09:28:08Z</time>
      </trkpt>
      <trkpt lat="45.0045" lon="5.48578">
        <ele>1420.49</ele>
        <time>2011-04-23T09:28:09Z</time>
      </trkpt>
      <trkpt lat="45.00449" lon="5.4858">
        <ele>1420.49</ele>
        <time>2011-04-23T09:28:10Z</time>
      </trkpt>
      <trkpt lat="45.00448" lon="5.48581">
        <ele>1420.97</ele>
        <time>2011-04-23T09:28:11Z</time>
      </trkpt>
      <trkpt lat="45.00446" lon="5.48583">
        <ele>1420.49</ele>
        <time>2011-04-23T09:28:12Z</time>
      </trkpt>
      <trkpt lat="45.00444" lon="5.48584">
        <ele>1420.97</ele>
        <time>2011-04-23T09:28:13Z</time>
      </trkpt>
      <trkpt lat="45.00431" lon="5.48596">
        <ele>1421.45</ele>
        <time>2011-04-23T09:28:23Z</time>
      </trkpt>
      <trkpt lat="45.0041" lon="5.48603">
        <ele>1421.93</ele>
        <time>2011-04-23T09:28:34Z</time>
      </trkpt>
      <trkpt lat="45.00389" lon="5.4861">
        <ele>1423.85</ele>
        <time>2011-04-23T09:28:47Z</time>
      </trkpt>
      <trkpt lat="45.00374" lon="5.48621">
        <ele>1424.81</ele>
        <time>2011-04-23T09:28:58Z</time>
      </trkpt>
      <trkpt lat="45.00368" lon="5.48625">
        <ele>1424.81</ele>
        <time>2011-04-23T09:29:02Z</time>
      </trkpt>
      <trkpt lat="45.00367" lon="5.48627">
        <ele>1424.33</ele>
        <time>2011-04-23T09:29:03Z</time>
      </trkpt>
      <trkpt lat="45.00365" lon="5.48629">
        <ele>1424.33</ele>
        <time>2011-04-23T09:29:04Z</time>
      </trkpt>
      <trkpt lat="45.00361" lon="5.48636">
        <ele>1423.37</ele>
        <time>2011-04-23T09:29:08Z</time>
      </trkpt>
      <trkpt lat="45.0036" lon="5.48639">
        <ele>1423.37</ele>
        <time>2011-04-23T09:29:09Z</time>
      </trkpt>
      <trkpt lat="45.00359" lon="5.48642">
        <ele>1423.85</ele>
        <time>2011-04-23T09:29:10Z</time>
      </trkpt>
      <trkpt lat="45.00354" lon="5.48652">
        <ele>1424.33</ele>
        <time>2011-04-23T09:29:13Z</time>
      </trkpt>
      <trkpt lat="45.00347" lon="5.48663">
        <ele>1424.81</ele>
        <time>2011-04-23T09:29:19Z</time>
      </trkpt>
      <trkpt lat="45.00342" lon="5.48671">
        <ele>1425.29</ele>
        <time>2011-04-23T09:29:25Z</time>
      </trkpt>
      <trkpt lat="45.00335" lon="5.4868">
        <ele>1425.77</ele>
        <time>2011-04-23T09:29:29Z</time>
      </trkpt>
      <trkpt lat="45.00317" lon="5.48691">
        <ele>1426.73</ele>
        <time>2011-04-23T09:29:40Z</time>
      </trkpt>
      <trkpt lat="45.00309" lon="5.48693">
        <ele>1427.7</ele>
        <time>2011-04-23T09:29:44Z</time>
      </trkpt>
      <trkpt lat="45.0029" lon="5.48699">
        <ele>1429.14</ele>
        <time>2011-04-23T09:29:57Z</time>
      </trkpt>
      <trkpt lat="45.00286" lon="5.48703">
        <ele>1429.14</ele>
        <time>2011-04-23T09:30:00Z</time>
      </trkpt>
      <trkpt lat="45.00268" lon="5.48701">
        <ele>1430.58</ele>
        <time>2011-04-23T09:30:12Z</time>
      </trkpt>
      <trkpt lat="45.00257" lon="5.4869">
        <ele>1432.02</ele>
        <time>2011-04-23T09:30:21Z</time>
      </trkpt>
      <trkpt lat="45.00255" lon="5.48687">
        <ele>1432.02</ele>
        <time>2011-04-23T09:30:23Z</time>
      </trkpt>
      <trkpt lat="45.00251" lon="5.48674">
        <ele>1432.98</ele>
        <time>2011-04-23T09:30:29Z</time>
      </trkpt>
      <trkpt lat="45.0025" lon="5.4865">
        <ele>1435.39</ele>
        <time>2011-04-23T09:30:39Z</time>
      </trkpt>
      <trkpt lat="45.0025" lon="5.48642">
        <ele>1435.87</ele>
        <time>2011-04-23T09:30:44Z</time>
      </trkpt>
      <trkpt lat="45.0025" lon="5.48629">
        <ele>1438.27</ele>
        <time>2011-04-23T09:30:52Z</time>
      </trkpt>
      <trkpt lat="45.00256" lon="5.48603">
        <ele>1435.39</ele>
        <time>2011-04-23T09:30:59Z</time>
      </trkpt>
      <trkpt lat="45.0026" lon="5.48579">
        <ele>1434.91</ele>
        <time>2011-04-23T09:31:04Z</time>
      </trkpt>
      <trkpt lat="45.00262" lon="5.48575">
        <ele>1433.46</ele>
        <time>2011-04-23T09:31:05Z</time>
      </trkpt>
      <trkpt lat="45.00267" lon="5.48558">
        <ele>1430.58</ele>
        <time>2011-04-23T09:31:09Z</time>
      </trkpt>
      <trkpt lat="45.00271" lon="5.48544">
        <ele>1427.21</ele>
        <time>2011-04-23T09:31:12Z</time>
      </trkpt>
      <trkpt lat="45.00269" lon="5.48525">
        <ele>1423.85</ele>
        <time>2011-04-23T09:31:15Z</time>
      </trkpt>
      <trkpt lat="45.00269" lon="5.48518">
        <ele>1423.85</ele>
        <time>2011-04-23T09:31:16Z</time>
      </trkpt>
      <trkpt lat="45.00267" lon="5.48504">
        <ele>1421.93</ele>
        <time>2011-04-23T09:31:18Z</time>
      </trkpt>
      <trkpt lat="45.00264" lon="5.48498">
        <ele>1420.97</ele>
        <time>2011-04-23T09:31:19Z</time>
      </trkpt>
      <trkpt lat="45.0026" lon="5.48495">
        <ele>1420.49</ele>
        <time>2011-04-23T09:31:20Z</time>
      </trkpt>
      <trkpt lat="45.0025" lon="5.48493">
        <ele>1420</ele>
        <time>2011-04-23T09:31:21Z</time>
      </trkpt>
      <trkpt lat="45.00243" lon="5.48493">
        <ele>1420</ele>
        <time>2011-04-23T09:31:22Z</time>
      </trkpt>
      <trkpt lat="45.00238" lon="5.48493">
        <ele>1420</ele>
        <time>2011-04-23T09:31:23Z</time>
      </trkpt>
      <trkpt lat="45.00234" lon="5.48495">
        <ele>1419.52</ele>
        <time>2011-04-23T09:31:24Z</time>
      </trkpt>
      <trkpt lat="45.00229" lon="5.48498">
        <ele>1418.08</ele>
        <time>2011-04-23T09:31:26Z</time>
      </trkpt>
      <trkpt lat="45.00227" lon="5.48501">
        <ele>1417.12</ele>
        <time>2011-04-23T09:31:27Z</time>
      </trkpt>
      <trkpt lat="45.00225" lon="5.48505">
        <ele>1416.16</ele>
        <time>2011-04-23T09:31:28Z</time>
      </trkpt>
      <trkpt lat="45.00223" lon="5.4851">
        <ele>1415.68</ele>
        <time>2011-04-23T09:31:29Z</time>
      </trkpt>
      <trkpt lat="45.00222" lon="5.48515">
        <ele>1415.2</ele>
        <time>2011-04-23T09:31:30Z</time>
      </trkpt>
      <trkpt lat="45.0022" lon="5.48521">
        <ele>1414.72</ele>
        <time>2011-04-23T09:31:31Z</time>
      </trkpt>
      <trkpt lat="45.00214" lon="5.48537">
        <ele>1413.28</ele>
        <time>2011-04-23T09:31:34Z</time>
      </trkpt>
      <trkpt lat="45.00209" lon="5.48547">
        <ele>1411.35</ele>
        <time>2011-04-23T09:31:36Z</time>
      </trkpt>
      <trkpt lat="45.00196" lon="5.48558">
        <ele>1407.51</ele>
        <time>2011-04-23T09:31:40Z</time>
      </trkpt>
      <trkpt lat="45.00178" lon="5.48565">
        <ele>1403.18</ele>
        <time>2011-04-23T09:31:44Z</time>
      </trkpt>
      <trkpt lat="45.00171" lon="5.48567">
        <ele>1401.74</ele>
        <time>2011-04-23T09:31:45Z</time>
      </trkpt>
      <trkpt lat="45.00165" lon="5.48571">
        <ele>1401.26</ele>
        <time>2011-04-23T09:31:46Z</time>
      </trkpt>
      <trkpt lat="45.00159" lon="5.48574">
        <ele>1400.78</ele>
        <time>2011-04-23T09:31:47Z</time>
      </trkpt>
      <trkpt lat="45.00154" lon="5.48579">
        <ele>1399.82</ele>
        <time>2011-04-23T09:31:48Z</time>
      </trkpt>
      <trkpt lat="45.0015" lon="5.48583">
        <ele>1399.82</ele>
        <time>2011-04-23T09:31:49Z</time>
      </trkpt>
      <trkpt lat="45.00141" lon="5.48593">
        <ele>1399.82</ele>
        <time>2011-04-23T09:31:51Z</time>
      </trkpt>
      <trkpt lat="45.00137" lon="5.48598">
        <ele>1399.34</ele>
        <time>2011-04-23T09:31:52Z</time>
      </trkpt>
      <trkpt lat="45.00119" lon="5.48624">
        <ele>1397.89</ele>
        <time>2011-04-23T09:31:58Z</time>
      </trkpt>
      <trkpt lat="45.00114" lon="5.48627">
        <ele>1397.89</ele>
        <time>2011-04-23T09:31:59Z</time>
      </trkpt>
      <trkpt lat="45.00111" lon="5.48631">
        <ele>1397.89</ele>
        <time>2011-04-23T09:32:00Z</time>
      </trkpt>
      <trkpt lat="45.00108" lon="5.48634">
        <ele>1397.41</ele>
        <time>2011-04-23T09:32:01Z</time>
      </trkpt>
      <trkpt lat="45.00104" lon="5.48637">
        <ele>1396.93</ele>
        <time>2011-04-23T09:32:02Z</time>
      </trkpt>
      <trkpt lat="45.00101" lon="5.48641">
        <ele>1397.41</ele>
        <time>2011-04-23T09:32:03Z</time>
      </trkpt>
      <trkpt lat="45.00097" lon="5.48644">
        <ele>1396.45</ele>
        <time>2011-04-23T09:32:04Z</time>
      </trkpt>
      <trkpt lat="45.00094" lon="5.48647">
        <ele>1396.45</ele>
        <time>2011-04-23T09:32:05Z</time>
      </trkpt>
      <trkpt lat="45.0009" lon="5.48651">
        <ele>1395.97</ele>
        <time>2011-04-23T09:32:06Z</time>
      </trkpt>
      <trkpt lat="45.00073" lon="5.48667">
        <ele>1394.53</ele>
        <time>2011-04-23T09:32:10Z</time>
      </trkpt>
      <trkpt lat="45.0007" lon="5.48671">
        <ele>1395.01</ele>
        <time>2011-04-23T09:32:11Z</time>
      </trkpt>
      <trkpt lat="45.00067" lon="5.48676">
        <ele>1394.05</ele>
        <time>2011-04-23T09:32:12Z</time>
      </trkpt>
      <trkpt lat="45.00064" lon="5.4868">
        <ele>1394.05</ele>
        <time>2011-04-23T09:32:13Z</time>
      </trkpt>
      <trkpt lat="45.00051" lon="5.48698">
        <ele>1393.09</ele>
        <time>2011-04-23T09:32:18Z</time>
      </trkpt>
      <trkpt lat="45.00025" lon="5.48722">
        <ele>1393.09</ele>
        <time>2011-04-23T09:32:24Z</time>
      </trkpt>
      <trkpt lat="45.00022" lon="5.48725">
        <ele>1393.09</ele>
        <time>2011-04-23T09:32:25Z</time>
      </trkpt>
      <trkpt lat="44.99971" lon="5.48748">
        <ele>1391.65</ele>
        <time>2011-04-23T09:32:34Z</time>
      </trkpt>
      <trkpt lat="44.99946" lon="5.48762">
        <ele>1391.65</ele>
        <time>2011-04-23T09:32:43Z</time>
      </trkpt>
      <trkpt lat="44.99938" lon="5.48768">
        <ele>1390.68</ele>
        <time>2011-04-23T09:32:54Z</time>
      </trkpt>
      <trkpt lat="44.99938" lon="5.48768">
        <ele>1387.32</ele>
        <time>2011-04-23T09:33:01Z</time>
      </trkpt>
      <trkpt lat="44.99938" lon="5.48768">
        <ele>1388.76</ele>
        <time>2011-04-23T09:33:02Z</time>
      </trkpt>
      <trkpt lat="44.99938" lon="5.48768">
        <ele>1390.68</ele>
        <time>2011-04-23T09:33:04Z</time>
      </trkpt>
      <trkpt lat="44.99933" lon="5.48768">
        <ele>1390.68</ele>
        <time>2011-04-23T09:34:23Z</time>
      </trkpt>
      <trkpt lat="44.9993" lon="5.48771">
        <ele>1385.88</ele>
        <time>2011-04-23T09:36:43Z</time>
      </trkpt>
      <trkpt lat="44.9993" lon="5.48771">
        <ele>1391.17</ele>
        <time>2011-04-23T09:36:44Z</time>
      </trkpt>
      <trkpt lat="44.9993" lon="5.48771">
        <ele>1389.72</ele>
        <time>2011-04-23T09:36:47Z</time>
      </trkpt>
      <trkpt lat="44.99928" lon="5.48772">
        <ele>1388.76</ele>
        <time>2011-04-23T09:38:06Z</time>
      </trkpt>
      <trkpt lat="44.99923" lon="5.48776">
        <ele>1388.28</ele>
        <time>2011-04-23T09:38:09Z</time>
      </trkpt>
      <trkpt lat="44.99922" lon="5.48778">
        <ele>1387.8</ele>
        <time>2011-04-23T09:38:10Z</time>
      </trkpt>
      <trkpt lat="44.9992" lon="5.48781">
        <ele>1387.8</ele>
        <time>2011-04-23T09:38:11Z</time>
      </trkpt>
      <trkpt lat="44.99918" lon="5.48783">
        <ele>1387.32</ele>
        <time>2011-04-23T09:38:12Z</time>
      </trkpt>
      <trkpt lat="44.99916" lon="5.48783">
        <ele>1386.84</ele>
        <time>2011-04-23T09:38:13Z</time>
      </trkpt>
      <trkpt lat="44.99913" lon="5.48784">
        <ele>1386.36</ele>
        <time>2011-04-23T09:38:14Z</time>
      </trkpt>
      <trkpt lat="44.9991" lon="5.48785">
        <ele>1386.36</ele>
        <time>2011-04-23T09:38:15Z</time>
      </trkpt>
      <trkpt lat="44.99907" lon="5.48786">
        <ele>1385.4</ele>
        <time>2011-04-23T09:38:16Z</time>
      </trkpt>
      <trkpt lat="44.99903" lon="5.48788">
        <ele>1385.4</ele>
        <time>2011-04-23T09:38:17Z</time>
      </trkpt>
      <trkpt lat="44.99899" lon="5.48791">
        <ele>1384.44</ele>
        <time>2011-04-23T09:38:18Z</time>
      </trkpt>
      <trkpt lat="44.99896" lon="5.48792">
        <ele>1384.44</ele>
        <time>2011-04-23T09:38:19Z</time>
      </trkpt>
      <trkpt lat="44.99893" lon="5.48795">
        <ele>1384.44</ele>
        <time>2011-04-23T09:38:20Z</time>
      </trkpt>
      <trkpt lat="44.9989" lon="5.48797">
        <ele>1384.44</ele>
        <time>2011-04-23T09:38:21Z</time>
      </trkpt>
      <trkpt lat="44.99876" lon="5.4881">
        <ele>1382.03</ele>
        <time>2011-04-23T09:38:26Z</time>
      </trkpt>
      <trkpt lat="44.99838" lon="5.4884">
        <ele>1380.11</ele>
        <time>2011-04-23T09:38:34Z</time>
      </trkpt>
      <trkpt lat="44.99831" lon="5.48846">
        <ele>1379.15</ele>
        <time>2011-04-23T09:38:36Z</time>
      </trkpt>
      <trkpt lat="44.99829" lon="5.48849">
        <ele>1379.15</ele>
        <time>2011-04-23T09:38:37Z</time>
      </trkpt>
      <trkpt lat="44.99827" lon="5.48851">
        <ele>1378.67</ele>
        <time>2011-04-23T09:38:38Z</time>
      </trkpt>
      <trkpt lat="44.99825" lon="5.48853">
        <ele>1378.67</ele>
        <time>2011-04-23T09:38:39Z</time>
      </trkpt>
      <trkpt lat="44.99823" lon="5.48854">
        <ele>1377.71</ele>
        <time>2011-04-23T09:38:40Z</time>
      </trkpt>
      <trkpt lat="44.99822" lon="5.48856">
        <ele>1377.71</ele>
        <time>2011-04-23T09:38:41Z</time>
      </trkpt>
      <trkpt lat="44.99822" lon="5.48868">
        <ele>1374.82</ele>
        <time>2011-04-23T09:38:45Z</time>
      </trkpt>
      <trkpt lat="44.99817" lon="5.48877">
        <ele>1372.9</ele>
        <time>2011-04-23T09:38:48Z</time>
      </trkpt>
      <trkpt lat="44.99807" lon="5.48885">
        <ele>1370.98</ele>
        <time>2011-04-23T09:38:58Z</time>
      </trkpt>
      <trkpt lat="44.99803" lon="5.48887">
        <ele>1371.46</ele>
        <time>2011-04-23T09:39:56Z</time>
      </trkpt>
      <trkpt lat="44.99794" lon="5.48886">
        <ele>1367.61</ele>
        <time>2011-04-23T09:40:01Z</time>
      </trkpt>
      <trkpt lat="44.9979" lon="5.48882">
        <ele>1366.17</ele>
        <time>2011-04-23T09:40:03Z</time>
      </trkpt>
      <trkpt lat="44.99779" lon="5.48876">
        <ele>1362.81</ele>
        <time>2011-04-23T09:40:06Z</time>
      </trkpt>
      <trkpt lat="44.99766" lon="5.48868">
        <ele>1361.36</ele>
        <time>2011-04-23T09:40:09Z</time>
      </trkpt>
      <trkpt lat="44.9975" lon="5.48863">
        <ele>1360.4</ele>
        <time>2011-04-23T09:40:11Z</time>
      </trkpt>
      <trkpt lat="44.9974" lon="5.48857">
        <ele>1359.44</ele>
        <time>2011-04-23T09:40:13Z</time>
      </trkpt>
      <trkpt lat="44.9971" lon="5.48846">
        <ele>1357.04</ele>
        <time>2011-04-23T09:40:18Z</time>
      </trkpt>
      <trkpt lat="44.99687" lon="5.48841">
        <ele>1353.19</ele>
        <time>2011-04-23T09:40:23Z</time>
      </trkpt>
      <trkpt lat="44.99669" lon="5.48843">
        <ele>1349.35</ele>
        <time>2011-04-23T09:40:27Z</time>
      </trkpt>
      <trkpt lat="44.99656" lon="5.48847">
        <ele>1345.5</ele>
        <time>2011-04-23T09:40:30Z</time>
      </trkpt>
      <trkpt lat="44.99645" lon="5.48848">
        <ele>1342.62</ele>
        <time>2011-04-23T09:40:33Z</time>
      </trkpt>
      <trkpt lat="44.99631" lon="5.48841">
        <ele>1339.25</ele>
        <time>2011-04-23T09:40:36Z</time>
      </trkpt>
      <trkpt lat="44.99625" lon="5.48836">
        <ele>1338.77</ele>
        <time>2011-04-23T09:40:37Z</time>
      </trkpt>
      <trkpt lat="44.99619" lon="5.48831">
        <ele>1338.29</ele>
        <time>2011-04-23T09:40:38Z</time>
      </trkpt>
      <trkpt lat="44.99614" lon="5.48827">
        <ele>1337.81</ele>
        <time>2011-04-23T09:40:39Z</time>
      </trkpt>
      <trkpt lat="44.99608" lon="5.48823">
        <ele>1337.33</ele>
        <time>2011-04-23T09:40:40Z</time>
      </trkpt>
      <trkpt lat="44.99602" lon="5.4882">
        <ele>1337.33</ele>
        <time>2011-04-23T09:40:41Z</time>
      </trkpt>
      <trkpt lat="44.99593" lon="5.48818">
        <ele>1337.33</ele>
        <time>2011-04-23T09:40:42Z</time>
      </trkpt>
      <trkpt lat="44.99577" lon="5.48817">
        <ele>1336.85</ele>
        <time>2011-04-23T09:40:44Z</time>
      </trkpt>
      <trkpt lat="44.9957" lon="5.48818">
        <ele>1336.85</ele>
        <time>2011-04-23T09:40:45Z</time>
      </trkpt>
      <trkpt lat="44.99563" lon="5.48819">
        <ele>1336.85</ele>
        <time>2011-04-23T09:40:46Z</time>
      </trkpt>
      <trkpt lat="44.99509" lon="5.48826">
        <ele>1336.37</ele>
        <time>2011-04-23T09:40:58Z</time>
      </trkpt>
      <trkpt lat="44.99483" lon="5.48826">
        <ele>1337.81</ele>
        <time>2011-04-23T09:41:10Z</time>
      </trkpt>
      <trkpt lat="44.99447" lon="5.48829">
        <ele>1339.25</ele>
        <time>2011-04-23T09:41:26Z</time>
      </trkpt>
      <trkpt lat="44.99416" lon="5.48821">
        <ele>1337.81</ele>
        <time>2011-04-23T09:41:39Z</time>
      </trkpt>
      <trkpt lat="44.9939" lon="5.48821">
        <ele>1334.93</ele>
        <time>2011-04-23T09:41:46Z</time>
      </trkpt>
      <trkpt lat="44.99385" lon="5.4882">
        <ele>1334.45</ele>
        <time>2011-04-23T09:41:47Z</time>
      </trkpt>
      <trkpt lat="44.99368" lon="5.4882">
        <ele>1333.01</ele>
        <time>2011-04-23T09:41:50Z</time>
      </trkpt>
      <trkpt lat="44.99363" lon="5.48822">
        <ele>1333.01</ele>
        <time>2011-04-23T09:41:51Z</time>
      </trkpt>
      <trkpt lat="44.99358" lon="5.48824">
        <ele>1332.52</ele>
        <time>2011-04-23T09:41:52Z</time>
      </trkpt>
      <trkpt lat="44.99346" lon="5.48832">
        <ele>1332.04</ele>
        <time>2011-04-23T09:41:54Z</time>
      </trkpt>
      <trkpt lat="44.99342" lon="5.48836">
        <ele>1331.56</ele>
        <time>2011-04-23T09:41:55Z</time>
      </trkpt>
      <trkpt lat="44.99338" lon="5.48839">
        <ele>1331.08</ele>
        <time>2011-04-23T09:41:56Z</time>
      </trkpt>
      <trkpt lat="44.99334" lon="5.48843">
        <ele>1331.56</ele>
        <time>2011-04-23T09:41:57Z</time>
      </trkpt>
      <trkpt lat="44.9933" lon="5.48846">
        <ele>1331.56</ele>
        <time>2011-04-23T09:41:58Z</time>
      </trkpt>
      <trkpt lat="44.99327" lon="5.48848">
        <ele>1331.08</ele>
        <time>2011-04-23T09:41:59Z</time>
      </trkpt>
      <trkpt lat="44.99323" lon="5.48849">
        <ele>1331.08</ele>
        <time>2011-04-23T09:42:00Z</time>
      </trkpt>
      <trkpt lat="44.99319" lon="5.48849">
        <ele>1330.6</ele>
        <time>2011-04-23T09:42:01Z</time>
      </trkpt>
      <trkpt lat="44.99316" lon="5.48848">
        <ele>1330.6</ele>
        <time>2011-04-23T09:42:02Z</time>
      </trkpt>
      <trkpt lat="44.99303" lon="5.48846">
        <ele>1329.64</ele>
        <time>2011-04-23T09:42:06Z</time>
      </trkpt>
      <trkpt lat="44.99301" lon="5.48848">
        <ele>1329.64</ele>
        <time>2011-04-23T09:42:07Z</time>
      </trkpt>
      <trkpt lat="44.99299" lon="5.4885">
        <ele>1328.68</ele>
        <time>2011-04-23T09:42:08Z</time>
      </trkpt>
      <trkpt lat="44.99296" lon="5.48852">
        <ele>1328.68</ele>
        <time>2011-04-23T09:42:09Z</time>
      </trkpt>
      <trkpt lat="44.99293" lon="5.48852">
        <ele>1327.72</ele>
        <time>2011-04-23T09:42:10Z</time>
      </trkpt>
      <trkpt lat="44.9929" lon="5.48852">
        <ele>1327.24</ele>
        <time>2011-04-23T09:42:11Z</time>
      </trkpt>
      <trkpt lat="44.99288" lon="5.48851">
        <ele>1327.72</ele>
        <time>2011-04-23T09:42:12Z</time>
      </trkpt>
      <trkpt lat="44.99286" lon="5.4885">
        <ele>1327.24</ele>
        <time>2011-04-23T09:42:21Z</time>
      </trkpt>
      <trkpt lat="44.99286" lon="5.4885">
        <ele>1327.24</ele>
        <time>2011-04-23T09:42:24Z</time>
      </trkpt>
      <trkpt lat="44.99285" lon="5.48847">
        <ele>1326.76</ele>
        <time>2011-04-23T09:42:25Z</time>
      </trkpt>
      <trkpt lat="44.99283" lon="5.48845">
        <ele>1326.76</ele>
        <time>2011-04-23T09:42:26Z</time>
      </trkpt>
      <trkpt lat="44.99275" lon="5.48831">
        <ele>1327.24</ele>
        <time>2011-04-23T09:42:35Z</time>
      </trkpt>
      <trkpt lat="44.99264" lon="5.48797">
        <ele>1326.28</ele>
        <time>2011-04-23T09:42:46Z</time>
      </trkpt>
      <trkpt lat="44.99239" lon="5.48781">
        <ele>1325.31</ele>
        <time>2011-04-23T09:42:57Z</time>
      </trkpt>
      <trkpt lat="44.99211" lon="5.48761">
        <ele>1324.83</ele>
        <time>2011-04-23T09:43:10Z</time>
      </trkpt>
      <trkpt lat="44.99191" lon="5.48728">
        <ele>1327.24</ele>
        <time>2011-04-23T09:43:25Z</time>
      </trkpt>
      <trkpt lat="44.99172" lon="5.48687">
        <ele>1328.2</ele>
        <time>2011-04-23T09:43:40Z</time>
      </trkpt>
      <trkpt lat="44.99157" lon="5.48658">
        <ele>1330.6</ele>
        <time>2011-04-23T09:43:52Z</time>
      </trkpt>
      <trkpt lat="44.99155" lon="5.48656">
        <ele>1330.6</ele>
        <time>2011-04-23T09:43:53Z</time>
      </trkpt>
      <trkpt lat="44.99153" lon="5.48654">
        <ele>1330.6</ele>
        <time>2011-04-23T09:43:54Z</time>
      </trkpt>
      <trkpt lat="44.99125" lon="5.48633">
        <ele>1329.64</ele>
        <time>2011-04-23T09:44:07Z</time>
      </trkpt>
      <trkpt lat="44.99116" lon="5.48622">
        <ele>1331.08</ele>
        <time>2011-04-23T09:44:13Z</time>
      </trkpt>
      <trkpt lat="44.99116" lon="5.4862">
        <ele>1331.56</ele>
        <time>2011-04-23T09:44:14Z</time>
      </trkpt>
      <trkpt lat="44.99115" lon="5.48618">
        <ele>1331.56</ele>
        <time>2011-04-23T09:44:15Z</time>
      </trkpt>
      <trkpt lat="44.99114" lon="5.48616">
        <ele>1331.56</ele>
        <time>2011-04-23T09:44:16Z</time>
      </trkpt>
      <trkpt lat="44.99112" lon="5.48613">
        <ele>1331.08</ele>
        <time>2011-04-23T09:44:17Z</time>
      </trkpt>
      <trkpt lat="44.99109" lon="5.48611">
        <ele>1330.6</ele>
        <time>2011-04-23T09:44:18Z</time>
      </trkpt>
      <trkpt lat="44.99104" lon="5.48605">
        <ele>1329.64</ele>
        <time>2011-04-23T09:44:20Z</time>
      </trkpt>
      <trkpt lat="44.99094" lon="5.48596">
        <ele>1329.16</ele>
        <time>2011-04-23T09:44:23Z</time>
      </trkpt>
      <trkpt lat="44.9909" lon="5.48593">
        <ele>1328.2</ele>
        <time>2011-04-23T09:44:24Z</time>
      </trkpt>
      <trkpt lat="44.99078" lon="5.48585">
        <ele>1327.24</ele>
        <time>2011-04-23T09:44:27Z</time>
      </trkpt>
      <trkpt lat="44.99069" lon="5.48582">
        <ele>1326.76</ele>
        <time>2011-04-23T09:44:29Z</time>
      </trkpt>
      <trkpt lat="44.99066" lon="5.4858">
        <ele>1327.24</ele>
        <time>2011-04-23T09:44:30Z</time>
      </trkpt>
      <trkpt lat="44.99062" lon="5.48577">
        <ele>1326.76</ele>
        <time>2011-04-23T09:44:31Z</time>
      </trkpt>
      <trkpt lat="44.99036" lon="5.4856">
        <ele>1326.76</ele>
        <time>2011-04-23T09:44:40Z</time>
      </trkpt>
      <trkpt lat="44.99009" lon="5.48552">
        <ele>1323.87</ele>
        <time>2011-04-23T09:44:49Z</time>
      </trkpt>
      <trkpt lat="44.99007" lon="5.48552">
        <ele>1324.35</ele>
        <time>2011-04-23T09:44:50Z</time>
      </trkpt>
      <trkpt lat="44.99006" lon="5.48551">
        <ele>1324.35</ele>
        <time>2011-04-23T09:45:01Z</time>
      </trkpt>
      <trkpt lat="44.99006" lon="5.48551">
        <ele>1317.14</ele>
        <time>2011-04-23T09:45:08Z</time>
      </trkpt>
      <trkpt lat="44.99006" lon="5.48551">
        <ele>1325.31</ele>
        <time>2011-04-23T09:45:09Z</time>
      </trkpt>
      <trkpt lat="44.99006" lon="5.48551">
        <ele>1319.55</ele>
        <time>2011-04-23T09:45:11Z</time>
      </trkpt>
      <trkpt lat="44.99006" lon="5.48551">
        <ele>1324.35</ele>
        <time>2011-04-23T09:45:12Z</time>
      </trkpt>
      <trkpt lat="44.99006" lon="5.48551">
        <ele>1322.91</ele>
        <time>2011-04-23T09:45:19Z</time>
      </trkpt>
      <trkpt lat="44.99006" lon="5.48551">
        <ele>1324.35</ele>
        <time>2011-04-23T09:45:21Z</time>
      </trkpt>
      <trkpt lat="44.99005" lon="5.48552">
        <ele>1328.2</ele>
        <time>2011-04-23T09:45:53Z</time>
      </trkpt>
      <trkpt lat="44.99005" lon="5.48552">
        <ele>1325.8</ele>
        <time>2011-04-23T09:45:54Z</time>
      </trkpt>
      <trkpt lat="44.99005" lon="5.48552">
        <ele>1321.95</ele>
        <time>2011-04-23T09:45:55Z</time>
      </trkpt>
      <trkpt lat="44.99005" lon="5.48552">
        <ele>1324.83</ele>
        <time>2011-04-23T09:45:56Z</time>
      </trkpt>
      <trkpt lat="44.99005" lon="5.48552">
        <ele>1323.87</ele>
        <time>2011-04-23T09:46:20Z</time>
      </trkpt>
      <trkpt lat="44.98991" lon="5.48558">
        <ele>1323.39</ele>
        <time>2011-04-23T09:46:27Z</time>
      </trkpt>
      <trkpt lat="44.98954" lon="5.4857">
        <ele>1322.43</ele>
        <time>2011-04-23T09:46:42Z</time>
      </trkpt>
      <trkpt lat="44.98928" lon="5.48581">
        <ele>1325.31</ele>
        <time>2011-04-23T09:46:55Z</time>
      </trkpt>
      <trkpt lat="44.98897" lon="5.48587">
        <ele>1325.31</ele>
        <time>2011-04-23T09:47:09Z</time>
      </trkpt>
      <trkpt lat="44.98865" lon="5.48583">
        <ele>1327.24</ele>
        <time>2011-04-23T09:47:24Z</time>
      </trkpt>
      <trkpt lat="44.98833" lon="5.48592">
        <ele>1328.68</ele>
        <time>2011-04-23T09:47:41Z</time>
      </trkpt>
      <trkpt lat="44.98815" lon="5.48584">
        <ele>1332.04</ele>
        <time>2011-04-23T09:47:54Z</time>
      </trkpt>
      <trkpt lat="44.98785" lon="5.48583">
        <ele>1332.04</ele>
        <time>2011-04-23T09:48:09Z</time>
      </trkpt>
      <trkpt lat="44.98753" lon="5.4858">
        <ele>1332.52</ele>
        <time>2011-04-23T09:48:21Z</time>
      </trkpt>
      <trkpt lat="44.98733" lon="5.48576">
        <ele>1333.01</ele>
        <time>2011-04-23T09:48:30Z</time>
      </trkpt>
      <trkpt lat="44.98714" lon="5.4858">
        <ele>1333.01</ele>
        <time>2011-04-23T09:48:39Z</time>
      </trkpt>
      <trkpt lat="44.987" lon="5.48577">
        <ele>1333.49</ele>
        <time>2011-04-23T09:48:45Z</time>
      </trkpt>
      <trkpt lat="44.98683" lon="5.48565">
        <ele>1333.49</ele>
        <time>2011-04-23T09:48:55Z</time>
      </trkpt>
      <trkpt lat="44.98658" lon="5.48546">
        <ele>1334.93</ele>
        <time>2011-04-23T09:49:06Z</time>
      </trkpt>
      <trkpt lat="44.98634" lon="5.48527">
        <ele>1334.93</ele>
        <time>2011-04-23T09:49:17Z</time>
      </trkpt>
      <trkpt lat="44.98627" lon="5.48493">
        <ele>1336.85</ele>
        <time>2011-04-23T09:49:28Z</time>
      </trkpt>
      <trkpt lat="44.98625" lon="5.48442">
        <ele>1334.93</ele>
        <time>2011-04-23T09:49:40Z</time>
      </trkpt>
      <trkpt lat="44.98626" lon="5.48426">
        <ele>1333.97</ele>
        <time>2011-04-23T09:49:43Z</time>
      </trkpt>
      <trkpt lat="44.9862" lon="5.484">
        <ele>1335.89</ele>
        <time>2011-04-23T09:49:52Z</time>
      </trkpt>
      <trkpt lat="44.98601" lon="5.48382">
        <ele>1336.85</ele>
        <time>2011-04-23T09:50:04Z</time>
      </trkpt>
      <trkpt lat="44.98581" lon="5.48366">
        <ele>1337.81</ele>
        <time>2011-04-23T09:50:16Z</time>
      </trkpt>
      <trkpt lat="44.98557" lon="5.48351">
        <ele>1337.33</ele>
        <time>2011-04-23T09:50:27Z</time>
      </trkpt>
      <trkpt lat="44.98555" lon="5.48349">
        <ele>1337.33</ele>
        <time>2011-04-23T09:50:28Z</time>
      </trkpt>
      <trkpt lat="44.98548" lon="5.48333">
        <ele>1339.25</ele>
        <time>2011-04-23T09:50:35Z</time>
      </trkpt>
      <trkpt lat="44.98547" lon="5.48329">
        <ele>1339.25</ele>
        <time>2011-04-23T09:50:37Z</time>
      </trkpt>
      <trkpt lat="44.98547" lon="5.48327">
        <ele>1339.25</ele>
        <time>2011-04-23T09:50:38Z</time>
      </trkpt>
      <trkpt lat="44.98548" lon="5.48324">
        <ele>1340.22</ele>
        <time>2011-04-23T09:50:39Z</time>
      </trkpt>
      <trkpt lat="44.98555" lon="5.48304">
        <ele>1341.66</ele>
        <time>2011-04-23T09:50:49Z</time>
      </trkpt>
      <trkpt lat="44.98556" lon="5.483">
        <ele>1342.14</ele>
        <time>2011-04-23T09:50:51Z</time>
      </trkpt>
      <trkpt lat="44.98556" lon="5.48298">
        <ele>1342.62</ele>
        <time>2011-04-23T09:50:52Z</time>
      </trkpt>
      <trkpt lat="44.98556" lon="5.48294">
        <ele>1343.58</ele>
        <time>2011-04-23T09:50:54Z</time>
      </trkpt>
      <trkpt lat="44.98558" lon="5.48262">
        <ele>1346.46</ele>
        <time>2011-04-23T09:51:09Z</time>
      </trkpt>
      <trkpt lat="44.98559" lon="5.48234">
        <ele>1348.87</ele>
        <time>2011-04-23T09:51:23Z</time>
      </trkpt>
      <trkpt lat="44.98559" lon="5.48232">
        <ele>1349.35</ele>
        <time>2011-04-23T09:51:24Z</time>
      </trkpt>
      <trkpt lat="44.98564" lon="5.48219">
        <ele>1348.87</ele>
        <time>2011-04-23T09:51:33Z</time>
      </trkpt>
      <trkpt lat="44.98564" lon="5.48217">
        <ele>1348.87</ele>
        <time>2011-04-23T09:51:34Z</time>
      </trkpt>
      <trkpt lat="44.98572" lon="5.48202">
        <ele>1349.83</ele>
        <time>2011-04-23T09:51:42Z</time>
      </trkpt>
      <trkpt lat="44.98573" lon="5.482">
        <ele>1350.31</ele>
        <time>2011-04-23T09:51:43Z</time>
      </trkpt>
      <trkpt lat="44.98574" lon="5.48199">
        <ele>1350.79</ele>
        <time>2011-04-23T09:51:44Z</time>
      </trkpt>
      <trkpt lat="44.98576" lon="5.48198">
        <ele>1351.27</ele>
        <time>2011-04-23T09:51:45Z</time>
      </trkpt>
      <trkpt lat="44.98577" lon="5.48197">
        <ele>1351.75</ele>
        <time>2011-04-23T09:51:46Z</time>
      </trkpt>
      <trkpt lat="44.98578" lon="5.48196">
        <ele>1352.23</ele>
        <time>2011-04-23T09:51:47Z</time>
      </trkpt>
      <trkpt lat="44.98579" lon="5.48195">
        <ele>1352.23</ele>
        <time>2011-04-23T09:51:48Z</time>
      </trkpt>
      <trkpt lat="44.9858" lon="5.48194">
        <ele>1352.23</ele>
        <time>2011-04-23T09:51:49Z</time>
      </trkpt>
      <trkpt lat="44.98582" lon="5.48193">
        <ele>1352.23</ele>
        <time>2011-04-23T09:51:50Z</time>
      </trkpt>
      <trkpt lat="44.98583" lon="5.48193">
        <ele>1352.71</ele>
        <time>2011-04-23T09:51:51Z</time>
      </trkpt>
      <trkpt lat="44.98584" lon="5.48191">
        <ele>1353.19</ele>
        <time>2011-04-23T09:51:52Z</time>
      </trkpt>
      <trkpt lat="44.98586" lon="5.4819">
        <ele>1353.19</ele>
        <time>2011-04-23T09:51:53Z</time>
      </trkpt>
      <trkpt lat="44.98587" lon="5.48189">
        <ele>1353.19</ele>
        <time>2011-04-23T09:51:54Z</time>
      </trkpt>
      <trkpt lat="44.98604" lon="5.48176">
        <ele>1355.6</ele>
        <time>2011-04-23T09:52:09Z</time>
      </trkpt>
      <trkpt lat="44.98615" lon="5.48166">
        <ele>1352.71</ele>
        <time>2011-04-23T09:52:15Z</time>
      </trkpt>
      <trkpt lat="44.98627" lon="5.48153">
        <ele>1348.87</ele>
        <time>2011-04-23T09:52:19Z</time>
      </trkpt>
      <trkpt lat="44.98631" lon="5.4815">
        <ele>1348.39</ele>
        <time>2011-04-23T09:52:20Z</time>
      </trkpt>
      <trkpt lat="44.98636" lon="5.48147">
        <ele>1347.43</ele>
        <time>2011-04-23T09:52:21Z</time>
      </trkpt>
      <trkpt lat="44.98641" lon="5.48144">
        <ele>1346.94</ele>
        <time>2011-04-23T09:52:22Z</time>
      </trkpt>
      <trkpt lat="44.98647" lon="5.48142">
        <ele>1345.98</ele>
        <time>2011-04-23T09:52:23Z</time>
      </trkpt>
      <trkpt lat="44.98652" lon="5.48139">
        <ele>1345.98</ele>
        <time>2011-04-23T09:52:24Z</time>
      </trkpt>
      <trkpt lat="44.98658" lon="5.48136">
        <ele>1345.5</ele>
        <time>2011-04-23T09:52:25Z</time>
      </trkpt>
      <trkpt lat="44.98662" lon="5.48132">
        <ele>1345.02</ele>
        <time>2011-04-23T09:52:26Z</time>
      </trkpt>
      <trkpt lat="44.98667" lon="5.48128">
        <ele>1345.5</ele>
        <time>2011-04-23T09:52:27Z</time>
      </trkpt>
      <trkpt lat="44.98681" lon="5.48115">
        <ele>1347.91</ele>
        <time>2011-04-23T09:52:34Z</time>
      </trkpt>
      <trkpt lat="44.98682" lon="5.48113">
        <ele>1347.91</ele>
        <time>2011-04-23T09:52:35Z</time>
      </trkpt>
      <trkpt lat="44.98683" lon="5.48111">
        <ele>1347.91</ele>
        <time>2011-04-23T09:52:36Z</time>
      </trkpt>
      <trkpt lat="44.98685" lon="5.4811">
        <ele>1348.39</ele>
        <time>2011-04-23T09:52:37Z</time>
      </trkpt>
      <trkpt lat="44.98686" lon="5.48109">
        <ele>1347.91</ele>
        <time>2011-04-23T09:52:38Z</time>
      </trkpt>
      <trkpt lat="44.98687" lon="5.48108">
        <ele>1347.91</ele>
        <time>2011-04-23T09:52:39Z</time>
      </trkpt>
      <trkpt lat="44.98709" lon="5.4808">
        <ele>1347.43</ele>
        <time>2011-04-23T09:52:54Z</time>
      </trkpt>
      <trkpt lat="44.98723" lon="5.48063">
        <ele>1345.02</ele>
        <time>2011-04-23T09:52:59Z</time>
      </trkpt>
      <trkpt lat="44.98747" lon="5.48039">
        <ele>1341.66</ele>
        <time>2011-04-23T09:53:06Z</time>
      </trkpt>
      <trkpt lat="44.98751" lon="5.48033">
        <ele>1340.7</ele>
        <time>2011-04-23T09:53:07Z</time>
      </trkpt>
      <trkpt lat="44.98756" lon="5.48027">
        <ele>1339.73</ele>
        <time>2011-04-23T09:53:08Z</time>
      </trkpt>
      <trkpt lat="44.9876" lon="5.48021">
        <ele>1339.73</ele>
        <time>2011-04-23T09:53:09Z</time>
      </trkpt>
      <trkpt lat="44.98777" lon="5.47993">
        <ele>1343.1</ele>
        <time>2011-04-23T09:53:18Z</time>
      </trkpt>
      <trkpt lat="44.98795" lon="5.47971">
        <ele>1345.02</ele>
        <time>2011-04-23T09:53:32Z</time>
      </trkpt>
      <trkpt lat="44.98814" lon="5.47957">
        <ele>1347.43</ele>
        <time>2011-04-23T09:53:46Z</time>
      </trkpt>
      <trkpt lat="44.98837" lon="5.4795">
        <ele>1347.43</ele>
        <time>2011-04-23T09:54:01Z</time>
      </trkpt>
      <trkpt lat="44.98863" lon="5.47937">
        <ele>1347.43</ele>
        <time>2011-04-23T09:54:13Z</time>
      </trkpt>
      <trkpt lat="44.98867" lon="5.47935">
        <ele>1347.91</ele>
        <time>2011-04-23T09:54:15Z</time>
      </trkpt>
      <trkpt lat="44.98869" lon="5.47934">
        <ele>1348.39</ele>
        <time>2011-04-23T09:54:16Z</time>
      </trkpt>
      <trkpt lat="44.98871" lon="5.47933">
        <ele>1349.35</ele>
        <time>2011-04-23T09:54:17Z</time>
      </trkpt>
      <trkpt lat="44.98879" lon="5.47916">
        <ele>1352.71</ele>
        <time>2011-04-23T09:54:26Z</time>
      </trkpt>
      <trkpt lat="44.98878" lon="5.479">
        <ele>1354.15</ele>
        <time>2011-04-23T09:54:33Z</time>
      </trkpt>
      <trkpt lat="44.98875" lon="5.47884">
        <ele>1357.52</ele>
        <time>2011-04-23T09:54:42Z</time>
      </trkpt>
      <trkpt lat="44.98875" lon="5.47882">
        <ele>1357.04</ele>
        <time>2011-04-23T09:54:43Z</time>
      </trkpt>
      <trkpt lat="44.98868" lon="5.4786">
        <ele>1360.4</ele>
        <time>2011-04-23T09:54:54Z</time>
      </trkpt>
      <trkpt lat="44.98865" lon="5.4784">
        <ele>1363.77</ele>
        <time>2011-04-23T09:55:06Z</time>
      </trkpt>
      <trkpt lat="44.98866" lon="5.47833">
        <ele>1364.25</ele>
        <time>2011-04-23T09:55:16Z</time>
      </trkpt>
      <trkpt lat="44.98865" lon="5.47828">
        <ele>1365.69</ele>
        <time>2011-04-23T09:55:27Z</time>
      </trkpt>
      <trkpt lat="44.98868" lon="5.47826">
        <ele>1365.69</ele>
        <time>2011-04-23T09:56:25Z</time>
      </trkpt>
      <trkpt lat="44.98875" lon="5.47821">
        <ele>1365.69</ele>
        <time>2011-04-23T09:56:40Z</time>
      </trkpt>
      <trkpt lat="44.98883" lon="5.47804">
        <ele>1366.65</ele>
        <time>2011-04-23T09:56:50Z</time>
      </trkpt>
      <trkpt lat="44.98884" lon="5.47802">
        <ele>1366.17</ele>
        <time>2011-04-23T09:56:51Z</time>
      </trkpt>
      <trkpt lat="44.98885" lon="5.478">
        <ele>1365.21</ele>
        <time>2011-04-23T09:56:52Z</time>
      </trkpt>
      <trkpt lat="44.98891" lon="5.47774">
        <ele>1365.69</ele>
        <time>2011-04-23T09:56:59Z</time>
      </trkpt>
      <trkpt lat="44.98892" lon="5.47772">
        <ele>1365.21</ele>
        <time>2011-04-23T09:57:00Z</time>
      </trkpt>
      <trkpt lat="44.98893" lon="5.47769">
        <ele>1365.69</ele>
        <time>2011-04-23T09:57:01Z</time>
      </trkpt>
      <trkpt lat="44.98895" lon="5.47767">
        <ele>1365.69</ele>
        <time>2011-04-23T09:57:02Z</time>
      </trkpt>
      <trkpt lat="44.98896" lon="5.47765">
        <ele>1365.69</ele>
        <time>2011-04-23T09:57:03Z</time>
      </trkpt>
      <trkpt lat="44.98898" lon="5.47762">
        <ele>1365.69</ele>
        <time>2011-04-23T09:57:04Z</time>
      </trkpt>
      <trkpt lat="44.98899" lon="5.4776">
        <ele>1365.69</ele>
        <time>2011-04-23T09:57:05Z</time>
      </trkpt>
      <trkpt lat="44.989" lon="5.47757">
        <ele>1365.69</ele>
        <time>2011-04-23T09:57:06Z</time>
      </trkpt>
      <trkpt lat="44.98902" lon="5.47755">
        <ele>1365.69</ele>
        <time>2011-04-23T09:57:07Z</time>
      </trkpt>
      <trkpt lat="44.98902" lon="5.47752">
        <ele>1365.21</ele>
        <time>2011-04-23T09:57:08Z</time>
      </trkpt>
      <trkpt lat="44.98903" lon="5.4775">
        <ele>1365.69</ele>
        <time>2011-04-23T09:57:09Z</time>
      </trkpt>
      <trkpt lat="44.98904" lon="5.47747">
        <ele>1365.69</ele>
        <time>2011-04-23T09:57:10Z</time>
      </trkpt>
      <trkpt lat="44.98908" lon="5.47712">
        <ele>1362.33</ele>
        <time>2011-04-23T09:57:21Z</time>
      </trkpt>
      <trkpt lat="44.98906" lon="5.47686">
        <ele>1358.96</ele>
        <time>2011-04-23T09:57:26Z</time>
      </trkpt>
      <trkpt lat="44.98907" lon="5.4768">
        <ele>1358</ele>
        <time>2011-04-23T09:57:27Z</time>
      </trkpt>
      <trkpt lat="44.98909" lon="5.47673">
        <ele>1357.52</ele>
        <time>2011-04-23T09:57:28Z</time>
      </trkpt>
      <trkpt lat="44.98911" lon="5.47667">
        <ele>1356.56</ele>
        <time>2011-04-23T09:57:29Z</time>
      </trkpt>
      <trkpt lat="44.98918" lon="5.47655">
        <ele>1356.56</ele>
        <time>2011-04-23T09:57:31Z</time>
      </trkpt>
      <trkpt lat="44.98921" lon="5.4765">
        <ele>1356.08</ele>
        <time>2011-04-23T09:57:32Z</time>
      </trkpt>
      <trkpt lat="44.98929" lon="5.47634">
        <ele>1355.12</ele>
        <time>2011-04-23T09:57:35Z</time>
      </trkpt>
      <trkpt lat="44.98932" lon="5.47628">
        <ele>1355.12</ele>
        <time>2011-04-23T09:57:36Z</time>
      </trkpt>
      <trkpt lat="44.98932" lon="5.47622">
        <ele>1355.6</ele>
        <time>2011-04-23T09:57:37Z</time>
      </trkpt>
      <trkpt lat="44.98933" lon="5.47617">
        <ele>1355.6</ele>
        <time>2011-04-23T09:57:38Z</time>
      </trkpt>
      <trkpt lat="44.98933" lon="5.47611">
        <ele>1355.6</ele>
        <time>2011-04-23T09:57:39Z</time>
      </trkpt>
      <trkpt lat="44.98939" lon="5.47583">
        <ele>1356.56</ele>
        <time>2011-04-23T09:57:48Z</time>
      </trkpt>
      <trkpt lat="44.98951" lon="5.47562">
        <ele>1357.52</ele>
        <time>2011-04-23T09:57:58Z</time>
      </trkpt>
      <trkpt lat="44.98968" lon="5.47543">
        <ele>1356.56</ele>
        <time>2011-04-23T09:58:06Z</time>
      </trkpt>
      <trkpt lat="44.98972" lon="5.47543">
        <ele>1357.04</ele>
        <time>2011-04-23T09:58:07Z</time>
      </trkpt>
      <trkpt lat="44.98976" lon="5.47543">
        <ele>1357.04</ele>
        <time>2011-04-23T09:58:08Z</time>
      </trkpt>
      <trkpt lat="44.98979" lon="5.47544">
        <ele>1357.04</ele>
        <time>2011-04-23T09:58:09Z</time>
      </trkpt>
      <trkpt lat="44.98982" lon="5.47544">
        <ele>1357.04</ele>
        <time>2011-04-23T09:58:10Z</time>
      </trkpt>
      <trkpt lat="44.98984" lon="5.47544">
        <ele>1356.56</ele>
        <time>2011-04-23T09:58:11Z</time>
      </trkpt>
      <trkpt lat="44.98986" lon="5.47544">
        <ele>1357.04</ele>
        <time>2011-04-23T09:58:12Z</time>
      </trkpt>
      <trkpt lat="44.98988" lon="5.47542">
        <ele>1358</ele>
        <time>2011-04-23T09:58:26Z</time>
      </trkpt>
      <trkpt lat="44.98989" lon="5.47541">
        <ele>1358</ele>
        <time>2011-04-23T09:58:39Z</time>
      </trkpt>
      <trkpt lat="44.98989" lon="5.4754">
        <ele>1358</ele>
        <time>2011-04-23T09:58:40Z</time>
      </trkpt>
      <trkpt lat="44.98989" lon="5.47538">
        <ele>1358</ele>
        <time>2011-04-23T09:58:41Z</time>
      </trkpt>
      <trkpt lat="44.98988" lon="5.47536">
        <ele>1358</ele>
        <time>2011-04-23T09:58:42Z</time>
      </trkpt>
      <trkpt lat="44.98987" lon="5.47535">
        <ele>1358</ele>
        <time>2011-04-23T09:58:43Z</time>
      </trkpt>
      <trkpt lat="44.98987" lon="5.47533">
        <ele>1358</ele>
        <time>2011-04-23T09:58:44Z</time>
      </trkpt>
      <trkpt lat="44.98987" lon="5.47531">
        <ele>1358</ele>
        <time>2011-04-23T09:58:45Z</time>
      </trkpt>
      <trkpt lat="44.98986" lon="5.47529">
        <ele>1358.48</ele>
        <time>2011-04-23T09:58:46Z</time>
      </trkpt>
      <trkpt lat="44.98981" lon="5.47492">
        <ele>1359.92</ele>
        <time>2011-04-23T09:58:59Z</time>
      </trkpt>
      <trkpt lat="44.98976" lon="5.47474">
        <ele>1363.29</ele>
        <time>2011-04-23T09:59:06Z</time>
      </trkpt>
      <trkpt lat="44.98959" lon="5.47457">
        <ele>1363.29</ele>
        <time>2011-04-23T09:59:18Z</time>
      </trkpt>
      <trkpt lat="44.98933" lon="5.47446">
        <ele>1364.25</ele>
        <time>2011-04-23T09:59:32Z</time>
      </trkpt>
      <trkpt lat="44.98915" lon="5.47435">
        <ele>1365.21</ele>
        <time>2011-04-23T09:59:42Z</time>
      </trkpt>
      <trkpt lat="44.9889" lon="5.47419">
        <ele>1367.13</ele>
        <time>2011-04-23T09:59:56Z</time>
      </trkpt>
      <trkpt lat="44.98871" lon="5.4741">
        <ele>1368.09</ele>
        <time>2011-04-23T10:00:06Z</time>
      </trkpt>
      <trkpt lat="44.98843" lon="5.47398">
        <ele>1369.05</ele>
        <time>2011-04-23T10:00:20Z</time>
      </trkpt>
      <trkpt lat="44.98826" lon="5.47386">
        <ele>1375.3</ele>
        <time>2011-04-23T10:00:31Z</time>
      </trkpt>
      <trkpt lat="44.98825" lon="5.47385">
        <ele>1367.13</ele>
        <time>2011-04-23T10:00:32Z</time>
      </trkpt>
      <trkpt lat="44.98823" lon="5.47382">
        <ele>1369.54</ele>
        <time>2011-04-23T10:00:35Z</time>
      </trkpt>
      <trkpt lat="44.98821" lon="5.47378">
        <ele>1370.02</ele>
        <time>2011-04-23T10:00:37Z</time>
      </trkpt>
      <trkpt lat="44.9882" lon="5.47376">
        <ele>1370.02</ele>
        <time>2011-04-23T10:00:38Z</time>
      </trkpt>
      <trkpt lat="44.98819" lon="5.47374">
        <ele>1370.5</ele>
        <time>2011-04-23T10:00:39Z</time>
      </trkpt>
      <trkpt lat="44.98817" lon="5.47373">
        <ele>1370.5</ele>
        <time>2011-04-23T10:00:40Z</time>
      </trkpt>
      <trkpt lat="44.98816" lon="5.47372">
        <ele>1370.02</ele>
        <time>2011-04-23T10:00:41Z</time>
      </trkpt>
      <trkpt lat="44.98814" lon="5.47372">
        <ele>1370.98</ele>
        <time>2011-04-23T10:00:42Z</time>
      </trkpt>
      <trkpt lat="44.98813" lon="5.47373">
        <ele>1369.54</ele>
        <time>2011-04-23T10:00:43Z</time>
      </trkpt>
      <trkpt lat="44.98792" lon="5.47398">
        <ele>1368.09</ele>
        <time>2011-04-23T10:00:52Z</time>
      </trkpt>
      <trkpt lat="44.9879" lon="5.4742">
        <ele>1366.17</ele>
        <time>2011-04-23T10:00:58Z</time>
      </trkpt>
      <trkpt lat="44.98787" lon="5.47423">
        <ele>1365.69</ele>
        <time>2011-04-23T10:01:00Z</time>
      </trkpt>
      <trkpt lat="44.98785" lon="5.47423">
        <ele>1365.69</ele>
        <time>2011-04-23T10:01:01Z</time>
      </trkpt>
      <trkpt lat="44.98784" lon="5.47421">
        <ele>1365.69</ele>
        <time>2011-04-23T10:01:02Z</time>
      </trkpt>
      <trkpt lat="44.98783" lon="5.47419">
        <ele>1366.17</ele>
        <time>2011-04-23T10:01:03Z</time>
      </trkpt>
      <trkpt lat="44.98783" lon="5.47417">
        <ele>1365.69</ele>
        <time>2011-04-23T10:01:04Z</time>
      </trkpt>
      <trkpt lat="44.98774" lon="5.47384">
        <ele>1362.33</ele>
        <time>2011-04-23T10:01:12Z</time>
      </trkpt>
      <trkpt lat="44.98767" lon="5.47361">
        <ele>1360.4</ele>
        <time>2011-04-23T10:01:15Z</time>
      </trkpt>
      <trkpt lat="44.98764" lon="5.47355">
        <ele>1360.4</ele>
        <time>2011-04-23T10:01:16Z</time>
      </trkpt>
      <trkpt lat="44.9876" lon="5.4735">
        <ele>1360.4</ele>
        <time>2011-04-23T10:01:17Z</time>
      </trkpt>
      <trkpt lat="44.98757" lon="5.47346">
        <ele>1360.88</ele>
        <time>2011-04-23T10:01:18Z</time>
      </trkpt>
      <trkpt lat="44.98755" lon="5.47342">
        <ele>1360.88</ele>
        <time>2011-04-23T10:01:19Z</time>
      </trkpt>
      <trkpt lat="44.98752" lon="5.47337">
        <ele>1360.4</ele>
        <time>2011-04-23T10:01:20Z</time>
      </trkpt>
      <trkpt lat="44.9875" lon="5.47331">
        <ele>1360.4</ele>
        <time>2011-04-23T10:01:21Z</time>
      </trkpt>
      <trkpt lat="44.98748" lon="5.47326">
        <ele>1360.4</ele>
        <time>2011-04-23T10:01:22Z</time>
      </trkpt>
      <trkpt lat="44.98732" lon="5.47285">
        <ele>1359.92</ele>
        <time>2011-04-23T10:01:32Z</time>
      </trkpt>
      <trkpt lat="44.98726" lon="5.47278">
        <ele>1358.96</ele>
        <time>2011-04-23T10:01:34Z</time>
      </trkpt>
      <trkpt lat="44.98722" lon="5.47275">
        <ele>1358.48</ele>
        <time>2011-04-23T10:01:35Z</time>
      </trkpt>
      <trkpt lat="44.98718" lon="5.47271">
        <ele>1358.48</ele>
        <time>2011-04-23T10:01:36Z</time>
      </trkpt>
      <trkpt lat="44.98708" lon="5.47263">
        <ele>1359.44</ele>
        <time>2011-04-23T10:01:40Z</time>
      </trkpt>
      <trkpt lat="44.98707" lon="5.47261">
        <ele>1359.92</ele>
        <time>2011-04-23T10:01:41Z</time>
      </trkpt>
      <trkpt lat="44.98706" lon="5.47259">
        <ele>1359.92</ele>
        <time>2011-04-23T10:01:42Z</time>
      </trkpt>
      <trkpt lat="44.98705" lon="5.47257">
        <ele>1359.44</ele>
        <time>2011-04-23T10:01:43Z</time>
      </trkpt>
      <trkpt lat="44.98703" lon="5.47251">
        <ele>1360.4</ele>
        <time>2011-04-23T10:01:49Z</time>
      </trkpt>
      <trkpt lat="44.98698" lon="5.47245">
        <ele>1361.84</ele>
        <time>2011-04-23T10:01:54Z</time>
      </trkpt>
      <trkpt lat="44.98691" lon="5.47239">
        <ele>1364.73</ele>
        <time>2011-04-23T10:02:06Z</time>
      </trkpt>
      <trkpt lat="44.98688" lon="5.4723">
        <ele>1368.09</ele>
        <time>2011-04-23T10:02:17Z</time>
      </trkpt>
      <trkpt lat="44.98681" lon="5.47216">
        <ele>1370.02</ele>
        <time>2011-04-23T10:02:31Z</time>
      </trkpt>
      <trkpt lat="44.98676" lon="5.47202">
        <ele>1372.9</ele>
        <time>2011-04-23T10:02:45Z</time>
      </trkpt>
      <trkpt lat="44.98675" lon="5.47192">
        <ele>1375.3</ele>
        <time>2011-04-23T10:02:56Z</time>
      </trkpt>
      <trkpt lat="44.98673" lon="5.47186">
        <ele>1377.71</ele>
        <time>2011-04-23T10:03:06Z</time>
      </trkpt>
      <trkpt lat="44.98672" lon="5.47176">
        <ele>1379.63</ele>
        <time>2011-04-23T10:03:18Z</time>
      </trkpt>
      <trkpt lat="44.98671" lon="5.47172">
        <ele>1379.15</ele>
        <time>2011-04-23T10:03:27Z</time>
      </trkpt>
      <trkpt lat="44.9867" lon="5.4717">
        <ele>1378.67</ele>
        <time>2011-04-23T10:03:28Z</time>
      </trkpt>
      <trkpt lat="44.98662" lon="5.47161">
        <ele>1377.71</ele>
        <time>2011-04-23T10:03:32Z</time>
      </trkpt>
      <trkpt lat="44.9866" lon="5.4716">
        <ele>1377.71</ele>
        <time>2011-04-23T10:03:33Z</time>
      </trkpt>
      <trkpt lat="44.98659" lon="5.47159">
        <ele>1378.19</ele>
        <time>2011-04-23T10:03:34Z</time>
      </trkpt>
      <trkpt lat="44.98657" lon="5.47159">
        <ele>1378.19</ele>
        <time>2011-04-23T10:03:35Z</time>
      </trkpt>
      <trkpt lat="44.98655" lon="5.47158">
        <ele>1378.67</ele>
        <time>2011-04-23T10:03:36Z</time>
      </trkpt>
      <trkpt lat="44.98653" lon="5.47158">
        <ele>1378.67</ele>
        <time>2011-04-23T10:03:37Z</time>
      </trkpt>
      <trkpt lat="44.9865" lon="5.47157">
        <ele>1378.67</ele>
        <time>2011-04-23T10:03:39Z</time>
      </trkpt>
      <trkpt lat="44.98643" lon="5.47156">
        <ele>1380.11</ele>
        <time>2011-04-23T10:03:48Z</time>
      </trkpt>
      <trkpt lat="44.98641" lon="5.47156">
        <ele>1381.07</ele>
        <time>2011-04-23T10:03:50Z</time>
      </trkpt>
      <trkpt lat="44.98632" lon="5.47155">
        <ele>1382.99</ele>
        <time>2011-04-23T10:04:01Z</time>
      </trkpt>
      <trkpt lat="44.98626" lon="5.47148">
        <ele>1385.4</ele>
        <time>2011-04-23T10:04:11Z</time>
      </trkpt>
      <trkpt lat="44.9862" lon="5.47137">
        <ele>1386.36</ele>
        <time>2011-04-23T10:04:21Z</time>
      </trkpt>
      <trkpt lat="44.98619" lon="5.47135">
        <ele>1386.84</ele>
        <time>2011-04-23T10:04:28Z</time>
      </trkpt>
      <trkpt lat="44.98609" lon="5.47118">
        <ele>1386.84</ele>
        <time>2011-04-23T10:04:37Z</time>
      </trkpt>
      <trkpt lat="44.98602" lon="5.47101">
        <ele>1386.84</ele>
        <time>2011-04-23T10:04:44Z</time>
      </trkpt>
      <trkpt lat="44.98587" lon="5.47092">
        <ele>1387.8</ele>
        <time>2011-04-23T10:04:55Z</time>
      </trkpt>
      <trkpt lat="44.98582" lon="5.47091">
        <ele>1387.8</ele>
        <time>2011-04-23T10:04:58Z</time>
      </trkpt>
      <trkpt lat="44.98566" lon="5.47089">
        <ele>1389.24</ele>
        <time>2011-04-23T10:05:06Z</time>
      </trkpt>
      <trkpt lat="44.98564" lon="5.47087">
        <ele>1389.24</ele>
        <time>2011-04-23T10:05:08Z</time>
      </trkpt>
      <trkpt lat="44.98551" lon="5.47083">
        <ele>1390.68</ele>
        <time>2011-04-23T10:05:16Z</time>
      </trkpt>
      <trkpt lat="44.98544" lon="5.4707">
        <ele>1392.13</ele>
        <time>2011-04-23T10:05:24Z</time>
      </trkpt>
      <trkpt lat="44.98531" lon="5.47044">
        <ele>1392.13</ele>
        <time>2011-04-23T10:05:36Z</time>
      </trkpt>
      <trkpt lat="44.98526" lon="5.47042">
        <ele>1390.68</ele>
        <time>2011-04-23T10:05:38Z</time>
      </trkpt>
      <trkpt lat="44.98523" lon="5.47041">
        <ele>1390.2</ele>
        <time>2011-04-23T10:05:39Z</time>
      </trkpt>
      <trkpt lat="44.98501" lon="5.47036">
        <ele>1391.17</ele>
        <time>2011-04-23T10:05:48Z</time>
      </trkpt>
      <trkpt lat="44.98499" lon="5.47033">
        <ele>1390.68</ele>
        <time>2011-04-23T10:05:49Z</time>
      </trkpt>
      <trkpt lat="44.98497" lon="5.4703">
        <ele>1390.2</ele>
        <time>2011-04-23T10:05:50Z</time>
      </trkpt>
      <trkpt lat="44.98486" lon="5.47014">
        <ele>1391.65</ele>
        <time>2011-04-23T10:05:56Z</time>
      </trkpt>
      <trkpt lat="44.98484" lon="5.47011">
        <ele>1392.13</ele>
        <time>2011-04-23T10:05:59Z</time>
      </trkpt>
      <trkpt lat="44.98483" lon="5.4701">
        <ele>1392.61</ele>
        <time>2011-04-23T10:06:00Z</time>
      </trkpt>
      <trkpt lat="44.98482" lon="5.47008">
        <ele>1392.61</ele>
        <time>2011-04-23T10:06:01Z</time>
      </trkpt>
      <trkpt lat="44.98481" lon="5.47006">
        <ele>1392.61</ele>
        <time>2011-04-23T10:06:02Z</time>
      </trkpt>
      <trkpt lat="44.9848" lon="5.47005">
        <ele>1393.09</ele>
        <time>2011-04-23T10:06:03Z</time>
      </trkpt>
      <trkpt lat="44.98477" lon="5.47">
        <ele>1393.09</ele>
        <time>2011-04-23T10:06:06Z</time>
      </trkpt>
      <trkpt lat="44.98476" lon="5.46997">
        <ele>1393.57</ele>
        <time>2011-04-23T10:06:07Z</time>
      </trkpt>
      <trkpt lat="44.98475" lon="5.46995">
        <ele>1394.05</ele>
        <time>2011-04-23T10:06:08Z</time>
      </trkpt>
      <trkpt lat="44.98473" lon="5.46991">
        <ele>1393.57</ele>
        <time>2011-04-23T10:06:10Z</time>
      </trkpt>
      <trkpt lat="44.98472" lon="5.46988">
        <ele>1393.57</ele>
        <time>2011-04-23T10:06:11Z</time>
      </trkpt>
      <trkpt lat="44.9847" lon="5.46985">
        <ele>1394.05</ele>
        <time>2011-04-23T10:06:12Z</time>
      </trkpt>
      <trkpt lat="44.9847" lon="5.46983">
        <ele>1393.57</ele>
        <time>2011-04-23T10:06:13Z</time>
      </trkpt>
      <trkpt lat="44.9847" lon="5.46981">
        <ele>1393.57</ele>
        <time>2011-04-23T10:06:14Z</time>
      </trkpt>
      <trkpt lat="44.98471" lon="5.46979">
        <ele>1393.57</ele>
        <time>2011-04-23T10:06:15Z</time>
      </trkpt>
      <trkpt lat="44.98471" lon="5.46976">
        <ele>1393.57</ele>
        <time>2011-04-23T10:06:16Z</time>
      </trkpt>
      <trkpt lat="44.9847" lon="5.46973">
        <ele>1393.09</ele>
        <time>2011-04-23T10:06:17Z</time>
      </trkpt>
      <trkpt lat="44.98469" lon="5.4697">
        <ele>1393.57</ele>
        <time>2011-04-23T10:06:18Z</time>
      </trkpt>
      <trkpt lat="44.98469" lon="5.46966">
        <ele>1393.57</ele>
        <time>2011-04-23T10:06:19Z</time>
      </trkpt>
      <trkpt lat="44.98468" lon="5.46963">
        <ele>1393.57</ele>
        <time>2011-04-23T10:06:20Z</time>
      </trkpt>
      <trkpt lat="44.9846" lon="5.4693">
        <ele>1393.57</ele>
        <time>2011-04-23T10:06:31Z</time>
      </trkpt>
      <trkpt lat="44.98451" lon="5.46887">
        <ele>1395.49</ele>
        <time>2011-04-23T10:06:46Z</time>
      </trkpt>
      <trkpt lat="44.98443" lon="5.46853">
        <ele>1394.53</ele>
        <time>2011-04-23T10:06:57Z</time>
      </trkpt>
      <trkpt lat="44.98436" lon="5.46829">
        <ele>1392.13</ele>
        <time>2011-04-23T10:07:02Z</time>
      </trkpt>
      <trkpt lat="44.98435" lon="5.46824">
        <ele>1392.61</ele>
        <time>2011-04-23T10:07:03Z</time>
      </trkpt>
      <trkpt lat="44.98434" lon="5.46819">
        <ele>1393.09</ele>
        <time>2011-04-23T10:07:04Z</time>
      </trkpt>
      <trkpt lat="44.98434" lon="5.46815">
        <ele>1393.09</ele>
        <time>2011-04-23T10:07:05Z</time>
      </trkpt>
      <trkpt lat="44.98433" lon="5.46812">
        <ele>1393.57</ele>
        <time>2011-04-23T10:07:06Z</time>
      </trkpt>
      <trkpt lat="44.98431" lon="5.46794">
        <ele>1396.45</ele>
        <time>2011-04-23T10:07:15Z</time>
      </trkpt>
      <trkpt lat="44.9843" lon="5.46791">
        <ele>1396.93</ele>
        <time>2011-04-23T10:07:17Z</time>
      </trkpt>
      <trkpt lat="44.98429" lon="5.46789">
        <ele>1397.41</ele>
        <time>2011-04-23T10:07:18Z</time>
      </trkpt>
      <trkpt lat="44.98428" lon="5.46787">
        <ele>1397.89</ele>
        <time>2011-04-23T10:07:19Z</time>
      </trkpt>
      <trkpt lat="44.98426" lon="5.46782">
        <ele>1398.37</ele>
        <time>2011-04-23T10:07:22Z</time>
      </trkpt>
      <trkpt lat="44.98426" lon="5.4678">
        <ele>1398.86</ele>
        <time>2011-04-23T10:07:23Z</time>
      </trkpt>
      <trkpt lat="44.98426" lon="5.46778">
        <ele>1398.86</ele>
        <time>2011-04-23T10:07:24Z</time>
      </trkpt>
      <trkpt lat="44.98425" lon="5.46776">
        <ele>1398.37</ele>
        <time>2011-04-23T10:07:25Z</time>
      </trkpt>
      <trkpt lat="44.98424" lon="5.46774">
        <ele>1398.86</ele>
        <time>2011-04-23T10:07:26Z</time>
      </trkpt>
      <trkpt lat="44.98423" lon="5.46772">
        <ele>1398.86</ele>
        <time>2011-04-23T10:07:27Z</time>
      </trkpt>
      <trkpt lat="44.98422" lon="5.46771">
        <ele>1398.37</ele>
        <time>2011-04-23T10:07:28Z</time>
      </trkpt>
      <trkpt lat="44.98421" lon="5.4677">
        <ele>1398.86</ele>
        <time>2011-04-23T10:07:29Z</time>
      </trkpt>
      <trkpt lat="44.9842" lon="5.46768">
        <ele>1398.86</ele>
        <time>2011-04-23T10:07:30Z</time>
      </trkpt>
      <trkpt lat="44.98419" lon="5.46767">
        <ele>1398.86</ele>
        <time>2011-04-23T10:07:31Z</time>
      </trkpt>
      <trkpt lat="44.98417" lon="5.46764">
        <ele>1399.34</ele>
        <time>2011-04-23T10:07:32Z</time>
      </trkpt>
      <trkpt lat="44.98416" lon="5.46763">
        <ele>1398.86</ele>
        <time>2011-04-23T10:07:33Z</time>
      </trkpt>
      <trkpt lat="44.98414" lon="5.46761">
        <ele>1399.34</ele>
        <time>2011-04-23T10:07:34Z</time>
      </trkpt>
      <trkpt lat="44.98413" lon="5.4676">
        <ele>1399.82</ele>
        <time>2011-04-23T10:07:35Z</time>
      </trkpt>
      <trkpt lat="44.98412" lon="5.46758">
        <ele>1399.82</ele>
        <time>2011-04-23T10:07:36Z</time>
      </trkpt>
      <trkpt lat="44.98409" lon="5.46754">
        <ele>1399.82</ele>
        <time>2011-04-23T10:07:39Z</time>
      </trkpt>
      <trkpt lat="44.98407" lon="5.46753">
        <ele>1399.82</ele>
        <time>2011-04-23T10:07:40Z</time>
      </trkpt>
      <trkpt lat="44.98406" lon="5.46752">
        <ele>1399.82</ele>
        <time>2011-04-23T10:07:41Z</time>
      </trkpt>
      <trkpt lat="44.98405" lon="5.46751">
        <ele>1400.3</ele>
        <time>2011-04-23T10:07:42Z</time>
      </trkpt>
      <trkpt lat="44.98403" lon="5.4675">
        <ele>1399.82</ele>
        <time>2011-04-23T10:07:43Z</time>
      </trkpt>
      <trkpt lat="44.9839" lon="5.4673">
        <ele>1399.82</ele>
        <time>2011-04-23T10:07:53Z</time>
      </trkpt>
      <trkpt lat="44.98388" lon="5.46724">
        <ele>1400.3</ele>
        <time>2011-04-23T10:07:56Z</time>
      </trkpt>
      <trkpt lat="44.98388" lon="5.46722">
        <ele>1400.3</ele>
        <time>2011-04-23T10:07:57Z</time>
      </trkpt>
      <trkpt lat="44.98388" lon="5.46719">
        <ele>1400.3</ele>
        <time>2011-04-23T10:07:58Z</time>
      </trkpt>
      <trkpt lat="44.98387" lon="5.46715">
        <ele>1400.3</ele>
        <time>2011-04-23T10:08:01Z</time>
      </trkpt>
      <trkpt lat="44.98384" lon="5.46708">
        <ele>1400.3</ele>
        <time>2011-04-23T10:08:15Z</time>
      </trkpt>
      <trkpt lat="44.98384" lon="5.46705">
        <ele>1400.78</ele>
        <time>2011-04-23T10:08:29Z</time>
      </trkpt>
      <trkpt lat="44.98384" lon="5.46703">
        <ele>1400.78</ele>
        <time>2011-04-23T10:08:30Z</time>
      </trkpt>
      <trkpt lat="44.98384" lon="5.46702">
        <ele>1400.3</ele>
        <time>2011-04-23T10:08:31Z</time>
      </trkpt>
      <trkpt lat="44.98384" lon="5.46697">
        <ele>1400.3</ele>
        <time>2011-04-23T10:08:41Z</time>
      </trkpt>
      <trkpt lat="44.98384" lon="5.4669">
        <ele>1392.13</ele>
        <time>2011-04-23T10:08:45Z</time>
      </trkpt>
      <trkpt lat="44.98384" lon="5.46689">
        <ele>1400.78</ele>
        <time>2011-04-23T10:08:46Z</time>
      </trkpt>
      <trkpt lat="44.98384" lon="5.46689">
        <ele>1399.34</ele>
        <time>2011-04-23T10:08:47Z</time>
      </trkpt>
      <trkpt lat="44.98378" lon="5.46669">
        <ele>1395.97</ele>
        <time>2011-04-23T10:08:54Z</time>
      </trkpt>
      <trkpt lat="44.98377" lon="5.46666">
        <ele>1395.49</ele>
        <time>2011-04-23T10:08:55Z</time>
      </trkpt>
      <trkpt lat="44.98368" lon="5.46646">
        <ele>1391.65</ele>
        <time>2011-04-23T10:09:00Z</time>
      </trkpt>
      <trkpt lat="44.98366" lon="5.46641">
        <ele>1390.2</ele>
        <time>2011-04-23T10:09:01Z</time>
      </trkpt>
      <trkpt lat="44.98363" lon="5.46635">
        <ele>1390.2</ele>
        <time>2011-04-23T10:09:02Z</time>
      </trkpt>
      <trkpt lat="44.9836" lon="5.46631">
        <ele>1390.2</ele>
        <time>2011-04-23T10:09:03Z</time>
      </trkpt>
      <trkpt lat="44.98357" lon="5.46627">
        <ele>1388.76</ele>
        <time>2011-04-23T10:09:04Z</time>
      </trkpt>
      <trkpt lat="44.98354" lon="5.46623">
        <ele>1388.76</ele>
        <time>2011-04-23T10:09:05Z</time>
      </trkpt>
      <trkpt lat="44.98351" lon="5.46618">
        <ele>1388.28</ele>
        <time>2011-04-23T10:09:06Z</time>
      </trkpt>
      <trkpt lat="44.98348" lon="5.46614">
        <ele>1387.8</ele>
        <time>2011-04-23T10:09:07Z</time>
      </trkpt>
      <trkpt lat="44.98343" lon="5.46607">
        <ele>1386.84</ele>
        <time>2011-04-23T10:09:09Z</time>
      </trkpt>
      <trkpt lat="44.98333" lon="5.46593">
        <ele>1384.44</ele>
        <time>2011-04-23T10:09:13Z</time>
      </trkpt>
      <trkpt lat="44.98327" lon="5.46584">
        <ele>1382.99</ele>
        <time>2011-04-23T10:09:15Z</time>
      </trkpt>
      <trkpt lat="44.98324" lon="5.46579">
        <ele>1381.55</ele>
        <time>2011-04-23T10:09:16Z</time>
      </trkpt>
      <trkpt lat="44.98321" lon="5.46574">
        <ele>1381.07</ele>
        <time>2011-04-23T10:09:17Z</time>
      </trkpt>
      <trkpt lat="44.98308" lon="5.46554">
        <ele>1378.19</ele>
        <time>2011-04-23T10:09:21Z</time>
      </trkpt>
      <trkpt lat="44.98301" lon="5.46545">
        <ele>1376.26</ele>
        <time>2011-04-23T10:09:23Z</time>
      </trkpt>
      <trkpt lat="44.98297" lon="5.46542">
        <ele>1375.78</ele>
        <time>2011-04-23T10:09:24Z</time>
      </trkpt>
      <trkpt lat="44.98281" lon="5.46522">
        <ele>1372.42</ele>
        <time>2011-04-23T10:09:28Z</time>
      </trkpt>
      <trkpt lat="44.9827" lon="5.46508">
        <ele>1370.5</ele>
        <time>2011-04-23T10:09:31Z</time>
      </trkpt>
      <trkpt lat="44.98259" lon="5.46485">
        <ele>1368.09</ele>
        <time>2011-04-23T10:09:36Z</time>
      </trkpt>
      <trkpt lat="44.98256" lon="5.46481">
        <ele>1367.61</ele>
        <time>2011-04-23T10:09:37Z</time>
      </trkpt>
      <trkpt lat="44.98253" lon="5.46476">
        <ele>1366.65</ele>
        <time>2011-04-23T10:09:38Z</time>
      </trkpt>
      <trkpt lat="44.98234" lon="5.46453">
        <ele>1363.29</ele>
        <time>2011-04-23T10:09:43Z</time>
      </trkpt>
      <trkpt lat="44.98231" lon="5.46448">
        <ele>1362.33</ele>
        <time>2011-04-23T10:09:44Z</time>
      </trkpt>
      <trkpt lat="44.98228" lon="5.46443">
        <ele>1361.36</ele>
        <time>2011-04-23T10:09:45Z</time>
      </trkpt>
      <trkpt lat="44.98214" lon="5.46418">
        <ele>1357.52</ele>
        <time>2011-04-23T10:09:49Z</time>
      </trkpt>
      <trkpt lat="44.98196" lon="5.46385">
        <ele>1353.67</ele>
        <time>2011-04-23T10:09:54Z</time>
      </trkpt>
      <trkpt lat="44.98191" lon="5.46378">
        <ele>1352.71</ele>
        <time>2011-04-23T10:09:55Z</time>
      </trkpt>
      <trkpt lat="44.98182" lon="5.46366">
        <ele>1351.27</ele>
        <time>2011-04-23T10:09:57Z</time>
      </trkpt>
      <trkpt lat="44.98178" lon="5.4636">
        <ele>1350.31</ele>
        <time>2011-04-23T10:09:58Z</time>
      </trkpt>
      <trkpt lat="44.98174" lon="5.46355">
        <ele>1349.83</ele>
        <time>2011-04-23T10:09:59Z</time>
      </trkpt>
      <trkpt lat="44.9817" lon="5.46349">
        <ele>1348.87</ele>
        <time>2011-04-23T10:10:00Z</time>
      </trkpt>
      <trkpt lat="44.98166" lon="5.46342">
        <ele>1348.39</ele>
        <time>2011-04-23T10:10:01Z</time>
      </trkpt>
      <trkpt lat="44.98162" lon="5.46335">
        <ele>1347.91</ele>
        <time>2011-04-23T10:10:02Z</time>
      </trkpt>
      <trkpt lat="44.98154" lon="5.46321">
        <ele>1346.94</ele>
        <time>2011-04-23T10:10:04Z</time>
      </trkpt>
      <trkpt lat="44.98144" lon="5.46301">
        <ele>1345.02</ele>
        <time>2011-04-23T10:10:07Z</time>
      </trkpt>
      <trkpt lat="44.98141" lon="5.46295">
        <ele>1344.54</ele>
        <time>2011-04-23T10:10:08Z</time>
      </trkpt>
      <trkpt lat="44.98139" lon="5.46289">
        <ele>1344.06</ele>
        <time>2011-04-23T10:10:09Z</time>
      </trkpt>
      <trkpt lat="44.98129" lon="5.46266">
        <ele>1340.7</ele>
        <time>2011-04-23T10:10:13Z</time>
      </trkpt>
      <trkpt lat="44.98118" lon="5.4625">
        <ele>1337.81</ele>
        <time>2011-04-23T10:10:17Z</time>
      </trkpt>
      <trkpt lat="44.98111" lon="5.46242">
        <ele>1335.89</ele>
        <time>2011-04-23T10:10:19Z</time>
      </trkpt>
      <trkpt lat="44.98107" lon="5.46238">
        <ele>1334.93</ele>
        <time>2011-04-23T10:10:20Z</time>
      </trkpt>
      <trkpt lat="44.98102" lon="5.46236">
        <ele>1333.97</ele>
        <time>2011-04-23T10:10:21Z</time>
      </trkpt>
      <trkpt lat="44.98097" lon="5.46235">
        <ele>1332.52</ele>
        <time>2011-04-23T10:10:22Z</time>
      </trkpt>
      <trkpt lat="44.98091" lon="5.46235">
        <ele>1331.56</ele>
        <time>2011-04-23T10:10:23Z</time>
      </trkpt>
      <trkpt lat="44.98085" lon="5.46236">
        <ele>1330.6</ele>
        <time>2011-04-23T10:10:24Z</time>
      </trkpt>
      <trkpt lat="44.9808" lon="5.46238">
        <ele>1330.12</ele>
        <time>2011-04-23T10:10:25Z</time>
      </trkpt>
      <trkpt lat="44.98075" lon="5.46239">
        <ele>1329.16</ele>
        <time>2011-04-23T10:10:26Z</time>
      </trkpt>
      <trkpt lat="44.98071" lon="5.4624">
        <ele>1328.68</ele>
        <time>2011-04-23T10:10:27Z</time>
      </trkpt>
      <trkpt lat="44.98067" lon="5.4624">
        <ele>1328.2</ele>
        <time>2011-04-23T10:10:28Z</time>
      </trkpt>
      <trkpt lat="44.98064" lon="5.46238">
        <ele>1327.72</ele>
        <time>2011-04-23T10:10:29Z</time>
      </trkpt>
      <trkpt lat="44.9806" lon="5.46236">
        <ele>1326.76</ele>
        <time>2011-04-23T10:10:30Z</time>
      </trkpt>
      <trkpt lat="44.98058" lon="5.46232">
        <ele>1325.8</ele>
        <time>2011-04-23T10:10:31Z</time>
      </trkpt>
      <trkpt lat="44.98055" lon="5.46227">
        <ele>1324.83</ele>
        <time>2011-04-23T10:10:32Z</time>
      </trkpt>
      <trkpt lat="44.98054" lon="5.4622">
        <ele>1324.35</ele>
        <time>2011-04-23T10:10:33Z</time>
      </trkpt>
      <trkpt lat="44.98052" lon="5.46213">
        <ele>1323.39</ele>
        <time>2011-04-23T10:10:34Z</time>
      </trkpt>
      <trkpt lat="44.98051" lon="5.46206">
        <ele>1323.39</ele>
        <time>2011-04-23T10:10:35Z</time>
      </trkpt>
      <trkpt lat="44.98052" lon="5.46199">
        <ele>1322.43</ele>
        <time>2011-04-23T10:10:36Z</time>
      </trkpt>
      <trkpt lat="44.98052" lon="5.46192">
        <ele>1322.43</ele>
        <time>2011-04-23T10:10:37Z</time>
      </trkpt>
      <trkpt lat="44.98052" lon="5.46184">
        <ele>1321.95</ele>
        <time>2011-04-23T10:10:38Z</time>
      </trkpt>
      <trkpt lat="44.98052" lon="5.46177">
        <ele>1321.95</ele>
        <time>2011-04-23T10:10:39Z</time>
      </trkpt>
      <trkpt lat="44.98052" lon="5.46171">
        <ele>1321.47</ele>
        <time>2011-04-23T10:10:40Z</time>
      </trkpt>
      <trkpt lat="44.98052" lon="5.46165">
        <ele>1320.99</ele>
        <time>2011-04-23T10:10:41Z</time>
      </trkpt>
      <trkpt lat="44.98052" lon="5.46152">
        <ele>1319.07</ele>
        <time>2011-04-23T10:10:43Z</time>
      </trkpt>
      <trkpt lat="44.98052" lon="5.46128">
        <ele>1316.18</ele>
        <time>2011-04-23T10:10:47Z</time>
      </trkpt>
      <trkpt lat="44.98052" lon="5.46122">
        <ele>1315.22</ele>
        <time>2011-04-23T10:10:48Z</time>
      </trkpt>
      <trkpt lat="44.98051" lon="5.46117">
        <ele>1314.74</ele>
        <time>2011-04-23T10:10:49Z</time>
      </trkpt>
      <trkpt lat="44.98051" lon="5.4611">
        <ele>1314.26</ele>
        <time>2011-04-23T10:10:50Z</time>
      </trkpt>
      <trkpt lat="44.9805" lon="5.46104">
        <ele>1313.3</ele>
        <time>2011-04-23T10:10:51Z</time>
      </trkpt>
      <trkpt lat="44.98047" lon="5.46086">
        <ele>1309.45</ele>
        <time>2011-04-23T10:10:54Z</time>
      </trkpt>
      <trkpt lat="44.98044" lon="5.46069">
        <ele>1305.61</ele>
        <time>2011-04-23T10:10:57Z</time>
      </trkpt>
      <trkpt lat="44.98041" lon="5.46053">
        <ele>1304.17</ele>
        <time>2011-04-23T10:10:59Z</time>
      </trkpt>
      <trkpt lat="44.98039" lon="5.46045">
        <ele>1303.2</ele>
        <time>2011-04-23T10:11:00Z</time>
      </trkpt>
      <trkpt lat="44.98038" lon="5.46036">
        <ele>1303.2</ele>
        <time>2011-04-23T10:11:01Z</time>
      </trkpt>
      <trkpt lat="44.98032" lon="5.46009">
        <ele>1300.32</ele>
        <time>2011-04-23T10:11:05Z</time>
      </trkpt>
      <trkpt lat="44.98024" lon="5.45985">
        <ele>1299.36</ele>
        <time>2011-04-23T10:11:12Z</time>
      </trkpt>
      <trkpt lat="44.9802" lon="5.45978">
        <ele>1298.88</ele>
        <time>2011-04-23T10:11:16Z</time>
      </trkpt>
      <trkpt lat="44.98019" lon="5.45975">
        <ele>1298.88</ele>
        <time>2011-04-23T10:11:17Z</time>
      </trkpt>
      <trkpt lat="44.98019" lon="5.45972">
        <ele>1298.88</ele>
        <time>2011-04-23T10:11:18Z</time>
      </trkpt>
      <trkpt lat="44.98018" lon="5.45969">
        <ele>1297.92</ele>
        <time>2011-04-23T10:11:19Z</time>
      </trkpt>
      <trkpt lat="44.98018" lon="5.45965">
        <ele>1297.92</ele>
        <time>2011-04-23T10:11:20Z</time>
      </trkpt>
      <trkpt lat="44.98017" lon="5.45962">
        <ele>1297.44</ele>
        <time>2011-04-23T10:11:21Z</time>
      </trkpt>
      <trkpt lat="44.98017" lon="5.45959">
        <ele>1297.44</ele>
        <time>2011-04-23T10:11:22Z</time>
      </trkpt>
      <trkpt lat="44.98016" lon="5.45949">
        <ele>1295.51</ele>
        <time>2011-04-23T10:11:25Z</time>
      </trkpt>
      <trkpt lat="44.98015" lon="5.45947">
        <ele>1295.03</ele>
        <time>2011-04-23T10:11:26Z</time>
      </trkpt>
      <trkpt lat="44.98015" lon="5.45944">
        <ele>1294.55</ele>
        <time>2011-04-23T10:11:27Z</time>
      </trkpt>
      <trkpt lat="44.98013" lon="5.45934">
        <ele>1293.59</ele>
        <time>2011-04-23T10:11:29Z</time>
      </trkpt>
      <trkpt lat="44.9801" lon="5.45901">
        <ele>1292.63</ele>
        <time>2011-04-23T10:11:38Z</time>
      </trkpt>
      <trkpt lat="44.98009" lon="5.45901">
        <ele>1293.11</ele>
        <time>2011-04-23T10:11:39Z</time>
      </trkpt>
      <trkpt lat="44.98007" lon="5.459">
        <ele>1293.11</ele>
        <time>2011-04-23T10:11:40Z</time>
      </trkpt>
      <trkpt lat="44.98006" lon="5.459">
        <ele>1293.11</ele>
        <time>2011-04-23T10:11:41Z</time>
      </trkpt>
      <trkpt lat="44.98005" lon="5.459">
        <ele>1293.11</ele>
        <time>2011-04-23T10:11:42Z</time>
      </trkpt>
      <trkpt lat="44.98004" lon="5.459">
        <ele>1293.11</ele>
        <time>2011-04-23T10:11:43Z</time>
      </trkpt>
      <trkpt lat="44.98002" lon="5.459">
        <ele>1292.63</ele>
        <time>2011-04-23T10:11:44Z</time>
      </trkpt>
      <trkpt lat="44.98" lon="5.45899">
        <ele>1292.63</ele>
        <time>2011-04-23T10:11:45Z</time>
      </trkpt>
      <trkpt lat="44.97965" lon="5.45894">
        <ele>1293.59</ele>
        <time>2011-04-23T10:12:02Z</time>
      </trkpt>
      <trkpt lat="44.97963" lon="5.45894">
        <ele>1293.59</ele>
        <time>2011-04-23T10:12:03Z</time>
      </trkpt>
      <trkpt lat="44.9794" lon="5.45892">
        <ele>1295.51</ele>
        <time>2011-04-23T10:12:15Z</time>
      </trkpt>
      <trkpt lat="44.97917" lon="5.45891">
        <ele>1296.48</ele>
        <time>2011-04-23T10:12:26Z</time>
      </trkpt>
      <trkpt lat="44.97891" lon="5.45892">
        <ele>1297.92</ele>
        <time>2011-04-23T10:12:39Z</time>
      </trkpt>
      <trkpt lat="44.97875" lon="5.45895">
        <ele>1299.84</ele>
        <time>2011-04-23T10:12:48Z</time>
      </trkpt>
      <trkpt lat="44.97874" lon="5.45895">
        <ele>1299.36</ele>
        <time>2011-04-23T10:12:49Z</time>
      </trkpt>
      <trkpt lat="44.97872" lon="5.45895">
        <ele>1299.36</ele>
        <time>2011-04-23T10:12:50Z</time>
      </trkpt>
      <trkpt lat="44.97852" lon="5.45898">
        <ele>1301.76</ele>
        <time>2011-04-23T10:13:01Z</time>
      </trkpt>
      <trkpt lat="44.97831" lon="5.459">
        <ele>1302.72</ele>
        <time>2011-04-23T10:13:11Z</time>
      </trkpt>
      <trkpt lat="44.97829" lon="5.459">
        <ele>1303.2</ele>
        <time>2011-04-23T10:13:12Z</time>
      </trkpt>
      <trkpt lat="44.97827" lon="5.45901">
        <ele>1303.69</ele>
        <time>2011-04-23T10:13:13Z</time>
      </trkpt>
      <trkpt lat="44.97825" lon="5.45901">
        <ele>1303.69</ele>
        <time>2011-04-23T10:13:14Z</time>
      </trkpt>
      <trkpt lat="44.97824" lon="5.45902">
        <ele>1303.69</ele>
        <time>2011-04-23T10:13:15Z</time>
      </trkpt>
      <trkpt lat="44.9782" lon="5.45903">
        <ele>1304.17</ele>
        <time>2011-04-23T10:13:17Z</time>
      </trkpt>
      <trkpt lat="44.97818" lon="5.45904">
        <ele>1303.69</ele>
        <time>2011-04-23T10:13:18Z</time>
      </trkpt>
      <trkpt lat="44.97816" lon="5.45904">
        <ele>1304.17</ele>
        <time>2011-04-23T10:13:19Z</time>
      </trkpt>
      <trkpt lat="44.97815" lon="5.45905">
        <ele>1304.65</ele>
        <time>2011-04-23T10:13:20Z</time>
      </trkpt>
      <trkpt lat="44.97813" lon="5.45906">
        <ele>1304.17</ele>
        <time>2011-04-23T10:13:21Z</time>
      </trkpt>
      <trkpt lat="44.97811" lon="5.45906">
        <ele>1305.13</ele>
        <time>2011-04-23T10:13:22Z</time>
      </trkpt>
      <trkpt lat="44.97796" lon="5.45912">
        <ele>1306.57</ele>
        <time>2011-04-23T10:13:32Z</time>
      </trkpt>
      <trkpt lat="44.97795" lon="5.45913">
        <ele>1306.57</ele>
        <time>2011-04-23T10:13:33Z</time>
      </trkpt>
      <trkpt lat="44.97793" lon="5.45914">
        <ele>1306.57</ele>
        <time>2011-04-23T10:13:34Z</time>
      </trkpt>
      <trkpt lat="44.97791" lon="5.45916">
        <ele>1307.05</ele>
        <time>2011-04-23T10:13:35Z</time>
      </trkpt>
      <trkpt lat="44.9779" lon="5.45917">
        <ele>1307.05</ele>
        <time>2011-04-23T10:13:36Z</time>
      </trkpt>
      <trkpt lat="44.97789" lon="5.45919">
        <ele>1306.57</ele>
        <time>2011-04-23T10:13:37Z</time>
      </trkpt>
      <trkpt lat="44.97787" lon="5.4592">
        <ele>1307.05</ele>
        <time>2011-04-23T10:13:38Z</time>
      </trkpt>
      <trkpt lat="44.97786" lon="5.45922">
        <ele>1306.57</ele>
        <time>2011-04-23T10:13:39Z</time>
      </trkpt>
      <trkpt lat="44.97785" lon="5.45925">
        <ele>1307.05</ele>
        <time>2011-04-23T10:13:40Z</time>
      </trkpt>
      <trkpt lat="44.97783" lon="5.45926">
        <ele>1307.05</ele>
        <time>2011-04-23T10:13:41Z</time>
      </trkpt>
      <trkpt lat="44.97782" lon="5.45928">
        <ele>1307.05</ele>
        <time>2011-04-23T10:13:42Z</time>
      </trkpt>
      <trkpt lat="44.97781" lon="5.4593">
        <ele>1307.05</ele>
        <time>2011-04-23T10:13:43Z</time>
      </trkpt>
      <trkpt lat="44.9778" lon="5.45933">
        <ele>1307.05</ele>
        <time>2011-04-23T10:13:44Z</time>
      </trkpt>
      <trkpt lat="44.9778" lon="5.45935">
        <ele>1307.05</ele>
        <time>2011-04-23T10:13:45Z</time>
      </trkpt>
      <trkpt lat="44.97779" lon="5.45938">
        <ele>1307.05</ele>
        <time>2011-04-23T10:13:46Z</time>
      </trkpt>
      <trkpt lat="44.97777" lon="5.45941">
        <ele>1307.05</ele>
        <time>2011-04-23T10:13:47Z</time>
      </trkpt>
      <trkpt lat="44.97776" lon="5.45943">
        <ele>1307.53</ele>
        <time>2011-04-23T10:13:48Z</time>
      </trkpt>
      <trkpt lat="44.97774" lon="5.45946">
        <ele>1307.53</ele>
        <time>2011-04-23T10:13:49Z</time>
      </trkpt>
      <trkpt lat="44.97764" lon="5.4598">
        <ele>1308.01</ele>
        <time>2011-04-23T10:14:01Z</time>
      </trkpt>
      <trkpt lat="44.97755" lon="5.46015">
        <ele>1308.49</ele>
        <time>2011-04-23T10:14:12Z</time>
      </trkpt>
      <trkpt lat="44.97738" lon="5.46059">
        <ele>1309.93</ele>
        <time>2011-04-23T10:14:27Z</time>
      </trkpt>
      <trkpt lat="44.97719" lon="5.46086">
        <ele>1310.9</ele>
        <time>2011-04-23T10:14:40Z</time>
      </trkpt>
      <trkpt lat="44.97701" lon="5.46112">
        <ele>1311.38</ele>
        <time>2011-04-23T10:14:51Z</time>
      </trkpt>
      <trkpt lat="44.97681" lon="5.46138">
        <ele>1312.34</ele>
        <time>2011-04-23T10:15:03Z</time>
      </trkpt>
      <trkpt lat="44.97652" lon="5.46165">
        <ele>1312.82</ele>
        <time>2011-04-23T10:15:15Z</time>
      </trkpt>
      <trkpt lat="44.97634" lon="5.46179">
        <ele>1312.34</ele>
        <time>2011-04-23T10:15:26Z</time>
      </trkpt>
      <trkpt lat="44.97607" lon="5.46193">
        <ele>1313.3</ele>
        <time>2011-04-23T10:15:37Z</time>
      </trkpt>
      <trkpt lat="44.97575" lon="5.46199">
        <ele>1315.7</ele>
        <time>2011-04-23T10:15:51Z</time>
      </trkpt>
      <trkpt lat="44.9755" lon="5.46204">
        <ele>1317.14</ele>
        <time>2011-04-23T10:16:02Z</time>
      </trkpt>
      <trkpt lat="44.97531" lon="5.4621">
        <ele>1318.1</ele>
        <time>2011-04-23T10:16:12Z</time>
      </trkpt>
      <trkpt lat="44.97529" lon="5.46209">
        <ele>1318.59</ele>
        <time>2011-04-23T10:16:13Z</time>
      </trkpt>
      <trkpt lat="44.97527" lon="5.4621">
        <ele>1318.1</ele>
        <time>2011-04-23T10:16:14Z</time>
      </trkpt>
      <trkpt lat="44.97526" lon="5.46211">
        <ele>1318.59</ele>
        <time>2011-04-23T10:16:15Z</time>
      </trkpt>
      <trkpt lat="44.97524" lon="5.46211">
        <ele>1318.59</ele>
        <time>2011-04-23T10:16:16Z</time>
      </trkpt>
      <trkpt lat="44.97512" lon="5.46219">
        <ele>1319.07</ele>
        <time>2011-04-23T10:16:24Z</time>
      </trkpt>
      <trkpt lat="44.9751" lon="5.46221">
        <ele>1319.55</ele>
        <time>2011-04-23T10:16:25Z</time>
      </trkpt>
      <trkpt lat="44.97508" lon="5.46221">
        <ele>1320.03</ele>
        <time>2011-04-23T10:16:26Z</time>
      </trkpt>
      <trkpt lat="44.97485" lon="5.46231">
        <ele>1320.99</ele>
        <time>2011-04-23T10:16:40Z</time>
      </trkpt>
      <trkpt lat="44.97464" lon="5.46238">
        <ele>1322.43</ele>
        <time>2011-04-23T10:16:52Z</time>
      </trkpt>
      <trkpt lat="44.97462" lon="5.46239">
        <ele>1322.43</ele>
        <time>2011-04-23T10:16:53Z</time>
      </trkpt>
      <trkpt lat="44.97452" lon="5.46245">
        <ele>1323.39</ele>
        <time>2011-04-23T10:17:00Z</time>
      </trkpt>
      <trkpt lat="44.9745" lon="5.46246">
        <ele>1323.39</ele>
        <time>2011-04-23T10:17:01Z</time>
      </trkpt>
      <trkpt lat="44.97448" lon="5.46246">
        <ele>1323.39</ele>
        <time>2011-04-23T10:17:02Z</time>
      </trkpt>
      <trkpt lat="44.97446" lon="5.46246">
        <ele>1323.39</ele>
        <time>2011-04-23T10:17:03Z</time>
      </trkpt>
      <trkpt lat="44.97444" lon="5.46247">
        <ele>1323.87</ele>
        <time>2011-04-23T10:17:04Z</time>
      </trkpt>
      <trkpt lat="44.97437" lon="5.46249">
        <ele>1324.35</ele>
        <time>2011-04-23T10:17:08Z</time>
      </trkpt>
      <trkpt lat="44.97435" lon="5.46247">
        <ele>1324.35</ele>
        <time>2011-04-23T10:17:09Z</time>
      </trkpt>
      <trkpt lat="44.97433" lon="5.46246">
        <ele>1324.35</ele>
        <time>2011-04-23T10:17:10Z</time>
      </trkpt>
      <trkpt lat="44.97432" lon="5.46247">
        <ele>1324.35</ele>
        <time>2011-04-23T10:17:11Z</time>
      </trkpt>
      <trkpt lat="44.9743" lon="5.46247">
        <ele>1324.83</ele>
        <time>2011-04-23T10:17:12Z</time>
      </trkpt>
      <trkpt lat="44.97428" lon="5.46248">
        <ele>1325.31</ele>
        <time>2011-04-23T10:17:13Z</time>
      </trkpt>
      <trkpt lat="44.97416" lon="5.46251">
        <ele>1325.8</ele>
        <time>2011-04-23T10:17:28Z</time>
      </trkpt>
      <trkpt lat="44.97411" lon="5.46253">
        <ele>1325.8</ele>
        <time>2011-04-23T10:17:34Z</time>
      </trkpt>
      <trkpt lat="44.9741" lon="5.46254">
        <ele>1326.28</ele>
        <time>2011-04-23T10:17:35Z</time>
      </trkpt>
      <trkpt lat="44.97408" lon="5.46254">
        <ele>1325.8</ele>
        <time>2011-04-23T10:17:36Z</time>
      </trkpt>
      <trkpt lat="44.97407" lon="5.46255">
        <ele>1326.28</ele>
        <time>2011-04-23T10:17:37Z</time>
      </trkpt>
      <trkpt lat="44.97405" lon="5.46256">
        <ele>1326.28</ele>
        <time>2011-04-23T10:17:38Z</time>
      </trkpt>
      <trkpt lat="44.97404" lon="5.46257">
        <ele>1326.28</ele>
        <time>2011-04-23T10:17:39Z</time>
      </trkpt>
      <trkpt lat="44.97402" lon="5.46257">
        <ele>1325.8</ele>
        <time>2011-04-23T10:17:40Z</time>
      </trkpt>
      <trkpt lat="44.97401" lon="5.46258">
        <ele>1325.8</ele>
        <time>2011-04-23T10:17:41Z</time>
      </trkpt>
      <trkpt lat="44.97399" lon="5.46259">
        <ele>1326.28</ele>
        <time>2011-04-23T10:17:42Z</time>
      </trkpt>
      <trkpt lat="44.97398" lon="5.46261">
        <ele>1326.28</ele>
        <time>2011-04-23T10:17:43Z</time>
      </trkpt>
      <trkpt lat="44.97396" lon="5.46262">
        <ele>1326.28</ele>
        <time>2011-04-23T10:17:44Z</time>
      </trkpt>
      <trkpt lat="44.97395" lon="5.46263">
        <ele>1326.76</ele>
        <time>2011-04-23T10:17:45Z</time>
      </trkpt>
      <trkpt lat="44.9739" lon="5.46265">
        <ele>1326.76</ele>
        <time>2011-04-23T10:17:48Z</time>
      </trkpt>
      <trkpt lat="44.97362" lon="5.46265">
        <ele>1327.24</ele>
        <time>2011-04-23T10:18:03Z</time>
      </trkpt>
      <trkpt lat="44.97344" lon="5.46262">
        <ele>1328.68</ele>
        <time>2011-04-23T10:18:12Z</time>
      </trkpt>
      <trkpt lat="44.97329" lon="5.46257">
        <ele>1329.16</ele>
        <time>2011-04-23T10:18:20Z</time>
      </trkpt>
      <trkpt lat="44.97303" lon="5.46259">
        <ele>1330.6</ele>
        <time>2011-04-23T10:18:34Z</time>
      </trkpt>
      <trkpt lat="44.97277" lon="5.46248">
        <ele>1332.04</ele>
        <time>2011-04-23T10:18:49Z</time>
      </trkpt>
      <trkpt lat="44.97262" lon="5.46241">
        <ele>1333.01</ele>
        <time>2011-04-23T10:18:57Z</time>
      </trkpt>
      <trkpt lat="44.9726" lon="5.46241">
        <ele>1332.52</ele>
        <time>2011-04-23T10:18:58Z</time>
      </trkpt>
      <trkpt lat="44.97258" lon="5.46241">
        <ele>1333.01</ele>
        <time>2011-04-23T10:18:59Z</time>
      </trkpt>
      <trkpt lat="44.97244" lon="5.4624">
        <ele>1333.01</ele>
        <time>2011-04-23T10:19:07Z</time>
      </trkpt>
      <trkpt lat="44.97242" lon="5.46241">
        <ele>1333.01</ele>
        <time>2011-04-23T10:19:08Z</time>
      </trkpt>
      <trkpt lat="44.9724" lon="5.46241">
        <ele>1332.52</ele>
        <time>2011-04-23T10:19:09Z</time>
      </trkpt>
      <trkpt lat="44.97217" lon="5.46243">
        <ele>1333.49</ele>
        <time>2011-04-23T10:19:20Z</time>
      </trkpt>
      <trkpt lat="44.97176" lon="5.46233">
        <ele>1331.56</ele>
        <time>2011-04-23T10:19:34Z</time>
      </trkpt>
      <trkpt lat="44.97162" lon="5.46224">
        <ele>1331.08</ele>
        <time>2011-04-23T10:19:38Z</time>
      </trkpt>
      <trkpt lat="44.97155" lon="5.46218">
        <ele>1330.6</ele>
        <time>2011-04-23T10:19:40Z</time>
      </trkpt>
      <trkpt lat="44.9713" lon="5.46189">
        <ele>1330.12</ele>
        <time>2011-04-23T10:19:48Z</time>
      </trkpt>
      <trkpt lat="44.97115" lon="5.46161">
        <ele>1328.2</ele>
        <time>2011-04-23T10:19:55Z</time>
      </trkpt>
      <trkpt lat="44.97104" lon="5.46149">
        <ele>1326.76</ele>
        <time>2011-04-23T10:19:58Z</time>
      </trkpt>
      <trkpt lat="44.971" lon="5.46145">
        <ele>1326.76</ele>
        <time>2011-04-23T10:19:59Z</time>
      </trkpt>
      <trkpt lat="44.97097" lon="5.46142">
        <ele>1326.28</ele>
        <time>2011-04-23T10:20:00Z</time>
      </trkpt>
      <trkpt lat="44.97093" lon="5.46137">
        <ele>1325.8</ele>
        <time>2011-04-23T10:20:01Z</time>
      </trkpt>
      <trkpt lat="44.9709" lon="5.46133">
        <ele>1325.31</ele>
        <time>2011-04-23T10:20:02Z</time>
      </trkpt>
      <trkpt lat="44.97076" lon="5.46113">
        <ele>1325.31</ele>
        <time>2011-04-23T10:20:06Z</time>
      </trkpt>
      <trkpt lat="44.97074" lon="5.46107">
        <ele>1324.35</ele>
        <time>2011-04-23T10:20:07Z</time>
      </trkpt>
      <trkpt lat="44.97073" lon="5.46101">
        <ele>1323.87</ele>
        <time>2011-04-23T10:20:08Z</time>
      </trkpt>
      <trkpt lat="44.97073" lon="5.46094">
        <ele>1323.87</ele>
        <time>2011-04-23T10:20:09Z</time>
      </trkpt>
      <trkpt lat="44.97073" lon="5.46088">
        <ele>1322.91</ele>
        <time>2011-04-23T10:20:10Z</time>
      </trkpt>
      <trkpt lat="44.97074" lon="5.4608">
        <ele>1322.91</ele>
        <time>2011-04-23T10:20:11Z</time>
      </trkpt>
      <trkpt lat="44.97075" lon="5.46073">
        <ele>1321.95</ele>
        <time>2011-04-23T10:20:12Z</time>
      </trkpt>
      <trkpt lat="44.97076" lon="5.46065">
        <ele>1321.95</ele>
        <time>2011-04-23T10:20:13Z</time>
      </trkpt>
      <trkpt lat="44.97077" lon="5.46057">
        <ele>1321.95</ele>
        <time>2011-04-23T10:20:14Z</time>
      </trkpt>
      <trkpt lat="44.97077" lon="5.46049">
        <ele>1321.47</ele>
        <time>2011-04-23T10:20:15Z</time>
      </trkpt>
      <trkpt lat="44.97075" lon="5.46041">
        <ele>1320.99</ele>
        <time>2011-04-23T10:20:16Z</time>
      </trkpt>
      <trkpt lat="44.97072" lon="5.46034">
        <ele>1320.99</ele>
        <time>2011-04-23T10:20:17Z</time>
      </trkpt>
      <trkpt lat="44.97069" lon="5.46028">
        <ele>1320.51</ele>
        <time>2011-04-23T10:20:18Z</time>
      </trkpt>
      <trkpt lat="44.97065" lon="5.46022">
        <ele>1320.99</ele>
        <time>2011-04-23T10:20:19Z</time>
      </trkpt>
      <trkpt lat="44.97061" lon="5.46017">
        <ele>1320.99</ele>
        <time>2011-04-23T10:20:20Z</time>
      </trkpt>
      <trkpt lat="44.97053" lon="5.46007">
        <ele>1320.51</ele>
        <time>2011-04-23T10:20:22Z</time>
      </trkpt>
      <trkpt lat="44.97049" lon="5.46002">
        <ele>1320.51</ele>
        <time>2011-04-23T10:20:23Z</time>
      </trkpt>
      <trkpt lat="44.97042" lon="5.45992">
        <ele>1320.51</ele>
        <time>2011-04-23T10:20:25Z</time>
      </trkpt>
      <trkpt lat="44.97039" lon="5.45987">
        <ele>1320.03</ele>
        <time>2011-04-23T10:20:26Z</time>
      </trkpt>
      <trkpt lat="44.97032" lon="5.45978">
        <ele>1320.03</ele>
        <time>2011-04-23T10:20:28Z</time>
      </trkpt>
      <trkpt lat="44.9702" lon="5.45966">
        <ele>1319.55</ele>
        <time>2011-04-23T10:20:31Z</time>
      </trkpt>
      <trkpt lat="44.97016" lon="5.45962">
        <ele>1319.55</ele>
        <time>2011-04-23T10:20:32Z</time>
      </trkpt>
      <trkpt lat="44.97001" lon="5.45944">
        <ele>1319.07</ele>
        <time>2011-04-23T10:20:36Z</time>
      </trkpt>
      <trkpt lat="44.96988" lon="5.45937">
        <ele>1318.59</ele>
        <time>2011-04-23T10:20:39Z</time>
      </trkpt>
      <trkpt lat="44.9697" lon="5.45931">
        <ele>1317.62</ele>
        <time>2011-04-23T10:20:43Z</time>
      </trkpt>
      <trkpt lat="44.96965" lon="5.4593">
        <ele>1318.1</ele>
        <time>2011-04-23T10:20:44Z</time>
      </trkpt>
      <trkpt lat="44.9696" lon="5.4593">
        <ele>1317.14</ele>
        <time>2011-04-23T10:20:45Z</time>
      </trkpt>
      <trkpt lat="44.96955" lon="5.4593">
        <ele>1317.14</ele>
        <time>2011-04-23T10:20:46Z</time>
      </trkpt>
      <trkpt lat="44.9695" lon="5.45929">
        <ele>1317.14</ele>
        <time>2011-04-23T10:20:47Z</time>
      </trkpt>
      <trkpt lat="44.96945" lon="5.45927">
        <ele>1316.66</ele>
        <time>2011-04-23T10:20:48Z</time>
      </trkpt>
      <trkpt lat="44.96941" lon="5.45924">
        <ele>1316.66</ele>
        <time>2011-04-23T10:20:49Z</time>
      </trkpt>
      <trkpt lat="44.96937" lon="5.45919">
        <ele>1316.18</ele>
        <time>2011-04-23T10:20:50Z</time>
      </trkpt>
      <trkpt lat="44.96933" lon="5.45914">
        <ele>1316.18</ele>
        <time>2011-04-23T10:20:51Z</time>
      </trkpt>
      <trkpt lat="44.9693" lon="5.45908">
        <ele>1315.7</ele>
        <time>2011-04-23T10:20:52Z</time>
      </trkpt>
      <trkpt lat="44.96926" lon="5.45903">
        <ele>1315.7</ele>
        <time>2011-04-23T10:20:53Z</time>
      </trkpt>
      <trkpt lat="44.96922" lon="5.45898">
        <ele>1315.7</ele>
        <time>2011-04-23T10:20:54Z</time>
      </trkpt>
      <trkpt lat="44.96918" lon="5.45894">
        <ele>1315.22</ele>
        <time>2011-04-23T10:20:55Z</time>
      </trkpt>
      <trkpt lat="44.96914" lon="5.45889">
        <ele>1315.22</ele>
        <time>2011-04-23T10:20:56Z</time>
      </trkpt>
      <trkpt lat="44.9691" lon="5.45885">
        <ele>1314.74</ele>
        <time>2011-04-23T10:20:57Z</time>
      </trkpt>
      <trkpt lat="44.96905" lon="5.45882">
        <ele>1314.74</ele>
        <time>2011-04-23T10:20:58Z</time>
      </trkpt>
      <trkpt lat="44.96901" lon="5.45878">
        <ele>1314.26</ele>
        <time>2011-04-23T10:20:59Z</time>
      </trkpt>
      <trkpt lat="44.96897" lon="5.45874">
        <ele>1314.26</ele>
        <time>2011-04-23T10:21:00Z</time>
      </trkpt>
      <trkpt lat="44.96893" lon="5.45871">
        <ele>1313.78</ele>
        <time>2011-04-23T10:21:01Z</time>
      </trkpt>
      <trkpt lat="44.96889" lon="5.45868">
        <ele>1313.78</ele>
        <time>2011-04-23T10:21:02Z</time>
      </trkpt>
      <trkpt lat="44.96884" lon="5.45864">
        <ele>1313.78</ele>
        <time>2011-04-23T10:21:03Z</time>
      </trkpt>
      <trkpt lat="44.9688" lon="5.45859">
        <ele>1312.82</ele>
        <time>2011-04-23T10:21:04Z</time>
      </trkpt>
      <trkpt lat="44.96876" lon="5.45853">
        <ele>1313.3</ele>
        <time>2011-04-23T10:21:05Z</time>
      </trkpt>
      <trkpt lat="44.96872" lon="5.45847">
        <ele>1313.3</ele>
        <time>2011-04-23T10:21:06Z</time>
      </trkpt>
      <trkpt lat="44.96869" lon="5.45841">
        <ele>1312.82</ele>
        <time>2011-04-23T10:21:07Z</time>
      </trkpt>
      <trkpt lat="44.96866" lon="5.45834">
        <ele>1312.34</ele>
        <time>2011-04-23T10:21:08Z</time>
      </trkpt>
      <trkpt lat="44.96864" lon="5.45827">
        <ele>1312.34</ele>
        <time>2011-04-23T10:21:09Z</time>
      </trkpt>
      <trkpt lat="44.96862" lon="5.4582">
        <ele>1311.86</ele>
        <time>2011-04-23T10:21:10Z</time>
      </trkpt>
      <trkpt lat="44.96858" lon="5.45799">
        <ele>1310.9</ele>
        <time>2011-04-23T10:21:13Z</time>
      </trkpt>
      <trkpt lat="44.96856" lon="5.45793">
        <ele>1310.9</ele>
        <time>2011-04-23T10:21:14Z</time>
      </trkpt>
      <trkpt lat="44.96854" lon="5.45787">
        <ele>1310.9</ele>
        <time>2011-04-23T10:21:15Z</time>
      </trkpt>
      <trkpt lat="44.96851" lon="5.45781">
        <ele>1309.93</ele>
        <time>2011-04-23T10:21:16Z</time>
      </trkpt>
      <trkpt lat="44.96849" lon="5.45775">
        <ele>1309.93</ele>
        <time>2011-04-23T10:21:17Z</time>
      </trkpt>
      <trkpt lat="44.96846" lon="5.45769">
        <ele>1309.45</ele>
        <time>2011-04-23T10:21:18Z</time>
      </trkpt>
      <trkpt lat="44.96843" lon="5.45763">
        <ele>1309.45</ele>
        <time>2011-04-23T10:21:19Z</time>
      </trkpt>
      <trkpt lat="44.96838" lon="5.45758">
        <ele>1308.49</ele>
        <time>2011-04-23T10:21:20Z</time>
      </trkpt>
      <trkpt lat="44.96834" lon="5.45753">
        <ele>1308.49</ele>
        <time>2011-04-23T10:21:21Z</time>
      </trkpt>
      <trkpt lat="44.9682" lon="5.45741">
        <ele>1308.01</ele>
        <time>2011-04-23T10:21:24Z</time>
      </trkpt>
      <trkpt lat="44.96815" lon="5.45736">
        <ele>1307.53</ele>
        <time>2011-04-23T10:21:25Z</time>
      </trkpt>
      <trkpt lat="44.96812" lon="5.4573">
        <ele>1308.01</ele>
        <time>2011-04-23T10:21:26Z</time>
      </trkpt>
      <trkpt lat="44.96808" lon="5.45724">
        <ele>1307.53</ele>
        <time>2011-04-23T10:21:27Z</time>
      </trkpt>
      <trkpt lat="44.96804" lon="5.45718">
        <ele>1307.05</ele>
        <time>2011-04-23T10:21:28Z</time>
      </trkpt>
      <trkpt lat="44.96801" lon="5.45712">
        <ele>1307.05</ele>
        <time>2011-04-23T10:21:29Z</time>
      </trkpt>
      <trkpt lat="44.96793" lon="5.45702">
        <ele>1307.05</ele>
        <time>2011-04-23T10:21:31Z</time>
      </trkpt>
      <trkpt lat="44.96788" lon="5.45698">
        <ele>1306.57</ele>
        <time>2011-04-23T10:21:32Z</time>
      </trkpt>
      <trkpt lat="44.96783" lon="5.45693">
        <ele>1306.09</ele>
        <time>2011-04-23T10:21:33Z</time>
      </trkpt>
      <trkpt lat="44.96778" lon="5.4569">
        <ele>1306.09</ele>
        <time>2011-04-23T10:21:34Z</time>
      </trkpt>
      <trkpt lat="44.96774" lon="5.45687">
        <ele>1306.57</ele>
        <time>2011-04-23T10:21:35Z</time>
      </trkpt>
      <trkpt lat="44.96765" lon="5.45682">
        <ele>1306.09</ele>
        <time>2011-04-23T10:21:37Z</time>
      </trkpt>
      <trkpt lat="44.96761" lon="5.45679">
        <ele>1305.61</ele>
        <time>2011-04-23T10:21:38Z</time>
      </trkpt>
      <trkpt lat="44.9672" lon="5.45652">
        <ele>1305.13</ele>
        <time>2011-04-23T10:21:50Z</time>
      </trkpt>
      <trkpt lat="44.96718" lon="5.45654">
        <ele>1305.61</ele>
        <time>2011-04-23T10:21:51Z</time>
      </trkpt>
      <trkpt lat="44.96717" lon="5.45657">
        <ele>1306.09</ele>
        <time>2011-04-23T10:21:52Z</time>
      </trkpt>
      <trkpt lat="44.96689" lon="5.45715">
        <ele>1306.57</ele>
        <time>2011-04-23T10:22:10Z</time>
      </trkpt>
      <trkpt lat="44.96663" lon="5.4577">
        <ele>1306.09</ele>
        <time>2011-04-23T10:22:24Z</time>
      </trkpt>
      <trkpt lat="44.96652" lon="5.45817">
        <ele>1305.61</ele>
        <time>2011-04-23T10:22:35Z</time>
      </trkpt>
      <trkpt lat="44.96637" lon="5.45871">
        <ele>1306.09</ele>
        <time>2011-04-23T10:22:48Z</time>
      </trkpt>
      <trkpt lat="44.96632" lon="5.45923">
        <ele>1305.61</ele>
        <time>2011-04-23T10:23:00Z</time>
      </trkpt>
      <trkpt lat="44.96626" lon="5.45981">
        <ele>1306.09</ele>
        <time>2011-04-23T10:23:14Z</time>
      </trkpt>
      <trkpt lat="44.96599" lon="5.46017">
        <ele>1305.61</ele>
        <time>2011-04-23T10:23:26Z</time>
      </trkpt>
      <trkpt lat="44.96564" lon="5.46016">
        <ele>1306.09</ele>
        <time>2011-04-23T10:23:38Z</time>
      </trkpt>
      <trkpt lat="44.96523" lon="5.46017">
        <ele>1306.57</ele>
        <time>2011-04-23T10:23:52Z</time>
      </trkpt>
      <trkpt lat="44.96498" lon="5.46035">
        <ele>1307.05</ele>
        <time>2011-04-23T10:24:03Z</time>
      </trkpt>
      <trkpt lat="44.96469" lon="5.46053">
        <ele>1307.53</ele>
        <time>2011-04-23T10:24:14Z</time>
      </trkpt>
      <trkpt lat="44.96467" lon="5.46053">
        <ele>1307.53</ele>
        <time>2011-04-23T10:24:15Z</time>
      </trkpt>
      <trkpt lat="44.96465" lon="5.46053">
        <ele>1308.01</ele>
        <time>2011-04-23T10:24:16Z</time>
      </trkpt>
      <trkpt lat="44.96463" lon="5.46053">
        <ele>1308.01</ele>
        <time>2011-04-23T10:24:17Z</time>
      </trkpt>
      <trkpt lat="44.96462" lon="5.46053">
        <ele>1308.49</ele>
        <time>2011-04-23T10:24:18Z</time>
      </trkpt>
      <trkpt lat="44.9646" lon="5.46053">
        <ele>1308.01</ele>
        <time>2011-04-23T10:24:19Z</time>
      </trkpt>
      <trkpt lat="44.96458" lon="5.46052">
        <ele>1308.49</ele>
        <time>2011-04-23T10:24:20Z</time>
      </trkpt>
      <trkpt lat="44.96456" lon="5.46052">
        <ele>1308.49</ele>
        <time>2011-04-23T10:24:21Z</time>
      </trkpt>
      <trkpt lat="44.9643" lon="5.46029">
        <ele>1310.9</ele>
        <time>2011-04-23T10:24:37Z</time>
      </trkpt>
      <trkpt lat="44.96404" lon="5.46026">
        <ele>1312.34</ele>
        <time>2011-04-23T10:24:51Z</time>
      </trkpt>
      <trkpt lat="44.96381" lon="5.46028">
        <ele>1313.78</ele>
        <time>2011-04-23T10:25:03Z</time>
      </trkpt>
      <trkpt lat="44.96353" lon="5.46038">
        <ele>1316.66</ele>
        <time>2011-04-23T10:25:19Z</time>
      </trkpt>
      <trkpt lat="44.9633" lon="5.46038">
        <ele>1317.62</ele>
        <time>2011-04-23T10:25:32Z</time>
      </trkpt>
      <trkpt lat="44.9632" lon="5.46028">
        <ele>1318.59</ele>
        <time>2011-04-23T10:25:39Z</time>
      </trkpt>
      <trkpt lat="44.9632" lon="5.46026">
        <ele>1319.55</ele>
        <time>2011-04-23T10:25:40Z</time>
      </trkpt>
      <trkpt lat="44.96319" lon="5.46024">
        <ele>1319.55</ele>
        <time>2011-04-23T10:25:41Z</time>
      </trkpt>
      <trkpt lat="44.96319" lon="5.46021">
        <ele>1319.55</ele>
        <time>2011-04-23T10:25:42Z</time>
      </trkpt>
      <trkpt lat="44.96319" lon="5.46019">
        <ele>1319.55</ele>
        <time>2011-04-23T10:25:43Z</time>
      </trkpt>
      <trkpt lat="44.9632" lon="5.46017">
        <ele>1319.55</ele>
        <time>2011-04-23T10:25:44Z</time>
      </trkpt>
      <trkpt lat="44.9632" lon="5.46014">
        <ele>1320.03</ele>
        <time>2011-04-23T10:25:45Z</time>
      </trkpt>
      <trkpt lat="44.9632" lon="5.46012">
        <ele>1320.03</ele>
        <time>2011-04-23T10:25:46Z</time>
      </trkpt>
      <trkpt lat="44.96319" lon="5.46009">
        <ele>1320.03</ele>
        <time>2011-04-23T10:25:47Z</time>
      </trkpt>
      <trkpt lat="44.9632" lon="5.45992">
        <ele>1321.47</ele>
        <time>2011-04-23T10:25:54Z</time>
      </trkpt>
      <trkpt lat="44.9632" lon="5.45989">
        <ele>1320.99</ele>
        <time>2011-04-23T10:25:55Z</time>
      </trkpt>
      <trkpt lat="44.9632" lon="5.45987">
        <ele>1320.99</ele>
        <time>2011-04-23T10:25:56Z</time>
      </trkpt>
      <trkpt lat="44.96321" lon="5.45984">
        <ele>1320.99</ele>
        <time>2011-04-23T10:25:57Z</time>
      </trkpt>
      <trkpt lat="44.96322" lon="5.45982">
        <ele>1321.47</ele>
        <time>2011-04-23T10:25:58Z</time>
      </trkpt>
      <trkpt lat="44.96331" lon="5.45973">
        <ele>1322.43</ele>
        <time>2011-04-23T10:26:05Z</time>
      </trkpt>
      <trkpt lat="44.96332" lon="5.45972">
        <ele>1322.43</ele>
        <time>2011-04-23T10:26:06Z</time>
      </trkpt>
      <trkpt lat="44.96349" lon="5.45961">
        <ele>1324.35</ele>
        <time>2011-04-23T10:26:17Z</time>
      </trkpt>
      <trkpt lat="44.9635" lon="5.4596">
        <ele>1324.35</ele>
        <time>2011-04-23T10:26:18Z</time>
      </trkpt>
      <trkpt lat="44.96374" lon="5.45938">
        <ele>1326.76</ele>
        <time>2011-04-23T10:26:33Z</time>
      </trkpt>
      <trkpt lat="44.9639" lon="5.45925">
        <ele>1327.72</ele>
        <time>2011-04-23T10:26:43Z</time>
      </trkpt>
      <trkpt lat="44.96391" lon="5.45923">
        <ele>1328.2</ele>
        <time>2011-04-23T10:26:44Z</time>
      </trkpt>
      <trkpt lat="44.964" lon="5.4591">
        <ele>1329.16</ele>
        <time>2011-04-23T10:26:52Z</time>
      </trkpt>
      <trkpt lat="44.964" lon="5.45908">
        <ele>1328.68</ele>
        <time>2011-04-23T10:26:53Z</time>
      </trkpt>
      <trkpt lat="44.96398" lon="5.45902">
        <ele>1329.64</ele>
        <time>2011-04-23T10:26:56Z</time>
      </trkpt>
      <trkpt lat="44.96396" lon="5.45901">
        <ele>1330.12</ele>
        <time>2011-04-23T10:26:57Z</time>
      </trkpt>
      <trkpt lat="44.96395" lon="5.459">
        <ele>1330.12</ele>
        <time>2011-04-23T10:26:58Z</time>
      </trkpt>
      <trkpt lat="44.96393" lon="5.45899">
        <ele>1330.6</ele>
        <time>2011-04-23T10:26:59Z</time>
      </trkpt>
      <trkpt lat="44.96391" lon="5.45899">
        <ele>1330.6</ele>
        <time>2011-04-23T10:27:00Z</time>
      </trkpt>
      <trkpt lat="44.96371" lon="5.45908">
        <ele>1331.08</ele>
        <time>2011-04-23T10:27:12Z</time>
      </trkpt>
      <trkpt lat="44.96349" lon="5.4592">
        <ele>1332.52</ele>
        <time>2011-04-23T10:27:25Z</time>
      </trkpt>
      <trkpt lat="44.96323" lon="5.45922">
        <ele>1334.93</ele>
        <time>2011-04-23T10:27:40Z</time>
      </trkpt>
      <trkpt lat="44.96295" lon="5.45916">
        <ele>1336.85</ele>
        <time>2011-04-23T10:27:56Z</time>
      </trkpt>
      <trkpt lat="44.96282" lon="5.45894">
        <ele>1338.29</ele>
        <time>2011-04-23T10:28:08Z</time>
      </trkpt>
      <trkpt lat="44.96265" lon="5.45868">
        <ele>1340.22</ele>
        <time>2011-04-23T10:28:22Z</time>
      </trkpt>
      <trkpt lat="44.96245" lon="5.45853">
        <ele>1341.66</ele>
        <time>2011-04-23T10:28:36Z</time>
      </trkpt>
      <trkpt lat="44.9622" lon="5.45854">
        <ele>1344.06</ele>
        <time>2011-04-23T10:28:50Z</time>
      </trkpt>
      <trkpt lat="44.96196" lon="5.45858">
        <ele>1346.46</ele>
        <time>2011-04-23T10:29:04Z</time>
      </trkpt>
      <trkpt lat="44.96174" lon="5.45868">
        <ele>1347.91</ele>
        <time>2011-04-23T10:29:17Z</time>
      </trkpt>
      <trkpt lat="44.9616" lon="5.45879">
        <ele>1349.35</ele>
        <time>2011-04-23T10:29:27Z</time>
      </trkpt>
      <trkpt lat="44.96138" lon="5.45901">
        <ele>1350.79</ele>
        <time>2011-04-23T10:29:41Z</time>
      </trkpt>
      <trkpt lat="44.96118" lon="5.45929">
        <ele>1353.19</ele>
        <time>2011-04-23T10:29:56Z</time>
      </trkpt>
      <trkpt lat="44.96108" lon="5.45962">
        <ele>1353.67</ele>
        <time>2011-04-23T10:30:10Z</time>
      </trkpt>
      <trkpt lat="44.96108" lon="5.45988">
        <ele>1355.12</ele>
        <time>2011-04-23T10:30:20Z</time>
      </trkpt>
      <trkpt lat="44.96107" lon="5.4599">
        <ele>1355.12</ele>
        <time>2011-04-23T10:30:21Z</time>
      </trkpt>
      <trkpt lat="44.96107" lon="5.45992">
        <ele>1355.12</ele>
        <time>2011-04-23T10:30:22Z</time>
      </trkpt>
      <trkpt lat="44.96106" lon="5.45999">
        <ele>1355.6</ele>
        <time>2011-04-23T10:30:25Z</time>
      </trkpt>
      <trkpt lat="44.96106" lon="5.46001">
        <ele>1355.6</ele>
        <time>2011-04-23T10:30:26Z</time>
      </trkpt>
      <trkpt lat="44.96105" lon="5.46003">
        <ele>1355.6</ele>
        <time>2011-04-23T10:30:27Z</time>
      </trkpt>
      <trkpt lat="44.96105" lon="5.46005">
        <ele>1355.6</ele>
        <time>2011-04-23T10:30:28Z</time>
      </trkpt>
      <trkpt lat="44.96105" lon="5.46008">
        <ele>1356.08</ele>
        <time>2011-04-23T10:30:29Z</time>
      </trkpt>
      <trkpt lat="44.96105" lon="5.4601">
        <ele>1355.6</ele>
        <time>2011-04-23T10:30:30Z</time>
      </trkpt>
      <trkpt lat="44.96105" lon="5.46018">
        <ele>1355.12</ele>
        <time>2011-04-23T10:30:33Z</time>
      </trkpt>
      <trkpt lat="44.96103" lon="5.46022">
        <ele>1355.6</ele>
        <time>2011-04-23T10:30:35Z</time>
      </trkpt>
      <trkpt lat="44.96103" lon="5.46023">
        <ele>1354.63</ele>
        <time>2011-04-23T10:30:47Z</time>
      </trkpt>
      <trkpt lat="44.96102" lon="5.46022">
        <ele>1355.6</ele>
        <time>2011-04-23T10:32:43Z</time>
      </trkpt>
      <trkpt lat="44.961" lon="5.46018">
        <ele>1357.52</ele>
        <time>2011-04-23T10:37:57Z</time>
      </trkpt>
      <trkpt lat="44.961" lon="5.46018">
        <ele>1358.48</ele>
        <time>2011-04-23T10:38:16Z</time>
      </trkpt>
      <trkpt lat="44.96098" lon="5.46022">
        <ele>1358.48</ele>
        <time>2011-04-23T10:38:25Z</time>
      </trkpt>
      <trkpt lat="44.96097" lon="5.46024">
        <ele>1358</ele>
        <time>2011-04-23T10:38:26Z</time>
      </trkpt>
      <trkpt lat="44.96096" lon="5.46027">
        <ele>1358</ele>
        <time>2011-04-23T10:38:27Z</time>
      </trkpt>
      <trkpt lat="44.96095" lon="5.4603">
        <ele>1358</ele>
        <time>2011-04-23T10:38:28Z</time>
      </trkpt>
      <trkpt lat="44.96095" lon="5.46034">
        <ele>1357.52</ele>
        <time>2011-04-23T10:38:29Z</time>
      </trkpt>
      <trkpt lat="44.96095" lon="5.46037">
        <ele>1357.52</ele>
        <time>2011-04-23T10:38:30Z</time>
      </trkpt>
      <trkpt lat="44.96098" lon="5.46091">
        <ele>1355.6</ele>
        <time>2011-04-23T10:38:41Z</time>
      </trkpt>
      <trkpt lat="44.96093" lon="5.461">
        <ele>1355.12</ele>
        <time>2011-04-23T10:38:43Z</time>
      </trkpt>
      <trkpt lat="44.9609" lon="5.46104">
        <ele>1355.12</ele>
        <time>2011-04-23T10:38:44Z</time>
      </trkpt>
      <trkpt lat="44.96087" lon="5.46108">
        <ele>1354.63</ele>
        <time>2011-04-23T10:38:45Z</time>
      </trkpt>
      <trkpt lat="44.96084" lon="5.4611">
        <ele>1354.15</ele>
        <time>2011-04-23T10:38:46Z</time>
      </trkpt>
      <trkpt lat="44.96081" lon="5.46113">
        <ele>1353.67</ele>
        <time>2011-04-23T10:38:47Z</time>
      </trkpt>
      <trkpt lat="44.96078" lon="5.46115">
        <ele>1353.67</ele>
        <time>2011-04-23T10:38:48Z</time>
      </trkpt>
      <trkpt lat="44.96076" lon="5.46119">
        <ele>1353.19</ele>
        <time>2011-04-23T10:38:49Z</time>
      </trkpt>
      <trkpt lat="44.96074" lon="5.46123">
        <ele>1352.71</ele>
        <time>2011-04-23T10:38:50Z</time>
      </trkpt>
      <trkpt lat="44.96074" lon="5.46128">
        <ele>1352.23</ele>
        <time>2011-04-23T10:38:51Z</time>
      </trkpt>
      <trkpt lat="44.96075" lon="5.46133">
        <ele>1352.23</ele>
        <time>2011-04-23T10:38:52Z</time>
      </trkpt>
      <trkpt lat="44.96078" lon="5.46137">
        <ele>1351.27</ele>
        <time>2011-04-23T10:38:53Z</time>
      </trkpt>
      <trkpt lat="44.96081" lon="5.4614">
        <ele>1351.27</ele>
        <time>2011-04-23T10:38:54Z</time>
      </trkpt>
      <trkpt lat="44.96085" lon="5.46143">
        <ele>1350.79</ele>
        <time>2011-04-23T10:38:55Z</time>
      </trkpt>
      <trkpt lat="44.96089" lon="5.46146">
        <ele>1350.79</ele>
        <time>2011-04-23T10:38:56Z</time>
      </trkpt>
      <trkpt lat="44.96093" lon="5.4615">
        <ele>1350.31</ele>
        <time>2011-04-23T10:38:57Z</time>
      </trkpt>
      <trkpt lat="44.96097" lon="5.46152">
        <ele>1349.83</ele>
        <time>2011-04-23T10:38:58Z</time>
      </trkpt>
      <trkpt lat="44.96116" lon="5.46182">
        <ele>1347.91</ele>
        <time>2011-04-23T10:39:06Z</time>
      </trkpt>
      <trkpt lat="44.96113" lon="5.46185">
        <ele>1347.43</ele>
        <time>2011-04-23T10:39:07Z</time>
      </trkpt>
      <trkpt lat="44.96109" lon="5.46188">
        <ele>1347.43</ele>
        <time>2011-04-23T10:39:08Z</time>
      </trkpt>
      <trkpt lat="44.96105" lon="5.46189">
        <ele>1346.94</ele>
        <time>2011-04-23T10:39:09Z</time>
      </trkpt>
      <trkpt lat="44.96101" lon="5.4619">
        <ele>1346.94</ele>
        <time>2011-04-23T10:39:10Z</time>
      </trkpt>
      <trkpt lat="44.96097" lon="5.46189">
        <ele>1346.46</ele>
        <time>2011-04-23T10:39:11Z</time>
      </trkpt>
      <trkpt lat="44.96093" lon="5.46188">
        <ele>1345.98</ele>
        <time>2011-04-23T10:39:12Z</time>
      </trkpt>
      <trkpt lat="44.96089" lon="5.46187">
        <ele>1345.98</ele>
        <time>2011-04-23T10:39:13Z</time>
      </trkpt>
      <trkpt lat="44.96085" lon="5.46187">
        <ele>1345.5</ele>
        <time>2011-04-23T10:39:14Z</time>
      </trkpt>
      <trkpt lat="44.96078" lon="5.4619">
        <ele>1345.02</ele>
        <time>2011-04-23T10:39:16Z</time>
      </trkpt>
      <trkpt lat="44.96075" lon="5.46193">
        <ele>1344.54</ele>
        <time>2011-04-23T10:39:17Z</time>
      </trkpt>
      <trkpt lat="44.96072" lon="5.46198">
        <ele>1343.58</ele>
        <time>2011-04-23T10:39:18Z</time>
      </trkpt>
      <trkpt lat="44.9607" lon="5.46203">
        <ele>1343.1</ele>
        <time>2011-04-23T10:39:19Z</time>
      </trkpt>
      <trkpt lat="44.96067" lon="5.46208">
        <ele>1342.14</ele>
        <time>2011-04-23T10:39:20Z</time>
      </trkpt>
      <trkpt lat="44.96064" lon="5.46214">
        <ele>1342.14</ele>
        <time>2011-04-23T10:39:21Z</time>
      </trkpt>
      <trkpt lat="44.96054" lon="5.46235">
        <ele>1340.22</ele>
        <time>2011-04-23T10:39:25Z</time>
      </trkpt>
      <trkpt lat="44.96047" lon="5.46245">
        <ele>1339.25</ele>
        <time>2011-04-23T10:39:27Z</time>
      </trkpt>
      <trkpt lat="44.96042" lon="5.46249">
        <ele>1338.77</ele>
        <time>2011-04-23T10:39:28Z</time>
      </trkpt>
      <trkpt lat="44.96037" lon="5.46252">
        <ele>1338.29</ele>
        <time>2011-04-23T10:39:29Z</time>
      </trkpt>
      <trkpt lat="44.96032" lon="5.46254">
        <ele>1338.29</ele>
        <time>2011-04-23T10:39:30Z</time>
      </trkpt>
      <trkpt lat="44.96027" lon="5.46256">
        <ele>1338.29</ele>
        <time>2011-04-23T10:39:31Z</time>
      </trkpt>
      <trkpt lat="44.96017" lon="5.4626">
        <ele>1338.29</ele>
        <time>2011-04-23T10:39:33Z</time>
      </trkpt>
      <trkpt lat="44.96013" lon="5.46261">
        <ele>1338.29</ele>
        <time>2011-04-23T10:39:34Z</time>
      </trkpt>
      <trkpt lat="44.96009" lon="5.46262">
        <ele>1338.29</ele>
        <time>2011-04-23T10:39:35Z</time>
      </trkpt>
      <trkpt lat="44.96005" lon="5.46263">
        <ele>1338.77</ele>
        <time>2011-04-23T10:39:36Z</time>
      </trkpt>
      <trkpt lat="44.96001" lon="5.46263">
        <ele>1339.25</ele>
        <time>2011-04-23T10:39:37Z</time>
      </trkpt>
      <trkpt lat="44.95966" lon="5.46249">
        <ele>1340.7</ele>
        <time>2011-04-23T10:39:50Z</time>
      </trkpt>
      <trkpt lat="44.95947" lon="5.46235">
        <ele>1343.1</ele>
        <time>2011-04-23T10:40:00Z</time>
      </trkpt>
      <trkpt lat="44.95941" lon="5.4622">
        <ele>1344.06</ele>
        <time>2011-04-23T10:40:07Z</time>
      </trkpt>
      <trkpt lat="44.95939" lon="5.4622">
        <ele>1343.58</ele>
        <time>2011-04-23T10:40:08Z</time>
      </trkpt>
      <trkpt lat="44.95933" lon="5.46217">
        <ele>1343.58</ele>
        <time>2011-04-23T10:40:13Z</time>
      </trkpt>
      <trkpt lat="44.95932" lon="5.46215">
        <ele>1344.06</ele>
        <time>2011-04-23T10:40:14Z</time>
      </trkpt>
      <trkpt lat="44.95932" lon="5.46213">
        <ele>1344.06</ele>
        <time>2011-04-23T10:40:15Z</time>
      </trkpt>
      <trkpt lat="44.95932" lon="5.4621">
        <ele>1343.58</ele>
        <time>2011-04-23T10:40:16Z</time>
      </trkpt>
      <trkpt lat="44.95933" lon="5.46208">
        <ele>1343.58</ele>
        <time>2011-04-23T10:40:17Z</time>
      </trkpt>
      <trkpt lat="44.95938" lon="5.46185">
        <ele>1342.62</ele>
        <time>2011-04-23T10:40:27Z</time>
      </trkpt>
      <trkpt lat="44.95943" lon="5.46162">
        <ele>1341.66</ele>
        <time>2011-04-23T10:40:33Z</time>
      </trkpt>
      <trkpt lat="44.9594" lon="5.46132">
        <ele>1341.18</ele>
        <time>2011-04-23T10:40:40Z</time>
      </trkpt>
      <trkpt lat="44.95934" lon="5.46122">
        <ele>1341.18</ele>
        <time>2011-04-23T10:40:44Z</time>
      </trkpt>
      <trkpt lat="44.95914" lon="5.46112">
        <ele>1339.25</ele>
        <time>2011-04-23T10:40:53Z</time>
      </trkpt>
      <trkpt lat="44.95897" lon="5.46111">
        <ele>1337.33</ele>
        <time>2011-04-23T10:40:58Z</time>
      </trkpt>
      <trkpt lat="44.95881" lon="5.46114">
        <ele>1333.01</ele>
        <time>2011-04-23T10:41:03Z</time>
      </trkpt>
      <trkpt lat="44.95877" lon="5.46114">
        <ele>1331.56</ele>
        <time>2011-04-23T10:41:04Z</time>
      </trkpt>
      <trkpt lat="44.95856" lon="5.46105">
        <ele>1329.64</ele>
        <time>2011-04-23T10:41:08Z</time>
      </trkpt>
      <trkpt lat="44.95835" lon="5.46093">
        <ele>1329.64</ele>
        <time>2011-04-23T10:41:12Z</time>
      </trkpt>
      <trkpt lat="44.95814" lon="5.4607">
        <ele>1327.24</ele>
        <time>2011-04-23T10:41:17Z</time>
      </trkpt>
      <trkpt lat="44.958" lon="5.4606">
        <ele>1324.35</ele>
        <time>2011-04-23T10:41:20Z</time>
      </trkpt>
      <trkpt lat="44.9579" lon="5.46058">
        <ele>1323.87</ele>
        <time>2011-04-23T10:41:22Z</time>
      </trkpt>
      <trkpt lat="44.95778" lon="5.46059">
        <ele>1321.95</ele>
        <time>2011-04-23T10:41:24Z</time>
      </trkpt>
      <trkpt lat="44.95749" lon="5.4606">
        <ele>1318.59</ele>
        <time>2011-04-23T10:41:29Z</time>
      </trkpt>
      <trkpt lat="44.95731" lon="5.4605">
        <ele>1319.07</ele>
        <time>2011-04-23T10:41:34Z</time>
      </trkpt>
      <trkpt lat="44.95719" lon="5.46031">
        <ele>1316.18</ele>
        <time>2011-04-23T10:41:41Z</time>
      </trkpt>
      <trkpt lat="44.95715" lon="5.46028">
        <ele>1314.74</ele>
        <time>2011-04-23T10:42:00Z</time>
      </trkpt>
      <trkpt lat="44.95704" lon="5.46015">
        <ele>1310.41</ele>
        <time>2011-04-23T10:42:07Z</time>
      </trkpt>
      <trkpt lat="44.95696" lon="5.46001">
        <ele>1307.53</ele>
        <time>2011-04-23T10:42:12Z</time>
      </trkpt>
      <trkpt lat="44.95695" lon="5.45999">
        <ele>1307.05</ele>
        <time>2011-04-23T10:42:13Z</time>
      </trkpt>
      <trkpt lat="44.95693" lon="5.45997">
        <ele>1305.61</ele>
        <time>2011-04-23T10:42:17Z</time>
      </trkpt>
      <trkpt lat="44.95681" lon="5.45996">
        <ele>1301.76</ele>
        <time>2011-04-23T10:42:23Z</time>
      </trkpt>
      <trkpt lat="44.95669" lon="5.46">
        <ele>1298.88</ele>
        <time>2011-04-23T10:42:28Z</time>
      </trkpt>
      <trkpt lat="44.95659" lon="5.46004">
        <ele>1295.51</ele>
        <time>2011-04-23T10:42:32Z</time>
      </trkpt>
      <trkpt lat="44.95654" lon="5.46007">
        <ele>1294.07</ele>
        <time>2011-04-23T10:42:34Z</time>
      </trkpt>
      <trkpt lat="44.95635" lon="5.46006">
        <ele>1290.23</ele>
        <time>2011-04-23T10:42:40Z</time>
      </trkpt>
      <trkpt lat="44.95626" lon="5.46005">
        <ele>1288.78</ele>
        <time>2011-04-23T10:42:43Z</time>
      </trkpt>
      <trkpt lat="44.95613" lon="5.46004">
        <ele>1286.86</ele>
        <time>2011-04-23T10:42:48Z</time>
      </trkpt>
      <trkpt lat="44.95603" lon="5.45997">
        <ele>1285.42</ele>
        <time>2011-04-23T10:42:51Z</time>
      </trkpt>
      <trkpt lat="44.956" lon="5.45993">
        <ele>1285.42</ele>
        <time>2011-04-23T10:42:52Z</time>
      </trkpt>
      <trkpt lat="44.95588" lon="5.45982">
        <ele>1283.5</ele>
        <time>2011-04-23T10:42:55Z</time>
      </trkpt>
      <trkpt lat="44.95584" lon="5.45978">
        <ele>1283.02</ele>
        <time>2011-04-23T10:42:56Z</time>
      </trkpt>
      <trkpt lat="44.95581" lon="5.45974">
        <ele>1282.54</ele>
        <time>2011-04-23T10:42:57Z</time>
      </trkpt>
      <trkpt lat="44.95577" lon="5.4597">
        <ele>1282.06</ele>
        <time>2011-04-23T10:42:58Z</time>
      </trkpt>
      <trkpt lat="44.95573" lon="5.45967">
        <ele>1281.57</ele>
        <time>2011-04-23T10:42:59Z</time>
      </trkpt>
      <trkpt lat="44.95569" lon="5.45964">
        <ele>1281.57</ele>
        <time>2011-04-23T10:43:00Z</time>
      </trkpt>
      <trkpt lat="44.95565" lon="5.45961">
        <ele>1280.61</ele>
        <time>2011-04-23T10:43:01Z</time>
      </trkpt>
      <trkpt lat="44.95557" lon="5.45956">
        <ele>1279.65</ele>
        <time>2011-04-23T10:43:03Z</time>
      </trkpt>
      <trkpt lat="44.95532" lon="5.45939">
        <ele>1276.29</ele>
        <time>2011-04-23T10:43:10Z</time>
      </trkpt>
      <trkpt lat="44.95515" lon="5.45933">
        <ele>1273.88</ele>
        <time>2011-04-23T10:43:14Z</time>
      </trkpt>
      <trkpt lat="44.95512" lon="5.45932">
        <ele>1273.88</ele>
        <time>2011-04-23T10:43:15Z</time>
      </trkpt>
      <trkpt lat="44.95508" lon="5.4593">
        <ele>1273.4</ele>
        <time>2011-04-23T10:43:16Z</time>
      </trkpt>
      <trkpt lat="44.95506" lon="5.45928">
        <ele>1272.92</ele>
        <time>2011-04-23T10:43:17Z</time>
      </trkpt>
      <trkpt lat="44.95503" lon="5.45926">
        <ele>1272.92</ele>
        <time>2011-04-23T10:43:18Z</time>
      </trkpt>
      <trkpt lat="44.95501" lon="5.45924">
        <ele>1272.92</ele>
        <time>2011-04-23T10:43:19Z</time>
      </trkpt>
      <trkpt lat="44.95499" lon="5.45922">
        <ele>1272.92</ele>
        <time>2011-04-23T10:43:33Z</time>
      </trkpt>
      <trkpt lat="44.95489" lon="5.45915">
        <ele>1273.4</ele>
        <time>2011-04-23T10:43:49Z</time>
      </trkpt>
      <trkpt lat="44.95487" lon="5.45915">
        <ele>1273.88</ele>
        <time>2011-04-23T10:43:50Z</time>
      </trkpt>
      <trkpt lat="44.95481" lon="5.45915">
        <ele>1273.88</ele>
        <time>2011-04-23T10:43:54Z</time>
      </trkpt>
      <trkpt lat="44.95474" lon="5.45917">
        <ele>1273.88</ele>
        <time>2011-04-23T10:43:58Z</time>
      </trkpt>
      <trkpt lat="44.95457" lon="5.4592">
        <ele>1273.88</ele>
        <time>2011-04-23T10:44:06Z</time>
      </trkpt>
      <trkpt lat="44.95428" lon="5.4593">
        <ele>1273.88</ele>
        <time>2011-04-23T10:44:20Z</time>
      </trkpt>
      <trkpt lat="44.9541" lon="5.45957">
        <ele>1275.33</ele>
        <time>2011-04-23T10:44:33Z</time>
      </trkpt>
      <trkpt lat="44.95398" lon="5.45991">
        <ele>1277.73</ele>
        <time>2011-04-23T10:44:46Z</time>
      </trkpt>
      <trkpt lat="44.95383" lon="5.46029">
        <ele>1278.69</ele>
        <time>2011-04-23T10:45:01Z</time>
      </trkpt>
      <trkpt lat="44.95382" lon="5.46033">
        <ele>1279.17</ele>
        <time>2011-04-23T10:45:03Z</time>
      </trkpt>
      <trkpt lat="44.95379" lon="5.46047">
        <ele>1279.17</ele>
        <time>2011-04-23T10:45:08Z</time>
      </trkpt>
      <trkpt lat="44.95368" lon="5.46083">
        <ele>1280.61</ele>
        <time>2011-04-23T10:45:21Z</time>
      </trkpt>
      <trkpt lat="44.95353" lon="5.46103">
        <ele>1281.09</ele>
        <time>2011-04-23T10:45:31Z</time>
      </trkpt>
      <trkpt lat="44.9535" lon="5.46113">
        <ele>1281.57</ele>
        <time>2011-04-23T10:45:35Z</time>
      </trkpt>
      <trkpt lat="44.95347" lon="5.46127">
        <ele>1282.06</ele>
        <time>2011-04-23T10:45:41Z</time>
      </trkpt>
      <trkpt lat="44.95345" lon="5.4616">
        <ele>1283.98</ele>
        <time>2011-04-23T10:45:54Z</time>
      </trkpt>
      <trkpt lat="44.95338" lon="5.46193">
        <ele>1286.38</ele>
        <time>2011-04-23T10:46:07Z</time>
      </trkpt>
      <trkpt lat="44.95332" lon="5.46201">
        <ele>1286.86</ele>
        <time>2011-04-23T10:46:12Z</time>
      </trkpt>
      <trkpt lat="44.95309" lon="5.46214">
        <ele>1288.78</ele>
        <time>2011-04-23T10:46:26Z</time>
      </trkpt>
      <trkpt lat="44.95282" lon="5.46234">
        <ele>1288.78</ele>
        <time>2011-04-23T10:46:41Z</time>
      </trkpt>
      <trkpt lat="44.95281" lon="5.46235">
        <ele>1288.78</ele>
        <time>2011-04-23T10:46:42Z</time>
      </trkpt>
      <trkpt lat="44.95274" lon="5.46237">
        <ele>1288.78</ele>
        <time>2011-04-23T10:46:46Z</time>
      </trkpt>
      <trkpt lat="44.95245" lon="5.46224">
        <ele>1288.3</ele>
        <time>2011-04-23T10:46:59Z</time>
      </trkpt>
      <trkpt lat="44.95219" lon="5.46191">
        <ele>1290.23</ele>
        <time>2011-04-23T10:47:14Z</time>
      </trkpt>
      <trkpt lat="44.95193" lon="5.46186">
        <ele>1291.67</ele>
        <time>2011-04-23T10:47:28Z</time>
      </trkpt>
      <trkpt lat="44.95164" lon="5.46197">
        <ele>1293.11</ele>
        <time>2011-04-23T10:47:42Z</time>
      </trkpt>
      <trkpt lat="44.95141" lon="5.46168">
        <ele>1296.48</ele>
        <time>2011-04-23T10:47:58Z</time>
      </trkpt>
      <trkpt lat="44.9513" lon="5.46157">
        <ele>1297.92</ele>
        <time>2011-04-23T10:48:05Z</time>
      </trkpt>
      <trkpt lat="44.95106" lon="5.4618">
        <ele>1299.36</ele>
        <time>2011-04-23T10:48:21Z</time>
      </trkpt>
      <trkpt lat="44.95086" lon="5.46205">
        <ele>1301.76</ele>
        <time>2011-04-23T10:48:35Z</time>
      </trkpt>
      <trkpt lat="44.95063" lon="5.46228">
        <ele>1303.69</ele>
        <time>2011-04-23T10:48:49Z</time>
      </trkpt>
      <trkpt lat="44.95045" lon="5.4624">
        <ele>1305.61</ele>
        <time>2011-04-23T10:49:01Z</time>
      </trkpt>
      <trkpt lat="44.95019" lon="5.4624">
        <ele>1307.05</ele>
        <time>2011-04-23T10:49:16Z</time>
      </trkpt>
      <trkpt lat="44.94991" lon="5.46225">
        <ele>1307.53</ele>
        <time>2011-04-23T10:49:30Z</time>
      </trkpt>
      <trkpt lat="44.94961" lon="5.46211">
        <ele>1306.57</ele>
        <time>2011-04-23T10:49:43Z</time>
      </trkpt>
      <trkpt lat="44.9494" lon="5.46186">
        <ele>1307.05</ele>
        <time>2011-04-23T10:49:55Z</time>
      </trkpt>
      <trkpt lat="44.94925" lon="5.46151">
        <ele>1308.49</ele>
        <time>2011-04-23T10:50:08Z</time>
      </trkpt>
      <trkpt lat="44.94897" lon="5.46158">
        <ele>1308.49</ele>
        <time>2011-04-23T10:50:22Z</time>
      </trkpt>
      <trkpt lat="44.94876" lon="5.46186">
        <ele>1308.49</ele>
        <time>2011-04-23T10:50:35Z</time>
      </trkpt>
      <trkpt lat="44.94857" lon="5.46215">
        <ele>1309.45</ele>
        <time>2011-04-23T10:50:48Z</time>
      </trkpt>
      <trkpt lat="44.94838" lon="5.46241">
        <ele>1309.45</ele>
        <time>2011-04-23T10:51:01Z</time>
      </trkpt>
      <trkpt lat="44.94825" lon="5.46269">
        <ele>1309.93</ele>
        <time>2011-04-23T10:51:14Z</time>
      </trkpt>
      <trkpt lat="44.94825" lon="5.46269">
        <ele>1310.41</ele>
        <time>2011-04-23T10:51:47Z</time>
      </trkpt>
      <trkpt lat="44.94825" lon="5.46269">
        <ele>1309.93</ele>
        <time>2011-04-23T10:51:54Z</time>
      </trkpt>
      <trkpt lat="44.94819" lon="5.46279">
        <ele>1309.45</ele>
        <time>2011-04-23T10:52:01Z</time>
      </trkpt>
      <trkpt lat="44.948" lon="5.46307">
        <ele>1310.9</ele>
        <time>2011-04-23T10:52:16Z</time>
      </trkpt>
      <trkpt lat="44.94794" lon="5.46311">
        <ele>1311.38</ele>
        <time>2011-04-23T10:52:20Z</time>
      </trkpt>
      <trkpt lat="44.94768" lon="5.46313">
        <ele>1311.86</ele>
        <time>2011-04-23T10:52:34Z</time>
      </trkpt>
      <trkpt lat="44.94759" lon="5.46318">
        <ele>1311.86</ele>
        <time>2011-04-23T10:52:39Z</time>
      </trkpt>
      <trkpt lat="44.94753" lon="5.46321">
        <ele>1311.86</ele>
        <time>2011-04-23T10:52:43Z</time>
      </trkpt>
      <trkpt lat="44.94733" lon="5.46333">
        <ele>1315.7</ele>
        <time>2011-04-23T10:52:56Z</time>
      </trkpt>
      <trkpt lat="44.94732" lon="5.46332">
        <ele>1315.7</ele>
        <time>2011-04-23T10:52:57Z</time>
      </trkpt>
      <trkpt lat="44.9473" lon="5.46331">
        <ele>1315.7</ele>
        <time>2011-04-23T10:52:59Z</time>
      </trkpt>
      <trkpt lat="44.94718" lon="5.46332">
        <ele>1317.62</ele>
        <time>2011-04-23T10:53:07Z</time>
      </trkpt>
      <trkpt lat="44.94714" lon="5.46332">
        <ele>1318.1</ele>
        <time>2011-04-23T10:53:10Z</time>
      </trkpt>
      <trkpt lat="44.94697" lon="5.46327">
        <ele>1320.03</ele>
        <time>2011-04-23T10:53:24Z</time>
      </trkpt>
      <trkpt lat="44.94692" lon="5.46325">
        <ele>1320.03</ele>
        <time>2011-04-23T10:53:27Z</time>
      </trkpt>
      <trkpt lat="44.94681" lon="5.46316">
        <ele>1317.62</ele>
        <time>2011-04-23T10:53:32Z</time>
      </trkpt>
      <trkpt lat="44.94675" lon="5.46307">
        <ele>1319.07</ele>
        <time>2011-04-23T10:53:36Z</time>
      </trkpt>
      <trkpt lat="44.94675" lon="5.463">
        <ele>1320.03</ele>
        <time>2011-04-23T10:53:39Z</time>
      </trkpt>
      <trkpt lat="44.94673" lon="5.46291">
        <ele>1321.47</ele>
        <time>2011-04-23T10:53:45Z</time>
      </trkpt>
      <trkpt lat="44.94672" lon="5.46282">
        <ele>1320.51</ele>
        <time>2011-04-23T10:53:50Z</time>
      </trkpt>
      <trkpt lat="44.94673" lon="5.46257">
        <ele>1320.99</ele>
        <time>2011-04-23T10:54:03Z</time>
      </trkpt>
      <trkpt lat="44.94677" lon="5.46239">
        <ele>1320.51</ele>
        <time>2011-04-23T10:54:11Z</time>
      </trkpt>
      <trkpt lat="44.94679" lon="5.4623">
        <ele>1320.03</ele>
        <time>2011-04-23T10:54:15Z</time>
      </trkpt>
      <trkpt lat="44.94683" lon="5.46225">
        <ele>1320.03</ele>
        <time>2011-04-23T10:54:18Z</time>
      </trkpt>
      <trkpt lat="44.94685" lon="5.46215">
        <ele>1320.03</ele>
        <time>2011-04-23T10:54:23Z</time>
      </trkpt>
      <trkpt lat="44.94693" lon="5.46191">
        <ele>1320.51</ele>
        <time>2011-04-23T10:54:36Z</time>
      </trkpt>
      <trkpt lat="44.94692" lon="5.46173">
        <ele>1321.47</ele>
        <time>2011-04-23T10:54:45Z</time>
      </trkpt>
      <trkpt lat="44.94693" lon="5.46166">
        <ele>1322.43</ele>
        <time>2011-04-23T10:54:49Z</time>
      </trkpt>
      <trkpt lat="44.94691" lon="5.46144">
        <ele>1324.35</ele>
        <time>2011-04-23T10:55:00Z</time>
      </trkpt>
      <trkpt lat="44.94691" lon="5.46135">
        <ele>1324.83</ele>
        <time>2011-04-23T10:55:05Z</time>
      </trkpt>
      <trkpt lat="44.94688" lon="5.46123">
        <ele>1325.31</ele>
        <time>2011-04-23T10:55:11Z</time>
      </trkpt>
      <trkpt lat="44.94687" lon="5.46119">
        <ele>1325.31</ele>
        <time>2011-04-23T10:55:13Z</time>
      </trkpt>
      <trkpt lat="44.94686" lon="5.46115">
        <ele>1325.8</ele>
        <time>2011-04-23T10:55:16Z</time>
      </trkpt>
      <trkpt lat="44.94687" lon="5.46095">
        <ele>1326.28</ele>
        <time>2011-04-23T10:55:26Z</time>
      </trkpt>
      <trkpt lat="44.94685" lon="5.46091">
        <ele>1326.28</ele>
        <time>2011-04-23T10:55:28Z</time>
      </trkpt>
      <trkpt lat="44.94684" lon="5.46088">
        <ele>1325.8</ele>
        <time>2011-04-23T10:55:30Z</time>
      </trkpt>
      <trkpt lat="44.94684" lon="5.46076">
        <ele>1326.76</ele>
        <time>2011-04-23T10:55:36Z</time>
      </trkpt>
      <trkpt lat="44.94684" lon="5.46069">
        <ele>1327.72</ele>
        <time>2011-04-23T10:55:40Z</time>
      </trkpt>
      <trkpt lat="44.94679" lon="5.46061">
        <ele>1327.72</ele>
        <time>2011-04-23T10:55:46Z</time>
      </trkpt>
      <trkpt lat="44.94678" lon="5.46053">
        <ele>1327.72</ele>
        <time>2011-04-23T10:55:57Z</time>
      </trkpt>
      <trkpt lat="44.94677" lon="5.4605">
        <ele>1328.2</ele>
        <time>2011-04-23T10:56:04Z</time>
      </trkpt>
      <trkpt lat="44.94673" lon="5.46045">
        <ele>1328.2</ele>
        <time>2011-04-23T10:56:08Z</time>
      </trkpt>
      <trkpt lat="44.94665" lon="5.46038">
        <ele>1327.24</ele>
        <time>2011-04-23T10:56:13Z</time>
      </trkpt>
      <trkpt lat="44.94656" lon="5.46023">
        <ele>1327.24</ele>
        <time>2011-04-23T10:56:20Z</time>
      </trkpt>
      <trkpt lat="44.94651" lon="5.46009">
        <ele>1327.72</ele>
        <time>2011-04-23T10:56:28Z</time>
      </trkpt>
      <trkpt lat="44.94651" lon="5.46006">
        <ele>1327.72</ele>
        <time>2011-04-23T10:56:30Z</time>
      </trkpt>
      <trkpt lat="44.94651" lon="5.45984">
        <ele>1328.2</ele>
        <time>2011-04-23T10:56:42Z</time>
      </trkpt>
      <trkpt lat="44.94649" lon="5.45973">
        <ele>1329.64</ele>
        <time>2011-04-23T10:56:52Z</time>
      </trkpt>
      <trkpt lat="44.94648" lon="5.45962">
        <ele>1331.08</ele>
        <time>2011-04-23T10:57:02Z</time>
      </trkpt>
      <trkpt lat="44.94644" lon="5.45949">
        <ele>1333.01</ele>
        <time>2011-04-23T10:57:15Z</time>
      </trkpt>
      <trkpt lat="44.94637" lon="5.45941">
        <ele>1334.93</ele>
        <time>2011-04-23T10:57:27Z</time>
      </trkpt>
      <trkpt lat="44.94633" lon="5.45932">
        <ele>1336.37</ele>
        <time>2011-04-23T10:57:49Z</time>
      </trkpt>
      <trkpt lat="44.94632" lon="5.45918">
        <ele>1338.29</ele>
        <time>2011-04-23T10:58:01Z</time>
      </trkpt>
      <trkpt lat="44.94635" lon="5.45909">
        <ele>1339.73</ele>
        <time>2011-04-23T10:58:12Z</time>
      </trkpt>
      <trkpt lat="44.94634" lon="5.45899">
        <ele>1341.66</ele>
        <time>2011-04-23T10:58:23Z</time>
      </trkpt>
      <trkpt lat="44.94634" lon="5.45888">
        <ele>1343.1</ele>
        <time>2011-04-23T10:58:34Z</time>
      </trkpt>
      <trkpt lat="44.94634" lon="5.45875">
        <ele>1344.54</ele>
        <time>2011-04-23T10:58:45Z</time>
      </trkpt>
      <trkpt lat="44.94635" lon="5.45861">
        <ele>1345.98</ele>
        <time>2011-04-23T10:58:55Z</time>
      </trkpt>
      <trkpt lat="44.94636" lon="5.45843">
        <ele>1347.91</ele>
        <time>2011-04-23T10:59:09Z</time>
      </trkpt>
      <trkpt lat="44.94631" lon="5.45833">
        <ele>1349.83</ele>
        <time>2011-04-23T10:59:21Z</time>
      </trkpt>
      <trkpt lat="44.94629" lon="5.4583">
        <ele>1348.87</ele>
        <time>2011-04-23T10:59:30Z</time>
      </trkpt>
      <trkpt lat="44.94623" lon="5.45826">
        <ele>1347.43</ele>
        <time>2011-04-23T10:59:34Z</time>
      </trkpt>
      <trkpt lat="44.94617" lon="5.45826">
        <ele>1346.46</ele>
        <time>2011-04-23T10:59:36Z</time>
      </trkpt>
      <trkpt lat="44.94598" lon="5.45815">
        <ele>1346.46</ele>
        <time>2011-04-23T10:59:46Z</time>
      </trkpt>
      <trkpt lat="44.94593" lon="5.45812">
        <ele>1345.5</ele>
        <time>2011-04-23T10:59:49Z</time>
      </trkpt>
      <trkpt lat="44.94587" lon="5.45799">
        <ele>1346.94</ele>
        <time>2011-04-23T11:00:01Z</time>
      </trkpt>
      <trkpt lat="44.94583" lon="5.45794">
        <ele>1343.58</ele>
        <time>2011-04-23T11:00:13Z</time>
      </trkpt>
      <trkpt lat="44.94583" lon="5.45794">
        <ele>1350.79</ele>
        <time>2011-04-23T11:00:14Z</time>
      </trkpt>
      <trkpt lat="44.94583" lon="5.45794">
        <ele>1347.43</ele>
        <time>2011-04-23T11:00:16Z</time>
      </trkpt>
      <trkpt lat="44.94583" lon="5.45794">
        <ele>1347.43</ele>
        <time>2011-04-23T11:00:17Z</time>
      </trkpt>
      <trkpt lat="44.94579" lon="5.45792">
        <ele>1347.91</ele>
        <time>2011-04-23T11:00:29Z</time>
      </trkpt>
      <trkpt lat="44.94573" lon="5.45789">
        <ele>1347.91</ele>
        <time>2011-04-23T11:00:34Z</time>
      </trkpt>
      <trkpt lat="44.94551" lon="5.45788">
        <ele>1348.87</ele>
        <time>2011-04-23T11:00:49Z</time>
      </trkpt>
      <trkpt lat="44.94545" lon="5.45806">
        <ele>1348.87</ele>
        <time>2011-04-23T11:00:59Z</time>
      </trkpt>
      <trkpt lat="44.94534" lon="5.45835">
        <ele>1350.31</ele>
        <time>2011-04-23T11:01:14Z</time>
      </trkpt>
      <trkpt lat="44.94527" lon="5.45847">
        <ele>1350.79</ele>
        <time>2011-04-23T11:01:21Z</time>
      </trkpt>
      <trkpt lat="44.94501" lon="5.45863">
        <ele>1349.35</ele>
        <time>2011-04-23T11:01:34Z</time>
      </trkpt>
      <trkpt lat="44.94457" lon="5.45891">
        <ele>1345.98</ele>
        <time>2011-04-23T11:01:50Z</time>
      </trkpt>
      <trkpt lat="44.94419" lon="5.45881">
        <ele>1345.02</ele>
        <time>2011-04-23T11:02:02Z</time>
      </trkpt>
      <trkpt lat="44.94387" lon="5.4589">
        <ele>1344.54</ele>
        <time>2011-04-23T11:02:17Z</time>
      </trkpt>
      <trkpt lat="44.94354" lon="5.45878">
        <ele>1342.14</ele>
        <time>2011-04-23T11:02:30Z</time>
      </trkpt>
      <trkpt lat="44.94316" lon="5.45876">
        <ele>1340.22</ele>
        <time>2011-04-23T11:02:44Z</time>
      </trkpt>
      <trkpt lat="44.94277" lon="5.45856">
        <ele>1338.77</ele>
        <time>2011-04-23T11:02:58Z</time>
      </trkpt>
      <trkpt lat="44.94235" lon="5.45845">
        <ele>1337.81</ele>
        <time>2011-04-23T11:03:13Z</time>
      </trkpt>
      <trkpt lat="44.94196" lon="5.45842">
        <ele>1339.73</ele>
        <time>2011-04-23T11:03:29Z</time>
      </trkpt>
      <trkpt lat="44.94165" lon="5.45843">
        <ele>1339.73</ele>
        <time>2011-04-23T11:03:42Z</time>
      </trkpt>
      <trkpt lat="44.94132" lon="5.45854">
        <ele>1341.66</ele>
        <time>2011-04-23T11:03:57Z</time>
      </trkpt>
      <trkpt lat="44.94094" lon="5.45854">
        <ele>1342.62</ele>
        <time>2011-04-23T11:04:13Z</time>
      </trkpt>
      <trkpt lat="44.94055" lon="5.45858">
        <ele>1343.58</ele>
        <time>2011-04-23T11:04:29Z</time>
      </trkpt>
      <trkpt lat="44.94025" lon="5.45863">
        <ele>1346.46</ele>
        <time>2011-04-23T11:04:44Z</time>
      </trkpt>
      <trkpt lat="44.93996" lon="5.45874">
        <ele>1348.39</ele>
        <time>2011-04-23T11:04:59Z</time>
      </trkpt>
      <trkpt lat="44.9397" lon="5.45862">
        <ele>1349.83</ele>
        <time>2011-04-23T11:05:13Z</time>
      </trkpt>
      <trkpt lat="44.93966" lon="5.4586">
        <ele>1350.31</ele>
        <time>2011-04-23T11:05:15Z</time>
      </trkpt>
      <trkpt lat="44.9394" lon="5.45857">
        <ele>1352.23</ele>
        <time>2011-04-23T11:05:31Z</time>
      </trkpt>
      <trkpt lat="44.93923" lon="5.45853">
        <ele>1353.67</ele>
        <time>2011-04-23T11:05:41Z</time>
      </trkpt>
      <trkpt lat="44.93919" lon="5.4585">
        <ele>1354.15</ele>
        <time>2011-04-23T11:05:44Z</time>
      </trkpt>
      <trkpt lat="44.93916" lon="5.45845">
        <ele>1354.63</ele>
        <time>2011-04-23T11:05:48Z</time>
      </trkpt>
      <trkpt lat="44.93904" lon="5.45824">
        <ele>1357.52</ele>
        <time>2011-04-23T11:06:00Z</time>
      </trkpt>
      <trkpt lat="44.93882" lon="5.45817">
        <ele>1359.92</ele>
        <time>2011-04-23T11:06:14Z</time>
      </trkpt>
      <trkpt lat="44.93863" lon="5.45806">
        <ele>1361.84</ele>
        <time>2011-04-23T11:06:28Z</time>
      </trkpt>
      <trkpt lat="44.9386" lon="5.458">
        <ele>1362.33</ele>
        <time>2011-04-23T11:06:31Z</time>
      </trkpt>
      <trkpt lat="44.93861" lon="5.45768">
        <ele>1364.73</ele>
        <time>2011-04-23T11:06:46Z</time>
      </trkpt>
      <trkpt lat="44.93861" lon="5.45765">
        <ele>1364.73</ele>
        <time>2011-04-23T11:06:47Z</time>
      </trkpt>
      <trkpt lat="44.93859" lon="5.45756">
        <ele>1365.69</ele>
        <time>2011-04-23T11:06:51Z</time>
      </trkpt>
      <trkpt lat="44.93844" lon="5.45752">
        <ele>1367.13</ele>
        <time>2011-04-23T11:07:02Z</time>
      </trkpt>
      <trkpt lat="44.93819" lon="5.45763">
        <ele>1369.05</ele>
        <time>2011-04-23T11:07:17Z</time>
      </trkpt>
      <trkpt lat="44.93789" lon="5.45789">
        <ele>1367.13</ele>
        <time>2011-04-23T11:07:33Z</time>
      </trkpt>
      <trkpt lat="44.93767" lon="5.45833">
        <ele>1364.73</ele>
        <time>2011-04-23T11:07:44Z</time>
      </trkpt>
      <trkpt lat="44.93734" lon="5.45897">
        <ele>1362.33</ele>
        <time>2011-04-23T11:07:59Z</time>
      </trkpt>
      <trkpt lat="44.93705" lon="5.45884">
        <ele>1360.88</ele>
        <time>2011-04-23T11:08:08Z</time>
      </trkpt>
      <trkpt lat="44.93685" lon="5.45846">
        <ele>1360.4</ele>
        <time>2011-04-23T11:08:21Z</time>
      </trkpt>
      <trkpt lat="44.93667" lon="5.45806">
        <ele>1358.96</ele>
        <time>2011-04-23T11:08:35Z</time>
      </trkpt>
      <trkpt lat="44.93653" lon="5.45771">
        <ele>1358.96</ele>
        <time>2011-04-23T11:08:48Z</time>
      </trkpt>
      <trkpt lat="44.93652" lon="5.45725">
        <ele>1357.52</ele>
        <time>2011-04-23T11:09:00Z</time>
      </trkpt>
      <trkpt lat="44.9364" lon="5.45679">
        <ele>1354.15</ele>
        <time>2011-04-23T11:09:10Z</time>
      </trkpt>
      <trkpt lat="44.93603" lon="5.45659">
        <ele>1352.23</ele>
        <time>2011-04-23T11:09:21Z</time>
      </trkpt>
      <trkpt lat="44.93573" lon="5.45654">
        <ele>1351.75</ele>
        <time>2011-04-23T11:09:33Z</time>
      </trkpt>
      <trkpt lat="44.9354" lon="5.45632">
        <ele>1350.31</ele>
        <time>2011-04-23T11:09:46Z</time>
      </trkpt>
      <trkpt lat="44.93506" lon="5.45653">
        <ele>1352.23</ele>
        <time>2011-04-23T11:10:00Z</time>
      </trkpt>
      <trkpt lat="44.93474" lon="5.4568">
        <ele>1353.67</ele>
        <time>2011-04-23T11:10:15Z</time>
      </trkpt>
      <trkpt lat="44.93437" lon="5.45701">
        <ele>1354.15</ele>
        <time>2011-04-23T11:10:31Z</time>
      </trkpt>
      <trkpt lat="44.93392" lon="5.45708">
        <ele>1354.63</ele>
        <time>2011-04-23T11:10:47Z</time>
      </trkpt>
      <trkpt lat="44.93362" lon="5.45674">
        <ele>1355.12</ele>
        <time>2011-04-23T11:11:02Z</time>
      </trkpt>
      <trkpt lat="44.9336" lon="5.45636">
        <ele>1355.12</ele>
        <time>2011-04-23T11:11:14Z</time>
      </trkpt>
      <trkpt lat="44.93371" lon="5.45591">
        <ele>1355.12</ele>
        <time>2011-04-23T11:11:27Z</time>
      </trkpt>
      <trkpt lat="44.93383" lon="5.45551">
        <ele>1356.08</ele>
        <time>2011-04-23T11:11:40Z</time>
      </trkpt>
      <trkpt lat="44.93394" lon="5.45528">
        <ele>1358</ele>
        <time>2011-04-23T11:11:49Z</time>
      </trkpt>
      <trkpt lat="44.93395" lon="5.45525">
        <ele>1358</ele>
        <time>2011-04-23T11:11:50Z</time>
      </trkpt>
      <trkpt lat="44.93396" lon="5.45523">
        <ele>1358</ele>
        <time>2011-04-23T11:11:51Z</time>
      </trkpt>
      <trkpt lat="44.93397" lon="5.4552">
        <ele>1357.52</ele>
        <time>2011-04-23T11:11:52Z</time>
      </trkpt>
      <trkpt lat="44.93397" lon="5.45517">
        <ele>1358.48</ele>
        <time>2011-04-23T11:11:53Z</time>
      </trkpt>
      <trkpt lat="44.93398" lon="5.45515">
        <ele>1358</ele>
        <time>2011-04-23T11:11:54Z</time>
      </trkpt>
      <trkpt lat="44.93407" lon="5.4548">
        <ele>1359.44</ele>
        <time>2011-04-23T11:12:06Z</time>
      </trkpt>
      <trkpt lat="44.93407" lon="5.45451">
        <ele>1360.88</ele>
        <time>2011-04-23T11:12:16Z</time>
      </trkpt>
      <trkpt lat="44.93406" lon="5.45449">
        <ele>1360.88</ele>
        <time>2011-04-23T11:12:17Z</time>
      </trkpt>
      <trkpt lat="44.93405" lon="5.45446">
        <ele>1360.88</ele>
        <time>2011-04-23T11:12:18Z</time>
      </trkpt>
      <trkpt lat="44.93405" lon="5.45443">
        <ele>1361.36</ele>
        <time>2011-04-23T11:12:19Z</time>
      </trkpt>
      <trkpt lat="44.93404" lon="5.4544">
        <ele>1361.36</ele>
        <time>2011-04-23T11:12:20Z</time>
      </trkpt>
      <trkpt lat="44.93404" lon="5.45438">
        <ele>1361.36</ele>
        <time>2011-04-23T11:12:21Z</time>
      </trkpt>
      <trkpt lat="44.93403" lon="5.45435">
        <ele>1361.84</ele>
        <time>2011-04-23T11:12:22Z</time>
      </trkpt>
      <trkpt lat="44.93395" lon="5.45397">
        <ele>1363.29</ele>
        <time>2011-04-23T11:12:35Z</time>
      </trkpt>
      <trkpt lat="44.93393" lon="5.45358">
        <ele>1364.25</ele>
        <time>2011-04-23T11:12:49Z</time>
      </trkpt>
      <trkpt lat="44.93394" lon="5.4533">
        <ele>1365.21</ele>
        <time>2011-04-23T11:12:59Z</time>
      </trkpt>
      <trkpt lat="44.93392" lon="5.45329">
        <ele>1365.21</ele>
        <time>2011-04-23T11:13:00Z</time>
      </trkpt>
      <trkpt lat="44.9339" lon="5.45328">
        <ele>1365.21</ele>
        <time>2011-04-23T11:13:01Z</time>
      </trkpt>
      <trkpt lat="44.93388" lon="5.45328">
        <ele>1365.21</ele>
        <time>2011-04-23T11:13:02Z</time>
      </trkpt>
      <trkpt lat="44.93386" lon="5.4533">
        <ele>1365.69</ele>
        <time>2011-04-23T11:13:03Z</time>
      </trkpt>
      <trkpt lat="44.93385" lon="5.45331">
        <ele>1365.21</ele>
        <time>2011-04-23T11:13:04Z</time>
      </trkpt>
      <trkpt lat="44.93384" lon="5.45333">
        <ele>1365.69</ele>
        <time>2011-04-23T11:13:05Z</time>
      </trkpt>
      <trkpt lat="44.93383" lon="5.45336">
        <ele>1365.69</ele>
        <time>2011-04-23T11:13:06Z</time>
      </trkpt>
      <trkpt lat="44.93382" lon="5.45339">
        <ele>1366.17</ele>
        <time>2011-04-23T11:13:07Z</time>
      </trkpt>
      <trkpt lat="44.93382" lon="5.45385">
        <ele>1368.09</ele>
        <time>2011-04-23T11:13:23Z</time>
      </trkpt>
      <trkpt lat="44.93375" lon="5.45428">
        <ele>1369.54</ele>
        <time>2011-04-23T11:13:38Z</time>
      </trkpt>
      <trkpt lat="44.93368" lon="5.45469">
        <ele>1369.54</ele>
        <time>2011-04-23T11:13:51Z</time>
      </trkpt>
      <trkpt lat="44.93359" lon="5.45515">
        <ele>1369.54</ele>
        <time>2011-04-23T11:14:04Z</time>
      </trkpt>
      <trkpt lat="44.93345" lon="5.45549">
        <ele>1370.5</ele>
        <time>2011-04-23T11:14:17Z</time>
      </trkpt>
      <trkpt lat="44.93326" lon="5.45579">
        <ele>1372.42</ele>
        <time>2011-04-23T11:14:31Z</time>
      </trkpt>
      <trkpt lat="44.93306" lon="5.456">
        <ele>1373.86</ele>
        <time>2011-04-23T11:14:43Z</time>
      </trkpt>
      <trkpt lat="44.93281" lon="5.45603">
        <ele>1374.82</ele>
        <time>2011-04-23T11:14:55Z</time>
      </trkpt>
      <trkpt lat="44.9327" lon="5.4561">
        <ele>1376.26</ele>
        <time>2011-04-23T11:15:07Z</time>
      </trkpt>
      <trkpt lat="44.9327" lon="5.4561">
        <ele>1373.38</ele>
        <time>2011-04-23T11:15:22Z</time>
      </trkpt>
      <trkpt lat="44.9327" lon="5.4561">
        <ele>1377.23</ele>
        <time>2011-04-23T11:15:23Z</time>
      </trkpt>
      <trkpt lat="44.93256" lon="5.45615">
        <ele>1377.71</ele>
        <time>2011-04-23T11:15:42Z</time>
      </trkpt>
      <trkpt lat="44.93228" lon="5.45638">
        <ele>1378.19</ele>
        <time>2011-04-23T11:15:57Z</time>
      </trkpt>
      <trkpt lat="44.93204" lon="5.45654">
        <ele>1380.59</ele>
        <time>2011-04-23T11:16:12Z</time>
      </trkpt>
      <trkpt lat="44.93179" lon="5.4566">
        <ele>1382.03</ele>
        <time>2011-04-23T11:16:25Z</time>
      </trkpt>
      <trkpt lat="44.93156" lon="5.45687">
        <ele>1383.47</ele>
        <time>2011-04-23T11:16:40Z</time>
      </trkpt>
      <trkpt lat="44.93133" lon="5.45714">
        <ele>1384.92</ele>
        <time>2011-04-23T11:16:55Z</time>
      </trkpt>
      <trkpt lat="44.93111" lon="5.45748">
        <ele>1385.88</ele>
        <time>2011-04-23T11:17:10Z</time>
      </trkpt>
      <trkpt lat="44.93088" lon="5.4578">
        <ele>1387.32</ele>
        <time>2011-04-23T11:17:24Z</time>
      </trkpt>
      <trkpt lat="44.93066" lon="5.45806">
        <ele>1389.24</ele>
        <time>2011-04-23T11:17:37Z</time>
      </trkpt>
      <trkpt lat="44.93036" lon="5.45813">
        <ele>1391.17</ele>
        <time>2011-04-23T11:17:51Z</time>
      </trkpt>
      <trkpt lat="44.93004" lon="5.45835">
        <ele>1393.09</ele>
        <time>2011-04-23T11:18:07Z</time>
      </trkpt>
      <trkpt lat="44.93001" lon="5.45868">
        <ele>1394.05</ele>
        <time>2011-04-23T11:18:18Z</time>
      </trkpt>
      <trkpt lat="44.93002" lon="5.4591">
        <ele>1395.49</ele>
        <time>2011-04-23T11:18:31Z</time>
      </trkpt>
      <trkpt lat="44.93008" lon="5.45935">
        <ele>1396.93</ele>
        <time>2011-04-23T11:18:42Z</time>
      </trkpt>
      <trkpt lat="44.93008" lon="5.45937">
        <ele>1396.93</ele>
        <time>2011-04-23T11:18:43Z</time>
      </trkpt>
      <trkpt lat="44.93009" lon="5.45939">
        <ele>1397.41</ele>
        <time>2011-04-23T11:18:44Z</time>
      </trkpt>
      <trkpt lat="44.9301" lon="5.45941">
        <ele>1397.41</ele>
        <time>2011-04-23T11:18:45Z</time>
      </trkpt>
      <trkpt lat="44.9301" lon="5.45944">
        <ele>1397.41</ele>
        <time>2011-04-23T11:18:46Z</time>
      </trkpt>
      <trkpt lat="44.93011" lon="5.45946">
        <ele>1397.41</ele>
        <time>2011-04-23T11:18:47Z</time>
      </trkpt>
      <trkpt lat="44.93011" lon="5.45949">
        <ele>1397.41</ele>
        <time>2011-04-23T11:18:48Z</time>
      </trkpt>
      <trkpt lat="44.93011" lon="5.45952">
        <ele>1397.89</ele>
        <time>2011-04-23T11:18:49Z</time>
      </trkpt>
      <trkpt lat="44.93011" lon="5.45955">
        <ele>1397.89</ele>
        <time>2011-04-23T11:18:50Z</time>
      </trkpt>
      <trkpt lat="44.9301" lon="5.45958">
        <ele>1397.89</ele>
        <time>2011-04-23T11:18:51Z</time>
      </trkpt>
      <trkpt lat="44.92992" lon="5.45985">
        <ele>1399.82</ele>
        <time>2011-04-23T11:19:04Z</time>
      </trkpt>
      <trkpt lat="44.92968" lon="5.46002">
        <ele>1401.26</ele>
        <time>2011-04-23T11:19:17Z</time>
      </trkpt>
      <trkpt lat="44.92952" lon="5.46019">
        <ele>1402.7</ele>
        <time>2011-04-23T11:19:27Z</time>
      </trkpt>
      <trkpt lat="44.92952" lon="5.46021">
        <ele>1402.22</ele>
        <time>2011-04-23T11:19:28Z</time>
      </trkpt>
      <trkpt lat="44.92952" lon="5.46024">
        <ele>1402.22</ele>
        <time>2011-04-23T11:19:29Z</time>
      </trkpt>
      <trkpt lat="44.92952" lon="5.46027">
        <ele>1402.7</ele>
        <time>2011-04-23T11:19:30Z</time>
      </trkpt>
      <trkpt lat="44.92952" lon="5.4603">
        <ele>1402.7</ele>
        <time>2011-04-23T11:19:31Z</time>
      </trkpt>
      <trkpt lat="44.92964" lon="5.4607">
        <ele>1403.66</ele>
        <time>2011-04-23T11:19:46Z</time>
      </trkpt>
      <trkpt lat="44.92972" lon="5.46102">
        <ele>1405.58</ele>
        <time>2011-04-23T11:19:58Z</time>
      </trkpt>
      <trkpt lat="44.92976" lon="5.46144">
        <ele>1407.03</ele>
        <time>2011-04-23T11:20:13Z</time>
      </trkpt>
      <trkpt lat="44.92962" lon="5.46174">
        <ele>1408.47</ele>
        <time>2011-04-23T11:20:27Z</time>
      </trkpt>
      <trkpt lat="44.92954" lon="5.46177">
        <ele>1408.47</ele>
        <time>2011-04-23T11:20:32Z</time>
      </trkpt>
      <trkpt lat="44.9295" lon="5.46178">
        <ele>1408.47</ele>
        <time>2011-04-23T11:20:42Z</time>
      </trkpt>
      <trkpt lat="44.9295" lon="5.46177">
        <ele>1408.47</ele>
        <time>2011-04-23T11:21:13Z</time>
      </trkpt>
      <trkpt lat="44.92952" lon="5.46175">
        <ele>1409.91</ele>
        <time>2011-04-23T11:32:52Z</time>
      </trkpt>
      <trkpt lat="44.92952" lon="5.46177">
        <ele>1409.91</ele>
        <time>2011-04-23T11:37:56Z</time>
      </trkpt>
      <trkpt lat="44.92947" lon="5.46194">
        <ele>1410.39</ele>
        <time>2011-04-23T11:38:07Z</time>
      </trkpt>
      <trkpt lat="44.92945" lon="5.46196">
        <ele>1409.91</ele>
        <time>2011-04-23T11:38:08Z</time>
      </trkpt>
      <trkpt lat="44.92944" lon="5.46198">
        <ele>1409.91</ele>
        <time>2011-04-23T11:38:09Z</time>
      </trkpt>
      <trkpt lat="44.92942" lon="5.46201">
        <ele>1409.91</ele>
        <time>2011-04-23T11:38:10Z</time>
      </trkpt>
      <trkpt lat="44.92941" lon="5.46203">
        <ele>1409.91</ele>
        <time>2011-04-23T11:38:11Z</time>
      </trkpt>
      <trkpt lat="44.9294" lon="5.46205">
        <ele>1409.91</ele>
        <time>2011-04-23T11:38:12Z</time>
      </trkpt>
      <trkpt lat="44.92939" lon="5.46208">
        <ele>1409.91</ele>
        <time>2011-04-23T11:38:13Z</time>
      </trkpt>
      <trkpt lat="44.92938" lon="5.46211">
        <ele>1409.43</ele>
        <time>2011-04-23T11:38:14Z</time>
      </trkpt>
      <trkpt lat="44.92938" lon="5.46215">
        <ele>1409.91</ele>
        <time>2011-04-23T11:38:15Z</time>
      </trkpt>
      <trkpt lat="44.92937" lon="5.46218">
        <ele>1409.91</ele>
        <time>2011-04-23T11:38:16Z</time>
      </trkpt>
      <trkpt lat="44.92936" lon="5.46221">
        <ele>1409.43</ele>
        <time>2011-04-23T11:38:17Z</time>
      </trkpt>
      <trkpt lat="44.92922" lon="5.46265">
        <ele>1408.95</ele>
        <time>2011-04-23T11:38:30Z</time>
      </trkpt>
      <trkpt lat="44.92898" lon="5.46295">
        <ele>1408.95</ele>
        <time>2011-04-23T11:38:42Z</time>
      </trkpt>
      <trkpt lat="44.92872" lon="5.46312">
        <ele>1409.91</ele>
        <time>2011-04-23T11:38:54Z</time>
      </trkpt>
      <trkpt lat="44.92865" lon="5.46278">
        <ele>1411.83</ele>
        <time>2011-04-23T11:39:06Z</time>
      </trkpt>
      <trkpt lat="44.92869" lon="5.46236">
        <ele>1412.31</ele>
        <time>2011-04-23T11:39:19Z</time>
      </trkpt>
      <trkpt lat="44.92875" lon="5.46203">
        <ele>1413.28</ele>
        <time>2011-04-23T11:39:30Z</time>
      </trkpt>
      <trkpt lat="44.92888" lon="5.46158">
        <ele>1413.76</ele>
        <time>2011-04-23T11:39:44Z</time>
      </trkpt>
      <trkpt lat="44.92885" lon="5.46112">
        <ele>1415.68</ele>
        <time>2011-04-23T11:39:58Z</time>
      </trkpt>
      <trkpt lat="44.92873" lon="5.46072">
        <ele>1416.64</ele>
        <time>2011-04-23T11:40:12Z</time>
      </trkpt>
      <trkpt lat="44.92869" lon="5.46072">
        <ele>1416.16</ele>
        <time>2011-04-23T11:40:14Z</time>
      </trkpt>
      <trkpt lat="44.92866" lon="5.46073">
        <ele>1416.16</ele>
        <time>2011-04-23T11:40:15Z</time>
      </trkpt>
      <trkpt lat="44.92865" lon="5.46076">
        <ele>1416.64</ele>
        <time>2011-04-23T11:40:16Z</time>
      </trkpt>
      <trkpt lat="44.92863" lon="5.46078">
        <ele>1416.64</ele>
        <time>2011-04-23T11:40:17Z</time>
      </trkpt>
      <trkpt lat="44.92862" lon="5.46082">
        <ele>1417.12</ele>
        <time>2011-04-23T11:40:18Z</time>
      </trkpt>
      <trkpt lat="44.92861" lon="5.46085">
        <ele>1416.64</ele>
        <time>2011-04-23T11:40:19Z</time>
      </trkpt>
      <trkpt lat="44.92837" lon="5.46111">
        <ele>1417.12</ele>
        <time>2011-04-23T11:40:32Z</time>
      </trkpt>
      <trkpt lat="44.92812" lon="5.46134">
        <ele>1417.6</ele>
        <time>2011-04-23T11:40:45Z</time>
      </trkpt>
      <trkpt lat="44.92805" lon="5.46181">
        <ele>1419.04</ele>
        <time>2011-04-23T11:40:59Z</time>
      </trkpt>
      <trkpt lat="44.92793" lon="5.46222">
        <ele>1420</ele>
        <time>2011-04-23T11:41:12Z</time>
      </trkpt>
      <trkpt lat="44.92754" lon="5.46245">
        <ele>1416.16</ele>
        <time>2011-04-23T12:02:07Z</time>
      </trkpt>
      <trkpt lat="44.92739" lon="5.46218">
        <ele>1414.24</ele>
        <time>2011-04-23T12:02:17Z</time>
      </trkpt>
      <trkpt lat="44.92732" lon="5.46186">
        <ele>1411.35</ele>
        <time>2011-04-23T12:02:23Z</time>
      </trkpt>
      <trkpt lat="44.92721" lon="5.46153">
        <ele>1408.47</ele>
        <time>2011-04-23T12:02:30Z</time>
      </trkpt>
      <trkpt lat="44.92718" lon="5.4615">
        <ele>1407.99</ele>
        <time>2011-04-23T12:02:31Z</time>
      </trkpt>
      <trkpt lat="44.92714" lon="5.46147">
        <ele>1407.51</ele>
        <time>2011-04-23T12:02:32Z</time>
      </trkpt>
      <trkpt lat="44.92684" lon="5.4613">
        <ele>1405.1</ele>
        <time>2011-04-23T12:02:40Z</time>
      </trkpt>
      <trkpt lat="44.92671" lon="5.46118">
        <ele>1403.66</ele>
        <time>2011-04-23T12:02:44Z</time>
      </trkpt>
      <trkpt lat="44.92669" lon="5.46113">
        <ele>1403.18</ele>
        <time>2011-04-23T12:02:45Z</time>
      </trkpt>
      <trkpt lat="44.92667" lon="5.46108">
        <ele>1402.22</ele>
        <time>2011-04-23T12:02:46Z</time>
      </trkpt>
      <trkpt lat="44.92662" lon="5.46097">
        <ele>1400.78</ele>
        <time>2011-04-23T12:02:48Z</time>
      </trkpt>
      <trkpt lat="44.92661" lon="5.46092">
        <ele>1400.78</ele>
        <time>2011-04-23T12:02:49Z</time>
      </trkpt>
      <trkpt lat="44.92656" lon="5.46078">
        <ele>1399.34</ele>
        <time>2011-04-23T12:02:52Z</time>
      </trkpt>
      <trkpt lat="44.92653" lon="5.46076">
        <ele>1398.86</ele>
        <time>2011-04-23T12:02:53Z</time>
      </trkpt>
      <trkpt lat="44.9265" lon="5.46076">
        <ele>1398.37</ele>
        <time>2011-04-23T12:02:54Z</time>
      </trkpt>
      <trkpt lat="44.92649" lon="5.46079">
        <ele>1397.89</ele>
        <time>2011-04-23T12:02:55Z</time>
      </trkpt>
      <trkpt lat="44.92648" lon="5.46083">
        <ele>1397.41</ele>
        <time>2011-04-23T12:02:56Z</time>
      </trkpt>
      <trkpt lat="44.92647" lon="5.46089">
        <ele>1396.93</ele>
        <time>2011-04-23T12:02:57Z</time>
      </trkpt>
      <trkpt lat="44.92647" lon="5.46095">
        <ele>1396.45</ele>
        <time>2011-04-23T12:02:58Z</time>
      </trkpt>
      <trkpt lat="44.92648" lon="5.46101">
        <ele>1395.49</ele>
        <time>2011-04-23T12:02:59Z</time>
      </trkpt>
      <trkpt lat="44.92649" lon="5.46107">
        <ele>1395.01</ele>
        <time>2011-04-23T12:03:00Z</time>
      </trkpt>
      <trkpt lat="44.92653" lon="5.46126">
        <ele>1393.57</ele>
        <time>2011-04-23T12:03:03Z</time>
      </trkpt>
      <trkpt lat="44.92655" lon="5.46132">
        <ele>1392.61</ele>
        <time>2011-04-23T12:03:04Z</time>
      </trkpt>
      <trkpt lat="44.92656" lon="5.46138">
        <ele>1392.61</ele>
        <time>2011-04-23T12:03:05Z</time>
      </trkpt>
      <trkpt lat="44.92656" lon="5.46144">
        <ele>1392.13</ele>
        <time>2011-04-23T12:03:06Z</time>
      </trkpt>
      <trkpt lat="44.92655" lon="5.46152">
        <ele>1391.17</ele>
        <time>2011-04-23T12:03:07Z</time>
      </trkpt>
      <trkpt lat="44.92654" lon="5.46159">
        <ele>1391.65</ele>
        <time>2011-04-23T12:03:08Z</time>
      </trkpt>
      <trkpt lat="44.92651" lon="5.46166">
        <ele>1391.17</ele>
        <time>2011-04-23T12:03:09Z</time>
      </trkpt>
      <trkpt lat="44.92647" lon="5.46171">
        <ele>1390.68</ele>
        <time>2011-04-23T12:03:10Z</time>
      </trkpt>
      <trkpt lat="44.92643" lon="5.46176">
        <ele>1390.2</ele>
        <time>2011-04-23T12:03:11Z</time>
      </trkpt>
      <trkpt lat="44.92638" lon="5.4618">
        <ele>1390.2</ele>
        <time>2011-04-23T12:03:12Z</time>
      </trkpt>
      <trkpt lat="44.92634" lon="5.46184">
        <ele>1390.2</ele>
        <time>2011-04-23T12:03:13Z</time>
      </trkpt>
      <trkpt lat="44.9261" lon="5.4621">
        <ele>1387.8</ele>
        <time>2011-04-23T12:03:20Z</time>
      </trkpt>
      <trkpt lat="44.92608" lon="5.46216">
        <ele>1387.8</ele>
        <time>2011-04-23T12:03:21Z</time>
      </trkpt>
      <trkpt lat="44.92606" lon="5.46221">
        <ele>1387.32</ele>
        <time>2011-04-23T12:03:22Z</time>
      </trkpt>
      <trkpt lat="44.92599" lon="5.46233">
        <ele>1386.36</ele>
        <time>2011-04-23T12:03:24Z</time>
      </trkpt>
      <trkpt lat="44.92595" lon="5.46237">
        <ele>1386.36</ele>
        <time>2011-04-23T12:03:25Z</time>
      </trkpt>
      <trkpt lat="44.9259" lon="5.46239">
        <ele>1385.88</ele>
        <time>2011-04-23T12:03:26Z</time>
      </trkpt>
      <trkpt lat="44.92585" lon="5.46238">
        <ele>1385.88</ele>
        <time>2011-04-23T12:03:27Z</time>
      </trkpt>
      <trkpt lat="44.92581" lon="5.46236">
        <ele>1385.88</ele>
        <time>2011-04-23T12:03:28Z</time>
      </trkpt>
      <trkpt lat="44.92577" lon="5.46234">
        <ele>1385.88</ele>
        <time>2011-04-23T12:03:29Z</time>
      </trkpt>
      <trkpt lat="44.9256" lon="5.46223">
        <ele>1385.4</ele>
        <time>2011-04-23T12:03:33Z</time>
      </trkpt>
      <trkpt lat="44.92557" lon="5.46219">
        <ele>1384.92</ele>
        <time>2011-04-23T12:03:34Z</time>
      </trkpt>
      <trkpt lat="44.92553" lon="5.46214">
        <ele>1384.92</ele>
        <time>2011-04-23T12:03:35Z</time>
      </trkpt>
      <trkpt lat="44.9255" lon="5.46208">
        <ele>1384.44</ele>
        <time>2011-04-23T12:03:36Z</time>
      </trkpt>
      <trkpt lat="44.92547" lon="5.46202">
        <ele>1384.44</ele>
        <time>2011-04-23T12:03:37Z</time>
      </trkpt>
      <trkpt lat="44.92545" lon="5.46195">
        <ele>1383.96</ele>
        <time>2011-04-23T12:03:38Z</time>
      </trkpt>
      <trkpt lat="44.92541" lon="5.46181">
        <ele>1383.47</ele>
        <time>2011-04-23T12:03:40Z</time>
      </trkpt>
      <trkpt lat="44.92538" lon="5.46174">
        <ele>1382.99</ele>
        <time>2011-04-23T12:03:41Z</time>
      </trkpt>
      <trkpt lat="44.92535" lon="5.46168">
        <ele>1382.99</ele>
        <time>2011-04-23T12:03:42Z</time>
      </trkpt>
      <trkpt lat="44.92532" lon="5.46163">
        <ele>1382.99</ele>
        <time>2011-04-23T12:03:43Z</time>
      </trkpt>
      <trkpt lat="44.92528" lon="5.46159">
        <ele>1383.47</ele>
        <time>2011-04-23T12:03:44Z</time>
      </trkpt>
      <trkpt lat="44.92525" lon="5.46155">
        <ele>1382.99</ele>
        <time>2011-04-23T12:03:45Z</time>
      </trkpt>
      <trkpt lat="44.92512" lon="5.46125">
        <ele>1382.99</ele>
        <time>2011-04-23T12:03:52Z</time>
      </trkpt>
      <trkpt lat="44.9251" lon="5.46123">
        <ele>1382.99</ele>
        <time>2011-04-23T12:03:53Z</time>
      </trkpt>
      <trkpt lat="44.92507" lon="5.4612">
        <ele>1383.47</ele>
        <time>2011-04-23T12:03:54Z</time>
      </trkpt>
      <trkpt lat="44.92503" lon="5.46118">
        <ele>1382.99</ele>
        <time>2011-04-23T12:03:55Z</time>
      </trkpt>
      <trkpt lat="44.925" lon="5.46116">
        <ele>1382.99</ele>
        <time>2011-04-23T12:03:56Z</time>
      </trkpt>
      <trkpt lat="44.92496" lon="5.46115">
        <ele>1382.51</ele>
        <time>2011-04-23T12:03:57Z</time>
      </trkpt>
      <trkpt lat="44.92457" lon="5.46096">
        <ele>1382.03</ele>
        <time>2011-04-23T12:04:09Z</time>
      </trkpt>
      <trkpt lat="44.92436" lon="5.46098">
        <ele>1380.59</ele>
        <time>2011-04-23T12:04:15Z</time>
      </trkpt>
      <trkpt lat="44.92427" lon="5.46101">
        <ele>1379.63</ele>
        <time>2011-04-23T12:04:17Z</time>
      </trkpt>
      <trkpt lat="44.92406" lon="5.46113">
        <ele>1376.26</ele>
        <time>2011-04-23T12:04:21Z</time>
      </trkpt>
      <trkpt lat="44.924" lon="5.46116">
        <ele>1375.3</ele>
        <time>2011-04-23T12:04:22Z</time>
      </trkpt>
      <trkpt lat="44.92394" lon="5.46117">
        <ele>1374.82</ele>
        <time>2011-04-23T12:04:23Z</time>
      </trkpt>
      <trkpt lat="44.92388" lon="5.46117">
        <ele>1373.86</ele>
        <time>2011-04-23T12:04:24Z</time>
      </trkpt>
      <trkpt lat="44.92383" lon="5.46115">
        <ele>1374.34</ele>
        <time>2011-04-23T12:04:25Z</time>
      </trkpt>
      <trkpt lat="44.92379" lon="5.46112">
        <ele>1373.86</ele>
        <time>2011-04-23T12:04:26Z</time>
      </trkpt>
      <trkpt lat="44.92375" lon="5.46108">
        <ele>1373.86</ele>
        <time>2011-04-23T12:04:27Z</time>
      </trkpt>
      <trkpt lat="44.9237" lon="5.46106">
        <ele>1374.34</ele>
        <time>2011-04-23T12:04:28Z</time>
      </trkpt>
      <trkpt lat="44.92366" lon="5.46105">
        <ele>1373.86</ele>
        <time>2011-04-23T12:04:29Z</time>
      </trkpt>
      <trkpt lat="44.92361" lon="5.46105">
        <ele>1373.38</ele>
        <time>2011-04-23T12:04:30Z</time>
      </trkpt>
      <trkpt lat="44.92356" lon="5.46106">
        <ele>1371.94</ele>
        <time>2011-04-23T12:04:31Z</time>
      </trkpt>
      <trkpt lat="44.9235" lon="5.46109">
        <ele>1371.94</ele>
        <time>2011-04-23T12:04:32Z</time>
      </trkpt>
      <trkpt lat="44.92344" lon="5.46111">
        <ele>1371.46</ele>
        <time>2011-04-23T12:04:33Z</time>
      </trkpt>
      <trkpt lat="44.92338" lon="5.46112">
        <ele>1371.46</ele>
        <time>2011-04-23T12:04:34Z</time>
      </trkpt>
      <trkpt lat="44.92333" lon="5.46112">
        <ele>1370.98</ele>
        <time>2011-04-23T12:04:35Z</time>
      </trkpt>
      <trkpt lat="44.92328" lon="5.46111">
        <ele>1371.94</ele>
        <time>2011-04-23T12:04:36Z</time>
      </trkpt>
      <trkpt lat="44.92325" lon="5.46109">
        <ele>1371.94</ele>
        <time>2011-04-23T12:04:37Z</time>
      </trkpt>
      <trkpt lat="44.92322" lon="5.46106">
        <ele>1372.42</ele>
        <time>2011-04-23T12:04:38Z</time>
      </trkpt>
      <trkpt lat="44.92319" lon="5.46103">
        <ele>1372.42</ele>
        <time>2011-04-23T12:04:39Z</time>
      </trkpt>
      <trkpt lat="44.92317" lon="5.46099">
        <ele>1372.42</ele>
        <time>2011-04-23T12:04:40Z</time>
      </trkpt>
      <trkpt lat="44.92315" lon="5.46096">
        <ele>1372.42</ele>
        <time>2011-04-23T12:04:41Z</time>
      </trkpt>
      <trkpt lat="44.9231" lon="5.46089">
        <ele>1371.46</ele>
        <time>2011-04-23T12:04:43Z</time>
      </trkpt>
      <trkpt lat="44.92306" lon="5.46086">
        <ele>1370.98</ele>
        <time>2011-04-23T12:04:44Z</time>
      </trkpt>
      <trkpt lat="44.92301" lon="5.46084">
        <ele>1370.5</ele>
        <time>2011-04-23T12:04:45Z</time>
      </trkpt>
      <trkpt lat="44.9228" lon="5.46078">
        <ele>1369.54</ele>
        <time>2011-04-23T12:04:49Z</time>
      </trkpt>
      <trkpt lat="44.92275" lon="5.46079">
        <ele>1369.05</ele>
        <time>2011-04-23T12:04:50Z</time>
      </trkpt>
      <trkpt lat="44.92269" lon="5.4608">
        <ele>1369.05</ele>
        <time>2011-04-23T12:04:51Z</time>
      </trkpt>
      <trkpt lat="44.92264" lon="5.46083">
        <ele>1369.05</ele>
        <time>2011-04-23T12:04:52Z</time>
      </trkpt>
      <trkpt lat="44.92259" lon="5.46086">
        <ele>1369.05</ele>
        <time>2011-04-23T12:04:53Z</time>
      </trkpt>
      <trkpt lat="44.92255" lon="5.46089">
        <ele>1370.02</ele>
        <time>2011-04-23T12:04:54Z</time>
      </trkpt>
      <trkpt lat="44.92233" lon="5.46107">
        <ele>1370.02</ele>
        <time>2011-04-23T12:05:02Z</time>
      </trkpt>
      <trkpt lat="44.92203" lon="5.46125">
        <ele>1371.94</ele>
        <time>2011-04-23T12:05:12Z</time>
      </trkpt>
      <trkpt lat="44.92189" lon="5.46134">
        <ele>1371.46</ele>
        <time>2011-04-23T12:05:17Z</time>
      </trkpt>
      <trkpt lat="44.92186" lon="5.46135">
        <ele>1371.46</ele>
        <time>2011-04-23T12:05:18Z</time>
      </trkpt>
      <trkpt lat="44.92164" lon="5.4614">
        <ele>1370.98</ele>
        <time>2011-04-23T12:05:24Z</time>
      </trkpt>
      <trkpt lat="44.9216" lon="5.46138">
        <ele>1370.02</ele>
        <time>2011-04-23T12:05:25Z</time>
      </trkpt>
      <trkpt lat="44.92156" lon="5.46135">
        <ele>1370.5</ele>
        <time>2011-04-23T12:05:26Z</time>
      </trkpt>
      <trkpt lat="44.92153" lon="5.46131">
        <ele>1369.54</ele>
        <time>2011-04-23T12:05:27Z</time>
      </trkpt>
      <trkpt lat="44.92149" lon="5.46129">
        <ele>1369.54</ele>
        <time>2011-04-23T12:05:28Z</time>
      </trkpt>
      <trkpt lat="44.92145" lon="5.46129">
        <ele>1368.57</ele>
        <time>2011-04-23T12:05:29Z</time>
      </trkpt>
      <trkpt lat="44.92141" lon="5.46131">
        <ele>1368.57</ele>
        <time>2011-04-23T12:05:30Z</time>
      </trkpt>
      <trkpt lat="44.92138" lon="5.46136">
        <ele>1367.61</ele>
        <time>2011-04-23T12:05:31Z</time>
      </trkpt>
      <trkpt lat="44.92136" lon="5.46143">
        <ele>1367.61</ele>
        <time>2011-04-23T12:05:32Z</time>
      </trkpt>
      <trkpt lat="44.92134" lon="5.46149">
        <ele>1368.09</ele>
        <time>2011-04-23T12:05:33Z</time>
      </trkpt>
      <trkpt lat="44.92133" lon="5.46156">
        <ele>1368.09</ele>
        <time>2011-04-23T12:05:34Z</time>
      </trkpt>
      <trkpt lat="44.92131" lon="5.46162">
        <ele>1367.61</ele>
        <time>2011-04-23T12:05:35Z</time>
      </trkpt>
      <trkpt lat="44.92129" lon="5.46168">
        <ele>1367.61</ele>
        <time>2011-04-23T12:05:36Z</time>
      </trkpt>
      <trkpt lat="44.92127" lon="5.46172">
        <ele>1368.57</ele>
        <time>2011-04-23T12:05:37Z</time>
      </trkpt>
      <trkpt lat="44.92124" lon="5.46177">
        <ele>1368.09</ele>
        <time>2011-04-23T12:05:38Z</time>
      </trkpt>
      <trkpt lat="44.92106" lon="5.46226">
        <ele>1367.61</ele>
        <time>2011-04-23T12:05:48Z</time>
      </trkpt>
      <trkpt lat="44.92094" lon="5.46261">
        <ele>1366.65</ele>
        <time>2011-04-23T12:05:55Z</time>
      </trkpt>
      <trkpt lat="44.92063" lon="5.46316">
        <ele>1367.13</ele>
        <time>2011-04-23T12:06:06Z</time>
      </trkpt>
      <trkpt lat="44.92053" lon="5.46326">
        <ele>1366.17</ele>
        <time>2011-04-23T12:06:09Z</time>
      </trkpt>
      <trkpt lat="44.92049" lon="5.46328">
        <ele>1366.17</ele>
        <time>2011-04-23T12:06:10Z</time>
      </trkpt>
      <trkpt lat="44.92045" lon="5.46328">
        <ele>1366.17</ele>
        <time>2011-04-23T12:06:11Z</time>
      </trkpt>
      <trkpt lat="44.92041" lon="5.46327">
        <ele>1366.17</ele>
        <time>2011-04-23T12:06:12Z</time>
      </trkpt>
      <trkpt lat="44.92037" lon="5.46325">
        <ele>1366.17</ele>
        <time>2011-04-23T12:06:13Z</time>
      </trkpt>
      <trkpt lat="44.92033" lon="5.46322">
        <ele>1366.17</ele>
        <time>2011-04-23T12:06:14Z</time>
      </trkpt>
      <trkpt lat="44.92005" lon="5.46298">
        <ele>1367.61</ele>
        <time>2011-04-23T12:06:24Z</time>
      </trkpt>
      <trkpt lat="44.91983" lon="5.46312">
        <ele>1367.61</ele>
        <time>2011-04-23T12:06:32Z</time>
      </trkpt>
      <trkpt lat="44.91952" lon="5.4633">
        <ele>1368.09</ele>
        <time>2011-04-23T12:06:45Z</time>
      </trkpt>
      <trkpt lat="44.9192" lon="5.46338">
        <ele>1369.54</ele>
        <time>2011-04-23T12:06:58Z</time>
      </trkpt>
      <trkpt lat="44.91892" lon="5.46362">
        <ele>1367.61</ele>
        <time>2011-04-23T12:07:06Z</time>
      </trkpt>
      <trkpt lat="44.91889" lon="5.46366">
        <ele>1366.65</ele>
        <time>2011-04-23T12:07:07Z</time>
      </trkpt>
      <trkpt lat="44.91885" lon="5.46369">
        <ele>1366.65</ele>
        <time>2011-04-23T12:07:08Z</time>
      </trkpt>
      <trkpt lat="44.91881" lon="5.46374">
        <ele>1366.17</ele>
        <time>2011-04-23T12:07:09Z</time>
      </trkpt>
      <trkpt lat="44.91876" lon="5.46377">
        <ele>1365.69</ele>
        <time>2011-04-23T12:07:10Z</time>
      </trkpt>
      <trkpt lat="44.9187" lon="5.46381">
        <ele>1365.69</ele>
        <time>2011-04-23T12:07:11Z</time>
      </trkpt>
      <trkpt lat="44.91844" lon="5.46396">
        <ele>1368.09</ele>
        <time>2011-04-23T12:07:20Z</time>
      </trkpt>
      <trkpt lat="44.91818" lon="5.46417">
        <ele>1368.57</ele>
        <time>2011-04-23T12:07:33Z</time>
      </trkpt>
      <trkpt lat="44.918" lon="5.4645">
        <ele>1369.54</ele>
        <time>2011-04-23T12:07:43Z</time>
      </trkpt>
      <trkpt lat="44.91789" lon="5.46477">
        <ele>1370.5</ele>
        <time>2011-04-23T12:07:53Z</time>
      </trkpt>
      <trkpt lat="44.91768" lon="5.46496">
        <ele>1371.94</ele>
        <time>2011-04-23T12:08:05Z</time>
      </trkpt>
      <trkpt lat="44.91747" lon="5.46505">
        <ele>1370.5</ele>
        <time>2011-04-23T12:08:11Z</time>
      </trkpt>
      <trkpt lat="44.91743" lon="5.46505">
        <ele>1370.5</ele>
        <time>2011-04-23T12:08:12Z</time>
      </trkpt>
      <trkpt lat="44.91738" lon="5.46503">
        <ele>1369.54</ele>
        <time>2011-04-23T12:08:13Z</time>
      </trkpt>
      <trkpt lat="44.91733" lon="5.46501">
        <ele>1368.57</ele>
        <time>2011-04-23T12:08:14Z</time>
      </trkpt>
      <trkpt lat="44.9173" lon="5.46499">
        <ele>1368.57</ele>
        <time>2011-04-23T12:08:15Z</time>
      </trkpt>
      <trkpt lat="44.91727" lon="5.46496">
        <ele>1367.61</ele>
        <time>2011-04-23T12:08:16Z</time>
      </trkpt>
      <trkpt lat="44.91725" lon="5.46492">
        <ele>1367.13</ele>
        <time>2011-04-23T12:08:17Z</time>
      </trkpt>
      <trkpt lat="44.91724" lon="5.46487">
        <ele>1366.65</ele>
        <time>2011-04-23T12:08:18Z</time>
      </trkpt>
      <trkpt lat="44.91725" lon="5.46482">
        <ele>1366.17</ele>
        <time>2011-04-23T12:08:19Z</time>
      </trkpt>
      <trkpt lat="44.91726" lon="5.46477">
        <ele>1366.17</ele>
        <time>2011-04-23T12:08:20Z</time>
      </trkpt>
      <trkpt lat="44.91728" lon="5.46474">
        <ele>1365.69</ele>
        <time>2011-04-23T12:08:21Z</time>
      </trkpt>
      <trkpt lat="44.9173" lon="5.46471">
        <ele>1365.21</ele>
        <time>2011-04-23T12:08:22Z</time>
      </trkpt>
      <trkpt lat="44.91732" lon="5.46469">
        <ele>1365.21</ele>
        <time>2011-04-23T12:08:23Z</time>
      </trkpt>
      <trkpt lat="44.91733" lon="5.46467">
        <ele>1364.73</ele>
        <time>2011-04-23T12:08:24Z</time>
      </trkpt>
      <trkpt lat="44.91733" lon="5.46464">
        <ele>1364.73</ele>
        <time>2011-04-23T12:08:25Z</time>
      </trkpt>
      <trkpt lat="44.91734" lon="5.46461">
        <ele>1364.25</ele>
        <time>2011-04-23T12:08:26Z</time>
      </trkpt>
      <trkpt lat="44.91734" lon="5.46458">
        <ele>1364.25</ele>
        <time>2011-04-23T12:08:27Z</time>
      </trkpt>
      <trkpt lat="44.91734" lon="5.46456">
        <ele>1363.77</ele>
        <time>2011-04-23T12:08:28Z</time>
      </trkpt>
      <trkpt lat="44.91733" lon="5.46454">
        <ele>1364.73</ele>
        <time>2011-04-23T12:08:29Z</time>
      </trkpt>
      <trkpt lat="44.91733" lon="5.46451">
        <ele>1364.25</ele>
        <time>2011-04-23T12:08:30Z</time>
      </trkpt>
      <trkpt lat="44.91734" lon="5.46448">
        <ele>1363.77</ele>
        <time>2011-04-23T12:08:31Z</time>
      </trkpt>
      <trkpt lat="44.91736" lon="5.46415">
        <ele>1365.21</ele>
        <time>2011-04-23T12:08:42Z</time>
      </trkpt>
      <trkpt lat="44.91736" lon="5.46413">
        <ele>1365.69</ele>
        <time>2011-04-23T12:08:43Z</time>
      </trkpt>
      <trkpt lat="44.91736" lon="5.4641">
        <ele>1365.21</ele>
        <time>2011-04-23T12:08:44Z</time>
      </trkpt>
      <trkpt lat="44.91736" lon="5.46407">
        <ele>1366.17</ele>
        <time>2011-04-23T12:08:45Z</time>
      </trkpt>
      <trkpt lat="44.91736" lon="5.46404">
        <ele>1365.69</ele>
        <time>2011-04-23T12:08:46Z</time>
      </trkpt>
      <trkpt lat="44.91718" lon="5.46377">
        <ele>1368.09</ele>
        <time>2011-04-23T12:08:58Z</time>
      </trkpt>
      <trkpt lat="44.91697" lon="5.46383">
        <ele>1368.57</ele>
        <time>2011-04-23T12:09:08Z</time>
      </trkpt>
      <trkpt lat="44.91676" lon="5.46411">
        <ele>1368.09</ele>
        <time>2011-04-23T12:09:19Z</time>
      </trkpt>
      <trkpt lat="44.91634" lon="5.46466">
        <ele>1366.17</ele>
        <time>2011-04-23T12:09:34Z</time>
      </trkpt>
      <trkpt lat="44.91585" lon="5.46493">
        <ele>1365.69</ele>
        <time>2011-04-23T12:09:47Z</time>
      </trkpt>
      <trkpt lat="44.91539" lon="5.46491">
        <ele>1365.69</ele>
        <time>2011-04-23T12:10:00Z</time>
      </trkpt>
      <trkpt lat="44.91522" lon="5.46469">
        <ele>1365.69</ele>
        <time>2011-04-23T12:10:06Z</time>
      </trkpt>
      <trkpt lat="44.91518" lon="5.46468">
        <ele>1365.69</ele>
        <time>2011-04-23T12:10:07Z</time>
      </trkpt>
      <trkpt lat="44.91514" lon="5.46469">
        <ele>1365.69</ele>
        <time>2011-04-23T12:10:08Z</time>
      </trkpt>
      <trkpt lat="44.9151" lon="5.4647">
        <ele>1365.21</ele>
        <time>2011-04-23T12:10:09Z</time>
      </trkpt>
      <trkpt lat="44.91506" lon="5.46471">
        <ele>1365.21</ele>
        <time>2011-04-23T12:10:10Z</time>
      </trkpt>
      <trkpt lat="44.91502" lon="5.46473">
        <ele>1365.21</ele>
        <time>2011-04-23T12:10:11Z</time>
      </trkpt>
      <trkpt lat="44.91499" lon="5.46476">
        <ele>1365.69</ele>
        <time>2011-04-23T12:10:12Z</time>
      </trkpt>
      <trkpt lat="44.91495" lon="5.46478">
        <ele>1365.69</ele>
        <time>2011-04-23T12:10:13Z</time>
      </trkpt>
      <trkpt lat="44.9148" lon="5.4649">
        <ele>1366.17</ele>
        <time>2011-04-23T12:10:24Z</time>
      </trkpt>
      <trkpt lat="44.9147" lon="5.46502">
        <ele>1364.73</ele>
        <time>2011-04-23T12:13:52Z</time>
      </trkpt>
      <trkpt lat="44.91466" lon="5.46518">
        <ele>1364.73</ele>
        <time>2011-04-23T12:13:58Z</time>
      </trkpt>
      <trkpt lat="44.91464" lon="5.4652">
        <ele>1364.73</ele>
        <time>2011-04-23T12:13:59Z</time>
      </trkpt>
      <trkpt lat="44.91463" lon="5.46523">
        <ele>1364.25</ele>
        <time>2011-04-23T12:14:00Z</time>
      </trkpt>
      <trkpt lat="44.91462" lon="5.46527">
        <ele>1364.73</ele>
        <time>2011-04-23T12:14:01Z</time>
      </trkpt>
      <trkpt lat="44.91461" lon="5.4653">
        <ele>1364.25</ele>
        <time>2011-04-23T12:14:02Z</time>
      </trkpt>
      <trkpt lat="44.91459" lon="5.46534">
        <ele>1364.73</ele>
        <time>2011-04-23T12:14:03Z</time>
      </trkpt>
      <trkpt lat="44.91458" lon="5.46538">
        <ele>1364.73</ele>
        <time>2011-04-23T12:14:04Z</time>
      </trkpt>
      <trkpt lat="44.91457" lon="5.46541">
        <ele>1364.73</ele>
        <time>2011-04-23T12:14:05Z</time>
      </trkpt>
      <trkpt lat="44.91457" lon="5.46545">
        <ele>1364.73</ele>
        <time>2011-04-23T12:14:06Z</time>
      </trkpt>
      <trkpt lat="44.91455" lon="5.46548">
        <ele>1364.73</ele>
        <time>2011-04-23T12:14:07Z</time>
      </trkpt>
      <trkpt lat="44.91436" lon="5.46586">
        <ele>1365.69</ele>
        <time>2011-04-23T12:14:19Z</time>
      </trkpt>
      <trkpt lat="44.91401" lon="5.46602">
        <ele>1366.65</ele>
        <time>2011-04-23T12:14:33Z</time>
      </trkpt>
      <trkpt lat="44.91355" lon="5.4658">
        <ele>1367.61</ele>
        <time>2011-04-23T12:14:51Z</time>
      </trkpt>
      <trkpt lat="44.91318" lon="5.46594">
        <ele>1368.57</ele>
        <time>2011-04-23T12:15:05Z</time>
      </trkpt>
      <trkpt lat="44.91281" lon="5.46575">
        <ele>1370.02</ele>
        <time>2011-04-23T12:15:20Z</time>
      </trkpt>
      <trkpt lat="44.91247" lon="5.46555">
        <ele>1370.5</ele>
        <time>2011-04-23T12:15:34Z</time>
      </trkpt>
      <trkpt lat="44.91216" lon="5.46571">
        <ele>1370.98</ele>
        <time>2011-04-23T12:15:46Z</time>
      </trkpt>
      <trkpt lat="44.91206" lon="5.4661">
        <ele>1372.42</ele>
        <time>2011-04-23T12:15:58Z</time>
      </trkpt>
      <trkpt lat="44.91178" lon="5.4664">
        <ele>1373.38</ele>
        <time>2011-04-23T12:16:11Z</time>
      </trkpt>
      <trkpt lat="44.91146" lon="5.46645">
        <ele>1374.82</ele>
        <time>2011-04-23T12:16:23Z</time>
      </trkpt>
      <trkpt lat="44.91113" lon="5.46636">
        <ele>1375.78</ele>
        <time>2011-04-23T12:16:36Z</time>
      </trkpt>
      <trkpt lat="44.91082" lon="5.46613">
        <ele>1376.75</ele>
        <time>2011-04-23T12:16:49Z</time>
      </trkpt>
      <trkpt lat="44.91059" lon="5.46582">
        <ele>1378.19</ele>
        <time>2011-04-23T12:17:02Z</time>
      </trkpt>
      <trkpt lat="44.91059" lon="5.46571">
        <ele>1378.19</ele>
        <time>2011-04-23T12:17:05Z</time>
      </trkpt>
      <trkpt lat="44.91057" lon="5.46567">
        <ele>1378.19</ele>
        <time>2011-04-23T12:17:06Z</time>
      </trkpt>
      <trkpt lat="44.91056" lon="5.46564">
        <ele>1378.19</ele>
        <time>2011-04-23T12:17:07Z</time>
      </trkpt>
      <trkpt lat="44.91054" lon="5.46562">
        <ele>1378.67</ele>
        <time>2011-04-23T12:17:08Z</time>
      </trkpt>
      <trkpt lat="44.91051" lon="5.46561">
        <ele>1378.67</ele>
        <time>2011-04-23T12:17:09Z</time>
      </trkpt>
      <trkpt lat="44.91048" lon="5.4656">
        <ele>1378.67</ele>
        <time>2011-04-23T12:17:10Z</time>
      </trkpt>
      <trkpt lat="44.91046" lon="5.4656">
        <ele>1379.15</ele>
        <time>2011-04-23T12:17:11Z</time>
      </trkpt>
      <trkpt lat="44.91043" lon="5.46561">
        <ele>1379.15</ele>
        <time>2011-04-23T12:17:12Z</time>
      </trkpt>
      <trkpt lat="44.91015" lon="5.46569">
        <ele>1380.11</ele>
        <time>2011-04-23T12:17:23Z</time>
      </trkpt>
      <trkpt lat="44.90985" lon="5.46587">
        <ele>1381.07</ele>
        <time>2011-04-23T12:17:35Z</time>
      </trkpt>
      <trkpt lat="44.90957" lon="5.46596">
        <ele>1382.51</ele>
        <time>2011-04-23T12:17:46Z</time>
      </trkpt>
      <trkpt lat="44.90911" lon="5.46595">
        <ele>1384.44</ele>
        <time>2011-04-23T12:18:02Z</time>
      </trkpt>
      <trkpt lat="44.90882" lon="5.4661">
        <ele>1386.36</ele>
        <time>2011-04-23T12:18:15Z</time>
      </trkpt>
      <trkpt lat="44.90857" lon="5.46616">
        <ele>1387.8</ele>
        <time>2011-04-23T12:18:28Z</time>
      </trkpt>
      <trkpt lat="44.90826" lon="5.4664">
        <ele>1390.2</ele>
        <time>2011-04-23T12:18:44Z</time>
      </trkpt>
      <trkpt lat="44.908" lon="5.46655">
        <ele>1391.65</ele>
        <time>2011-04-23T12:18:58Z</time>
      </trkpt>
      <trkpt lat="44.90771" lon="5.46665">
        <ele>1392.61</ele>
        <time>2011-04-23T12:19:12Z</time>
      </trkpt>
      <trkpt lat="44.90758" lon="5.46663">
        <ele>1394.05</ele>
        <time>2011-04-23T12:19:19Z</time>
      </trkpt>
      <trkpt lat="44.9073" lon="5.46652">
        <ele>1395.01</ele>
        <time>2011-04-23T12:19:33Z</time>
      </trkpt>
      <trkpt lat="44.90703" lon="5.46617">
        <ele>1396.93</ele>
        <time>2011-04-23T12:19:49Z</time>
      </trkpt>
      <trkpt lat="44.9068" lon="5.466">
        <ele>1398.86</ele>
        <time>2011-04-23T12:20:02Z</time>
      </trkpt>
      <trkpt lat="44.9067" lon="5.46604">
        <ele>1399.34</ele>
        <time>2011-04-23T12:20:07Z</time>
      </trkpt>
      <trkpt lat="44.90668" lon="5.46605">
        <ele>1399.34</ele>
        <time>2011-04-23T12:20:08Z</time>
      </trkpt>
      <trkpt lat="44.90667" lon="5.46607">
        <ele>1399.34</ele>
        <time>2011-04-23T12:20:09Z</time>
      </trkpt>
      <trkpt lat="44.90643" lon="5.46623">
        <ele>1400.78</ele>
        <time>2011-04-23T12:20:22Z</time>
      </trkpt>
      <trkpt lat="44.90638" lon="5.46625">
        <ele>1401.26</ele>
        <time>2011-04-23T12:20:25Z</time>
      </trkpt>
      <trkpt lat="44.90636" lon="5.46625">
        <ele>1401.74</ele>
        <time>2011-04-23T12:20:26Z</time>
      </trkpt>
      <trkpt lat="44.90612" lon="5.46604">
        <ele>1403.18</ele>
        <time>2011-04-23T12:20:39Z</time>
      </trkpt>
      <trkpt lat="44.9059" lon="5.46566">
        <ele>1405.1</ele>
        <time>2011-04-23T12:20:55Z</time>
      </trkpt>
      <trkpt lat="44.90558" lon="5.4656">
        <ele>1406.55</ele>
        <time>2011-04-23T12:21:11Z</time>
      </trkpt>
      <trkpt lat="44.90528" lon="5.4657">
        <ele>1407.99</ele>
        <time>2011-04-23T12:21:25Z</time>
      </trkpt>
      <trkpt lat="44.90519" lon="5.46569">
        <ele>1408.47</ele>
        <time>2011-04-23T12:21:30Z</time>
      </trkpt>
      <trkpt lat="44.90518" lon="5.46569">
        <ele>1408.95</ele>
        <time>2011-04-23T12:21:31Z</time>
      </trkpt>
      <trkpt lat="44.90516" lon="5.46568">
        <ele>1409.43</ele>
        <time>2011-04-23T12:21:32Z</time>
      </trkpt>
      <trkpt lat="44.90515" lon="5.46568">
        <ele>1408.95</ele>
        <time>2011-04-23T12:21:33Z</time>
      </trkpt>
      <trkpt lat="44.90514" lon="5.46568">
        <ele>1409.43</ele>
        <time>2011-04-23T12:21:34Z</time>
      </trkpt>
      <trkpt lat="44.90512" lon="5.46568">
        <ele>1408.95</ele>
        <time>2011-04-23T12:21:35Z</time>
      </trkpt>
      <trkpt lat="44.90484" lon="5.46554">
        <ele>1411.35</ele>
        <time>2011-04-23T12:21:50Z</time>
      </trkpt>
      <trkpt lat="44.90455" lon="5.46559">
        <ele>1413.76</ele>
        <time>2011-04-23T12:22:05Z</time>
      </trkpt>
      <trkpt lat="44.90452" lon="5.46563">
        <ele>1413.76</ele>
        <time>2011-04-23T12:22:07Z</time>
      </trkpt>
      <trkpt lat="44.90451" lon="5.46564">
        <ele>1414.24</ele>
        <time>2011-04-23T12:22:08Z</time>
      </trkpt>
      <trkpt lat="44.90449" lon="5.46565">
        <ele>1414.24</ele>
        <time>2011-04-23T12:22:09Z</time>
      </trkpt>
      <trkpt lat="44.90447" lon="5.46567">
        <ele>1414.72</ele>
        <time>2011-04-23T12:22:10Z</time>
      </trkpt>
      <trkpt lat="44.90446" lon="5.46568">
        <ele>1414.72</ele>
        <time>2011-04-23T12:22:11Z</time>
      </trkpt>
      <trkpt lat="44.90444" lon="5.46569">
        <ele>1414.72</ele>
        <time>2011-04-23T12:22:12Z</time>
      </trkpt>
      <trkpt lat="44.90442" lon="5.4657">
        <ele>1414.24</ele>
        <time>2011-04-23T12:22:13Z</time>
      </trkpt>
      <trkpt lat="44.90422" lon="5.46574">
        <ele>1416.16</ele>
        <time>2011-04-23T12:22:23Z</time>
      </trkpt>
      <trkpt lat="44.90394" lon="5.46566">
        <ele>1417.6</ele>
        <time>2011-04-23T12:22:37Z</time>
      </trkpt>
      <trkpt lat="44.90371" lon="5.46546">
        <ele>1420</ele>
        <time>2011-04-23T12:22:50Z</time>
      </trkpt>
      <trkpt lat="44.90339" lon="5.46544">
        <ele>1421.45</ele>
        <time>2011-04-23T12:23:05Z</time>
      </trkpt>
      <trkpt lat="44.9031" lon="5.46554">
        <ele>1423.85</ele>
        <time>2011-04-23T12:23:20Z</time>
      </trkpt>
      <trkpt lat="44.90308" lon="5.46554">
        <ele>1423.37</ele>
        <time>2011-04-23T12:23:38Z</time>
      </trkpt>
      <trkpt lat="44.90297" lon="5.46556">
        <ele>1424.33</ele>
        <time>2011-04-23T12:23:57Z</time>
      </trkpt>
      <trkpt lat="44.90279" lon="5.46554">
        <ele>1425.77</ele>
        <time>2011-04-23T12:24:08Z</time>
      </trkpt>
      <trkpt lat="44.90249" lon="5.46544">
        <ele>1427.7</ele>
        <time>2011-04-23T12:24:23Z</time>
      </trkpt>
      <trkpt lat="44.90226" lon="5.46538">
        <ele>1430.1</ele>
        <time>2011-04-23T12:24:36Z</time>
      </trkpt>
      <trkpt lat="44.90199" lon="5.46542">
        <ele>1431.06</ele>
        <time>2011-04-23T12:24:52Z</time>
      </trkpt>
      <trkpt lat="44.90198" lon="5.46541">
        <ele>1431.06</ele>
        <time>2011-04-23T12:24:53Z</time>
      </trkpt>
      <trkpt lat="44.90197" lon="5.46541">
        <ele>1431.06</ele>
        <time>2011-04-23T12:24:54Z</time>
      </trkpt>
      <trkpt lat="44.90195" lon="5.46541">
        <ele>1432.02</ele>
        <time>2011-04-23T12:24:55Z</time>
      </trkpt>
      <trkpt lat="44.90193" lon="5.4654">
        <ele>1432.02</ele>
        <time>2011-04-23T12:24:56Z</time>
      </trkpt>
      <trkpt lat="44.90192" lon="5.46541">
        <ele>1432.02</ele>
        <time>2011-04-23T12:24:57Z</time>
      </trkpt>
      <trkpt lat="44.90186" lon="5.46539">
        <ele>1432.5</ele>
        <time>2011-04-23T12:25:00Z</time>
      </trkpt>
      <trkpt lat="44.90184" lon="5.4654">
        <ele>1432.5</ele>
        <time>2011-04-23T12:25:01Z</time>
      </trkpt>
      <trkpt lat="44.90183" lon="5.4654">
        <ele>1432.98</ele>
        <time>2011-04-23T12:25:02Z</time>
      </trkpt>
      <trkpt lat="44.90182" lon="5.46542">
        <ele>1433.46</ele>
        <time>2011-04-23T12:25:03Z</time>
      </trkpt>
      <trkpt lat="44.90181" lon="5.46543">
        <ele>1432.98</ele>
        <time>2011-04-23T12:25:04Z</time>
      </trkpt>
      <trkpt lat="44.9018" lon="5.46543">
        <ele>1433.46</ele>
        <time>2011-04-23T12:25:05Z</time>
      </trkpt>
      <trkpt lat="44.90172" lon="5.46551">
        <ele>1434.42</ele>
        <time>2011-04-23T12:25:11Z</time>
      </trkpt>
      <trkpt lat="44.9017" lon="5.46552">
        <ele>1434.42</ele>
        <time>2011-04-23T12:25:12Z</time>
      </trkpt>
      <trkpt lat="44.90153" lon="5.46566">
        <ele>1435.87</ele>
        <time>2011-04-23T12:25:24Z</time>
      </trkpt>
      <trkpt lat="44.90128" lon="5.46565">
        <ele>1437.79</ele>
        <time>2011-04-23T12:25:38Z</time>
      </trkpt>
      <trkpt lat="44.901" lon="5.46562">
        <ele>1441.15</ele>
        <time>2011-04-23T12:25:54Z</time>
      </trkpt>
      <trkpt lat="44.90083" lon="5.46569">
        <ele>1443.08</ele>
        <time>2011-04-23T12:26:04Z</time>
      </trkpt>
      <trkpt lat="44.90083" lon="5.46571">
        <ele>1443.08</ele>
        <time>2011-04-23T12:26:05Z</time>
      </trkpt>
      <trkpt lat="44.90077" lon="5.46608">
        <ele>1445.48</ele>
        <time>2011-04-23T12:26:21Z</time>
      </trkpt>
      <trkpt lat="44.90062" lon="5.46637">
        <ele>1448.84</ele>
        <time>2011-04-23T12:26:36Z</time>
      </trkpt>
      <trkpt lat="44.90052" lon="5.46676">
        <ele>1452.21</ele>
        <time>2011-04-23T12:26:53Z</time>
      </trkpt>
      <trkpt lat="44.90049" lon="5.4669">
        <ele>1453.17</ele>
        <time>2011-04-23T12:26:59Z</time>
      </trkpt>
      <trkpt lat="44.9004" lon="5.46723">
        <ele>1456.05</ele>
        <time>2011-04-23T12:27:14Z</time>
      </trkpt>
      <trkpt lat="44.90035" lon="5.46747">
        <ele>1457.98</ele>
        <time>2011-04-23T12:27:28Z</time>
      </trkpt>
      <trkpt lat="44.90035" lon="5.46753">
        <ele>1457.98</ele>
        <time>2011-04-23T12:27:33Z</time>
      </trkpt>
      <trkpt lat="44.90033" lon="5.46758">
        <ele>1457.98</ele>
        <time>2011-04-23T12:27:38Z</time>
      </trkpt>
      <trkpt lat="44.90033" lon="5.46759">
        <ele>1457.98</ele>
        <time>2011-04-23T12:27:39Z</time>
      </trkpt>
      <trkpt lat="44.90033" lon="5.46761">
        <ele>1457.98</ele>
        <time>2011-04-23T12:27:40Z</time>
      </trkpt>
      <trkpt lat="44.90033" lon="5.46762">
        <ele>1457.98</ele>
        <time>2011-04-23T12:27:41Z</time>
      </trkpt>
      <trkpt lat="44.90033" lon="5.46764">
        <ele>1457.5</ele>
        <time>2011-04-23T12:27:42Z</time>
      </trkpt>
      <trkpt lat="44.90034" lon="5.46765">
        <ele>1457.5</ele>
        <time>2011-04-23T12:27:43Z</time>
      </trkpt>
      <trkpt lat="44.90035" lon="5.46766">
        <ele>1457.5</ele>
        <time>2011-04-23T12:27:44Z</time>
      </trkpt>
      <trkpt lat="44.90047" lon="5.4677">
        <ele>1457.5</ele>
        <time>2011-04-23T12:27:53Z</time>
      </trkpt>
      <trkpt lat="44.90048" lon="5.4677">
        <ele>1457.5</ele>
        <time>2011-04-23T12:27:54Z</time>
      </trkpt>
      <trkpt lat="44.90048" lon="5.46768">
        <ele>1457.98</ele>
        <time>2011-04-23T12:27:55Z</time>
      </trkpt>
      <trkpt lat="44.90048" lon="5.46767">
        <ele>1457.98</ele>
        <time>2011-04-23T12:27:56Z</time>
      </trkpt>
      <trkpt lat="44.90047" lon="5.46765">
        <ele>1457.98</ele>
        <time>2011-04-23T12:27:57Z</time>
      </trkpt>
      <trkpt lat="44.90047" lon="5.46764">
        <ele>1457.98</ele>
        <time>2011-04-23T12:27:58Z</time>
      </trkpt>
      <trkpt lat="44.90046" lon="5.46762">
        <ele>1457.98</ele>
        <time>2011-04-23T12:27:59Z</time>
      </trkpt>
      <trkpt lat="44.90041" lon="5.46754">
        <ele>1457.98</ele>
        <time>2011-04-23T12:28:05Z</time>
      </trkpt>
      <trkpt lat="44.90039" lon="5.46753">
        <ele>1457.98</ele>
        <time>2011-04-23T12:28:06Z</time>
      </trkpt>
      <trkpt lat="44.90038" lon="5.46754">
        <ele>1457.98</ele>
        <time>2011-04-23T12:28:07Z</time>
      </trkpt>
      <trkpt lat="44.90036" lon="5.46755">
        <ele>1457.98</ele>
        <time>2011-04-23T12:28:08Z</time>
      </trkpt>
      <trkpt lat="44.90035" lon="5.46756">
        <ele>1457.98</ele>
        <time>2011-04-23T12:28:09Z</time>
      </trkpt>
      <trkpt lat="44.90031" lon="5.4676">
        <ele>1458.46</ele>
        <time>2011-04-23T12:28:21Z</time>
      </trkpt>
      <trkpt lat="44.90032" lon="5.4676">
        <ele>1457.98</ele>
        <time>2011-04-23T12:28:48Z</time>
      </trkpt>
      <trkpt lat="44.9003" lon="5.46764">
        <ele>1457.98</ele>
        <time>2011-04-23T12:29:07Z</time>
      </trkpt>
      <trkpt lat="44.90029" lon="5.46766">
        <ele>1458.46</ele>
        <time>2011-04-23T12:29:08Z</time>
      </trkpt>
      <trkpt lat="44.90028" lon="5.46767">
        <ele>1458.94</ele>
        <time>2011-04-23T12:29:09Z</time>
      </trkpt>
      <trkpt lat="44.90027" lon="5.46769">
        <ele>1458.94</ele>
        <time>2011-04-23T12:29:10Z</time>
      </trkpt>
      <trkpt lat="44.90027" lon="5.46771">
        <ele>1458.94</ele>
        <time>2011-04-23T12:29:11Z</time>
      </trkpt>
      <trkpt lat="44.90026" lon="5.46773">
        <ele>1458.94</ele>
        <time>2011-04-23T12:29:12Z</time>
      </trkpt>
      <trkpt lat="44.90025" lon="5.46775">
        <ele>1458.94</ele>
        <time>2011-04-23T12:29:13Z</time>
      </trkpt>
      <trkpt lat="44.90013" lon="5.46813">
        <ele>1459.42</ele>
        <time>2011-04-23T12:29:29Z</time>
      </trkpt>
      <trkpt lat="44.89999" lon="5.46856">
        <ele>1460.86</ele>
        <time>2011-04-23T12:29:46Z</time>
      </trkpt>
      <trkpt lat="44.89988" lon="5.46881">
        <ele>1461.34</ele>
        <time>2011-04-23T12:30:01Z</time>
      </trkpt>
      <trkpt lat="44.89981" lon="5.46899">
        <ele>1461.82</ele>
        <time>2011-04-23T12:30:18Z</time>
      </trkpt>
      <trkpt lat="44.89982" lon="5.46939">
        <ele>1462.78</ele>
        <time>2011-04-23T12:30:33Z</time>
      </trkpt>
      <trkpt lat="44.90004" lon="5.4697">
        <ele>1463.74</ele>
        <time>2011-04-23T12:30:48Z</time>
      </trkpt>
      <trkpt lat="44.90006" lon="5.47012">
        <ele>1464.71</ele>
        <time>2011-04-23T12:31:03Z</time>
      </trkpt>
      <trkpt lat="44.90003" lon="5.47042">
        <ele>1465.19</ele>
        <time>2011-04-23T12:31:14Z</time>
      </trkpt>
      <trkpt lat="44.89988" lon="5.47066">
        <ele>1466.63</ele>
        <time>2011-04-23T12:31:26Z</time>
      </trkpt>
      <trkpt lat="44.89967" lon="5.4709">
        <ele>1467.59</ele>
        <time>2011-04-23T12:31:38Z</time>
      </trkpt>
      <trkpt lat="44.89958" lon="5.47099">
        <ele>1468.55</ele>
        <time>2011-04-23T12:31:43Z</time>
      </trkpt>
      <trkpt lat="44.8994" lon="5.47121">
        <ele>1469.03</ele>
        <time>2011-04-23T12:31:55Z</time>
      </trkpt>
      <trkpt lat="44.89917" lon="5.47157">
        <ele>1469.99</ele>
        <time>2011-04-23T12:32:10Z</time>
      </trkpt>
      <trkpt lat="44.89894" lon="5.47183">
        <ele>1470.95</ele>
        <time>2011-04-23T12:32:23Z</time>
      </trkpt>
      <trkpt lat="44.89887" lon="5.47227">
        <ele>1471.44</ele>
        <time>2011-04-23T12:32:37Z</time>
      </trkpt>
      <trkpt lat="44.89886" lon="5.47229">
        <ele>1470.95</ele>
        <time>2011-04-23T12:32:38Z</time>
      </trkpt>
      <trkpt lat="44.89885" lon="5.47232">
        <ele>1470.95</ele>
        <time>2011-04-23T12:32:39Z</time>
      </trkpt>
      <trkpt lat="44.89884" lon="5.47235">
        <ele>1471.44</ele>
        <time>2011-04-23T12:32:40Z</time>
      </trkpt>
      <trkpt lat="44.89872" lon="5.47277">
        <ele>1472.4</ele>
        <time>2011-04-23T12:32:54Z</time>
      </trkpt>
      <trkpt lat="44.89877" lon="5.47331">
        <ele>1472.88</ele>
        <time>2011-04-23T12:33:10Z</time>
      </trkpt>
      <trkpt lat="44.89862" lon="5.4736">
        <ele>1473.36</ele>
        <time>2011-04-23T12:33:23Z</time>
      </trkpt>
      <trkpt lat="44.89847" lon="5.47334">
        <ele>1472.88</ele>
        <time>2011-04-23T12:33:33Z</time>
      </trkpt>
      <trkpt lat="44.89823" lon="5.47311">
        <ele>1473.36</ele>
        <time>2011-04-23T12:33:46Z</time>
      </trkpt>
      <trkpt lat="44.89798" lon="5.47288">
        <ele>1473.36</ele>
        <time>2011-04-23T12:33:59Z</time>
      </trkpt>
      <trkpt lat="44.89774" lon="5.47262">
        <ele>1473.36</ele>
        <time>2011-04-23T12:34:12Z</time>
      </trkpt>
      <trkpt lat="44.89747" lon="5.47281">
        <ele>1473.84</ele>
        <time>2011-04-23T12:34:25Z</time>
      </trkpt>
      <trkpt lat="44.89739" lon="5.47312">
        <ele>1474.8</ele>
        <time>2011-04-23T12:34:36Z</time>
      </trkpt>
      <trkpt lat="44.89743" lon="5.47357">
        <ele>1475.28</ele>
        <time>2011-04-23T12:34:49Z</time>
      </trkpt>
      <trkpt lat="44.89742" lon="5.47402">
        <ele>1476.24</ele>
        <time>2011-04-23T12:35:03Z</time>
      </trkpt>
      <trkpt lat="44.89724" lon="5.47441">
        <ele>1478.16</ele>
        <time>2011-04-23T12:35:18Z</time>
      </trkpt>
      <trkpt lat="44.89701" lon="5.4747">
        <ele>1480.09</ele>
        <time>2011-04-23T12:35:31Z</time>
      </trkpt>
      <trkpt lat="44.89689" lon="5.47495">
        <ele>1481.53</ele>
        <time>2011-04-23T12:35:40Z</time>
      </trkpt>
      <trkpt lat="44.89688" lon="5.47498">
        <ele>1482.01</ele>
        <time>2011-04-23T12:35:41Z</time>
      </trkpt>
      <trkpt lat="44.89673" lon="5.47538">
        <ele>1483.45</ele>
        <time>2011-04-23T12:35:55Z</time>
      </trkpt>
      <trkpt lat="44.89645" lon="5.47532">
        <ele>1485.85</ele>
        <time>2011-04-23T12:36:08Z</time>
      </trkpt>
      <trkpt lat="44.89636" lon="5.475">
        <ele>1486.34</ele>
        <time>2011-04-23T12:36:19Z</time>
      </trkpt>
      <trkpt lat="44.89619" lon="5.47464">
        <ele>1488.26</ele>
        <time>2011-04-23T12:36:33Z</time>
      </trkpt>
      <trkpt lat="44.89588" lon="5.47427">
        <ele>1490.66</ele>
        <time>2011-04-23T12:36:53Z</time>
      </trkpt>
      <trkpt lat="44.89587" lon="5.47426">
        <ele>1492.1</ele>
        <time>2011-04-23T12:37:37Z</time>
      </trkpt>
      <trkpt lat="44.89586" lon="5.47425">
        <ele>1491.14</ele>
        <time>2011-04-23T12:37:51Z</time>
      </trkpt>
      <trkpt lat="44.89586" lon="5.47424">
        <ele>1491.14</ele>
        <time>2011-04-23T12:37:52Z</time>
      </trkpt>
      <trkpt lat="44.89561" lon="5.47408">
        <ele>1492.58</ele>
        <time>2011-04-23T12:38:06Z</time>
      </trkpt>
      <trkpt lat="44.89533" lon="5.47415">
        <ele>1494.99</ele>
        <time>2011-04-23T12:38:20Z</time>
      </trkpt>
      <trkpt lat="44.89507" lon="5.47435">
        <ele>1496.91</ele>
        <time>2011-04-23T12:38:35Z</time>
      </trkpt>
      <trkpt lat="44.89494" lon="5.47467">
        <ele>1500.27</ele>
        <time>2011-04-23T12:38:49Z</time>
      </trkpt>
      <trkpt lat="44.89479" lon="5.47498">
        <ele>1502.68</ele>
        <time>2011-04-23T12:39:03Z</time>
      </trkpt>
      <trkpt lat="44.89461" lon="5.47523">
        <ele>1504.6</ele>
        <time>2011-04-23T12:39:16Z</time>
      </trkpt>
      <trkpt lat="44.89454" lon="5.47521">
        <ele>1505.08</ele>
        <time>2011-04-23T12:39:20Z</time>
      </trkpt>
      <trkpt lat="44.89452" lon="5.4752">
        <ele>1506.04</ele>
        <time>2011-04-23T12:39:21Z</time>
      </trkpt>
      <trkpt lat="44.89451" lon="5.47518">
        <ele>1505.56</ele>
        <time>2011-04-23T12:39:22Z</time>
      </trkpt>
      <trkpt lat="44.89449" lon="5.47517">
        <ele>1505.56</ele>
        <time>2011-04-23T12:39:23Z</time>
      </trkpt>
      <trkpt lat="44.89447" lon="5.47516">
        <ele>1505.56</ele>
        <time>2011-04-23T12:39:24Z</time>
      </trkpt>
      <trkpt lat="44.89445" lon="5.47515">
        <ele>1506.04</ele>
        <time>2011-04-23T12:39:25Z</time>
      </trkpt>
      <trkpt lat="44.89444" lon="5.47514">
        <ele>1505.56</ele>
        <time>2011-04-23T12:39:26Z</time>
      </trkpt>
      <trkpt lat="44.89414" lon="5.47517">
        <ele>1507.48</ele>
        <time>2011-04-23T12:39:41Z</time>
      </trkpt>
      <trkpt lat="44.89392" lon="5.4749">
        <ele>1507.97</ele>
        <time>2011-04-23T12:39:56Z</time>
      </trkpt>
      <trkpt lat="44.89383" lon="5.47447">
        <ele>1509.89</ele>
        <time>2011-04-23T12:40:11Z</time>
      </trkpt>
      <trkpt lat="44.89378" lon="5.47405">
        <ele>1510.37</ele>
        <time>2011-04-23T12:40:25Z</time>
      </trkpt>
      <trkpt lat="44.89374" lon="5.47365">
        <ele>1510.37</ele>
        <time>2011-04-23T12:40:38Z</time>
      </trkpt>
      <trkpt lat="44.89364" lon="5.47321">
        <ele>1509.41</ele>
        <time>2011-04-23T12:40:51Z</time>
      </trkpt>
      <trkpt lat="44.89364" lon="5.47274">
        <ele>1506.52</ele>
        <time>2011-04-23T12:41:02Z</time>
      </trkpt>
      <trkpt lat="44.89364" lon="5.47212">
        <ele>1504.12</ele>
        <time>2011-04-23T12:41:18Z</time>
      </trkpt>
      <trkpt lat="44.89372" lon="5.47149">
        <ele>1502.2</ele>
        <time>2011-04-23T12:41:31Z</time>
      </trkpt>
      <trkpt lat="44.89381" lon="5.47051">
        <ele>1500.27</ele>
        <time>2011-04-23T12:41:48Z</time>
      </trkpt>
      <trkpt lat="44.89381" lon="5.47045">
        <ele>1499.79</ele>
        <time>2011-04-23T12:41:49Z</time>
      </trkpt>
      <trkpt lat="44.89381" lon="5.47039">
        <ele>1499.79</ele>
        <time>2011-04-23T12:41:50Z</time>
      </trkpt>
      <trkpt lat="44.8938" lon="5.47033">
        <ele>1499.31</ele>
        <time>2011-04-23T12:41:51Z</time>
      </trkpt>
      <trkpt lat="44.89378" lon="5.47029">
        <ele>1499.31</ele>
        <time>2011-04-23T12:41:52Z</time>
      </trkpt>
      <trkpt lat="44.89376" lon="5.47024">
        <ele>1499.31</ele>
        <time>2011-04-23T12:41:53Z</time>
      </trkpt>
      <trkpt lat="44.89373" lon="5.47019">
        <ele>1499.31</ele>
        <time>2011-04-23T12:41:54Z</time>
      </trkpt>
      <trkpt lat="44.89363" lon="5.46994">
        <ele>1498.83</ele>
        <time>2011-04-23T12:41:59Z</time>
      </trkpt>
      <trkpt lat="44.89361" lon="5.46988">
        <ele>1498.83</ele>
        <time>2011-04-23T12:42:00Z</time>
      </trkpt>
      <trkpt lat="44.8936" lon="5.46982">
        <ele>1498.35</ele>
        <time>2011-04-23T12:42:01Z</time>
      </trkpt>
      <trkpt lat="44.89359" lon="5.46969">
        <ele>1497.87</ele>
        <time>2011-04-23T12:42:03Z</time>
      </trkpt>
      <trkpt lat="44.89357" lon="5.46964">
        <ele>1497.87</ele>
        <time>2011-04-23T12:42:04Z</time>
      </trkpt>
      <trkpt lat="44.89355" lon="5.46958">
        <ele>1497.87</ele>
        <time>2011-04-23T12:42:05Z</time>
      </trkpt>
      <trkpt lat="44.89351" lon="5.46946">
        <ele>1497.87</ele>
        <time>2011-04-23T12:42:07Z</time>
      </trkpt>
      <trkpt lat="44.89348" lon="5.46941">
        <ele>1497.39</ele>
        <time>2011-04-23T12:42:08Z</time>
      </trkpt>
      <trkpt lat="44.89345" lon="5.46936">
        <ele>1497.39</ele>
        <time>2011-04-23T12:42:09Z</time>
      </trkpt>
      <trkpt lat="44.89341" lon="5.46932">
        <ele>1497.39</ele>
        <time>2011-04-23T12:42:10Z</time>
      </trkpt>
      <trkpt lat="44.89337" lon="5.46929">
        <ele>1496.91</ele>
        <time>2011-04-23T12:42:11Z</time>
      </trkpt>
      <trkpt lat="44.89333" lon="5.46929">
        <ele>1496.91</ele>
        <time>2011-04-23T12:42:12Z</time>
      </trkpt>
      <trkpt lat="44.89329" lon="5.46931">
        <ele>1496.91</ele>
        <time>2011-04-23T12:42:13Z</time>
      </trkpt>
      <trkpt lat="44.89326" lon="5.46933">
        <ele>1497.39</ele>
        <time>2011-04-23T12:42:14Z</time>
      </trkpt>
      <trkpt lat="44.89323" lon="5.46935">
        <ele>1497.39</ele>
        <time>2011-04-23T12:42:15Z</time>
      </trkpt>
      <trkpt lat="44.89321" lon="5.46937">
        <ele>1497.87</ele>
        <time>2011-04-23T12:42:16Z</time>
      </trkpt>
      <trkpt lat="44.89319" lon="5.46939">
        <ele>1497.87</ele>
        <time>2011-04-23T12:42:17Z</time>
      </trkpt>
      <trkpt lat="44.89305" lon="5.46971">
        <ele>1497.39</ele>
        <time>2011-04-23T12:42:28Z</time>
      </trkpt>
      <trkpt lat="44.89301" lon="5.46983">
        <ele>1497.39</ele>
        <time>2011-04-23T12:42:32Z</time>
      </trkpt>
      <trkpt lat="44.89299" lon="5.46985">
        <ele>1497.39</ele>
        <time>2011-04-23T12:42:33Z</time>
      </trkpt>
      <trkpt lat="44.89297" lon="5.46987">
        <ele>1497.39</ele>
        <time>2011-04-23T12:42:34Z</time>
      </trkpt>
      <trkpt lat="44.89295" lon="5.46989">
        <ele>1497.39</ele>
        <time>2011-04-23T12:42:35Z</time>
      </trkpt>
      <trkpt lat="44.89293" lon="5.46992">
        <ele>1497.39</ele>
        <time>2011-04-23T12:42:36Z</time>
      </trkpt>
      <trkpt lat="44.89257" lon="5.47008">
        <ele>1496.91</ele>
        <time>2011-04-23T12:42:49Z</time>
      </trkpt>
      <trkpt lat="44.89218" lon="5.47002">
        <ele>1496.43</ele>
        <time>2011-04-23T12:43:02Z</time>
      </trkpt>
      <trkpt lat="44.89199" lon="5.46953">
        <ele>1496.91</ele>
        <time>2011-04-23T12:43:15Z</time>
      </trkpt>
      <trkpt lat="44.89194" lon="5.46889">
        <ele>1496.91</ele>
        <time>2011-04-23T12:43:29Z</time>
      </trkpt>
      <trkpt lat="44.89175" lon="5.46842">
        <ele>1496.43</ele>
        <time>2011-04-23T12:43:42Z</time>
      </trkpt>
      <trkpt lat="44.89138" lon="5.4684">
        <ele>1496.43</ele>
        <time>2011-04-23T12:43:54Z</time>
      </trkpt>
      <trkpt lat="44.89118" lon="5.46814">
        <ele>1495.95</ele>
        <time>2011-04-23T12:44:04Z</time>
      </trkpt>
      <trkpt lat="44.89102" lon="5.46776">
        <ele>1496.43</ele>
        <time>2011-04-23T12:44:14Z</time>
      </trkpt>
      <trkpt lat="44.89075" lon="5.46728">
        <ele>1496.91</ele>
        <time>2011-04-23T12:44:28Z</time>
      </trkpt>
      <trkpt lat="44.89059" lon="5.46676">
        <ele>1496.43</ele>
        <time>2011-04-23T12:44:42Z</time>
      </trkpt>
      <trkpt lat="44.89054" lon="5.4666">
        <ele>1496.43</ele>
        <time>2011-04-23T12:44:48Z</time>
      </trkpt>
      <trkpt lat="44.89053" lon="5.46656">
        <ele>1496.91</ele>
        <time>2011-04-23T12:44:49Z</time>
      </trkpt>
      <trkpt lat="44.89041" lon="5.46615">
        <ele>1496.91</ele>
        <time>2011-04-23T12:44:59Z</time>
      </trkpt>
      <trkpt lat="44.89007" lon="5.46572">
        <ele>1496.43</ele>
        <time>2011-04-23T12:45:12Z</time>
      </trkpt>
      <trkpt lat="44.88974" lon="5.46516">
        <ele>1496.43</ele>
        <time>2011-04-23T12:45:28Z</time>
      </trkpt>
      <trkpt lat="44.88951" lon="5.46479">
        <ele>1496.91</ele>
        <time>2011-04-23T12:45:39Z</time>
      </trkpt>
      <trkpt lat="44.88939" lon="5.46427">
        <ele>1496.43</ele>
        <time>2011-04-23T12:45:51Z</time>
      </trkpt>
      <trkpt lat="44.88914" lon="5.46411">
        <ele>1496.91</ele>
        <time>2011-04-23T12:46:00Z</time>
      </trkpt>
      <trkpt lat="44.88886" lon="5.46389">
        <ele>1497.39</ele>
        <time>2011-04-23T12:46:11Z</time>
      </trkpt>
      <trkpt lat="44.88883" lon="5.46379">
        <ele>1498.35</ele>
        <time>2011-04-23T12:46:16Z</time>
      </trkpt>
      <trkpt lat="44.88883" lon="5.46377">
        <ele>1498.35</ele>
        <time>2011-04-23T12:46:17Z</time>
      </trkpt>
      <trkpt lat="44.88882" lon="5.46375">
        <ele>1498.83</ele>
        <time>2011-04-23T12:46:18Z</time>
      </trkpt>
      <trkpt lat="44.88881" lon="5.46374">
        <ele>1498.83</ele>
        <time>2011-04-23T12:46:19Z</time>
      </trkpt>
      <trkpt lat="44.8888" lon="5.46372">
        <ele>1498.83</ele>
        <time>2011-04-23T12:46:20Z</time>
      </trkpt>
      <trkpt lat="44.8888" lon="5.4637">
        <ele>1499.31</ele>
        <time>2011-04-23T12:46:21Z</time>
      </trkpt>
      <trkpt lat="44.88879" lon="5.46368">
        <ele>1498.83</ele>
        <time>2011-04-23T12:46:22Z</time>
      </trkpt>
      <trkpt lat="44.88878" lon="5.46365">
        <ele>1499.31</ele>
        <time>2011-04-23T12:46:23Z</time>
      </trkpt>
      <trkpt lat="44.88878" lon="5.46363">
        <ele>1499.31</ele>
        <time>2011-04-23T12:46:24Z</time>
      </trkpt>
      <trkpt lat="44.88877" lon="5.4636">
        <ele>1499.31</ele>
        <time>2011-04-23T12:46:25Z</time>
      </trkpt>
      <trkpt lat="44.88877" lon="5.46357">
        <ele>1499.79</ele>
        <time>2011-04-23T12:46:26Z</time>
      </trkpt>
      <trkpt lat="44.88876" lon="5.46355">
        <ele>1499.79</ele>
        <time>2011-04-23T12:46:27Z</time>
      </trkpt>
      <trkpt lat="44.88873" lon="5.4632">
        <ele>1501.72</ele>
        <time>2011-04-23T12:46:40Z</time>
      </trkpt>
      <trkpt lat="44.88873" lon="5.46317">
        <ele>1502.2</ele>
        <time>2011-04-23T12:46:41Z</time>
      </trkpt>
      <trkpt lat="44.88873" lon="5.46315">
        <ele>1502.68</ele>
        <time>2011-04-23T12:46:42Z</time>
      </trkpt>
      <trkpt lat="44.88873" lon="5.46312">
        <ele>1502.2</ele>
        <time>2011-04-23T12:46:43Z</time>
      </trkpt>
      <trkpt lat="44.88873" lon="5.46309">
        <ele>1503.16</ele>
        <time>2011-04-23T12:46:44Z</time>
      </trkpt>
      <trkpt lat="44.88873" lon="5.46306">
        <ele>1502.68</ele>
        <time>2011-04-23T12:46:45Z</time>
      </trkpt>
      <trkpt lat="44.88868" lon="5.46266">
        <ele>1505.56</ele>
        <time>2011-04-23T12:47:00Z</time>
      </trkpt>
      <trkpt lat="44.88861" lon="5.46234">
        <ele>1507</ele>
        <time>2011-04-23T12:47:12Z</time>
      </trkpt>
      <trkpt lat="44.88877" lon="5.46201">
        <ele>1507</ele>
        <time>2011-04-23T12:47:26Z</time>
      </trkpt>
      <trkpt lat="44.88898" lon="5.46153">
        <ele>1505.56</ele>
        <time>2011-04-23T12:47:41Z</time>
      </trkpt>
      <trkpt lat="44.88893" lon="5.46115">
        <ele>1504.12</ele>
        <time>2011-04-23T12:47:48Z</time>
      </trkpt>
      <trkpt lat="44.88892" lon="5.46108">
        <ele>1504.12</ele>
        <time>2011-04-23T12:47:49Z</time>
      </trkpt>
      <trkpt lat="44.88893" lon="5.46102">
        <ele>1504.6</ele>
        <time>2011-04-23T12:47:50Z</time>
      </trkpt>
      <trkpt lat="44.88894" lon="5.46096">
        <ele>1504.12</ele>
        <time>2011-04-23T12:47:51Z</time>
      </trkpt>
      <trkpt lat="44.88896" lon="5.4609">
        <ele>1504.12</ele>
        <time>2011-04-23T12:47:52Z</time>
      </trkpt>
      <trkpt lat="44.88898" lon="5.46084">
        <ele>1503.64</ele>
        <time>2011-04-23T12:47:53Z</time>
      </trkpt>
      <trkpt lat="44.889" lon="5.46079">
        <ele>1503.64</ele>
        <time>2011-04-23T12:47:54Z</time>
      </trkpt>
      <trkpt lat="44.88903" lon="5.46073">
        <ele>1503.16</ele>
        <time>2011-04-23T12:47:55Z</time>
      </trkpt>
      <trkpt lat="44.88905" lon="5.46069">
        <ele>1503.16</ele>
        <time>2011-04-23T12:47:56Z</time>
      </trkpt>
      <trkpt lat="44.88914" lon="5.46055">
        <ele>1502.68</ele>
        <time>2011-04-23T12:47:59Z</time>
      </trkpt>
      <trkpt lat="44.88924" lon="5.46042">
        <ele>1501.72</ele>
        <time>2011-04-23T12:48:02Z</time>
      </trkpt>
      <trkpt lat="44.88928" lon="5.46038">
        <ele>1501.72</ele>
        <time>2011-04-23T12:48:03Z</time>
      </trkpt>
      <trkpt lat="44.88938" lon="5.46025">
        <ele>1500.27</ele>
        <time>2011-04-23T12:48:06Z</time>
      </trkpt>
      <trkpt lat="44.88948" lon="5.46003">
        <ele>1499.31</ele>
        <time>2011-04-23T12:48:10Z</time>
      </trkpt>
      <trkpt lat="44.88949" lon="5.45996">
        <ele>1499.31</ele>
        <time>2011-04-23T12:48:11Z</time>
      </trkpt>
      <trkpt lat="44.8895" lon="5.4599">
        <ele>1498.83</ele>
        <time>2011-04-23T12:48:12Z</time>
      </trkpt>
      <trkpt lat="44.8895" lon="5.45984">
        <ele>1498.35</ele>
        <time>2011-04-23T12:48:13Z</time>
      </trkpt>
      <trkpt lat="44.8895" lon="5.45978">
        <ele>1498.35</ele>
        <time>2011-04-23T12:48:14Z</time>
      </trkpt>
      <trkpt lat="44.88949" lon="5.45971">
        <ele>1497.87</ele>
        <time>2011-04-23T12:48:15Z</time>
      </trkpt>
      <trkpt lat="44.88948" lon="5.45958">
        <ele>1496.91</ele>
        <time>2011-04-23T12:48:17Z</time>
      </trkpt>
      <trkpt lat="44.88949" lon="5.45952">
        <ele>1496.43</ele>
        <time>2011-04-23T12:48:18Z</time>
      </trkpt>
      <trkpt lat="44.88951" lon="5.45946">
        <ele>1496.91</ele>
        <time>2011-04-23T12:48:19Z</time>
      </trkpt>
      <trkpt lat="44.88953" lon="5.4594">
        <ele>1496.43</ele>
        <time>2011-04-23T12:48:20Z</time>
      </trkpt>
      <trkpt lat="44.88956" lon="5.45935">
        <ele>1495.95</ele>
        <time>2011-04-23T12:48:21Z</time>
      </trkpt>
      <trkpt lat="44.88958" lon="5.45929">
        <ele>1495.95</ele>
        <time>2011-04-23T12:48:22Z</time>
      </trkpt>
      <trkpt lat="44.8896" lon="5.45923">
        <ele>1495.47</ele>
        <time>2011-04-23T12:48:23Z</time>
      </trkpt>
      <trkpt lat="44.88962" lon="5.45917">
        <ele>1494.99</ele>
        <time>2011-04-23T12:48:24Z</time>
      </trkpt>
      <trkpt lat="44.88963" lon="5.4591">
        <ele>1494.51</ele>
        <time>2011-04-23T12:48:25Z</time>
      </trkpt>
      <trkpt lat="44.88964" lon="5.45903">
        <ele>1494.51</ele>
        <time>2011-04-23T12:48:26Z</time>
      </trkpt>
      <trkpt lat="44.88965" lon="5.45874">
        <ele>1492.58</ele>
        <time>2011-04-23T12:48:30Z</time>
      </trkpt>
      <trkpt lat="44.88966" lon="5.45867">
        <ele>1492.1</ele>
        <time>2011-04-23T12:48:31Z</time>
      </trkpt>
      <trkpt lat="44.88972" lon="5.45832">
        <ele>1490.18</ele>
        <time>2011-04-23T12:48:37Z</time>
      </trkpt>
      <trkpt lat="44.88976" lon="5.4582">
        <ele>1489.7</ele>
        <time>2011-04-23T12:48:39Z</time>
      </trkpt>
      <trkpt lat="44.88978" lon="5.45815">
        <ele>1488.74</ele>
        <time>2011-04-23T12:48:40Z</time>
      </trkpt>
      <trkpt lat="44.88982" lon="5.4581">
        <ele>1488.26</ele>
        <time>2011-04-23T12:48:41Z</time>
      </trkpt>
      <trkpt lat="44.88986" lon="5.45806">
        <ele>1487.78</ele>
        <time>2011-04-23T12:48:42Z</time>
      </trkpt>
      <trkpt lat="44.8899" lon="5.45802">
        <ele>1487.3</ele>
        <time>2011-04-23T12:48:43Z</time>
      </trkpt>
      <trkpt lat="44.88995" lon="5.45799">
        <ele>1486.34</ele>
        <time>2011-04-23T12:48:44Z</time>
      </trkpt>
      <trkpt lat="44.89" lon="5.45797">
        <ele>1486.82</ele>
        <time>2011-04-23T12:48:45Z</time>
      </trkpt>
      <trkpt lat="44.89005" lon="5.45797">
        <ele>1485.85</ele>
        <time>2011-04-23T12:48:46Z</time>
      </trkpt>
      <trkpt lat="44.8901" lon="5.45795">
        <ele>1484.89</ele>
        <time>2011-04-23T12:48:47Z</time>
      </trkpt>
      <trkpt lat="44.89014" lon="5.45792">
        <ele>1484.41</ele>
        <time>2011-04-23T12:48:48Z</time>
      </trkpt>
      <trkpt lat="44.89018" lon="5.45787">
        <ele>1483.93</ele>
        <time>2011-04-23T12:48:49Z</time>
      </trkpt>
      <trkpt lat="44.89022" lon="5.45781">
        <ele>1483.45</ele>
        <time>2011-04-23T12:48:50Z</time>
      </trkpt>
      <trkpt lat="44.89025" lon="5.45774">
        <ele>1482.97</ele>
        <time>2011-04-23T12:48:51Z</time>
      </trkpt>
      <trkpt lat="44.89028" lon="5.45767">
        <ele>1482.97</ele>
        <time>2011-04-23T12:48:52Z</time>
      </trkpt>
      <trkpt lat="44.89031" lon="5.45759">
        <ele>1482.49</ele>
        <time>2011-04-23T12:48:53Z</time>
      </trkpt>
      <trkpt lat="44.89034" lon="5.45751">
        <ele>1482.49</ele>
        <time>2011-04-23T12:48:54Z</time>
      </trkpt>
      <trkpt lat="44.89051" lon="5.457">
        <ele>1483.45</ele>
        <time>2011-04-23T12:49:04Z</time>
      </trkpt>
      <trkpt lat="44.89061" lon="5.45656">
        <ele>1482.01</ele>
        <time>2011-04-23T12:49:15Z</time>
      </trkpt>
      <trkpt lat="44.89061" lon="5.45644">
        <ele>1481.05</ele>
        <time>2011-04-23T12:49:17Z</time>
      </trkpt>
      <trkpt lat="44.89062" lon="5.45638">
        <ele>1480.57</ele>
        <time>2011-04-23T12:49:18Z</time>
      </trkpt>
      <trkpt lat="44.89064" lon="5.45633">
        <ele>1480.09</ele>
        <time>2011-04-23T12:49:19Z</time>
      </trkpt>
      <trkpt lat="44.89068" lon="5.45629">
        <ele>1479.13</ele>
        <time>2011-04-23T12:49:20Z</time>
      </trkpt>
      <trkpt lat="44.89072" lon="5.45626">
        <ele>1478.16</ele>
        <time>2011-04-23T12:49:21Z</time>
      </trkpt>
      <trkpt lat="44.89076" lon="5.45624">
        <ele>1478.16</ele>
        <time>2011-04-23T12:49:22Z</time>
      </trkpt>
      <trkpt lat="44.89079" lon="5.4562">
        <ele>1477.2</ele>
        <time>2011-04-23T12:49:23Z</time>
      </trkpt>
      <trkpt lat="44.89082" lon="5.45614">
        <ele>1477.2</ele>
        <time>2011-04-23T12:49:24Z</time>
      </trkpt>
      <trkpt lat="44.89084" lon="5.45608">
        <ele>1476.72</ele>
        <time>2011-04-23T12:49:25Z</time>
      </trkpt>
      <trkpt lat="44.89085" lon="5.45601">
        <ele>1476.24</ele>
        <time>2011-04-23T12:49:26Z</time>
      </trkpt>
      <trkpt lat="44.89084" lon="5.45594">
        <ele>1475.76</ele>
        <time>2011-04-23T12:49:27Z</time>
      </trkpt>
      <trkpt lat="44.89081" lon="5.45588">
        <ele>1474.8</ele>
        <time>2011-04-23T12:49:28Z</time>
      </trkpt>
      <trkpt lat="44.89078" lon="5.45584">
        <ele>1474.32</ele>
        <time>2011-04-23T12:49:29Z</time>
      </trkpt>
      <trkpt lat="44.89074" lon="5.4558">
        <ele>1473.36</ele>
        <time>2011-04-23T12:49:30Z</time>
      </trkpt>
      <trkpt lat="44.8907" lon="5.45575">
        <ele>1473.36</ele>
        <time>2011-04-23T12:49:31Z</time>
      </trkpt>
      <trkpt lat="44.89067" lon="5.45571">
        <ele>1472.88</ele>
        <time>2011-04-23T12:49:32Z</time>
      </trkpt>
      <trkpt lat="44.89065" lon="5.45564">
        <ele>1472.4</ele>
        <time>2011-04-23T12:49:33Z</time>
      </trkpt>
      <trkpt lat="44.89064" lon="5.45557">
        <ele>1471.92</ele>
        <time>2011-04-23T12:49:34Z</time>
      </trkpt>
      <trkpt lat="44.89067" lon="5.45521">
        <ele>1468.55</ele>
        <time>2011-04-23T12:49:39Z</time>
      </trkpt>
      <trkpt lat="44.8907" lon="5.45508">
        <ele>1467.59</ele>
        <time>2011-04-23T12:49:41Z</time>
      </trkpt>
      <trkpt lat="44.89078" lon="5.45469">
        <ele>1465.19</ele>
        <time>2011-04-23T12:49:47Z</time>
      </trkpt>
      <trkpt lat="44.89076" lon="5.45463">
        <ele>1464.71</ele>
        <time>2011-04-23T12:49:48Z</time>
      </trkpt>
      <trkpt lat="44.89074" lon="5.45459">
        <ele>1464.71</ele>
        <time>2011-04-23T12:49:49Z</time>
      </trkpt>
      <trkpt lat="44.8907" lon="5.45456">
        <ele>1464.23</ele>
        <time>2011-04-23T12:49:50Z</time>
      </trkpt>
      <trkpt lat="44.89065" lon="5.45456">
        <ele>1463.74</ele>
        <time>2011-04-23T12:49:51Z</time>
      </trkpt>
      <trkpt lat="44.89061" lon="5.45457">
        <ele>1463.26</ele>
        <time>2011-04-23T12:49:52Z</time>
      </trkpt>
      <trkpt lat="44.89056" lon="5.4546">
        <ele>1462.78</ele>
        <time>2011-04-23T12:49:53Z</time>
      </trkpt>
      <trkpt lat="44.89051" lon="5.45464">
        <ele>1462.78</ele>
        <time>2011-04-23T12:49:54Z</time>
      </trkpt>
      <trkpt lat="44.89047" lon="5.45468">
        <ele>1462.3</ele>
        <time>2011-04-23T12:49:55Z</time>
      </trkpt>
      <trkpt lat="44.89042" lon="5.45471">
        <ele>1461.82</ele>
        <time>2011-04-23T12:49:56Z</time>
      </trkpt>
      <trkpt lat="44.89038" lon="5.45476">
        <ele>1461.34</ele>
        <time>2011-04-23T12:49:57Z</time>
      </trkpt>
      <trkpt lat="44.89031" lon="5.45486">
        <ele>1460.38</ele>
        <time>2011-04-23T12:49:59Z</time>
      </trkpt>
      <trkpt lat="44.8902" lon="5.45502">
        <ele>1458.94</ele>
        <time>2011-04-23T12:50:02Z</time>
      </trkpt>
      <trkpt lat="44.89015" lon="5.45506">
        <ele>1458.46</ele>
        <time>2011-04-23T12:50:03Z</time>
      </trkpt>
      <trkpt lat="44.8901" lon="5.45509">
        <ele>1457.98</ele>
        <time>2011-04-23T12:50:04Z</time>
      </trkpt>
      <trkpt lat="44.89005" lon="5.4551">
        <ele>1457.98</ele>
        <time>2011-04-23T12:50:05Z</time>
      </trkpt>
      <trkpt lat="44.88999" lon="5.45511">
        <ele>1457.02</ele>
        <time>2011-04-23T12:50:06Z</time>
      </trkpt>
      <trkpt lat="44.88993" lon="5.4551">
        <ele>1456.53</ele>
        <time>2011-04-23T12:50:07Z</time>
      </trkpt>
      <trkpt lat="44.88949" lon="5.45505">
        <ele>1456.53</ele>
        <time>2011-04-23T12:50:15Z</time>
      </trkpt>
      <trkpt lat="44.88945" lon="5.45505">
        <ele>1456.53</ele>
        <time>2011-04-23T12:50:16Z</time>
      </trkpt>
      <trkpt lat="44.88941" lon="5.45507">
        <ele>1456.53</ele>
        <time>2011-04-23T12:50:17Z</time>
      </trkpt>
      <trkpt lat="44.88906" lon="5.45521">
        <ele>1455.57</ele>
        <time>2011-04-23T12:50:28Z</time>
      </trkpt>
      <trkpt lat="44.88899" lon="5.45518">
        <ele>1455.57</ele>
        <time>2011-04-23T12:50:30Z</time>
      </trkpt>
      <trkpt lat="44.88885" lon="5.45513">
        <ele>1454.13</ele>
        <time>2011-04-23T12:50:33Z</time>
      </trkpt>
      <trkpt lat="44.88881" lon="5.45509">
        <ele>1453.65</ele>
        <time>2011-04-23T12:50:34Z</time>
      </trkpt>
      <trkpt lat="44.88876" lon="5.45505">
        <ele>1453.65</ele>
        <time>2011-04-23T12:50:35Z</time>
      </trkpt>
      <trkpt lat="44.88857" lon="5.45483">
        <ele>1451.73</ele>
        <time>2011-04-23T12:50:39Z</time>
      </trkpt>
      <trkpt lat="44.88845" lon="5.45461">
        <ele>1450.29</ele>
        <time>2011-04-23T12:50:42Z</time>
      </trkpt>
      <trkpt lat="44.88842" lon="5.45452">
        <ele>1449.32</ele>
        <time>2011-04-23T12:50:43Z</time>
      </trkpt>
      <trkpt lat="44.88839" lon="5.45443">
        <ele>1448.84</ele>
        <time>2011-04-23T12:50:44Z</time>
      </trkpt>
      <trkpt lat="44.88836" lon="5.45434">
        <ele>1448.84</ele>
        <time>2011-04-23T12:50:45Z</time>
      </trkpt>
      <trkpt lat="44.88826" lon="5.45398">
        <ele>1445.96</ele>
        <time>2011-04-23T12:50:49Z</time>
      </trkpt>
      <trkpt lat="44.88818" lon="5.45374">
        <ele>1445</ele>
        <time>2011-04-23T12:50:52Z</time>
      </trkpt>
      <trkpt lat="44.88817" lon="5.45367">
        <ele>1444.04</ele>
        <time>2011-04-23T12:50:53Z</time>
      </trkpt>
      <trkpt lat="44.88817" lon="5.4536">
        <ele>1444.04</ele>
        <time>2011-04-23T12:50:54Z</time>
      </trkpt>
      <trkpt lat="44.88818" lon="5.45355">
        <ele>1443.56</ele>
        <time>2011-04-23T12:50:55Z</time>
      </trkpt>
      <trkpt lat="44.8882" lon="5.45351">
        <ele>1444.04</ele>
        <time>2011-04-23T12:50:56Z</time>
      </trkpt>
      <trkpt lat="44.88823" lon="5.45351">
        <ele>1443.56</ele>
        <time>2011-04-23T12:50:57Z</time>
      </trkpt>
      <trkpt lat="44.88826" lon="5.45354">
        <ele>1443.08</ele>
        <time>2011-04-23T12:50:58Z</time>
      </trkpt>
      <trkpt lat="44.88829" lon="5.45359">
        <ele>1443.08</ele>
        <time>2011-04-23T12:50:59Z</time>
      </trkpt>
      <trkpt lat="44.88833" lon="5.45364">
        <ele>1442.11</ele>
        <time>2011-04-23T12:51:00Z</time>
      </trkpt>
      <trkpt lat="44.88836" lon="5.4537">
        <ele>1441.15</ele>
        <time>2011-04-23T12:51:01Z</time>
      </trkpt>
      <trkpt lat="44.88847" lon="5.45388">
        <ele>1440.67</ele>
        <time>2011-04-23T12:51:04Z</time>
      </trkpt>
      <trkpt lat="44.88873" lon="5.4542">
        <ele>1437.31</ele>
        <time>2011-04-23T12:51:10Z</time>
      </trkpt>
      <trkpt lat="44.88884" lon="5.45428">
        <ele>1436.83</ele>
        <time>2011-04-23T12:51:12Z</time>
      </trkpt>
      <trkpt lat="44.88894" lon="5.45433">
        <ele>1435.39</ele>
        <time>2011-04-23T12:51:14Z</time>
      </trkpt>
      <trkpt lat="44.889" lon="5.45434">
        <ele>1435.39</ele>
        <time>2011-04-23T12:51:15Z</time>
      </trkpt>
      <trkpt lat="44.88905" lon="5.45433">
        <ele>1434.91</ele>
        <time>2011-04-23T12:51:16Z</time>
      </trkpt>
      <trkpt lat="44.88911" lon="5.4543">
        <ele>1434.42</ele>
        <time>2011-04-23T12:51:17Z</time>
      </trkpt>
      <trkpt lat="44.88917" lon="5.45426">
        <ele>1433.94</ele>
        <time>2011-04-23T12:51:18Z</time>
      </trkpt>
      <trkpt lat="44.88927" lon="5.45419">
        <ele>1432.98</ele>
        <time>2011-04-23T12:51:20Z</time>
      </trkpt>
      <trkpt lat="44.88931" lon="5.45413">
        <ele>1432.5</ele>
        <time>2011-04-23T12:51:21Z</time>
      </trkpt>
      <trkpt lat="44.88934" lon="5.45405">
        <ele>1432.02</ele>
        <time>2011-04-23T12:51:22Z</time>
      </trkpt>
      <trkpt lat="44.88935" lon="5.45397">
        <ele>1431.54</ele>
        <time>2011-04-23T12:51:23Z</time>
      </trkpt>
      <trkpt lat="44.88936" lon="5.45388">
        <ele>1431.54</ele>
        <time>2011-04-23T12:51:24Z</time>
      </trkpt>
      <trkpt lat="44.88936" lon="5.4538">
        <ele>1431.06</ele>
        <time>2011-04-23T12:51:25Z</time>
      </trkpt>
      <trkpt lat="44.88936" lon="5.45354">
        <ele>1429.62</ele>
        <time>2011-04-23T12:51:28Z</time>
      </trkpt>
      <trkpt lat="44.88937" lon="5.45336">
        <ele>1428.66</ele>
        <time>2011-04-23T12:51:30Z</time>
      </trkpt>
      <trkpt lat="44.88938" lon="5.45328">
        <ele>1428.18</ele>
        <time>2011-04-23T12:51:31Z</time>
      </trkpt>
      <trkpt lat="44.88941" lon="5.45321">
        <ele>1427.7</ele>
        <time>2011-04-23T12:51:32Z</time>
      </trkpt>
      <trkpt lat="44.88946" lon="5.45315">
        <ele>1427.21</ele>
        <time>2011-04-23T12:51:33Z</time>
      </trkpt>
      <trkpt lat="44.88951" lon="5.4531">
        <ele>1426.25</ele>
        <time>2011-04-23T12:51:34Z</time>
      </trkpt>
      <trkpt lat="44.88956" lon="5.45303">
        <ele>1425.29</ele>
        <time>2011-04-23T12:51:35Z</time>
      </trkpt>
      <trkpt lat="44.8896" lon="5.45296">
        <ele>1424.81</ele>
        <time>2011-04-23T12:51:36Z</time>
      </trkpt>
      <trkpt lat="44.88963" lon="5.45287">
        <ele>1424.33</ele>
        <time>2011-04-23T12:51:37Z</time>
      </trkpt>
      <trkpt lat="44.88965" lon="5.45278">
        <ele>1424.33</ele>
        <time>2011-04-23T12:51:38Z</time>
      </trkpt>
      <trkpt lat="44.88966" lon="5.45268">
        <ele>1424.33</ele>
        <time>2011-04-23T12:51:39Z</time>
      </trkpt>
      <trkpt lat="44.88967" lon="5.45259">
        <ele>1423.37</ele>
        <time>2011-04-23T12:51:40Z</time>
      </trkpt>
      <trkpt lat="44.88967" lon="5.45249">
        <ele>1422.89</ele>
        <time>2011-04-23T12:51:41Z</time>
      </trkpt>
      <trkpt lat="44.88968" lon="5.4522">
        <ele>1421.45</ele>
        <time>2011-04-23T12:51:44Z</time>
      </trkpt>
      <trkpt lat="44.88969" lon="5.45211">
        <ele>1420.49</ele>
        <time>2011-04-23T12:51:45Z</time>
      </trkpt>
      <trkpt lat="44.88971" lon="5.45203">
        <ele>1420.49</ele>
        <time>2011-04-23T12:51:46Z</time>
      </trkpt>
      <trkpt lat="44.88973" lon="5.45194">
        <ele>1419.52</ele>
        <time>2011-04-23T12:51:47Z</time>
      </trkpt>
      <trkpt lat="44.88974" lon="5.45185">
        <ele>1418.56</ele>
        <time>2011-04-23T12:51:48Z</time>
      </trkpt>
      <trkpt lat="44.88975" lon="5.45176">
        <ele>1418.56</ele>
        <time>2011-04-23T12:51:49Z</time>
      </trkpt>
      <trkpt lat="44.88974" lon="5.45167">
        <ele>1418.08</ele>
        <time>2011-04-23T12:51:50Z</time>
      </trkpt>
      <trkpt lat="44.88973" lon="5.45125">
        <ele>1415.68</ele>
        <time>2011-04-23T12:51:55Z</time>
      </trkpt>
      <trkpt lat="44.88974" lon="5.45118">
        <ele>1416.16</ele>
        <time>2011-04-23T12:51:56Z</time>
      </trkpt>
      <trkpt lat="44.88978" lon="5.45094">
        <ele>1413.76</ele>
        <time>2011-04-23T12:51:59Z</time>
      </trkpt>
      <trkpt lat="44.88977" lon="5.45086">
        <ele>1413.28</ele>
        <time>2011-04-23T12:52:00Z</time>
      </trkpt>
      <trkpt lat="44.88975" lon="5.45079">
        <ele>1412.79</ele>
        <time>2011-04-23T12:52:01Z</time>
      </trkpt>
      <trkpt lat="44.88972" lon="5.45074">
        <ele>1411.83</ele>
        <time>2011-04-23T12:52:02Z</time>
      </trkpt>
      <trkpt lat="44.88967" lon="5.4507">
        <ele>1411.35</ele>
        <time>2011-04-23T12:52:03Z</time>
      </trkpt>
      <trkpt lat="44.88961" lon="5.45068">
        <ele>1411.35</ele>
        <time>2011-04-23T12:52:04Z</time>
      </trkpt>
      <trkpt lat="44.88956" lon="5.45067">
        <ele>1410.87</ele>
        <time>2011-04-23T12:52:05Z</time>
      </trkpt>
      <trkpt lat="44.88951" lon="5.45065">
        <ele>1410.39</ele>
        <time>2011-04-23T12:52:06Z</time>
      </trkpt>
      <trkpt lat="44.88946" lon="5.45061">
        <ele>1410.39</ele>
        <time>2011-04-23T12:52:07Z</time>
      </trkpt>
      <trkpt lat="44.88943" lon="5.45055">
        <ele>1409.91</ele>
        <time>2011-04-23T12:52:08Z</time>
      </trkpt>
      <trkpt lat="44.8894" lon="5.45048">
        <ele>1409.43</ele>
        <time>2011-04-23T12:52:09Z</time>
      </trkpt>
      <trkpt lat="44.88939" lon="5.45041">
        <ele>1408.95</ele>
        <time>2011-04-23T12:52:10Z</time>
      </trkpt>
      <trkpt lat="44.88929" lon="5.44982">
        <ele>1405.58</ele>
        <time>2011-04-23T12:52:17Z</time>
      </trkpt>
      <trkpt lat="44.88927" lon="5.44973">
        <ele>1405.58</ele>
        <time>2011-04-23T12:52:18Z</time>
      </trkpt>
      <trkpt lat="44.88922" lon="5.4495">
        <ele>1403.66</ele>
        <time>2011-04-23T12:52:21Z</time>
      </trkpt>
      <trkpt lat="44.88918" lon="5.44926">
        <ele>1402.7</ele>
        <time>2011-04-23T12:52:24Z</time>
      </trkpt>
      <trkpt lat="44.88915" lon="5.44919">
        <ele>1402.22</ele>
        <time>2011-04-23T12:52:25Z</time>
      </trkpt>
      <trkpt lat="44.88911" lon="5.44913">
        <ele>1401.74</ele>
        <time>2011-04-23T12:52:26Z</time>
      </trkpt>
      <trkpt lat="44.88905" lon="5.4491">
        <ele>1401.26</ele>
        <time>2011-04-23T12:52:27Z</time>
      </trkpt>
      <trkpt lat="44.889" lon="5.44909">
        <ele>1401.26</ele>
        <time>2011-04-23T12:52:28Z</time>
      </trkpt>
      <trkpt lat="44.88889" lon="5.44904">
        <ele>1400.3</ele>
        <time>2011-04-23T12:52:30Z</time>
      </trkpt>
      <trkpt lat="44.88885" lon="5.449">
        <ele>1400.3</ele>
        <time>2011-04-23T12:52:31Z</time>
      </trkpt>
      <trkpt lat="44.88882" lon="5.44894">
        <ele>1399.82</ele>
        <time>2011-04-23T12:52:32Z</time>
      </trkpt>
      <trkpt lat="44.88866" lon="5.44864">
        <ele>1397.89</ele>
        <time>2011-04-23T12:52:37Z</time>
      </trkpt>
      <trkpt lat="44.88864" lon="5.44857">
        <ele>1397.41</ele>
        <time>2011-04-23T12:52:38Z</time>
      </trkpt>
      <trkpt lat="44.88862" lon="5.44849">
        <ele>1396.45</ele>
        <time>2011-04-23T12:52:39Z</time>
      </trkpt>
      <trkpt lat="44.88859" lon="5.44841">
        <ele>1395.49</ele>
        <time>2011-04-23T12:52:40Z</time>
      </trkpt>
      <trkpt lat="44.88855" lon="5.44834">
        <ele>1395.01</ele>
        <time>2011-04-23T12:52:41Z</time>
      </trkpt>
      <trkpt lat="44.8885" lon="5.44827">
        <ele>1395.01</ele>
        <time>2011-04-23T12:52:42Z</time>
      </trkpt>
      <trkpt lat="44.88845" lon="5.44821">
        <ele>1394.53</ele>
        <time>2011-04-23T12:52:43Z</time>
      </trkpt>
      <trkpt lat="44.88839" lon="5.44815">
        <ele>1394.53</ele>
        <time>2011-04-23T12:52:44Z</time>
      </trkpt>
      <trkpt lat="44.88834" lon="5.4481">
        <ele>1394.53</ele>
        <time>2011-04-23T12:52:45Z</time>
      </trkpt>
      <trkpt lat="44.88818" lon="5.44797">
        <ele>1394.05</ele>
        <time>2011-04-23T12:52:48Z</time>
      </trkpt>
      <trkpt lat="44.88788" lon="5.44777">
        <ele>1393.09</ele>
        <time>2011-04-23T12:52:54Z</time>
      </trkpt>
      <trkpt lat="44.8878" lon="5.4477">
        <ele>1392.61</ele>
        <time>2011-04-23T12:52:56Z</time>
      </trkpt>
      <trkpt lat="44.88776" lon="5.44765">
        <ele>1392.13</ele>
        <time>2011-04-23T12:52:57Z</time>
      </trkpt>
      <trkpt lat="44.88772" lon="5.44758">
        <ele>1392.61</ele>
        <time>2011-04-23T12:52:58Z</time>
      </trkpt>
      <trkpt lat="44.88769" lon="5.4475">
        <ele>1392.13</ele>
        <time>2011-04-23T12:52:59Z</time>
      </trkpt>
      <trkpt lat="44.88768" lon="5.44743">
        <ele>1392.13</ele>
        <time>2011-04-23T12:53:00Z</time>
      </trkpt>
      <trkpt lat="44.88769" lon="5.44735">
        <ele>1392.61</ele>
        <time>2011-04-23T12:53:01Z</time>
      </trkpt>
      <trkpt lat="44.88769" lon="5.44728">
        <ele>1392.13</ele>
        <time>2011-04-23T12:53:02Z</time>
      </trkpt>
      <trkpt lat="44.88773" lon="5.44679">
        <ele>1391.17</ele>
        <time>2011-04-23T12:53:09Z</time>
      </trkpt>
      <trkpt lat="44.88771" lon="5.4465">
        <ele>1390.2</ele>
        <time>2011-04-23T12:53:13Z</time>
      </trkpt>
      <trkpt lat="44.88771" lon="5.44642">
        <ele>1389.72</ele>
        <time>2011-04-23T12:53:14Z</time>
      </trkpt>
      <trkpt lat="44.88766" lon="5.44604">
        <ele>1388.76</ele>
        <time>2011-04-23T12:53:19Z</time>
      </trkpt>
      <trkpt lat="44.88765" lon="5.44596">
        <ele>1388.76</ele>
        <time>2011-04-23T12:53:20Z</time>
      </trkpt>
      <trkpt lat="44.88759" lon="5.44558">
        <ele>1387.32</ele>
        <time>2011-04-23T12:53:25Z</time>
      </trkpt>
      <trkpt lat="44.88755" lon="5.44542">
        <ele>1386.84</ele>
        <time>2011-04-23T12:53:27Z</time>
      </trkpt>
      <trkpt lat="44.88742" lon="5.44506">
        <ele>1386.36</ele>
        <time>2011-04-23T12:53:32Z</time>
      </trkpt>
      <trkpt lat="44.88738" lon="5.44501">
        <ele>1385.88</ele>
        <time>2011-04-23T12:53:33Z</time>
      </trkpt>
      <trkpt lat="44.88735" lon="5.44496">
        <ele>1385.4</ele>
        <time>2011-04-23T12:53:34Z</time>
      </trkpt>
      <trkpt lat="44.8873" lon="5.44493">
        <ele>1384.92</ele>
        <time>2011-04-23T12:53:35Z</time>
      </trkpt>
      <trkpt lat="44.88726" lon="5.44492">
        <ele>1384.92</ele>
        <time>2011-04-23T12:53:36Z</time>
      </trkpt>
      <trkpt lat="44.8872" lon="5.44493">
        <ele>1384.44</ele>
        <time>2011-04-23T12:53:37Z</time>
      </trkpt>
      <trkpt lat="44.88716" lon="5.44496">
        <ele>1383.96</ele>
        <time>2011-04-23T12:53:38Z</time>
      </trkpt>
      <trkpt lat="44.88714" lon="5.44501">
        <ele>1383.47</ele>
        <time>2011-04-23T12:53:39Z</time>
      </trkpt>
      <trkpt lat="44.88713" lon="5.44507">
        <ele>1382.03</ele>
        <time>2011-04-23T12:53:40Z</time>
      </trkpt>
      <trkpt lat="44.88713" lon="5.44514">
        <ele>1382.51</ele>
        <time>2011-04-23T12:53:41Z</time>
      </trkpt>
      <trkpt lat="44.88714" lon="5.44522">
        <ele>1381.07</ele>
        <time>2011-04-23T12:53:42Z</time>
      </trkpt>
      <trkpt lat="44.88716" lon="5.44529">
        <ele>1381.07</ele>
        <time>2011-04-23T12:53:43Z</time>
      </trkpt>
      <trkpt lat="44.88718" lon="5.44536">
        <ele>1380.11</ele>
        <time>2011-04-23T12:53:44Z</time>
      </trkpt>
      <trkpt lat="44.88719" lon="5.44543">
        <ele>1380.11</ele>
        <time>2011-04-23T12:53:45Z</time>
      </trkpt>
      <trkpt lat="44.88718" lon="5.4455">
        <ele>1379.63</ele>
        <time>2011-04-23T12:53:46Z</time>
      </trkpt>
      <trkpt lat="44.88716" lon="5.44555">
        <ele>1379.15</ele>
        <time>2011-04-23T12:53:47Z</time>
      </trkpt>
      <trkpt lat="44.88711" lon="5.44557">
        <ele>1378.67</ele>
        <time>2011-04-23T12:53:48Z</time>
      </trkpt>
      <trkpt lat="44.88707" lon="5.44557">
        <ele>1377.71</ele>
        <time>2011-04-23T12:53:49Z</time>
      </trkpt>
      <trkpt lat="44.88702" lon="5.44556">
        <ele>1376.75</ele>
        <time>2011-04-23T12:53:50Z</time>
      </trkpt>
      <trkpt lat="44.88697" lon="5.44553">
        <ele>1376.26</ele>
        <time>2011-04-23T12:53:51Z</time>
      </trkpt>
      <trkpt lat="44.88686" lon="5.44549">
        <ele>1375.3</ele>
        <time>2011-04-23T12:53:53Z</time>
      </trkpt>
      <trkpt lat="44.8868" lon="5.44547">
        <ele>1375.3</ele>
        <time>2011-04-23T12:53:54Z</time>
      </trkpt>
      <trkpt lat="44.8867" lon="5.44545">
        <ele>1374.34</ele>
        <time>2011-04-23T12:53:56Z</time>
      </trkpt>
      <trkpt lat="44.88665" lon="5.44543">
        <ele>1373.38</ele>
        <time>2011-04-23T12:53:57Z</time>
      </trkpt>
      <trkpt lat="44.88655" lon="5.44537">
        <ele>1372.42</ele>
        <time>2011-04-23T12:53:59Z</time>
      </trkpt>
      <trkpt lat="44.88644" lon="5.4453">
        <ele>1370.5</ele>
        <time>2011-04-23T12:54:01Z</time>
      </trkpt>
      <trkpt lat="44.88639" lon="5.44528">
        <ele>1370.02</ele>
        <time>2011-04-23T12:54:02Z</time>
      </trkpt>
      <trkpt lat="44.88633" lon="5.44527">
        <ele>1369.05</ele>
        <time>2011-04-23T12:54:03Z</time>
      </trkpt>
      <trkpt lat="44.88627" lon="5.44526">
        <ele>1368.09</ele>
        <time>2011-04-23T12:54:04Z</time>
      </trkpt>
      <trkpt lat="44.88621" lon="5.44526">
        <ele>1368.57</ele>
        <time>2011-04-23T12:54:05Z</time>
      </trkpt>
      <trkpt lat="44.88615" lon="5.44525">
        <ele>1366.65</ele>
        <time>2011-04-23T12:54:06Z</time>
      </trkpt>
      <trkpt lat="44.88609" lon="5.44524">
        <ele>1366.17</ele>
        <time>2011-04-23T12:54:07Z</time>
      </trkpt>
      <trkpt lat="44.88602" lon="5.44522">
        <ele>1365.69</ele>
        <time>2011-04-23T12:54:08Z</time>
      </trkpt>
      <trkpt lat="44.88569" lon="5.44512">
        <ele>1361.84</ele>
        <time>2011-04-23T12:54:13Z</time>
      </trkpt>
      <trkpt lat="44.88543" lon="5.44504">
        <ele>1359.44</ele>
        <time>2011-04-23T12:54:17Z</time>
      </trkpt>
      <trkpt lat="44.88523" lon="5.44496">
        <ele>1357.04</ele>
        <time>2011-04-23T12:54:20Z</time>
      </trkpt>
      <trkpt lat="44.88497" lon="5.44487">
        <ele>1354.15</ele>
        <time>2011-04-23T12:54:24Z</time>
      </trkpt>
      <trkpt lat="44.88491" lon="5.44484">
        <ele>1353.19</ele>
        <time>2011-04-23T12:54:25Z</time>
      </trkpt>
      <trkpt lat="44.88485" lon="5.4448">
        <ele>1352.71</ele>
        <time>2011-04-23T12:54:26Z</time>
      </trkpt>
      <trkpt lat="44.8848" lon="5.44476">
        <ele>1352.23</ele>
        <time>2011-04-23T12:54:27Z</time>
      </trkpt>
      <trkpt lat="44.88474" lon="5.44472">
        <ele>1352.23</ele>
        <time>2011-04-23T12:54:28Z</time>
      </trkpt>
      <trkpt lat="44.88464" lon="5.44465">
        <ele>1350.79</ele>
        <time>2011-04-23T12:54:30Z</time>
      </trkpt>
      <trkpt lat="44.88455" lon="5.44459">
        <ele>1349.83</ele>
        <time>2011-04-23T12:54:32Z</time>
      </trkpt>
      <trkpt lat="44.88451" lon="5.44455">
        <ele>1349.35</ele>
        <time>2011-04-23T12:54:33Z</time>
      </trkpt>
      <trkpt lat="44.88447" lon="5.44452">
        <ele>1349.35</ele>
        <time>2011-04-23T12:54:34Z</time>
      </trkpt>
      <trkpt lat="44.88444" lon="5.44449">
        <ele>1348.39</ele>
        <time>2011-04-23T12:54:35Z</time>
      </trkpt>
      <trkpt lat="44.88441" lon="5.44448">
        <ele>1348.39</ele>
        <time>2011-04-23T12:54:36Z</time>
      </trkpt>
      <trkpt lat="44.88438" lon="5.44448">
        <ele>1348.39</ele>
        <time>2011-04-23T12:54:37Z</time>
      </trkpt>
      <trkpt lat="44.88436" lon="5.44449">
        <ele>1348.39</ele>
        <time>2011-04-23T12:54:38Z</time>
      </trkpt>
      <trkpt lat="44.88435" lon="5.4445">
        <ele>1348.87</ele>
        <time>2011-04-23T12:54:39Z</time>
      </trkpt>
      <trkpt lat="44.88434" lon="5.44451">
        <ele>1348.87</ele>
        <time>2011-04-23T12:55:00Z</time>
      </trkpt>
      <trkpt lat="44.88429" lon="5.44445">
        <ele>1348.39</ele>
        <time>2011-04-23T12:55:37Z</time>
      </trkpt>
      <trkpt lat="44.88428" lon="5.44444">
        <ele>1347.43</ele>
        <time>2011-04-23T12:56:12Z</time>
      </trkpt>
      <trkpt lat="44.88429" lon="5.44454">
        <ele>1348.39</ele>
        <time>2011-04-23T13:16:18Z</time>
      </trkpt>
      <trkpt lat="44.88418" lon="5.44469">
        <ele>1348.39</ele>
        <time>2011-04-23T13:16:28Z</time>
      </trkpt>
      <trkpt lat="44.88395" lon="5.44489">
        <ele>1349.83</ele>
        <time>2011-04-23T13:16:41Z</time>
      </trkpt>
      <trkpt lat="44.88365" lon="5.44501">
        <ele>1349.35</ele>
        <time>2011-04-23T13:16:56Z</time>
      </trkpt>
      <trkpt lat="44.88364" lon="5.44501">
        <ele>1342.62</ele>
        <time>2011-04-23T13:16:57Z</time>
      </trkpt>
      <trkpt lat="44.88362" lon="5.44502">
        <ele>1352.23</ele>
        <time>2011-04-23T13:16:58Z</time>
      </trkpt>
      <trkpt lat="44.8836" lon="5.44503">
        <ele>1351.27</ele>
        <time>2011-04-23T13:16:59Z</time>
      </trkpt>
      <trkpt lat="44.88357" lon="5.44504">
        <ele>1352.23</ele>
        <time>2011-04-23T13:17:01Z</time>
      </trkpt>
      <trkpt lat="44.88355" lon="5.44503">
        <ele>1352.23</ele>
        <time>2011-04-23T13:17:02Z</time>
      </trkpt>
      <trkpt lat="44.88333" lon="5.4451">
        <ele>1353.19</ele>
        <time>2011-04-23T13:17:15Z</time>
      </trkpt>
      <trkpt lat="44.88307" lon="5.44522">
        <ele>1356.56</ele>
        <time>2011-04-23T13:17:28Z</time>
      </trkpt>
      <trkpt lat="44.88284" lon="5.44495">
        <ele>1358.96</ele>
        <time>2011-04-23T13:17:44Z</time>
      </trkpt>
      <trkpt lat="44.88257" lon="5.44456">
        <ele>1360.88</ele>
        <time>2011-04-23T13:18:03Z</time>
      </trkpt>
      <trkpt lat="44.88227" lon="5.44442">
        <ele>1362.33</ele>
        <time>2011-04-23T13:18:19Z</time>
      </trkpt>
      <trkpt lat="44.88194" lon="5.44434">
        <ele>1362.33</ele>
        <time>2011-04-23T13:18:35Z</time>
      </trkpt>
      <trkpt lat="44.8816" lon="5.4443">
        <ele>1362.81</ele>
        <time>2011-04-23T13:18:52Z</time>
      </trkpt>
      <trkpt lat="44.88159" lon="5.44432">
        <ele>1362.81</ele>
        <time>2011-04-23T13:18:54Z</time>
      </trkpt>
      <trkpt lat="44.88159" lon="5.44434">
        <ele>1362.81</ele>
        <time>2011-04-23T13:18:55Z</time>
      </trkpt>
      <trkpt lat="44.88159" lon="5.44437">
        <ele>1363.29</ele>
        <time>2011-04-23T13:18:56Z</time>
      </trkpt>
      <trkpt lat="44.88154" lon="5.4448">
        <ele>1363.29</ele>
        <time>2011-04-23T13:19:11Z</time>
      </trkpt>
      <trkpt lat="44.88151" lon="5.44513">
        <ele>1363.29</ele>
        <time>2011-04-23T13:19:22Z</time>
      </trkpt>
      <trkpt lat="44.88148" lon="5.44534">
        <ele>1362.81</ele>
        <time>2011-04-23T13:19:31Z</time>
      </trkpt>
      <trkpt lat="44.88146" lon="5.44549">
        <ele>1363.29</ele>
        <time>2011-04-23T13:19:36Z</time>
      </trkpt>
      <trkpt lat="44.88138" lon="5.44586">
        <ele>1363.29</ele>
        <time>2011-04-23T13:19:48Z</time>
      </trkpt>
      <trkpt lat="44.88134" lon="5.44599">
        <ele>1363.77</ele>
        <time>2011-04-23T13:19:53Z</time>
      </trkpt>
      <trkpt lat="44.88134" lon="5.44601">
        <ele>1363.77</ele>
        <time>2011-04-23T13:19:54Z</time>
      </trkpt>
      <trkpt lat="44.88134" lon="5.44604">
        <ele>1363.77</ele>
        <time>2011-04-23T13:19:55Z</time>
      </trkpt>
      <trkpt lat="44.88134" lon="5.44606">
        <ele>1363.77</ele>
        <time>2011-04-23T13:19:56Z</time>
      </trkpt>
      <trkpt lat="44.88133" lon="5.44609">
        <ele>1363.77</ele>
        <time>2011-04-23T13:19:57Z</time>
      </trkpt>
      <trkpt lat="44.88132" lon="5.44612">
        <ele>1364.25</ele>
        <time>2011-04-23T13:19:58Z</time>
      </trkpt>
      <trkpt lat="44.88131" lon="5.44614">
        <ele>1364.25</ele>
        <time>2011-04-23T13:19:59Z</time>
      </trkpt>
      <trkpt lat="44.8813" lon="5.44617">
        <ele>1363.77</ele>
        <time>2011-04-23T13:20:00Z</time>
      </trkpt>
      <trkpt lat="44.88129" lon="5.44619">
        <ele>1364.25</ele>
        <time>2011-04-23T13:20:01Z</time>
      </trkpt>
      <trkpt lat="44.88127" lon="5.44622">
        <ele>1363.77</ele>
        <time>2011-04-23T13:20:02Z</time>
      </trkpt>
      <trkpt lat="44.88126" lon="5.44623">
        <ele>1364.25</ele>
        <time>2011-04-23T13:20:03Z</time>
      </trkpt>
      <trkpt lat="44.88125" lon="5.44626">
        <ele>1363.77</ele>
        <time>2011-04-23T13:20:04Z</time>
      </trkpt>
      <trkpt lat="44.88123" lon="5.44627">
        <ele>1363.77</ele>
        <time>2011-04-23T13:20:05Z</time>
      </trkpt>
      <trkpt lat="44.88121" lon="5.44628">
        <ele>1363.77</ele>
        <time>2011-04-23T13:20:06Z</time>
      </trkpt>
      <trkpt lat="44.88119" lon="5.44629">
        <ele>1364.25</ele>
        <time>2011-04-23T13:20:07Z</time>
      </trkpt>
      <trkpt lat="44.88117" lon="5.4463">
        <ele>1364.25</ele>
        <time>2011-04-23T13:20:08Z</time>
      </trkpt>
      <trkpt lat="44.88115" lon="5.44631">
        <ele>1364.25</ele>
        <time>2011-04-23T13:20:09Z</time>
      </trkpt>
      <trkpt lat="44.88087" lon="5.4466">
        <ele>1364.73</ele>
        <time>2011-04-23T13:20:24Z</time>
      </trkpt>
      <trkpt lat="44.88069" lon="5.44681">
        <ele>1365.21</ele>
        <time>2011-04-23T13:20:36Z</time>
      </trkpt>
      <trkpt lat="44.88056" lon="5.44707">
        <ele>1366.17</ele>
        <time>2011-04-23T13:20:47Z</time>
      </trkpt>
      <trkpt lat="44.88047" lon="5.44744">
        <ele>1367.61</ele>
        <time>2011-04-23T13:21:00Z</time>
      </trkpt>
      <trkpt lat="44.88046" lon="5.44749">
        <ele>1368.09</ele>
        <time>2011-04-23T13:21:02Z</time>
      </trkpt>
      <trkpt lat="44.88044" lon="5.44752">
        <ele>1367.61</ele>
        <time>2011-04-23T13:21:03Z</time>
      </trkpt>
      <trkpt lat="44.88043" lon="5.44754">
        <ele>1368.09</ele>
        <time>2011-04-23T13:21:04Z</time>
      </trkpt>
      <trkpt lat="44.88042" lon="5.44756">
        <ele>1367.61</ele>
        <time>2011-04-23T13:21:05Z</time>
      </trkpt>
      <trkpt lat="44.88041" lon="5.44758">
        <ele>1368.09</ele>
        <time>2011-04-23T13:21:06Z</time>
      </trkpt>
      <trkpt lat="44.88012" lon="5.44773">
        <ele>1369.54</ele>
        <time>2011-04-23T13:21:21Z</time>
      </trkpt>
      <trkpt lat="44.87984" lon="5.44789">
        <ele>1370.02</ele>
        <time>2011-04-23T13:21:36Z</time>
      </trkpt>
      <trkpt lat="44.87982" lon="5.44791">
        <ele>1370.5</ele>
        <time>2011-04-23T13:21:37Z</time>
      </trkpt>
      <trkpt lat="44.87982" lon="5.44792">
        <ele>1370.98</ele>
        <time>2011-04-23T13:21:38Z</time>
      </trkpt>
      <trkpt lat="44.87981" lon="5.44794">
        <ele>1370.98</ele>
        <time>2011-04-23T13:21:39Z</time>
      </trkpt>
      <trkpt lat="44.8798" lon="5.44795">
        <ele>1371.46</ele>
        <time>2011-04-23T13:21:40Z</time>
      </trkpt>
      <trkpt lat="44.8798" lon="5.44797">
        <ele>1371.46</ele>
        <time>2011-04-23T13:21:41Z</time>
      </trkpt>
      <trkpt lat="44.8798" lon="5.44799">
        <ele>1371.46</ele>
        <time>2011-04-23T13:21:42Z</time>
      </trkpt>
      <trkpt lat="44.87979" lon="5.448">
        <ele>1371.94</ele>
        <time>2011-04-23T13:21:43Z</time>
      </trkpt>
      <trkpt lat="44.87983" lon="5.44817">
        <ele>1372.9</ele>
        <time>2011-04-23T13:21:53Z</time>
      </trkpt>
      <trkpt lat="44.87984" lon="5.44844">
        <ele>1374.34</ele>
        <time>2011-04-23T13:22:06Z</time>
      </trkpt>
      <trkpt lat="44.87984" lon="5.44845">
        <ele>1374.34</ele>
        <time>2011-04-23T13:22:07Z</time>
      </trkpt>
      <trkpt lat="44.87983" lon="5.44847">
        <ele>1374.82</ele>
        <time>2011-04-23T13:22:08Z</time>
      </trkpt>
      <trkpt lat="44.87983" lon="5.44849">
        <ele>1374.82</ele>
        <time>2011-04-23T13:22:09Z</time>
      </trkpt>
      <trkpt lat="44.87982" lon="5.44851">
        <ele>1374.82</ele>
        <time>2011-04-23T13:22:10Z</time>
      </trkpt>
      <trkpt lat="44.87982" lon="5.44853">
        <ele>1374.82</ele>
        <time>2011-04-23T13:22:11Z</time>
      </trkpt>
      <trkpt lat="44.87981" lon="5.44855">
        <ele>1375.3</ele>
        <time>2011-04-23T13:22:12Z</time>
      </trkpt>
      <trkpt lat="44.8798" lon="5.44856">
        <ele>1375.3</ele>
        <time>2011-04-23T13:22:13Z</time>
      </trkpt>
      <trkpt lat="44.87979" lon="5.44858">
        <ele>1375.3</ele>
        <time>2011-04-23T13:22:14Z</time>
      </trkpt>
      <trkpt lat="44.87978" lon="5.4486">
        <ele>1375.3</ele>
        <time>2011-04-23T13:22:15Z</time>
      </trkpt>
      <trkpt lat="44.87977" lon="5.44862">
        <ele>1375.3</ele>
        <time>2011-04-23T13:22:16Z</time>
      </trkpt>
      <trkpt lat="44.87976" lon="5.44864">
        <ele>1375.3</ele>
        <time>2011-04-23T13:22:17Z</time>
      </trkpt>
      <trkpt lat="44.87975" lon="5.44865">
        <ele>1375.78</ele>
        <time>2011-04-23T13:22:18Z</time>
      </trkpt>
      <trkpt lat="44.87974" lon="5.44865">
        <ele>1375.78</ele>
        <time>2011-04-23T13:22:19Z</time>
      </trkpt>
      <trkpt lat="44.87972" lon="5.44865">
        <ele>1375.78</ele>
        <time>2011-04-23T13:22:20Z</time>
      </trkpt>
      <trkpt lat="44.87971" lon="5.44864">
        <ele>1375.78</ele>
        <time>2011-04-23T13:22:21Z</time>
      </trkpt>
      <trkpt lat="44.8797" lon="5.44863">
        <ele>1376.26</ele>
        <time>2011-04-23T13:22:22Z</time>
      </trkpt>
      <trkpt lat="44.87969" lon="5.44863">
        <ele>1376.26</ele>
        <time>2011-04-23T13:22:23Z</time>
      </trkpt>
      <trkpt lat="44.87963" lon="5.44859">
        <ele>1377.23</ele>
        <time>2011-04-23T13:22:28Z</time>
      </trkpt>
      <trkpt lat="44.87953" lon="5.44858">
        <ele>1378.19</ele>
        <time>2011-04-23T13:22:35Z</time>
      </trkpt>
      <trkpt lat="44.87951" lon="5.44858">
        <ele>1378.19</ele>
        <time>2011-04-23T13:22:36Z</time>
      </trkpt>
      <trkpt lat="44.8795" lon="5.44859">
        <ele>1378.67</ele>
        <time>2011-04-23T13:22:37Z</time>
      </trkpt>
      <trkpt lat="44.87949" lon="5.44861">
        <ele>1378.67</ele>
        <time>2011-04-23T13:22:38Z</time>
      </trkpt>
      <trkpt lat="44.87948" lon="5.44862">
        <ele>1378.67</ele>
        <time>2011-04-23T13:22:39Z</time>
      </trkpt>
      <trkpt lat="44.87947" lon="5.44863">
        <ele>1378.67</ele>
        <time>2011-04-23T13:22:40Z</time>
      </trkpt>
      <trkpt lat="44.87946" lon="5.44864">
        <ele>1379.15</ele>
        <time>2011-04-23T13:22:41Z</time>
      </trkpt>
      <trkpt lat="44.87945" lon="5.44865">
        <ele>1379.15</ele>
        <time>2011-04-23T13:22:42Z</time>
      </trkpt>
      <trkpt lat="44.87944" lon="5.44867">
        <ele>1379.15</ele>
        <time>2011-04-23T13:22:43Z</time>
      </trkpt>
      <trkpt lat="44.87939" lon="5.44881">
        <ele>1380.11</ele>
        <time>2011-04-23T13:22:51Z</time>
      </trkpt>
      <trkpt lat="44.87939" lon="5.44884">
        <ele>1380.59</ele>
        <time>2011-04-23T13:22:52Z</time>
      </trkpt>
      <trkpt lat="44.87936" lon="5.4489">
        <ele>1380.59</ele>
        <time>2011-04-23T13:22:56Z</time>
      </trkpt>
      <trkpt lat="44.87936" lon="5.44891">
        <ele>1381.07</ele>
        <time>2011-04-23T13:22:57Z</time>
      </trkpt>
      <trkpt lat="44.87935" lon="5.44894">
        <ele>1381.07</ele>
        <time>2011-04-23T13:22:58Z</time>
      </trkpt>
      <trkpt lat="44.87935" lon="5.44896">
        <ele>1381.07</ele>
        <time>2011-04-23T13:22:59Z</time>
      </trkpt>
      <trkpt lat="44.87935" lon="5.44898">
        <ele>1381.55</ele>
        <time>2011-04-23T13:23:00Z</time>
      </trkpt>
      <trkpt lat="44.87934" lon="5.449">
        <ele>1381.55</ele>
        <time>2011-04-23T13:23:01Z</time>
      </trkpt>
      <trkpt lat="44.87934" lon="5.44902">
        <ele>1381.55</ele>
        <time>2011-04-23T13:23:02Z</time>
      </trkpt>
      <trkpt lat="44.87934" lon="5.44904">
        <ele>1381.55</ele>
        <time>2011-04-23T13:23:03Z</time>
      </trkpt>
      <trkpt lat="44.87934" lon="5.44906">
        <ele>1381.55</ele>
        <time>2011-04-23T13:23:04Z</time>
      </trkpt>
      <trkpt lat="44.87933" lon="5.44908">
        <ele>1382.03</ele>
        <time>2011-04-23T13:23:05Z</time>
      </trkpt>
      <trkpt lat="44.87932" lon="5.44909">
        <ele>1382.03</ele>
        <time>2011-04-23T13:23:06Z</time>
      </trkpt>
      <trkpt lat="44.8793" lon="5.44915">
        <ele>1382.03</ele>
        <time>2011-04-23T13:23:09Z</time>
      </trkpt>
      <trkpt lat="44.87925" lon="5.44943">
        <ele>1383.96</ele>
        <time>2011-04-23T13:23:21Z</time>
      </trkpt>
      <trkpt lat="44.87924" lon="5.44967">
        <ele>1386.36</ele>
        <time>2011-04-23T13:23:33Z</time>
      </trkpt>
      <trkpt lat="44.87924" lon="5.44988">
        <ele>1387.32</ele>
        <time>2011-04-23T13:23:43Z</time>
      </trkpt>
      <trkpt lat="44.87913" lon="5.45015">
        <ele>1389.72</ele>
        <time>2011-04-23T13:23:57Z</time>
      </trkpt>
      <trkpt lat="44.87905" lon="5.45042">
        <ele>1391.65</ele>
        <time>2011-04-23T13:24:11Z</time>
      </trkpt>
      <trkpt lat="44.8789" lon="5.45045">
        <ele>1393.09</ele>
        <time>2011-04-23T13:24:23Z</time>
      </trkpt>
      <trkpt lat="44.87877" lon="5.45046">
        <ele>1394.53</ele>
        <time>2011-04-23T13:24:32Z</time>
      </trkpt>
      <trkpt lat="44.87876" lon="5.45045">
        <ele>1394.53</ele>
        <time>2011-04-23T13:24:33Z</time>
      </trkpt>
      <trkpt lat="44.87875" lon="5.45045">
        <ele>1394.53</ele>
        <time>2011-04-23T13:24:34Z</time>
      </trkpt>
      <trkpt lat="44.87873" lon="5.45045">
        <ele>1394.53</ele>
        <time>2011-04-23T13:24:35Z</time>
      </trkpt>
      <trkpt lat="44.87872" lon="5.45045">
        <ele>1395.49</ele>
        <time>2011-04-23T13:24:36Z</time>
      </trkpt>
      <trkpt lat="44.8787" lon="5.45044">
        <ele>1395.49</ele>
        <time>2011-04-23T13:24:37Z</time>
      </trkpt>
      <trkpt lat="44.87869" lon="5.45044">
        <ele>1395.49</ele>
        <time>2011-04-23T13:24:38Z</time>
      </trkpt>
      <trkpt lat="44.87868" lon="5.45044">
        <ele>1395.49</ele>
        <time>2011-04-23T13:24:39Z</time>
      </trkpt>
      <trkpt lat="44.87866" lon="5.45043">
        <ele>1395.97</ele>
        <time>2011-04-23T13:24:40Z</time>
      </trkpt>
      <trkpt lat="44.87865" lon="5.45043">
        <ele>1396.45</ele>
        <time>2011-04-23T13:24:41Z</time>
      </trkpt>
      <trkpt lat="44.87853" lon="5.45041">
        <ele>1396.93</ele>
        <time>2011-04-23T13:24:49Z</time>
      </trkpt>
      <trkpt lat="44.87851" lon="5.45042">
        <ele>1397.41</ele>
        <time>2011-04-23T13:24:50Z</time>
      </trkpt>
      <trkpt lat="44.87849" lon="5.45043">
        <ele>1397.41</ele>
        <time>2011-04-23T13:24:52Z</time>
      </trkpt>
      <trkpt lat="44.87847" lon="5.45045">
        <ele>1397.41</ele>
        <time>2011-04-23T13:24:53Z</time>
      </trkpt>
      <trkpt lat="44.87846" lon="5.45046">
        <ele>1397.41</ele>
        <time>2011-04-23T13:24:54Z</time>
      </trkpt>
      <trkpt lat="44.87845" lon="5.45048">
        <ele>1397.89</ele>
        <time>2011-04-23T13:24:55Z</time>
      </trkpt>
      <trkpt lat="44.87844" lon="5.4505">
        <ele>1397.89</ele>
        <time>2011-04-23T13:24:56Z</time>
      </trkpt>
      <trkpt lat="44.87844" lon="5.45051">
        <ele>1398.37</ele>
        <time>2011-04-23T13:24:57Z</time>
      </trkpt>
      <trkpt lat="44.87843" lon="5.45053">
        <ele>1398.37</ele>
        <time>2011-04-23T13:24:58Z</time>
      </trkpt>
      <trkpt lat="44.87843" lon="5.45055">
        <ele>1398.37</ele>
        <time>2011-04-23T13:24:59Z</time>
      </trkpt>
      <trkpt lat="44.87842" lon="5.45056">
        <ele>1398.86</ele>
        <time>2011-04-23T13:25:00Z</time>
      </trkpt>
      <trkpt lat="44.87842" lon="5.45058">
        <ele>1398.86</ele>
        <time>2011-04-23T13:25:01Z</time>
      </trkpt>
      <trkpt lat="44.87838" lon="5.45087">
        <ele>1400.78</ele>
        <time>2011-04-23T13:25:15Z</time>
      </trkpt>
      <trkpt lat="44.87835" lon="5.45103">
        <ele>1401.74</ele>
        <time>2011-04-23T13:25:23Z</time>
      </trkpt>
      <trkpt lat="44.87834" lon="5.45104">
        <ele>1401.74</ele>
        <time>2011-04-23T13:25:24Z</time>
      </trkpt>
      <trkpt lat="44.87833" lon="5.45106">
        <ele>1401.74</ele>
        <time>2011-04-23T13:25:25Z</time>
      </trkpt>
      <trkpt lat="44.87826" lon="5.45114">
        <ele>1402.7</ele>
        <time>2011-04-23T13:25:31Z</time>
      </trkpt>
      <trkpt lat="44.87825" lon="5.45115">
        <ele>1403.18</ele>
        <time>2011-04-23T13:25:32Z</time>
      </trkpt>
      <trkpt lat="44.87824" lon="5.45116">
        <ele>1403.18</ele>
        <time>2011-04-23T13:25:33Z</time>
      </trkpt>
      <trkpt lat="44.87824" lon="5.45118">
        <ele>1403.18</ele>
        <time>2011-04-23T13:25:34Z</time>
      </trkpt>
      <trkpt lat="44.87823" lon="5.45119">
        <ele>1403.18</ele>
        <time>2011-04-23T13:25:35Z</time>
      </trkpt>
      <trkpt lat="44.87822" lon="5.45121">
        <ele>1403.18</ele>
        <time>2011-04-23T13:25:36Z</time>
      </trkpt>
      <trkpt lat="44.87821" lon="5.45123">
        <ele>1403.66</ele>
        <time>2011-04-23T13:25:37Z</time>
      </trkpt>
      <trkpt lat="44.8782" lon="5.45124">
        <ele>1403.66</ele>
        <time>2011-04-23T13:25:38Z</time>
      </trkpt>
      <trkpt lat="44.87805" lon="5.45145">
        <ele>1405.58</ele>
        <time>2011-04-23T13:25:52Z</time>
      </trkpt>
      <trkpt lat="44.87804" lon="5.45147">
        <ele>1406.07</ele>
        <time>2011-04-23T13:25:53Z</time>
      </trkpt>
      <trkpt lat="44.87804" lon="5.45148">
        <ele>1406.07</ele>
        <time>2011-04-23T13:25:54Z</time>
      </trkpt>
      <trkpt lat="44.87803" lon="5.4515">
        <ele>1406.07</ele>
        <time>2011-04-23T13:25:55Z</time>
      </trkpt>
      <trkpt lat="44.87802" lon="5.45151">
        <ele>1406.07</ele>
        <time>2011-04-23T13:25:56Z</time>
      </trkpt>
      <trkpt lat="44.87801" lon="5.45153">
        <ele>1406.55</ele>
        <time>2011-04-23T13:25:57Z</time>
      </trkpt>
      <trkpt lat="44.878" lon="5.45155">
        <ele>1406.55</ele>
        <time>2011-04-23T13:25:58Z</time>
      </trkpt>
      <trkpt lat="44.878" lon="5.45157">
        <ele>1407.03</ele>
        <time>2011-04-23T13:25:59Z</time>
      </trkpt>
      <trkpt lat="44.87799" lon="5.45159">
        <ele>1407.03</ele>
        <time>2011-04-23T13:26:00Z</time>
      </trkpt>
      <trkpt lat="44.87798" lon="5.45161">
        <ele>1407.51</ele>
        <time>2011-04-23T13:26:01Z</time>
      </trkpt>
      <trkpt lat="44.87797" lon="5.45162">
        <ele>1407.51</ele>
        <time>2011-04-23T13:26:02Z</time>
      </trkpt>
      <trkpt lat="44.87796" lon="5.45164">
        <ele>1407.51</ele>
        <time>2011-04-23T13:26:03Z</time>
      </trkpt>
      <trkpt lat="44.87794" lon="5.45166">
        <ele>1407.51</ele>
        <time>2011-04-23T13:26:04Z</time>
      </trkpt>
      <trkpt lat="44.87793" lon="5.45167">
        <ele>1407.51</ele>
        <time>2011-04-23T13:26:05Z</time>
      </trkpt>
      <trkpt lat="44.87792" lon="5.45169">
        <ele>1407.99</ele>
        <time>2011-04-23T13:26:06Z</time>
      </trkpt>
      <trkpt lat="44.87789" lon="5.45175">
        <ele>1408.95</ele>
        <time>2011-04-23T13:26:10Z</time>
      </trkpt>
      <trkpt lat="44.87789" lon="5.45176">
        <ele>1408.47</ele>
        <time>2011-04-23T13:26:11Z</time>
      </trkpt>
      <trkpt lat="44.87788" lon="5.45178">
        <ele>1408.47</ele>
        <time>2011-04-23T13:26:12Z</time>
      </trkpt>
      <trkpt lat="44.87786" lon="5.45179">
        <ele>1408.95</ele>
        <time>2011-04-23T13:26:13Z</time>
      </trkpt>
      <trkpt lat="44.87785" lon="5.4518">
        <ele>1408.47</ele>
        <time>2011-04-23T13:26:14Z</time>
      </trkpt>
      <trkpt lat="44.87784" lon="5.45182">
        <ele>1408.47</ele>
        <time>2011-04-23T13:26:15Z</time>
      </trkpt>
      <trkpt lat="44.87783" lon="5.45183">
        <ele>1408.47</ele>
        <time>2011-04-23T13:26:16Z</time>
      </trkpt>
      <trkpt lat="44.87783" lon="5.45185">
        <ele>1408.47</ele>
        <time>2011-04-23T13:26:17Z</time>
      </trkpt>
      <trkpt lat="44.8779" lon="5.45218">
        <ele>1409.43</ele>
        <time>2011-04-23T13:26:32Z</time>
      </trkpt>
      <trkpt lat="44.878" lon="5.45257">
        <ele>1409.91</ele>
        <time>2011-04-23T13:26:47Z</time>
      </trkpt>
      <trkpt lat="44.87807" lon="5.45291">
        <ele>1410.39</ele>
        <time>2011-04-23T13:26:59Z</time>
      </trkpt>
      <trkpt lat="44.8781" lon="5.4534">
        <ele>1410.39</ele>
        <time>2011-04-23T13:27:15Z</time>
      </trkpt>
      <trkpt lat="44.87805" lon="5.45381">
        <ele>1410.87</ele>
        <time>2011-04-23T13:27:29Z</time>
      </trkpt>
      <trkpt lat="44.87804" lon="5.45384">
        <ele>1410.87</ele>
        <time>2011-04-23T13:27:30Z</time>
      </trkpt>
      <trkpt lat="44.87803" lon="5.45387">
        <ele>1411.35</ele>
        <time>2011-04-23T13:27:31Z</time>
      </trkpt>
      <trkpt lat="44.87803" lon="5.4539">
        <ele>1411.35</ele>
        <time>2011-04-23T13:27:32Z</time>
      </trkpt>
      <trkpt lat="44.87801" lon="5.45402">
        <ele>1411.35</ele>
        <time>2011-04-23T13:27:36Z</time>
      </trkpt>
      <trkpt lat="44.87801" lon="5.45404">
        <ele>1412.31</ele>
        <time>2011-04-23T13:27:37Z</time>
      </trkpt>
      <trkpt lat="44.878" lon="5.45407">
        <ele>1411.83</ele>
        <time>2011-04-23T13:27:38Z</time>
      </trkpt>
      <trkpt lat="44.878" lon="5.4541">
        <ele>1411.83</ele>
        <time>2011-04-23T13:27:39Z</time>
      </trkpt>
      <trkpt lat="44.878" lon="5.45413">
        <ele>1412.31</ele>
        <time>2011-04-23T13:27:40Z</time>
      </trkpt>
      <trkpt lat="44.87799" lon="5.45415">
        <ele>1412.31</ele>
        <time>2011-04-23T13:27:41Z</time>
      </trkpt>
      <trkpt lat="44.87799" lon="5.45417">
        <ele>1412.79</ele>
        <time>2011-04-23T13:27:42Z</time>
      </trkpt>
      <trkpt lat="44.87799" lon="5.4542">
        <ele>1412.79</ele>
        <time>2011-04-23T13:27:44Z</time>
      </trkpt>
      <trkpt lat="44.87798" lon="5.45421">
        <ele>1412.79</ele>
        <time>2011-04-23T13:27:45Z</time>
      </trkpt>
      <trkpt lat="44.87802" lon="5.45445">
        <ele>1415.2</ele>
        <time>2011-04-23T13:27:58Z</time>
      </trkpt>
      <trkpt lat="44.87803" lon="5.45466">
        <ele>1416.64</ele>
        <time>2011-04-23T13:28:07Z</time>
      </trkpt>
      <trkpt lat="44.87802" lon="5.45468">
        <ele>1416.64</ele>
        <time>2011-04-23T13:28:08Z</time>
      </trkpt>
      <trkpt lat="44.87802" lon="5.4547">
        <ele>1417.12</ele>
        <time>2011-04-23T13:28:09Z</time>
      </trkpt>
      <trkpt lat="44.87801" lon="5.45472">
        <ele>1416.64</ele>
        <time>2011-04-23T13:28:10Z</time>
      </trkpt>
      <trkpt lat="44.87801" lon="5.45474">
        <ele>1417.12</ele>
        <time>2011-04-23T13:28:11Z</time>
      </trkpt>
      <trkpt lat="44.87795" lon="5.45483">
        <ele>1418.08</ele>
        <time>2011-04-23T13:28:16Z</time>
      </trkpt>
      <trkpt lat="44.87794" lon="5.45485">
        <ele>1418.08</ele>
        <time>2011-04-23T13:28:17Z</time>
      </trkpt>
      <trkpt lat="44.87794" lon="5.45488">
        <ele>1418.08</ele>
        <time>2011-04-23T13:28:18Z</time>
      </trkpt>
      <trkpt lat="44.87786" lon="5.45502">
        <ele>1419.04</ele>
        <time>2011-04-23T13:28:26Z</time>
      </trkpt>
      <trkpt lat="44.87785" lon="5.45504">
        <ele>1419.52</ele>
        <time>2011-04-23T13:28:27Z</time>
      </trkpt>
      <trkpt lat="44.87784" lon="5.45505">
        <ele>1420</ele>
        <time>2011-04-23T13:28:28Z</time>
      </trkpt>
      <trkpt lat="44.87783" lon="5.45507">
        <ele>1420</ele>
        <time>2011-04-23T13:28:29Z</time>
      </trkpt>
      <trkpt lat="44.87782" lon="5.45509">
        <ele>1420</ele>
        <time>2011-04-23T13:28:30Z</time>
      </trkpt>
      <trkpt lat="44.8778" lon="5.45511">
        <ele>1420</ele>
        <time>2011-04-23T13:28:31Z</time>
      </trkpt>
      <trkpt lat="44.87779" lon="5.45513">
        <ele>1420.49</ele>
        <time>2011-04-23T13:28:32Z</time>
      </trkpt>
      <trkpt lat="44.87778" lon="5.45515">
        <ele>1420</ele>
        <time>2011-04-23T13:28:33Z</time>
      </trkpt>
      <trkpt lat="44.87775" lon="5.45521">
        <ele>1420.97</ele>
        <time>2011-04-23T13:28:37Z</time>
      </trkpt>
      <trkpt lat="44.87774" lon="5.45523">
        <ele>1421.45</ele>
        <time>2011-04-23T13:28:38Z</time>
      </trkpt>
      <trkpt lat="44.87774" lon="5.45525">
        <ele>1420.97</ele>
        <time>2011-04-23T13:28:39Z</time>
      </trkpt>
      <trkpt lat="44.87774" lon="5.45527">
        <ele>1421.45</ele>
        <time>2011-04-23T13:28:40Z</time>
      </trkpt>
      <trkpt lat="44.87773" lon="5.45529">
        <ele>1421.45</ele>
        <time>2011-04-23T13:28:41Z</time>
      </trkpt>
      <trkpt lat="44.87773" lon="5.45531">
        <ele>1422.41</ele>
        <time>2011-04-23T13:28:42Z</time>
      </trkpt>
      <trkpt lat="44.87773" lon="5.45533">
        <ele>1421.93</ele>
        <time>2011-04-23T13:28:43Z</time>
      </trkpt>
      <trkpt lat="44.87772" lon="5.45534">
        <ele>1422.41</ele>
        <time>2011-04-23T13:28:44Z</time>
      </trkpt>
      <trkpt lat="44.87765" lon="5.45563">
        <ele>1424.81</ele>
        <time>2011-04-23T13:28:59Z</time>
      </trkpt>
      <trkpt lat="44.87764" lon="5.45564">
        <ele>1424.33</ele>
        <time>2011-04-23T13:29:00Z</time>
      </trkpt>
      <trkpt lat="44.87759" lon="5.45591">
        <ele>1426.73</ele>
        <time>2011-04-23T13:29:15Z</time>
      </trkpt>
      <trkpt lat="44.87757" lon="5.45595">
        <ele>1427.21</ele>
        <time>2011-04-23T13:29:31Z</time>
      </trkpt>
      <trkpt lat="44.87754" lon="5.45601">
        <ele>1427.21</ele>
        <time>2011-04-23T13:29:51Z</time>
      </trkpt>
      <trkpt lat="44.87738" lon="5.45631">
        <ele>1429.62</ele>
        <time>2011-04-23T13:30:09Z</time>
      </trkpt>
      <trkpt lat="44.87725" lon="5.4565">
        <ele>1431.54</ele>
        <time>2011-04-23T13:30:21Z</time>
      </trkpt>
      <trkpt lat="44.87714" lon="5.45678">
        <ele>1433.46</ele>
        <time>2011-04-23T13:30:36Z</time>
      </trkpt>
      <trkpt lat="44.8771" lon="5.45693">
        <ele>1434.42</ele>
        <time>2011-04-23T13:30:43Z</time>
      </trkpt>
      <trkpt lat="44.8771" lon="5.45695">
        <ele>1434.91</ele>
        <time>2011-04-23T13:30:44Z</time>
      </trkpt>
      <trkpt lat="44.8771" lon="5.45697">
        <ele>1434.91</ele>
        <time>2011-04-23T13:30:45Z</time>
      </trkpt>
      <trkpt lat="44.87705" lon="5.45726">
        <ele>1436.83</ele>
        <time>2011-04-23T13:30:59Z</time>
      </trkpt>
      <trkpt lat="44.87705" lon="5.45728">
        <ele>1437.31</ele>
        <time>2011-04-23T13:31:00Z</time>
      </trkpt>
      <trkpt lat="44.87705" lon="5.4573">
        <ele>1436.83</ele>
        <time>2011-04-23T13:31:01Z</time>
      </trkpt>
      <trkpt lat="44.87704" lon="5.45732">
        <ele>1436.83</ele>
        <time>2011-04-23T13:31:02Z</time>
      </trkpt>
      <trkpt lat="44.87704" lon="5.45734">
        <ele>1437.31</ele>
        <time>2011-04-23T13:31:03Z</time>
      </trkpt>
      <trkpt lat="44.87696" lon="5.45767">
        <ele>1437.31</ele>
        <time>2011-04-23T13:31:19Z</time>
      </trkpt>
      <trkpt lat="44.87684" lon="5.458">
        <ele>1438.27</ele>
        <time>2011-04-23T13:31:36Z</time>
      </trkpt>
      <trkpt lat="44.87668" lon="5.45816">
        <ele>1438.75</ele>
        <time>2011-04-23T13:31:47Z</time>
      </trkpt>
      <trkpt lat="44.8765" lon="5.45843">
        <ele>1440.19</ele>
        <time>2011-04-23T13:32:03Z</time>
      </trkpt>
      <trkpt lat="44.87645" lon="5.4585">
        <ele>1440.67</ele>
        <time>2011-04-23T13:32:07Z</time>
      </trkpt>
      <trkpt lat="44.87644" lon="5.45852">
        <ele>1440.67</ele>
        <time>2011-04-23T13:32:08Z</time>
      </trkpt>
      <trkpt lat="44.87643" lon="5.45853">
        <ele>1440.67</ele>
        <time>2011-04-23T13:32:09Z</time>
      </trkpt>
      <trkpt lat="44.87639" lon="5.45862">
        <ele>1441.15</ele>
        <time>2011-04-23T13:32:14Z</time>
      </trkpt>
      <trkpt lat="44.87638" lon="5.45863">
        <ele>1441.15</ele>
        <time>2011-04-23T13:32:15Z</time>
      </trkpt>
      <trkpt lat="44.87638" lon="5.45865">
        <ele>1441.63</ele>
        <time>2011-04-23T13:32:16Z</time>
      </trkpt>
      <trkpt lat="44.87637" lon="5.45866">
        <ele>1441.15</ele>
        <time>2011-04-23T13:32:17Z</time>
      </trkpt>
      <trkpt lat="44.87636" lon="5.45868">
        <ele>1441.63</ele>
        <time>2011-04-23T13:32:18Z</time>
      </trkpt>
      <trkpt lat="44.87635" lon="5.4587">
        <ele>1442.11</ele>
        <time>2011-04-23T13:32:19Z</time>
      </trkpt>
      <trkpt lat="44.87634" lon="5.45872">
        <ele>1441.63</ele>
        <time>2011-04-23T13:32:20Z</time>
      </trkpt>
      <trkpt lat="44.87633" lon="5.45873">
        <ele>1442.11</ele>
        <time>2011-04-23T13:32:21Z</time>
      </trkpt>
      <trkpt lat="44.87632" lon="5.45874">
        <ele>1442.6</ele>
        <time>2011-04-23T13:32:22Z</time>
      </trkpt>
      <trkpt lat="44.87631" lon="5.45876">
        <ele>1442.11</ele>
        <time>2011-04-23T13:32:23Z</time>
      </trkpt>
      <trkpt lat="44.87615" lon="5.45908">
        <ele>1445</ele>
        <time>2011-04-23T13:32:41Z</time>
      </trkpt>
      <trkpt lat="44.87605" lon="5.45942">
        <ele>1447.4</ele>
        <time>2011-04-23T13:32:58Z</time>
      </trkpt>
      <trkpt lat="44.87592" lon="5.4597">
        <ele>1449.81</ele>
        <time>2011-04-23T13:33:14Z</time>
      </trkpt>
      <trkpt lat="44.87578" lon="5.45995">
        <ele>1451.25</ele>
        <time>2011-04-23T13:33:28Z</time>
      </trkpt>
      <trkpt lat="44.8757" lon="5.46004">
        <ele>1452.21</ele>
        <time>2011-04-23T13:33:35Z</time>
      </trkpt>
      <trkpt lat="44.87569" lon="5.46006">
        <ele>1452.21</ele>
        <time>2011-04-23T13:33:36Z</time>
      </trkpt>
      <trkpt lat="44.87568" lon="5.46008">
        <ele>1452.69</ele>
        <time>2011-04-23T13:33:37Z</time>
      </trkpt>
      <trkpt lat="44.87566" lon="5.4601">
        <ele>1452.69</ele>
        <time>2011-04-23T13:33:38Z</time>
      </trkpt>
      <trkpt lat="44.87565" lon="5.46011">
        <ele>1452.69</ele>
        <time>2011-04-23T13:33:39Z</time>
      </trkpt>
      <trkpt lat="44.87564" lon="5.46014">
        <ele>1452.69</ele>
        <time>2011-04-23T13:33:40Z</time>
      </trkpt>
      <trkpt lat="44.87563" lon="5.46016">
        <ele>1452.69</ele>
        <time>2011-04-23T13:33:41Z</time>
      </trkpt>
      <trkpt lat="44.87557" lon="5.46024">
        <ele>1453.17</ele>
        <time>2011-04-23T13:33:54Z</time>
      </trkpt>
      <trkpt lat="44.87557" lon="5.46025">
        <ele>1453.17</ele>
        <time>2011-04-23T13:34:08Z</time>
      </trkpt>
      <trkpt lat="44.87545" lon="5.46051">
        <ele>1454.13</ele>
        <time>2011-04-23T13:34:23Z</time>
      </trkpt>
      <trkpt lat="44.87527" lon="5.4608">
        <ele>1454.61</ele>
        <time>2011-04-23T13:34:39Z</time>
      </trkpt>
      <trkpt lat="44.87518" lon="5.46093">
        <ele>1455.57</ele>
        <time>2011-04-23T13:34:52Z</time>
      </trkpt>
      <trkpt lat="44.87502" lon="5.46119">
        <ele>1456.05</ele>
        <time>2011-04-23T13:35:07Z</time>
      </trkpt>
      <trkpt lat="44.8749" lon="5.46147">
        <ele>1456.53</ele>
        <time>2011-04-23T13:35:19Z</time>
      </trkpt>
      <trkpt lat="44.87475" lon="5.46187">
        <ele>1458.46</ele>
        <time>2011-04-23T13:35:35Z</time>
      </trkpt>
      <trkpt lat="44.87454" lon="5.4622">
        <ele>1458.94</ele>
        <time>2011-04-23T13:35:50Z</time>
      </trkpt>
      <trkpt lat="44.87442" lon="5.46254">
        <ele>1460.38</ele>
        <time>2011-04-23T13:36:03Z</time>
      </trkpt>
      <trkpt lat="44.87423" lon="5.4629">
        <ele>1461.34</ele>
        <time>2011-04-23T13:36:18Z</time>
      </trkpt>
      <trkpt lat="44.87397" lon="5.4633">
        <ele>1462.3</ele>
        <time>2011-04-23T13:36:36Z</time>
      </trkpt>
      <trkpt lat="44.87378" lon="5.46368">
        <ele>1462.78</ele>
        <time>2011-04-23T13:36:52Z</time>
      </trkpt>
      <trkpt lat="44.87363" lon="5.46408">
        <ele>1464.23</ele>
        <time>2011-04-23T13:37:08Z</time>
      </trkpt>
      <trkpt lat="44.87351" lon="5.46448">
        <ele>1465.19</ele>
        <time>2011-04-23T13:37:23Z</time>
      </trkpt>
      <trkpt lat="44.87345" lon="5.4647">
        <ele>1465.67</ele>
        <time>2011-04-23T13:37:34Z</time>
      </trkpt>
      <trkpt lat="44.87333" lon="5.4651">
        <ele>1465.67</ele>
        <time>2011-04-23T13:37:47Z</time>
      </trkpt>
      <trkpt lat="44.87328" lon="5.46533">
        <ele>1465.67</ele>
        <time>2011-04-23T13:37:59Z</time>
      </trkpt>
      <trkpt lat="44.8732" lon="5.46578">
        <ele>1464.23</ele>
        <time>2011-04-23T13:38:11Z</time>
      </trkpt>
      <trkpt lat="44.87312" lon="5.46642">
        <ele>1465.19</ele>
        <time>2011-04-23T13:38:27Z</time>
      </trkpt>
      <trkpt lat="44.87301" lon="5.46686">
        <ele>1464.71</ele>
        <time>2011-04-23T13:38:40Z</time>
      </trkpt>
      <trkpt lat="44.87285" lon="5.46741">
        <ele>1465.67</ele>
        <time>2011-04-23T13:38:55Z</time>
      </trkpt>
      <trkpt lat="44.87273" lon="5.46789">
        <ele>1466.15</ele>
        <time>2011-04-23T13:39:09Z</time>
      </trkpt>
      <trkpt lat="44.87245" lon="5.46825">
        <ele>1467.59</ele>
        <time>2011-04-23T13:39:23Z</time>
      </trkpt>
      <trkpt lat="44.87212" lon="5.46871">
        <ele>1468.07</ele>
        <time>2011-04-23T13:39:40Z</time>
      </trkpt>
      <trkpt lat="44.87187" lon="5.46897">
        <ele>1469.99</ele>
        <time>2011-04-23T13:39:53Z</time>
      </trkpt>
      <trkpt lat="44.87157" lon="5.4694">
        <ele>1470.47</ele>
        <time>2011-04-23T13:40:10Z</time>
      </trkpt>
      <trkpt lat="44.87145" lon="5.46997">
        <ele>1471.44</ele>
        <time>2011-04-23T13:40:27Z</time>
      </trkpt>
      <trkpt lat="44.87132" lon="5.47051">
        <ele>1472.88</ele>
        <time>2011-04-23T13:40:43Z</time>
      </trkpt>
      <trkpt lat="44.8712" lon="5.47097">
        <ele>1474.32</ele>
        <time>2011-04-23T13:40:58Z</time>
      </trkpt>
      <trkpt lat="44.87098" lon="5.47129">
        <ele>1474.32</ele>
        <time>2011-04-23T13:41:11Z</time>
      </trkpt>
      <trkpt lat="44.87065" lon="5.4716">
        <ele>1475.76</ele>
        <time>2011-04-23T13:41:27Z</time>
      </trkpt>
      <trkpt lat="44.87063" lon="5.47164">
        <ele>1476.24</ele>
        <time>2011-04-23T13:41:39Z</time>
      </trkpt>
      <trkpt lat="44.87063" lon="5.47164">
        <ele>1468.55</ele>
        <time>2011-04-23T13:42:08Z</time>
      </trkpt>
      <trkpt lat="44.87063" lon="5.47164">
        <ele>1477.2</ele>
        <time>2011-04-23T13:42:09Z</time>
      </trkpt>
      <trkpt lat="44.87049" lon="5.47177">
        <ele>1477.2</ele>
        <time>2011-04-23T13:42:48Z</time>
      </trkpt>
      <trkpt lat="44.87026" lon="5.47203">
        <ele>1480.09</ele>
        <time>2011-04-23T13:43:04Z</time>
      </trkpt>
      <trkpt lat="44.87003" lon="5.47233">
        <ele>1482.01</ele>
        <time>2011-04-23T13:43:20Z</time>
      </trkpt>
      <trkpt lat="44.86991" lon="5.47241">
        <ele>1482.97</ele>
        <time>2011-04-23T13:43:27Z</time>
      </trkpt>
      <trkpt lat="44.86964" lon="5.47247">
        <ele>1483.93</ele>
        <time>2011-04-23T13:43:42Z</time>
      </trkpt>
      <trkpt lat="44.86944" lon="5.47277">
        <ele>1484.89</ele>
        <time>2011-04-23T13:43:57Z</time>
      </trkpt>
      <trkpt lat="44.86925" lon="5.47319">
        <ele>1486.82</ele>
        <time>2011-04-23T13:44:14Z</time>
      </trkpt>
      <trkpt lat="44.86902" lon="5.47353">
        <ele>1487.78</ele>
        <time>2011-04-23T13:44:30Z</time>
      </trkpt>
      <trkpt lat="44.86882" lon="5.47383">
        <ele>1489.7</ele>
        <time>2011-04-23T13:44:44Z</time>
      </trkpt>
      <trkpt lat="44.86862" lon="5.4741">
        <ele>1490.66</ele>
        <time>2011-04-23T13:44:57Z</time>
      </trkpt>
      <trkpt lat="44.86836" lon="5.47441">
        <ele>1491.14</ele>
        <time>2011-04-23T13:45:12Z</time>
      </trkpt>
      <trkpt lat="44.86808" lon="5.47469">
        <ele>1492.58</ele>
        <time>2011-04-23T13:45:28Z</time>
      </trkpt>
      <trkpt lat="44.86786" lon="5.47497">
        <ele>1494.99</ele>
        <time>2011-04-23T13:45:44Z</time>
      </trkpt>
      <trkpt lat="44.86764" lon="5.47526">
        <ele>1495.95</ele>
        <time>2011-04-23T13:46:00Z</time>
      </trkpt>
      <trkpt lat="44.86754" lon="5.47538">
        <ele>1496.43</ele>
        <time>2011-04-23T13:46:10Z</time>
      </trkpt>
      <trkpt lat="44.86755" lon="5.47544">
        <ele>1496.91</ele>
        <time>2011-04-23T13:46:22Z</time>
      </trkpt>
      <trkpt lat="44.86755" lon="5.47544">
        <ele>1497.39</ele>
        <time>2011-04-23T13:47:48Z</time>
      </trkpt>
      <trkpt lat="44.8675" lon="5.47548">
        <ele>1497.87</ele>
        <time>2011-04-23T13:57:41Z</time>
      </trkpt>
      <trkpt lat="44.86748" lon="5.47548">
        <ele>1497.39</ele>
        <time>2011-04-23T13:57:43Z</time>
      </trkpt>
      <trkpt lat="44.86725" lon="5.47559">
        <ele>1496.91</ele>
        <time>2011-04-23T13:57:55Z</time>
      </trkpt>
      <trkpt lat="44.86705" lon="5.4755">
        <ele>1497.87</ele>
        <time>2011-04-23T13:58:07Z</time>
      </trkpt>
      <trkpt lat="44.86675" lon="5.47528">
        <ele>1496.43</ele>
        <time>2011-04-23T13:58:19Z</time>
      </trkpt>
      <trkpt lat="44.86644" lon="5.47511">
        <ele>1495.95</ele>
        <time>2011-04-23T13:58:32Z</time>
      </trkpt>
      <trkpt lat="44.86615" lon="5.47509">
        <ele>1494.99</ele>
        <time>2011-04-23T13:58:44Z</time>
      </trkpt>
      <trkpt lat="44.86596" lon="5.47512">
        <ele>1494.03</ele>
        <time>2011-04-23T13:58:49Z</time>
      </trkpt>
      <trkpt lat="44.86592" lon="5.47515">
        <ele>1493.06</ele>
        <time>2011-04-23T13:58:50Z</time>
      </trkpt>
      <trkpt lat="44.86566" lon="5.47539">
        <ele>1494.51</ele>
        <time>2011-04-23T13:59:01Z</time>
      </trkpt>
      <trkpt lat="44.8654" lon="5.47564">
        <ele>1495.47</ele>
        <time>2011-04-23T13:59:16Z</time>
      </trkpt>
      <trkpt lat="44.86514" lon="5.47582">
        <ele>1497.39</ele>
        <time>2011-04-23T13:59:32Z</time>
      </trkpt>
      <trkpt lat="44.86482" lon="5.47586">
        <ele>1496.91</ele>
        <time>2011-04-23T13:59:47Z</time>
      </trkpt>
      <trkpt lat="44.86454" lon="5.47577">
        <ele>1497.39</ele>
        <time>2011-04-23T14:00:01Z</time>
      </trkpt>
      <trkpt lat="44.86421" lon="5.47581">
        <ele>1497.87</ele>
        <time>2011-04-23T14:00:17Z</time>
      </trkpt>
      <trkpt lat="44.86395" lon="5.47569">
        <ele>1498.35</ele>
        <time>2011-04-23T14:00:29Z</time>
      </trkpt>
      <trkpt lat="44.86374" lon="5.4754">
        <ele>1498.35</ele>
        <time>2011-04-23T14:00:42Z</time>
      </trkpt>
      <trkpt lat="44.8635" lon="5.47526">
        <ele>1499.79</ele>
        <time>2011-04-23T14:00:55Z</time>
      </trkpt>
      <trkpt lat="44.86318" lon="5.47513">
        <ele>1498.35</ele>
        <time>2011-04-23T14:01:09Z</time>
      </trkpt>
      <trkpt lat="44.86294" lon="5.47507">
        <ele>1500.27</ele>
        <time>2011-04-23T14:01:19Z</time>
      </trkpt>
      <trkpt lat="44.86267" lon="5.47517">
        <ele>1500.76</ele>
        <time>2011-04-23T14:01:33Z</time>
      </trkpt>
      <trkpt lat="44.86245" lon="5.47548">
        <ele>1501.72</ele>
        <time>2011-04-23T14:01:48Z</time>
      </trkpt>
      <trkpt lat="44.86221" lon="5.47583">
        <ele>1502.68</ele>
        <time>2011-04-23T14:02:04Z</time>
      </trkpt>
      <trkpt lat="44.862" lon="5.47601">
        <ele>1504.12</ele>
        <time>2011-04-23T14:02:17Z</time>
      </trkpt>
      <trkpt lat="44.86198" lon="5.47602">
        <ele>1504.12</ele>
        <time>2011-04-23T14:02:18Z</time>
      </trkpt>
      <trkpt lat="44.86196" lon="5.47603">
        <ele>1504.6</ele>
        <time>2011-04-23T14:02:19Z</time>
      </trkpt>
      <trkpt lat="44.86195" lon="5.47604">
        <ele>1504.6</ele>
        <time>2011-04-23T14:02:20Z</time>
      </trkpt>
      <trkpt lat="44.86193" lon="5.47605">
        <ele>1504.6</ele>
        <time>2011-04-23T14:02:21Z</time>
      </trkpt>
      <trkpt lat="44.86191" lon="5.47606">
        <ele>1504.6</ele>
        <time>2011-04-23T14:02:22Z</time>
      </trkpt>
      <trkpt lat="44.8616" lon="5.47609">
        <ele>1505.08</ele>
        <time>2011-04-23T14:02:37Z</time>
      </trkpt>
      <trkpt lat="44.86145" lon="5.47604">
        <ele>1506.52</ele>
        <time>2011-04-23T14:02:45Z</time>
      </trkpt>
      <trkpt lat="44.86144" lon="5.47604">
        <ele>1506.52</ele>
        <time>2011-04-23T14:02:46Z</time>
      </trkpt>
      <trkpt lat="44.86142" lon="5.47604">
        <ele>1506.52</ele>
        <time>2011-04-23T14:02:47Z</time>
      </trkpt>
      <trkpt lat="44.8614" lon="5.47604">
        <ele>1507</ele>
        <time>2011-04-23T14:02:48Z</time>
      </trkpt>
      <trkpt lat="44.86138" lon="5.47604">
        <ele>1507.48</ele>
        <time>2011-04-23T14:02:49Z</time>
      </trkpt>
      <trkpt lat="44.86136" lon="5.47604">
        <ele>1507</ele>
        <time>2011-04-23T14:02:50Z</time>
      </trkpt>
      <trkpt lat="44.86112" lon="5.47621">
        <ele>1507.97</ele>
        <time>2011-04-23T14:03:04Z</time>
      </trkpt>
      <trkpt lat="44.8609" lon="5.47646">
        <ele>1510.37</ele>
        <time>2011-04-23T14:03:19Z</time>
      </trkpt>
      <trkpt lat="44.86088" lon="5.47647">
        <ele>1510.85</ele>
        <time>2011-04-23T14:03:20Z</time>
      </trkpt>
      <trkpt lat="44.86083" lon="5.47652">
        <ele>1511.81</ele>
        <time>2011-04-23T14:03:24Z</time>
      </trkpt>
      <trkpt lat="44.86081" lon="5.47653">
        <ele>1512.29</ele>
        <time>2011-04-23T14:03:25Z</time>
      </trkpt>
      <trkpt lat="44.8608" lon="5.47654">
        <ele>1512.29</ele>
        <time>2011-04-23T14:03:26Z</time>
      </trkpt>
      <trkpt lat="44.86078" lon="5.47655">
        <ele>1512.77</ele>
        <time>2011-04-23T14:03:27Z</time>
      </trkpt>
      <trkpt lat="44.86077" lon="5.47655">
        <ele>1512.29</ele>
        <time>2011-04-23T14:03:28Z</time>
      </trkpt>
      <trkpt lat="44.86076" lon="5.47656">
        <ele>1513.25</ele>
        <time>2011-04-23T14:03:29Z</time>
      </trkpt>
      <trkpt lat="44.86074" lon="5.47657">
        <ele>1513.25</ele>
        <time>2011-04-23T14:03:30Z</time>
      </trkpt>
      <trkpt lat="44.86067" lon="5.47661">
        <ele>1514.21</ele>
        <time>2011-04-23T14:03:36Z</time>
      </trkpt>
      <trkpt lat="44.86065" lon="5.47661">
        <ele>1513.73</ele>
        <time>2011-04-23T14:03:37Z</time>
      </trkpt>
      <trkpt lat="44.86041" lon="5.47663">
        <ele>1515.18</ele>
        <time>2011-04-23T14:03:51Z</time>
      </trkpt>
      <trkpt lat="44.86017" lon="5.47674">
        <ele>1516.14</ele>
        <time>2011-04-23T14:04:05Z</time>
      </trkpt>
      <trkpt lat="44.85992" lon="5.47685">
        <ele>1517.1</ele>
        <time>2011-04-23T14:04:20Z</time>
      </trkpt>
      <trkpt lat="44.85966" lon="5.47682">
        <ele>1517.1</ele>
        <time>2011-04-23T14:04:33Z</time>
      </trkpt>
      <trkpt lat="44.85964" lon="5.47682">
        <ele>1517.1</ele>
        <time>2011-04-23T14:04:34Z</time>
      </trkpt>
      <trkpt lat="44.85963" lon="5.47682">
        <ele>1517.58</ele>
        <time>2011-04-23T14:04:35Z</time>
      </trkpt>
      <trkpt lat="44.85936" lon="5.47686">
        <ele>1520.46</ele>
        <time>2011-04-23T14:04:51Z</time>
      </trkpt>
      <trkpt lat="44.85911" lon="5.47691">
        <ele>1522.39</ele>
        <time>2011-04-23T14:05:05Z</time>
      </trkpt>
      <trkpt lat="44.85886" lon="5.47704">
        <ele>1522.87</ele>
        <time>2011-04-23T14:05:20Z</time>
      </trkpt>
      <trkpt lat="44.85856" lon="5.47706">
        <ele>1522.87</ele>
        <time>2011-04-23T14:05:34Z</time>
      </trkpt>
      <trkpt lat="44.85825" lon="5.47702">
        <ele>1524.31</ele>
        <time>2011-04-23T14:05:49Z</time>
      </trkpt>
      <trkpt lat="44.85793" lon="5.47692">
        <ele>1524.31</ele>
        <time>2011-04-23T14:06:04Z</time>
      </trkpt>
      <trkpt lat="44.8576" lon="5.47691">
        <ele>1524.79</ele>
        <time>2011-04-23T14:06:19Z</time>
      </trkpt>
      <trkpt lat="44.85722" lon="5.47683">
        <ele>1526.71</ele>
        <time>2011-04-23T14:06:36Z</time>
      </trkpt>
      <trkpt lat="44.85686" lon="5.47687">
        <ele>1527.19</ele>
        <time>2011-04-23T14:06:53Z</time>
      </trkpt>
      <trkpt lat="44.8568" lon="5.47691">
        <ele>1527.67</ele>
        <time>2011-04-23T14:06:57Z</time>
      </trkpt>
      <trkpt lat="44.85678" lon="5.47692">
        <ele>1527.67</ele>
        <time>2011-04-23T14:06:58Z</time>
      </trkpt>
      <trkpt lat="44.85676" lon="5.47694">
        <ele>1527.67</ele>
        <time>2011-04-23T14:06:59Z</time>
      </trkpt>
      <trkpt lat="44.85674" lon="5.47695">
        <ele>1527.67</ele>
        <time>2011-04-23T14:07:00Z</time>
      </trkpt>
      <trkpt lat="44.85672" lon="5.47697">
        <ele>1527.67</ele>
        <time>2011-04-23T14:07:01Z</time>
      </trkpt>
      <trkpt lat="44.8567" lon="5.47698">
        <ele>1527.67</ele>
        <time>2011-04-23T14:07:02Z</time>
      </trkpt>
      <trkpt lat="44.85668" lon="5.477">
        <ele>1527.67</ele>
        <time>2011-04-23T14:07:03Z</time>
      </trkpt>
      <trkpt lat="44.85634" lon="5.47718">
        <ele>1527.67</ele>
        <time>2011-04-23T14:07:18Z</time>
      </trkpt>
      <trkpt lat="44.85611" lon="5.47742">
        <ele>1529.59</ele>
        <time>2011-04-23T14:07:32Z</time>
      </trkpt>
      <trkpt lat="44.85585" lon="5.47769">
        <ele>1530.56</ele>
        <time>2011-04-23T14:07:49Z</time>
      </trkpt>
      <trkpt lat="44.85565" lon="5.47791">
        <ele>1532.96</ele>
        <time>2011-04-23T14:08:03Z</time>
      </trkpt>
      <trkpt lat="44.85543" lon="5.47788">
        <ele>1534.88</ele>
        <time>2011-04-23T14:08:16Z</time>
      </trkpt>
      <trkpt lat="44.85516" lon="5.47787">
        <ele>1535.84</ele>
        <time>2011-04-23T14:08:31Z</time>
      </trkpt>
      <trkpt lat="44.85489" lon="5.47793">
        <ele>1537.77</ele>
        <time>2011-04-23T14:08:47Z</time>
      </trkpt>
      <trkpt lat="44.85467" lon="5.47794">
        <ele>1538.73</ele>
        <time>2011-04-23T14:09:00Z</time>
      </trkpt>
      <trkpt lat="44.85456" lon="5.47795">
        <ele>1538.73</ele>
        <time>2011-04-23T14:09:07Z</time>
      </trkpt>
      <trkpt lat="44.85454" lon="5.47796">
        <ele>1538.73</ele>
        <time>2011-04-23T14:09:08Z</time>
      </trkpt>
      <trkpt lat="44.85452" lon="5.47795">
        <ele>1539.21</ele>
        <time>2011-04-23T14:09:09Z</time>
      </trkpt>
      <trkpt lat="44.8545" lon="5.47795">
        <ele>1539.21</ele>
        <time>2011-04-23T14:09:10Z</time>
      </trkpt>
      <trkpt lat="44.85448" lon="5.47795">
        <ele>1539.69</ele>
        <time>2011-04-23T14:09:11Z</time>
      </trkpt>
      <trkpt lat="44.85447" lon="5.47795">
        <ele>1539.69</ele>
        <time>2011-04-23T14:09:12Z</time>
      </trkpt>
      <trkpt lat="44.85446" lon="5.47795">
        <ele>1539.69</ele>
        <time>2011-04-23T14:09:13Z</time>
      </trkpt>
      <trkpt lat="44.85444" lon="5.47796">
        <ele>1539.69</ele>
        <time>2011-04-23T14:09:14Z</time>
      </trkpt>
      <trkpt lat="44.85443" lon="5.47796">
        <ele>1539.69</ele>
        <time>2011-04-23T14:09:15Z</time>
      </trkpt>
      <trkpt lat="44.85441" lon="5.47797">
        <ele>1540.65</ele>
        <time>2011-04-23T14:09:16Z</time>
      </trkpt>
      <trkpt lat="44.8544" lon="5.47797">
        <ele>1540.17</ele>
        <time>2011-04-23T14:09:17Z</time>
      </trkpt>
      <trkpt lat="44.85439" lon="5.47798">
        <ele>1540.65</ele>
        <time>2011-04-23T14:09:18Z</time>
      </trkpt>
      <trkpt lat="44.85438" lon="5.47799">
        <ele>1541.13</ele>
        <time>2011-04-23T14:09:19Z</time>
      </trkpt>
      <trkpt lat="44.85437" lon="5.478">
        <ele>1540.65</ele>
        <time>2011-04-23T14:09:20Z</time>
      </trkpt>
      <trkpt lat="44.85435" lon="5.47801">
        <ele>1541.61</ele>
        <time>2011-04-23T14:09:21Z</time>
      </trkpt>
      <trkpt lat="44.85434" lon="5.47802">
        <ele>1541.61</ele>
        <time>2011-04-23T14:09:22Z</time>
      </trkpt>
      <trkpt lat="44.85432" lon="5.47802">
        <ele>1542.09</ele>
        <time>2011-04-23T14:09:23Z</time>
      </trkpt>
      <trkpt lat="44.85429" lon="5.47804">
        <ele>1542.09</ele>
        <time>2011-04-23T14:09:25Z</time>
      </trkpt>
      <trkpt lat="44.85428" lon="5.47805">
        <ele>1541.61</ele>
        <time>2011-04-23T14:09:26Z</time>
      </trkpt>
      <trkpt lat="44.85427" lon="5.47806">
        <ele>1542.57</ele>
        <time>2011-04-23T14:09:27Z</time>
      </trkpt>
      <trkpt lat="44.85426" lon="5.47807">
        <ele>1542.57</ele>
        <time>2011-04-23T14:09:28Z</time>
      </trkpt>
      <trkpt lat="44.85425" lon="5.47809">
        <ele>1542.57</ele>
        <time>2011-04-23T14:09:29Z</time>
      </trkpt>
      <trkpt lat="44.85419" lon="5.47816">
        <ele>1543.05</ele>
        <time>2011-04-23T14:09:36Z</time>
      </trkpt>
      <trkpt lat="44.85418" lon="5.47817">
        <ele>1543.05</ele>
        <time>2011-04-23T14:09:37Z</time>
      </trkpt>
      <trkpt lat="44.85417" lon="5.47818">
        <ele>1543.05</ele>
        <time>2011-04-23T14:09:38Z</time>
      </trkpt>
      <trkpt lat="44.85399" lon="5.47835">
        <ele>1544.98</ele>
        <time>2011-04-23T14:09:53Z</time>
      </trkpt>
      <trkpt lat="44.85382" lon="5.47839">
        <ele>1547.38</ele>
        <time>2011-04-23T14:10:06Z</time>
      </trkpt>
      <trkpt lat="44.85378" lon="5.47838">
        <ele>1546.9</ele>
        <time>2011-04-23T14:10:20Z</time>
      </trkpt>
      <trkpt lat="44.85366" lon="5.47841">
        <ele>1547.86</ele>
        <time>2011-04-23T14:10:38Z</time>
      </trkpt>
      <trkpt lat="44.85364" lon="5.47841">
        <ele>1547.86</ele>
        <time>2011-04-23T14:10:39Z</time>
      </trkpt>
      <trkpt lat="44.85346" lon="5.47843">
        <ele>1549.78</ele>
        <time>2011-04-23T14:10:51Z</time>
      </trkpt>
      <trkpt lat="44.85323" lon="5.47845">
        <ele>1550.74</ele>
        <time>2011-04-23T14:11:06Z</time>
      </trkpt>
      <trkpt lat="44.85305" lon="5.47841">
        <ele>1551.71</ele>
        <time>2011-04-23T14:11:18Z</time>
      </trkpt>
      <trkpt lat="44.85284" lon="5.47835">
        <ele>1553.63</ele>
        <time>2011-04-23T14:11:32Z</time>
      </trkpt>
      <trkpt lat="44.8528" lon="5.47833">
        <ele>1554.11</ele>
        <time>2011-04-23T14:11:35Z</time>
      </trkpt>
      <trkpt lat="44.85279" lon="5.47832">
        <ele>1554.11</ele>
        <time>2011-04-23T14:11:36Z</time>
      </trkpt>
      <trkpt lat="44.85278" lon="5.47832">
        <ele>1554.11</ele>
        <time>2011-04-23T14:11:37Z</time>
      </trkpt>
      <trkpt lat="44.85277" lon="5.47831">
        <ele>1554.11</ele>
        <time>2011-04-23T14:11:38Z</time>
      </trkpt>
      <trkpt lat="44.85276" lon="5.4783">
        <ele>1554.11</ele>
        <time>2011-04-23T14:11:39Z</time>
      </trkpt>
      <trkpt lat="44.85252" lon="5.47831">
        <ele>1555.07</ele>
        <time>2011-04-23T14:11:54Z</time>
      </trkpt>
      <trkpt lat="44.85246" lon="5.4783">
        <ele>1555.07</ele>
        <time>2011-04-23T14:11:58Z</time>
      </trkpt>
      <trkpt lat="44.85244" lon="5.4783">
        <ele>1555.55</ele>
        <time>2011-04-23T14:11:59Z</time>
      </trkpt>
      <trkpt lat="44.85243" lon="5.4783">
        <ele>1555.55</ele>
        <time>2011-04-23T14:12:00Z</time>
      </trkpt>
      <trkpt lat="44.85242" lon="5.47829">
        <ele>1555.55</ele>
        <time>2011-04-23T14:12:01Z</time>
      </trkpt>
      <trkpt lat="44.85241" lon="5.47829">
        <ele>1555.55</ele>
        <time>2011-04-23T14:12:02Z</time>
      </trkpt>
      <trkpt lat="44.85239" lon="5.47829">
        <ele>1555.55</ele>
        <time>2011-04-23T14:12:03Z</time>
      </trkpt>
      <trkpt lat="44.85219" lon="5.47838">
        <ele>1555.55</ele>
        <time>2011-04-23T14:12:16Z</time>
      </trkpt>
      <trkpt lat="44.85217" lon="5.47838">
        <ele>1555.55</ele>
        <time>2011-04-23T14:12:17Z</time>
      </trkpt>
      <trkpt lat="44.85214" lon="5.47839">
        <ele>1555.55</ele>
        <time>2011-04-23T14:12:18Z</time>
      </trkpt>
      <trkpt lat="44.85212" lon="5.47839">
        <ele>1555.07</ele>
        <time>2011-04-23T14:12:19Z</time>
      </trkpt>
      <trkpt lat="44.8521" lon="5.47839">
        <ele>1555.07</ele>
        <time>2011-04-23T14:12:20Z</time>
      </trkpt>
      <trkpt lat="44.85208" lon="5.4784">
        <ele>1554.59</ele>
        <time>2011-04-23T14:12:21Z</time>
      </trkpt>
      <trkpt lat="44.85196" lon="5.47846">
        <ele>1552.67</ele>
        <time>2011-04-23T14:12:25Z</time>
      </trkpt>
      <trkpt lat="44.85163" lon="5.47864">
        <ele>1549.78</ele>
        <time>2011-04-23T14:12:36Z</time>
      </trkpt>
      <trkpt lat="44.85149" lon="5.4787">
        <ele>1549.3</ele>
        <time>2011-04-23T14:12:41Z</time>
      </trkpt>
      <trkpt lat="44.8513" lon="5.47864">
        <ele>1549.78</ele>
        <time>2011-04-23T14:12:53Z</time>
      </trkpt>
      <trkpt lat="44.85105" lon="5.47851">
        <ele>1551.71</ele>
        <time>2011-04-23T14:13:09Z</time>
      </trkpt>
      <trkpt lat="44.85078" lon="5.47838">
        <ele>1552.19</ele>
        <time>2011-04-23T14:13:24Z</time>
      </trkpt>
      <trkpt lat="44.85056" lon="5.47822">
        <ele>1553.15</ele>
        <time>2011-04-23T14:13:38Z</time>
      </trkpt>
      <trkpt lat="44.85046" lon="5.47816">
        <ele>1553.63</ele>
        <time>2011-04-23T14:13:45Z</time>
      </trkpt>
      <trkpt lat="44.85045" lon="5.47816">
        <ele>1553.63</ele>
        <time>2011-04-23T14:13:46Z</time>
      </trkpt>
      <trkpt lat="44.85043" lon="5.47816">
        <ele>1553.63</ele>
        <time>2011-04-23T14:13:47Z</time>
      </trkpt>
      <trkpt lat="44.85041" lon="5.47815">
        <ele>1553.63</ele>
        <time>2011-04-23T14:13:48Z</time>
      </trkpt>
      <trkpt lat="44.8504" lon="5.47815">
        <ele>1554.11</ele>
        <time>2011-04-23T14:13:49Z</time>
      </trkpt>
      <trkpt lat="44.85038" lon="5.47813">
        <ele>1554.11</ele>
        <time>2011-04-23T14:13:50Z</time>
      </trkpt>
      <trkpt lat="44.85037" lon="5.47812">
        <ele>1554.11</ele>
        <time>2011-04-23T14:13:51Z</time>
      </trkpt>
      <trkpt lat="44.85035" lon="5.47812">
        <ele>1554.11</ele>
        <time>2011-04-23T14:13:52Z</time>
      </trkpt>
      <trkpt lat="44.85034" lon="5.4781">
        <ele>1554.11</ele>
        <time>2011-04-23T14:13:53Z</time>
      </trkpt>
      <trkpt lat="44.85033" lon="5.47809">
        <ele>1554.59</ele>
        <time>2011-04-23T14:13:54Z</time>
      </trkpt>
      <trkpt lat="44.85031" lon="5.47808">
        <ele>1554.59</ele>
        <time>2011-04-23T14:13:55Z</time>
      </trkpt>
      <trkpt lat="44.8503" lon="5.47807">
        <ele>1555.07</ele>
        <time>2011-04-23T14:13:56Z</time>
      </trkpt>
      <trkpt lat="44.85029" lon="5.47805">
        <ele>1555.07</ele>
        <time>2011-04-23T14:13:57Z</time>
      </trkpt>
      <trkpt lat="44.85027" lon="5.47804">
        <ele>1555.07</ele>
        <time>2011-04-23T14:13:58Z</time>
      </trkpt>
      <trkpt lat="44.85025" lon="5.47803">
        <ele>1555.07</ele>
        <time>2011-04-23T14:13:59Z</time>
      </trkpt>
      <trkpt lat="44.85024" lon="5.47803">
        <ele>1554.59</ele>
        <time>2011-04-23T14:14:00Z</time>
      </trkpt>
      <trkpt lat="44.85022" lon="5.47803">
        <ele>1555.07</ele>
        <time>2011-04-23T14:14:01Z</time>
      </trkpt>
      <trkpt lat="44.8502" lon="5.47804">
        <ele>1554.59</ele>
        <time>2011-04-23T14:14:02Z</time>
      </trkpt>
      <trkpt lat="44.85019" lon="5.47805">
        <ele>1554.59</ele>
        <time>2011-04-23T14:14:03Z</time>
      </trkpt>
      <trkpt lat="44.85018" lon="5.47807">
        <ele>1554.59</ele>
        <time>2011-04-23T14:14:04Z</time>
      </trkpt>
      <trkpt lat="44.85017" lon="5.4781">
        <ele>1554.11</ele>
        <time>2011-04-23T14:14:05Z</time>
      </trkpt>
      <trkpt lat="44.85016" lon="5.47812">
        <ele>1554.11</ele>
        <time>2011-04-23T14:14:06Z</time>
      </trkpt>
      <trkpt lat="44.8501" lon="5.47841">
        <ele>1552.67</ele>
        <time>2011-04-23T14:14:15Z</time>
      </trkpt>
      <trkpt lat="44.85007" lon="5.47852">
        <ele>1552.19</ele>
        <time>2011-04-23T14:14:21Z</time>
      </trkpt>
      <trkpt lat="44.85006" lon="5.47854">
        <ele>1552.19</ele>
        <time>2011-04-23T14:14:22Z</time>
      </trkpt>
      <trkpt lat="44.85001" lon="5.47873">
        <ele>1551.71</ele>
        <time>2011-04-23T14:14:30Z</time>
      </trkpt>
      <trkpt lat="44.85" lon="5.47875">
        <ele>1551.71</ele>
        <time>2011-04-23T14:14:31Z</time>
      </trkpt>
      <trkpt lat="44.84998" lon="5.47878">
        <ele>1551.22</ele>
        <time>2011-04-23T14:14:32Z</time>
      </trkpt>
      <trkpt lat="44.84997" lon="5.4788">
        <ele>1551.71</ele>
        <time>2011-04-23T14:14:33Z</time>
      </trkpt>
      <trkpt lat="44.84996" lon="5.47882">
        <ele>1551.71</ele>
        <time>2011-04-23T14:14:34Z</time>
      </trkpt>
      <trkpt lat="44.84995" lon="5.47884">
        <ele>1551.71</ele>
        <time>2011-04-23T14:14:35Z</time>
      </trkpt>
      <trkpt lat="44.84994" lon="5.47886">
        <ele>1551.71</ele>
        <time>2011-04-23T14:14:36Z</time>
      </trkpt>
      <trkpt lat="44.8499" lon="5.47891">
        <ele>1552.19</ele>
        <time>2011-04-23T14:14:39Z</time>
      </trkpt>
      <trkpt lat="44.84989" lon="5.47891">
        <ele>1552.67</ele>
        <time>2011-04-23T14:14:40Z</time>
      </trkpt>
      <trkpt lat="44.84988" lon="5.47892">
        <ele>1552.19</ele>
        <time>2011-04-23T14:14:41Z</time>
      </trkpt>
      <trkpt lat="44.84975" lon="5.47895">
        <ele>1553.63</ele>
        <time>2011-04-23T14:14:49Z</time>
      </trkpt>
      <trkpt lat="44.84971" lon="5.47895">
        <ele>1554.11</ele>
        <time>2011-04-23T14:14:52Z</time>
      </trkpt>
      <trkpt lat="44.84969" lon="5.47896">
        <ele>1554.59</ele>
        <time>2011-04-23T14:14:53Z</time>
      </trkpt>
      <trkpt lat="44.84968" lon="5.47896">
        <ele>1554.11</ele>
        <time>2011-04-23T14:14:54Z</time>
      </trkpt>
      <trkpt lat="44.84967" lon="5.47896">
        <ele>1554.59</ele>
        <time>2011-04-23T14:14:55Z</time>
      </trkpt>
      <trkpt lat="44.84965" lon="5.47897">
        <ele>1555.07</ele>
        <time>2011-04-23T14:14:56Z</time>
      </trkpt>
      <trkpt lat="44.84964" lon="5.47897">
        <ele>1554.59</ele>
        <time>2011-04-23T14:14:57Z</time>
      </trkpt>
      <trkpt lat="44.84955" lon="5.47902">
        <ele>1554.59</ele>
        <time>2011-04-23T14:15:03Z</time>
      </trkpt>
      <trkpt lat="44.84954" lon="5.47903">
        <ele>1556.03</ele>
        <time>2011-04-23T14:15:04Z</time>
      </trkpt>
      <trkpt lat="44.84953" lon="5.47903">
        <ele>1556.03</ele>
        <time>2011-04-23T14:15:05Z</time>
      </trkpt>
      <trkpt lat="44.84951" lon="5.47905">
        <ele>1555.55</ele>
        <time>2011-04-23T14:15:06Z</time>
      </trkpt>
      <trkpt lat="44.84948" lon="5.47906">
        <ele>1554.59</ele>
        <time>2011-04-23T14:15:07Z</time>
      </trkpt>
      <trkpt lat="44.84944" lon="5.47907">
        <ele>1553.63</ele>
        <time>2011-04-23T14:15:08Z</time>
      </trkpt>
      <trkpt lat="44.8494" lon="5.47908">
        <ele>1553.63</ele>
        <time>2011-04-23T14:15:09Z</time>
      </trkpt>
      <trkpt lat="44.84937" lon="5.47908">
        <ele>1554.11</ele>
        <time>2011-04-23T14:15:10Z</time>
      </trkpt>
      <trkpt lat="44.84934" lon="5.47909">
        <ele>1554.11</ele>
        <time>2011-04-23T14:15:11Z</time>
      </trkpt>
      <trkpt lat="44.84916" lon="5.47914">
        <ele>1555.55</ele>
        <time>2011-04-23T14:15:22Z</time>
      </trkpt>
      <trkpt lat="44.84913" lon="5.47914">
        <ele>1556.03</ele>
        <time>2011-04-23T14:15:24Z</time>
      </trkpt>
      <trkpt lat="44.84911" lon="5.47914">
        <ele>1556.03</ele>
        <time>2011-04-23T14:15:25Z</time>
      </trkpt>
      <trkpt lat="44.8491" lon="5.47914">
        <ele>1555.55</ele>
        <time>2011-04-23T14:15:26Z</time>
      </trkpt>
      <trkpt lat="44.84908" lon="5.47914">
        <ele>1556.51</ele>
        <time>2011-04-23T14:15:27Z</time>
      </trkpt>
      <trkpt lat="44.84907" lon="5.47915">
        <ele>1556.51</ele>
        <time>2011-04-23T14:15:28Z</time>
      </trkpt>
      <trkpt lat="44.84905" lon="5.47915">
        <ele>1556.51</ele>
        <time>2011-04-23T14:15:29Z</time>
      </trkpt>
      <trkpt lat="44.84903" lon="5.47916">
        <ele>1556.51</ele>
        <time>2011-04-23T14:15:30Z</time>
      </trkpt>
      <trkpt lat="44.84901" lon="5.47916">
        <ele>1556.51</ele>
        <time>2011-04-23T14:15:31Z</time>
      </trkpt>
      <trkpt lat="44.84899" lon="5.47916">
        <ele>1556.03</ele>
        <time>2011-04-23T14:15:32Z</time>
      </trkpt>
      <trkpt lat="44.84897" lon="5.47917">
        <ele>1556.03</ele>
        <time>2011-04-23T14:15:33Z</time>
      </trkpt>
      <trkpt lat="44.84878" lon="5.47916">
        <ele>1556.03</ele>
        <time>2011-04-23T14:15:42Z</time>
      </trkpt>
      <trkpt lat="44.84876" lon="5.47917">
        <ele>1556.03</ele>
        <time>2011-04-23T14:15:43Z</time>
      </trkpt>
      <trkpt lat="44.84875" lon="5.47917">
        <ele>1556.03</ele>
        <time>2011-04-23T14:15:44Z</time>
      </trkpt>
      <trkpt lat="44.84873" lon="5.47917">
        <ele>1556.51</ele>
        <time>2011-04-23T14:15:45Z</time>
      </trkpt>
      <trkpt lat="44.84871" lon="5.47917">
        <ele>1556.51</ele>
        <time>2011-04-23T14:15:46Z</time>
      </trkpt>
      <trkpt lat="44.8487" lon="5.47916">
        <ele>1556.51</ele>
        <time>2011-04-23T14:15:47Z</time>
      </trkpt>
      <trkpt lat="44.84868" lon="5.47916">
        <ele>1556.51</ele>
        <time>2011-04-23T14:15:48Z</time>
      </trkpt>
      <trkpt lat="44.84867" lon="5.47916">
        <ele>1556.51</ele>
        <time>2011-04-23T14:15:49Z</time>
      </trkpt>
      <trkpt lat="44.84865" lon="5.47917">
        <ele>1556.99</ele>
        <time>2011-04-23T14:15:50Z</time>
      </trkpt>
      <trkpt lat="44.84864" lon="5.47917">
        <ele>1557.47</ele>
        <time>2011-04-23T14:15:51Z</time>
      </trkpt>
      <trkpt lat="44.84863" lon="5.47917">
        <ele>1557.47</ele>
        <time>2011-04-23T14:15:52Z</time>
      </trkpt>
      <trkpt lat="44.84861" lon="5.47917">
        <ele>1557.47</ele>
        <time>2011-04-23T14:15:53Z</time>
      </trkpt>
      <trkpt lat="44.8486" lon="5.47917">
        <ele>1557.47</ele>
        <time>2011-04-23T14:15:54Z</time>
      </trkpt>
      <trkpt lat="44.84858" lon="5.47918">
        <ele>1557.47</ele>
        <time>2011-04-23T14:15:55Z</time>
      </trkpt>
      <trkpt lat="44.84856" lon="5.47919">
        <ele>1557.95</ele>
        <time>2011-04-23T14:15:56Z</time>
      </trkpt>
      <trkpt lat="44.84832" lon="5.47935">
        <ele>1557.47</ele>
        <time>2011-04-23T14:16:12Z</time>
      </trkpt>
      <trkpt lat="44.84814" lon="5.47966">
        <ele>1556.99</ele>
        <time>2011-04-23T14:16:24Z</time>
      </trkpt>
      <trkpt lat="44.84789" lon="5.47986">
        <ele>1556.03</ele>
        <time>2011-04-23T14:16:35Z</time>
      </trkpt>
      <trkpt lat="44.84763" lon="5.47982">
        <ele>1556.51</ele>
        <time>2011-04-23T14:16:46Z</time>
      </trkpt>
      <trkpt lat="44.8473" lon="5.47968">
        <ele>1556.51</ele>
        <time>2011-04-23T14:17:01Z</time>
      </trkpt>
      <trkpt lat="44.84704" lon="5.47971">
        <ele>1558.92</ele>
        <time>2011-04-23T14:17:15Z</time>
      </trkpt>
      <trkpt lat="44.84698" lon="5.47974">
        <ele>1559.4</ele>
        <time>2011-04-23T14:17:19Z</time>
      </trkpt>
      <trkpt lat="44.84689" lon="5.47972">
        <ele>1558.92</ele>
        <time>2011-04-23T14:17:33Z</time>
      </trkpt>
      <trkpt lat="44.8467" lon="5.47963">
        <ele>1557.95</ele>
        <time>2011-04-23T14:17:48Z</time>
      </trkpt>
      <trkpt lat="44.84666" lon="5.47962">
        <ele>1557.95</ele>
        <time>2011-04-23T14:17:50Z</time>
      </trkpt>
      <trkpt lat="44.84664" lon="5.47964">
        <ele>1557.95</ele>
        <time>2011-04-23T14:17:53Z</time>
      </trkpt>
      <trkpt lat="44.84662" lon="5.47964">
        <ele>1558.43</ele>
        <time>2011-04-23T14:17:54Z</time>
      </trkpt>
      <trkpt lat="44.84661" lon="5.47964">
        <ele>1557.95</ele>
        <time>2011-04-23T14:17:55Z</time>
      </trkpt>
      <trkpt lat="44.84659" lon="5.47965">
        <ele>1557.95</ele>
        <time>2011-04-23T14:17:56Z</time>
      </trkpt>
      <trkpt lat="44.84657" lon="5.47965">
        <ele>1558.43</ele>
        <time>2011-04-23T14:17:57Z</time>
      </trkpt>
      <trkpt lat="44.84656" lon="5.47966">
        <ele>1557.95</ele>
        <time>2011-04-23T14:17:58Z</time>
      </trkpt>
      <trkpt lat="44.84654" lon="5.47967">
        <ele>1557.95</ele>
        <time>2011-04-23T14:17:59Z</time>
      </trkpt>
      <trkpt lat="44.84644" lon="5.47978">
        <ele>1556.03</ele>
        <time>2011-04-23T14:18:03Z</time>
      </trkpt>
      <trkpt lat="44.84625" lon="5.48003">
        <ele>1555.55</ele>
        <time>2011-04-23T14:18:13Z</time>
      </trkpt>
      <trkpt lat="44.84606" lon="5.48013">
        <ele>1556.99</ele>
        <time>2011-04-23T14:18:23Z</time>
      </trkpt>
      <trkpt lat="44.84585" lon="5.48015">
        <ele>1559.4</ele>
        <time>2011-04-23T14:18:36Z</time>
      </trkpt>
      <trkpt lat="44.84562" lon="5.48024">
        <ele>1560.36</ele>
        <time>2011-04-23T14:18:50Z</time>
      </trkpt>
      <trkpt lat="44.84537" lon="5.48042">
        <ele>1558.92</ele>
        <time>2011-04-23T14:19:02Z</time>
      </trkpt>
      <trkpt lat="44.84514" lon="5.48052">
        <ele>1559.88</ele>
        <time>2011-04-23T14:19:12Z</time>
      </trkpt>
      <trkpt lat="44.84491" lon="5.48066">
        <ele>1559.4</ele>
        <time>2011-04-23T14:19:24Z</time>
      </trkpt>
      <trkpt lat="44.84468" lon="5.48079">
        <ele>1561.32</ele>
        <time>2011-04-23T14:19:38Z</time>
      </trkpt>
      <trkpt lat="44.84465" lon="5.48081">
        <ele>1561.32</ele>
        <time>2011-04-23T14:19:40Z</time>
      </trkpt>
      <trkpt lat="44.84463" lon="5.48081">
        <ele>1561.32</ele>
        <time>2011-04-23T14:19:41Z</time>
      </trkpt>
      <trkpt lat="44.84461" lon="5.48081">
        <ele>1560.84</ele>
        <time>2011-04-23T14:19:42Z</time>
      </trkpt>
      <trkpt lat="44.84459" lon="5.48082">
        <ele>1561.32</ele>
        <time>2011-04-23T14:19:43Z</time>
      </trkpt>
      <trkpt lat="44.84456" lon="5.48082">
        <ele>1561.32</ele>
        <time>2011-04-23T14:19:44Z</time>
      </trkpt>
      <trkpt lat="44.84455" lon="5.48084">
        <ele>1561.8</ele>
        <time>2011-04-23T14:19:45Z</time>
      </trkpt>
      <trkpt lat="44.84454" lon="5.48085">
        <ele>1561.8</ele>
        <time>2011-04-23T14:19:46Z</time>
      </trkpt>
      <trkpt lat="44.8443" lon="5.48099">
        <ele>1560.84</ele>
        <time>2011-04-23T14:19:57Z</time>
      </trkpt>
      <trkpt lat="44.84423" lon="5.48111">
        <ele>1562.28</ele>
        <time>2011-04-23T14:20:05Z</time>
      </trkpt>
      <trkpt lat="44.84422" lon="5.48112">
        <ele>1562.28</ele>
        <time>2011-04-23T14:20:06Z</time>
      </trkpt>
      <trkpt lat="44.8442" lon="5.48114">
        <ele>1562.76</ele>
        <time>2011-04-23T14:20:07Z</time>
      </trkpt>
      <trkpt lat="44.8442" lon="5.48116">
        <ele>1562.76</ele>
        <time>2011-04-23T14:20:08Z</time>
      </trkpt>
      <trkpt lat="44.84419" lon="5.48118">
        <ele>1563.24</ele>
        <time>2011-04-23T14:20:09Z</time>
      </trkpt>
      <trkpt lat="44.84417" lon="5.4812">
        <ele>1563.72</ele>
        <time>2011-04-23T14:20:10Z</time>
      </trkpt>
      <trkpt lat="44.84417" lon="5.48122">
        <ele>1563.72</ele>
        <time>2011-04-23T14:20:11Z</time>
      </trkpt>
      <trkpt lat="44.84416" lon="5.48124">
        <ele>1563.72</ele>
        <time>2011-04-23T14:20:12Z</time>
      </trkpt>
      <trkpt lat="44.84415" lon="5.48126">
        <ele>1564.2</ele>
        <time>2011-04-23T14:20:13Z</time>
      </trkpt>
      <trkpt lat="44.84412" lon="5.48133">
        <ele>1564.2</ele>
        <time>2011-04-23T14:20:17Z</time>
      </trkpt>
      <trkpt lat="44.84412" lon="5.48135">
        <ele>1564.68</ele>
        <time>2011-04-23T14:20:18Z</time>
      </trkpt>
      <trkpt lat="44.84412" lon="5.48137">
        <ele>1565.16</ele>
        <time>2011-04-23T14:20:19Z</time>
      </trkpt>
      <trkpt lat="44.84407" lon="5.48151">
        <ele>1565.64</ele>
        <time>2011-04-23T14:20:26Z</time>
      </trkpt>
      <trkpt lat="44.84407" lon="5.48154">
        <ele>1566.12</ele>
        <time>2011-04-23T14:20:27Z</time>
      </trkpt>
      <trkpt lat="44.84407" lon="5.48156">
        <ele>1566.61</ele>
        <time>2011-04-23T14:20:28Z</time>
      </trkpt>
      <trkpt lat="44.84406" lon="5.48157">
        <ele>1566.12</ele>
        <time>2011-04-23T14:20:29Z</time>
      </trkpt>
      <trkpt lat="44.84405" lon="5.48159">
        <ele>1566.61</ele>
        <time>2011-04-23T14:20:30Z</time>
      </trkpt>
      <trkpt lat="44.84404" lon="5.48161">
        <ele>1566.61</ele>
        <time>2011-04-23T14:20:31Z</time>
      </trkpt>
      <trkpt lat="44.84403" lon="5.48163">
        <ele>1566.61</ele>
        <time>2011-04-23T14:20:32Z</time>
      </trkpt>
      <trkpt lat="44.84403" lon="5.48164">
        <ele>1566.61</ele>
        <time>2011-04-23T14:20:33Z</time>
      </trkpt>
      <trkpt lat="44.84403" lon="5.48167">
        <ele>1567.57</ele>
        <time>2011-04-23T14:20:50Z</time>
      </trkpt>
      <trkpt lat="44.84401" lon="5.48168">
        <ele>1567.57</ele>
        <time>2011-04-23T14:21:34Z</time>
      </trkpt>
      <trkpt lat="44.84401" lon="5.4817">
        <ele>1567.57</ele>
        <time>2011-04-23T14:21:35Z</time>
      </trkpt>
      <trkpt lat="44.844" lon="5.48172">
        <ele>1567.57</ele>
        <time>2011-04-23T14:21:36Z</time>
      </trkpt>
      <trkpt lat="44.844" lon="5.48174">
        <ele>1567.57</ele>
        <time>2011-04-23T14:21:37Z</time>
      </trkpt>
      <trkpt lat="44.844" lon="5.48176">
        <ele>1567.57</ele>
        <time>2011-04-23T14:21:38Z</time>
      </trkpt>
      <trkpt lat="44.84399" lon="5.48178">
        <ele>1567.57</ele>
        <time>2011-04-23T14:21:39Z</time>
      </trkpt>
      <trkpt lat="44.84399" lon="5.4818">
        <ele>1568.05</ele>
        <time>2011-04-23T14:21:40Z</time>
      </trkpt>
      <trkpt lat="44.84398" lon="5.48182">
        <ele>1567.57</ele>
        <time>2011-04-23T14:21:41Z</time>
      </trkpt>
      <trkpt lat="44.84398" lon="5.48184">
        <ele>1568.05</ele>
        <time>2011-04-23T14:21:42Z</time>
      </trkpt>
      <trkpt lat="44.84397" lon="5.48186">
        <ele>1568.53</ele>
        <time>2011-04-23T14:21:43Z</time>
      </trkpt>
      <trkpt lat="44.8439" lon="5.48203">
        <ele>1569.49</ele>
        <time>2011-04-23T14:21:52Z</time>
      </trkpt>
      <trkpt lat="44.8439" lon="5.48205">
        <ele>1569.49</ele>
        <time>2011-04-23T14:21:53Z</time>
      </trkpt>
      <trkpt lat="44.84388" lon="5.48209">
        <ele>1569.49</ele>
        <time>2011-04-23T14:21:55Z</time>
      </trkpt>
      <trkpt lat="44.84387" lon="5.4821">
        <ele>1569.49</ele>
        <time>2011-04-23T14:21:56Z</time>
      </trkpt>
      <trkpt lat="44.84386" lon="5.48212">
        <ele>1569.49</ele>
        <time>2011-04-23T14:21:57Z</time>
      </trkpt>
      <trkpt lat="44.8438" lon="5.48243">
        <ele>1571.41</ele>
        <time>2011-04-23T14:22:11Z</time>
      </trkpt>
      <trkpt lat="44.84378" lon="5.48256">
        <ele>1572.37</ele>
        <time>2011-04-23T14:22:17Z</time>
      </trkpt>
      <trkpt lat="44.84377" lon="5.48265">
        <ele>1572.37</ele>
        <time>2011-04-23T14:22:21Z</time>
      </trkpt>
      <trkpt lat="44.8437" lon="5.48294">
        <ele>1574.3</ele>
        <time>2011-04-23T14:22:35Z</time>
      </trkpt>
      <trkpt lat="44.84369" lon="5.48304">
        <ele>1575.26</ele>
        <time>2011-04-23T14:22:40Z</time>
      </trkpt>
      <trkpt lat="44.84368" lon="5.48306">
        <ele>1575.26</ele>
        <time>2011-04-23T14:22:41Z</time>
      </trkpt>
      <trkpt lat="44.84363" lon="5.48334">
        <ele>1576.22</ele>
        <time>2011-04-23T14:22:55Z</time>
      </trkpt>
      <trkpt lat="44.84362" lon="5.48336">
        <ele>1576.7</ele>
        <time>2011-04-23T14:22:56Z</time>
      </trkpt>
      <trkpt lat="44.84361" lon="5.48338">
        <ele>1576.22</ele>
        <time>2011-04-23T14:22:57Z</time>
      </trkpt>
      <trkpt lat="44.8436" lon="5.4834">
        <ele>1576.7</ele>
        <time>2011-04-23T14:22:58Z</time>
      </trkpt>
      <trkpt lat="44.8436" lon="5.48342">
        <ele>1577.18</ele>
        <time>2011-04-23T14:22:59Z</time>
      </trkpt>
      <trkpt lat="44.84359" lon="5.48344">
        <ele>1577.66</ele>
        <time>2011-04-23T14:23:00Z</time>
      </trkpt>
      <trkpt lat="44.84359" lon="5.48346">
        <ele>1577.18</ele>
        <time>2011-04-23T14:23:01Z</time>
      </trkpt>
      <trkpt lat="44.84359" lon="5.48348">
        <ele>1577.18</ele>
        <time>2011-04-23T14:23:02Z</time>
      </trkpt>
      <trkpt lat="44.8436" lon="5.48374">
        <ele>1578.62</ele>
        <time>2011-04-23T14:23:15Z</time>
      </trkpt>
      <trkpt lat="44.84356" lon="5.48404">
        <ele>1580.54</ele>
        <time>2011-04-23T14:23:29Z</time>
      </trkpt>
      <trkpt lat="44.84354" lon="5.48406">
        <ele>1580.06</ele>
        <time>2011-04-23T14:23:30Z</time>
      </trkpt>
      <trkpt lat="44.84353" lon="5.48407">
        <ele>1581.03</ele>
        <time>2011-04-23T14:23:31Z</time>
      </trkpt>
      <trkpt lat="44.84352" lon="5.48409">
        <ele>1580.54</ele>
        <time>2011-04-23T14:23:32Z</time>
      </trkpt>
      <trkpt lat="44.84351" lon="5.48411">
        <ele>1581.03</ele>
        <time>2011-04-23T14:23:33Z</time>
      </trkpt>
      <trkpt lat="44.84348" lon="5.48416">
        <ele>1581.99</ele>
        <time>2011-04-23T14:23:38Z</time>
      </trkpt>
      <trkpt lat="44.84345" lon="5.48417">
        <ele>1581.99</ele>
        <time>2011-04-23T14:23:53Z</time>
      </trkpt>
      <trkpt lat="44.84339" lon="5.48416">
        <ele>1582.95</ele>
        <time>2011-04-23T14:24:25Z</time>
      </trkpt>
      <trkpt lat="44.84338" lon="5.48416">
        <ele>1582.95</ele>
        <time>2011-04-23T14:24:26Z</time>
      </trkpt>
      <trkpt lat="44.84336" lon="5.48417">
        <ele>1582.95</ele>
        <time>2011-04-23T14:24:27Z</time>
      </trkpt>
      <trkpt lat="44.84335" lon="5.48417">
        <ele>1582.47</ele>
        <time>2011-04-23T14:24:28Z</time>
      </trkpt>
      <trkpt lat="44.84333" lon="5.48417">
        <ele>1582.95</ele>
        <time>2011-04-23T14:24:29Z</time>
      </trkpt>
      <trkpt lat="44.84332" lon="5.48418">
        <ele>1582.47</ele>
        <time>2011-04-23T14:24:30Z</time>
      </trkpt>
      <trkpt lat="44.8433" lon="5.48418">
        <ele>1582.47</ele>
        <time>2011-04-23T14:24:31Z</time>
      </trkpt>
      <trkpt lat="44.84328" lon="5.48419">
        <ele>1582.95</ele>
        <time>2011-04-23T14:24:32Z</time>
      </trkpt>
      <trkpt lat="44.84326" lon="5.48419">
        <ele>1582.47</ele>
        <time>2011-04-23T14:24:33Z</time>
      </trkpt>
      <trkpt lat="44.84325" lon="5.48418">
        <ele>1582.95</ele>
        <time>2011-04-23T14:24:34Z</time>
      </trkpt>
      <trkpt lat="44.84323" lon="5.48418">
        <ele>1582.95</ele>
        <time>2011-04-23T14:24:35Z</time>
      </trkpt>
      <trkpt lat="44.84322" lon="5.48418">
        <ele>1583.43</ele>
        <time>2011-04-23T14:24:36Z</time>
      </trkpt>
      <trkpt lat="44.8432" lon="5.48418">
        <ele>1583.43</ele>
        <time>2011-04-23T14:24:37Z</time>
      </trkpt>
      <trkpt lat="44.84318" lon="5.48419">
        <ele>1583.43</ele>
        <time>2011-04-23T14:24:38Z</time>
      </trkpt>
      <trkpt lat="44.84317" lon="5.48419">
        <ele>1583.43</ele>
        <time>2011-04-23T14:24:39Z</time>
      </trkpt>
      <trkpt lat="44.84315" lon="5.48419">
        <ele>1583.91</ele>
        <time>2011-04-23T14:24:40Z</time>
      </trkpt>
      <trkpt lat="44.84314" lon="5.48418">
        <ele>1583.91</ele>
        <time>2011-04-23T14:24:41Z</time>
      </trkpt>
      <trkpt lat="44.84308" lon="5.48418">
        <ele>1584.39</ele>
        <time>2011-04-23T14:24:45Z</time>
      </trkpt>
      <trkpt lat="44.84306" lon="5.48417">
        <ele>1584.39</ele>
        <time>2011-04-23T14:24:46Z</time>
      </trkpt>
      <trkpt lat="44.84305" lon="5.48417">
        <ele>1584.39</ele>
        <time>2011-04-23T14:24:47Z</time>
      </trkpt>
      <trkpt lat="44.84284" lon="5.48405">
        <ele>1586.31</ele>
        <time>2011-04-23T14:25:02Z</time>
      </trkpt>
      <trkpt lat="44.84264" lon="5.48391">
        <ele>1587.27</ele>
        <time>2011-04-23T14:25:16Z</time>
      </trkpt>
      <trkpt lat="44.84241" lon="5.48375">
        <ele>1588.72</ele>
        <time>2011-04-23T14:25:32Z</time>
      </trkpt>
      <trkpt lat="44.84239" lon="5.48373">
        <ele>1589.2</ele>
        <time>2011-04-23T14:25:34Z</time>
      </trkpt>
      <trkpt lat="44.84238" lon="5.48371">
        <ele>1589.2</ele>
        <time>2011-04-23T14:25:35Z</time>
      </trkpt>
      <trkpt lat="44.84236" lon="5.4837">
        <ele>1589.2</ele>
        <time>2011-04-23T14:25:36Z</time>
      </trkpt>
      <trkpt lat="44.84215" lon="5.48362">
        <ele>1591.12</ele>
        <time>2011-04-23T14:25:51Z</time>
      </trkpt>
      <trkpt lat="44.84197" lon="5.48358">
        <ele>1593.04</ele>
        <time>2011-04-23T14:26:03Z</time>
      </trkpt>
      <trkpt lat="44.84196" lon="5.48358">
        <ele>1592.56</ele>
        <time>2011-04-23T14:26:04Z</time>
      </trkpt>
      <trkpt lat="44.84194" lon="5.48358">
        <ele>1593.52</ele>
        <time>2011-04-23T14:26:05Z</time>
      </trkpt>
      <trkpt lat="44.84193" lon="5.48359">
        <ele>1593.04</ele>
        <time>2011-04-23T14:26:06Z</time>
      </trkpt>
      <trkpt lat="44.84192" lon="5.48359">
        <ele>1593.52</ele>
        <time>2011-04-23T14:26:07Z</time>
      </trkpt>
      <trkpt lat="44.8419" lon="5.48359">
        <ele>1593.52</ele>
        <time>2011-04-23T14:26:08Z</time>
      </trkpt>
      <trkpt lat="44.84168" lon="5.48363">
        <ele>1595.93</ele>
        <time>2011-04-23T14:26:22Z</time>
      </trkpt>
      <trkpt lat="44.84155" lon="5.48361">
        <ele>1598.33</ele>
        <time>2011-04-23T14:26:32Z</time>
      </trkpt>
      <trkpt lat="44.84154" lon="5.4836">
        <ele>1598.81</ele>
        <time>2011-04-23T14:26:33Z</time>
      </trkpt>
      <trkpt lat="44.84151" lon="5.48355">
        <ele>1599.29</ele>
        <time>2011-04-23T14:26:39Z</time>
      </trkpt>
      <trkpt lat="44.8415" lon="5.48355">
        <ele>1599.29</ele>
        <time>2011-04-23T14:26:40Z</time>
      </trkpt>
      <trkpt lat="44.84145" lon="5.48356">
        <ele>1599.29</ele>
        <time>2011-04-23T14:26:45Z</time>
      </trkpt>
      <trkpt lat="44.84144" lon="5.48356">
        <ele>1599.77</ele>
        <time>2011-04-23T14:26:46Z</time>
      </trkpt>
      <trkpt lat="44.84142" lon="5.48357">
        <ele>1599.77</ele>
        <time>2011-04-23T14:26:47Z</time>
      </trkpt>
      <trkpt lat="44.84141" lon="5.48356">
        <ele>1600.73</ele>
        <time>2011-04-23T14:26:48Z</time>
      </trkpt>
      <trkpt lat="44.8414" lon="5.48356">
        <ele>1600.25</ele>
        <time>2011-04-23T14:26:49Z</time>
      </trkpt>
      <trkpt lat="44.84139" lon="5.48356">
        <ele>1599.77</ele>
        <time>2011-04-23T14:26:50Z</time>
      </trkpt>
      <trkpt lat="44.84138" lon="5.48355">
        <ele>1600.73</ele>
        <time>2011-04-23T14:26:51Z</time>
      </trkpt>
      <trkpt lat="44.84137" lon="5.48355">
        <ele>1600.73</ele>
        <time>2011-04-23T14:26:52Z</time>
      </trkpt>
      <trkpt lat="44.84135" lon="5.48355">
        <ele>1600.73</ele>
        <time>2011-04-23T14:26:53Z</time>
      </trkpt>
      <trkpt lat="44.84134" lon="5.48356">
        <ele>1600.73</ele>
        <time>2011-04-23T14:26:54Z</time>
      </trkpt>
      <trkpt lat="44.84132" lon="5.48357">
        <ele>1601.21</ele>
        <time>2011-04-23T14:26:55Z</time>
      </trkpt>
      <trkpt lat="44.84131" lon="5.48357">
        <ele>1601.21</ele>
        <time>2011-04-23T14:26:56Z</time>
      </trkpt>
      <trkpt lat="44.84129" lon="5.48357">
        <ele>1601.21</ele>
        <time>2011-04-23T14:26:57Z</time>
      </trkpt>
      <trkpt lat="44.84128" lon="5.48357">
        <ele>1601.69</ele>
        <time>2011-04-23T14:26:58Z</time>
      </trkpt>
      <trkpt lat="44.84127" lon="5.48358">
        <ele>1601.69</ele>
        <time>2011-04-23T14:26:59Z</time>
      </trkpt>
      <trkpt lat="44.84126" lon="5.48358">
        <ele>1601.69</ele>
        <time>2011-04-23T14:27:00Z</time>
      </trkpt>
      <trkpt lat="44.84124" lon="5.48357">
        <ele>1601.69</ele>
        <time>2011-04-23T14:27:01Z</time>
      </trkpt>
      <trkpt lat="44.84123" lon="5.48357">
        <ele>1602.17</ele>
        <time>2011-04-23T14:27:02Z</time>
      </trkpt>
      <trkpt lat="44.84122" lon="5.48357">
        <ele>1602.66</ele>
        <time>2011-04-23T14:27:03Z</time>
      </trkpt>
      <trkpt lat="44.84116" lon="5.48355">
        <ele>1602.66</ele>
        <time>2011-04-23T14:27:08Z</time>
      </trkpt>
      <trkpt lat="44.84101" lon="5.48354">
        <ele>1604.1</ele>
        <time>2011-04-23T14:27:20Z</time>
      </trkpt>
      <trkpt lat="44.84084" lon="5.48352">
        <ele>1606.02</ele>
        <time>2011-04-23T14:27:34Z</time>
      </trkpt>
      <trkpt lat="44.84081" lon="5.48353">
        <ele>1606.5</ele>
        <time>2011-04-23T14:27:36Z</time>
      </trkpt>
      <trkpt lat="44.8408" lon="5.48352">
        <ele>1606.5</ele>
        <time>2011-04-23T14:27:37Z</time>
      </trkpt>
      <trkpt lat="44.84072" lon="5.48355">
        <ele>1607.46</ele>
        <time>2011-04-23T14:27:51Z</time>
      </trkpt>
      <trkpt lat="44.8407" lon="5.48354">
        <ele>1607.94</ele>
        <time>2011-04-23T14:29:03Z</time>
      </trkpt>
      <trkpt lat="44.84068" lon="5.48353">
        <ele>1607.94</ele>
        <time>2011-04-23T14:29:04Z</time>
      </trkpt>
      <trkpt lat="44.84067" lon="5.48352">
        <ele>1607.94</ele>
        <time>2011-04-23T14:29:05Z</time>
      </trkpt>
      <trkpt lat="44.84066" lon="5.48353">
        <ele>1607.94</ele>
        <time>2011-04-23T14:29:06Z</time>
      </trkpt>
      <trkpt lat="44.84065" lon="5.48353">
        <ele>1607.94</ele>
        <time>2011-04-23T14:29:07Z</time>
      </trkpt>
      <trkpt lat="44.84064" lon="5.48353">
        <ele>1608.42</ele>
        <time>2011-04-23T14:29:08Z</time>
      </trkpt>
      <trkpt lat="44.84062" lon="5.48353">
        <ele>1608.42</ele>
        <time>2011-04-23T14:29:09Z</time>
      </trkpt>
      <trkpt lat="44.84057" lon="5.4835">
        <ele>1609.38</ele>
        <time>2011-04-23T14:29:13Z</time>
      </trkpt>
      <trkpt lat="44.84056" lon="5.4835">
        <ele>1609.38</ele>
        <time>2011-04-23T14:29:14Z</time>
      </trkpt>
      <trkpt lat="44.84055" lon="5.48349">
        <ele>1609.86</ele>
        <time>2011-04-23T14:29:15Z</time>
      </trkpt>
      <trkpt lat="44.84054" lon="5.48349">
        <ele>1609.38</ele>
        <time>2011-04-23T14:29:16Z</time>
      </trkpt>
      <trkpt lat="44.84053" lon="5.48348">
        <ele>1609.86</ele>
        <time>2011-04-23T14:29:17Z</time>
      </trkpt>
      <trkpt lat="44.84052" lon="5.48348">
        <ele>1610.35</ele>
        <time>2011-04-23T14:29:18Z</time>
      </trkpt>
      <trkpt lat="44.84045" lon="5.4834">
        <ele>1611.79</ele>
        <time>2011-04-23T14:29:25Z</time>
      </trkpt>
      <trkpt lat="44.84043" lon="5.4834">
        <ele>1611.31</ele>
        <time>2011-04-23T14:29:26Z</time>
      </trkpt>
      <trkpt lat="44.84042" lon="5.48339">
        <ele>1611.31</ele>
        <time>2011-04-23T14:29:27Z</time>
      </trkpt>
      <trkpt lat="44.84033" lon="5.48333">
        <ele>1612.75</ele>
        <time>2011-04-23T14:29:35Z</time>
      </trkpt>
      <trkpt lat="44.84031" lon="5.48333">
        <ele>1612.27</ele>
        <time>2011-04-23T14:29:36Z</time>
      </trkpt>
      <trkpt lat="44.8403" lon="5.48333">
        <ele>1612.75</ele>
        <time>2011-04-23T14:29:37Z</time>
      </trkpt>
      <trkpt lat="44.84029" lon="5.48332">
        <ele>1612.75</ele>
        <time>2011-04-23T14:29:38Z</time>
      </trkpt>
      <trkpt lat="44.84028" lon="5.48332">
        <ele>1612.75</ele>
        <time>2011-04-23T14:29:39Z</time>
      </trkpt>
      <trkpt lat="44.84027" lon="5.48332">
        <ele>1613.23</ele>
        <time>2011-04-23T14:29:40Z</time>
      </trkpt>
      <trkpt lat="44.84026" lon="5.48332">
        <ele>1613.23</ele>
        <time>2011-04-23T14:29:41Z</time>
      </trkpt>
      <trkpt lat="44.84025" lon="5.48331">
        <ele>1613.23</ele>
        <time>2011-04-23T14:29:42Z</time>
      </trkpt>
      <trkpt lat="44.84024" lon="5.48331">
        <ele>1613.23</ele>
        <time>2011-04-23T14:29:43Z</time>
      </trkpt>
      <trkpt lat="44.84018" lon="5.4833">
        <ele>1614.19</ele>
        <time>2011-04-23T14:29:48Z</time>
      </trkpt>
      <trkpt lat="44.84017" lon="5.48329">
        <ele>1613.71</ele>
        <time>2011-04-23T14:29:49Z</time>
      </trkpt>
      <trkpt lat="44.84016" lon="5.48329">
        <ele>1614.19</ele>
        <time>2011-04-23T14:29:50Z</time>
      </trkpt>
      <trkpt lat="44.84014" lon="5.48328">
        <ele>1614.19</ele>
        <time>2011-04-23T14:29:51Z</time>
      </trkpt>
      <trkpt lat="44.84013" lon="5.48328">
        <ele>1614.19</ele>
        <time>2011-04-23T14:29:52Z</time>
      </trkpt>
      <trkpt lat="44.84012" lon="5.48327">
        <ele>1615.15</ele>
        <time>2011-04-23T14:29:53Z</time>
      </trkpt>
      <trkpt lat="44.8401" lon="5.48326">
        <ele>1614.67</ele>
        <time>2011-04-23T14:29:54Z</time>
      </trkpt>
      <trkpt lat="44.84009" lon="5.48325">
        <ele>1614.67</ele>
        <time>2011-04-23T14:29:55Z</time>
      </trkpt>
      <trkpt lat="44.84008" lon="5.48325">
        <ele>1614.67</ele>
        <time>2011-04-23T14:29:56Z</time>
      </trkpt>
      <trkpt lat="44.84006" lon="5.48324">
        <ele>1614.67</ele>
        <time>2011-04-23T14:29:57Z</time>
      </trkpt>
      <trkpt lat="44.84005" lon="5.48322">
        <ele>1615.15</ele>
        <time>2011-04-23T14:29:58Z</time>
      </trkpt>
      <trkpt lat="44.84004" lon="5.48321">
        <ele>1615.63</ele>
        <time>2011-04-23T14:29:59Z</time>
      </trkpt>
      <trkpt lat="44.84003" lon="5.4832">
        <ele>1615.15</ele>
        <time>2011-04-23T14:30:00Z</time>
      </trkpt>
      <trkpt lat="44.84002" lon="5.48319">
        <ele>1615.63</ele>
        <time>2011-04-23T14:30:01Z</time>
      </trkpt>
      <trkpt lat="44.83983" lon="5.48302">
        <ele>1617.07</ele>
        <time>2011-04-23T14:30:15Z</time>
      </trkpt>
      <trkpt lat="44.8396" lon="5.48289">
        <ele>1618.04</ele>
        <time>2011-04-23T14:30:31Z</time>
      </trkpt>
      <trkpt lat="44.8394" lon="5.48277">
        <ele>1618.52</ele>
        <time>2011-04-23T14:30:44Z</time>
      </trkpt>
      <trkpt lat="44.83916" lon="5.48259">
        <ele>1619.48</ele>
        <time>2011-04-23T14:31:00Z</time>
      </trkpt>
      <trkpt lat="44.83894" lon="5.48246">
        <ele>1620.92</ele>
        <time>2011-04-23T14:31:13Z</time>
      </trkpt>
      <trkpt lat="44.83891" lon="5.48245">
        <ele>1620.92</ele>
        <time>2011-04-23T14:31:15Z</time>
      </trkpt>
      <trkpt lat="44.8389" lon="5.48243">
        <ele>1620.92</ele>
        <time>2011-04-23T14:31:16Z</time>
      </trkpt>
      <trkpt lat="44.83888" lon="5.48242">
        <ele>1620.92</ele>
        <time>2011-04-23T14:31:17Z</time>
      </trkpt>
      <trkpt lat="44.83886" lon="5.48241">
        <ele>1620.92</ele>
        <time>2011-04-23T14:31:18Z</time>
      </trkpt>
      <trkpt lat="44.83884" lon="5.4824">
        <ele>1620.92</ele>
        <time>2011-04-23T14:31:19Z</time>
      </trkpt>
      <trkpt lat="44.83882" lon="5.48238">
        <ele>1620.44</ele>
        <time>2011-04-23T14:31:20Z</time>
      </trkpt>
      <trkpt lat="44.83881" lon="5.48236">
        <ele>1620.44</ele>
        <time>2011-04-23T14:31:21Z</time>
      </trkpt>
      <trkpt lat="44.83879" lon="5.48235">
        <ele>1620.44</ele>
        <time>2011-04-23T14:31:22Z</time>
      </trkpt>
      <trkpt lat="44.83877" lon="5.48233">
        <ele>1620.92</ele>
        <time>2011-04-23T14:31:23Z</time>
      </trkpt>
      <trkpt lat="44.83875" lon="5.48232">
        <ele>1620.44</ele>
        <time>2011-04-23T14:31:24Z</time>
      </trkpt>
      <trkpt lat="44.83874" lon="5.4823">
        <ele>1620.92</ele>
        <time>2011-04-23T14:31:25Z</time>
      </trkpt>
      <trkpt lat="44.83872" lon="5.48229">
        <ele>1620.44</ele>
        <time>2011-04-23T14:31:26Z</time>
      </trkpt>
      <trkpt lat="44.83871" lon="5.48227">
        <ele>1621.4</ele>
        <time>2011-04-23T14:31:27Z</time>
      </trkpt>
      <trkpt lat="44.83869" lon="5.48226">
        <ele>1620.92</ele>
        <time>2011-04-23T14:31:28Z</time>
      </trkpt>
      <trkpt lat="44.83847" lon="5.48215">
        <ele>1622.36</ele>
        <time>2011-04-23T14:31:41Z</time>
      </trkpt>
      <trkpt lat="44.83824" lon="5.48208">
        <ele>1622.84</ele>
        <time>2011-04-23T14:31:54Z</time>
      </trkpt>
      <trkpt lat="44.83803" lon="5.482">
        <ele>1623.8</ele>
        <time>2011-04-23T14:32:07Z</time>
      </trkpt>
      <trkpt lat="44.83796" lon="5.48199">
        <ele>1624.28</ele>
        <time>2011-04-23T14:32:11Z</time>
      </trkpt>
      <trkpt lat="44.83776" lon="5.48197">
        <ele>1625.73</ele>
        <time>2011-04-23T14:32:22Z</time>
      </trkpt>
      <trkpt lat="44.83751" lon="5.48192">
        <ele>1625.73</ele>
        <time>2011-04-23T14:32:36Z</time>
      </trkpt>
      <trkpt lat="44.83725" lon="5.48193">
        <ele>1625.25</ele>
        <time>2011-04-23T14:32:50Z</time>
      </trkpt>
      <trkpt lat="44.8371" lon="5.48197">
        <ele>1624.77</ele>
        <time>2011-04-23T14:32:57Z</time>
      </trkpt>
      <trkpt lat="44.83708" lon="5.48196">
        <ele>1624.28</ele>
        <time>2011-04-23T14:32:58Z</time>
      </trkpt>
      <trkpt lat="44.83682" lon="5.48186">
        <ele>1623.32</ele>
        <time>2011-04-23T14:33:08Z</time>
      </trkpt>
      <trkpt lat="44.8366" lon="5.48174">
        <ele>1625.25</ele>
        <time>2011-04-23T14:33:21Z</time>
      </trkpt>
      <trkpt lat="44.83636" lon="5.48162">
        <ele>1624.77</ele>
        <time>2011-04-23T14:33:35Z</time>
      </trkpt>
      <trkpt lat="44.8361" lon="5.48151">
        <ele>1627.17</ele>
        <time>2011-04-23T14:33:50Z</time>
      </trkpt>
      <trkpt lat="44.83588" lon="5.48145">
        <ele>1627.17</ele>
        <time>2011-04-23T14:34:02Z</time>
      </trkpt>
      <trkpt lat="44.8357" lon="5.48144">
        <ele>1628.13</ele>
        <time>2011-04-23T14:34:12Z</time>
      </trkpt>
      <trkpt lat="44.83568" lon="5.48144">
        <ele>1628.13</ele>
        <time>2011-04-23T14:34:13Z</time>
      </trkpt>
      <trkpt lat="44.83566" lon="5.48143">
        <ele>1627.65</ele>
        <time>2011-04-23T14:34:14Z</time>
      </trkpt>
      <trkpt lat="44.83564" lon="5.48142">
        <ele>1627.65</ele>
        <time>2011-04-23T14:34:15Z</time>
      </trkpt>
      <trkpt lat="44.83562" lon="5.48142">
        <ele>1627.65</ele>
        <time>2011-04-23T14:34:16Z</time>
      </trkpt>
      <trkpt lat="44.83559" lon="5.48141">
        <ele>1627.17</ele>
        <time>2011-04-23T14:34:17Z</time>
      </trkpt>
      <trkpt lat="44.83553" lon="5.4814">
        <ele>1626.69</ele>
        <time>2011-04-23T14:34:19Z</time>
      </trkpt>
      <trkpt lat="44.8355" lon="5.48141">
        <ele>1626.21</ele>
        <time>2011-04-23T14:34:20Z</time>
      </trkpt>
      <trkpt lat="44.83524" lon="5.48146">
        <ele>1627.17</ele>
        <time>2011-04-23T14:34:32Z</time>
      </trkpt>
      <trkpt lat="44.83495" lon="5.48155">
        <ele>1629.09</ele>
        <time>2011-04-23T14:34:48Z</time>
      </trkpt>
      <trkpt lat="44.83468" lon="5.48163">
        <ele>1630.53</ele>
        <time>2011-04-23T14:35:03Z</time>
      </trkpt>
      <trkpt lat="44.83453" lon="5.48166">
        <ele>1630.05</ele>
        <time>2011-04-23T14:35:14Z</time>
      </trkpt>
      <trkpt lat="44.83438" lon="5.4817">
        <ele>1629.57</ele>
        <time>2011-04-23T14:35:40Z</time>
      </trkpt>
      <trkpt lat="44.8343" lon="5.48172">
        <ele>1629.57</ele>
        <time>2011-04-23T14:35:44Z</time>
      </trkpt>
      <trkpt lat="44.83428" lon="5.48172">
        <ele>1630.05</ele>
        <time>2011-04-23T14:35:45Z</time>
      </trkpt>
      <trkpt lat="44.83426" lon="5.48172">
        <ele>1629.57</ele>
        <time>2011-04-23T14:35:46Z</time>
      </trkpt>
      <trkpt lat="44.83424" lon="5.48172">
        <ele>1629.57</ele>
        <time>2011-04-23T14:35:47Z</time>
      </trkpt>
      <trkpt lat="44.83421" lon="5.48172">
        <ele>1629.09</ele>
        <time>2011-04-23T14:35:48Z</time>
      </trkpt>
      <trkpt lat="44.83418" lon="5.48171">
        <ele>1628.61</ele>
        <time>2011-04-23T14:35:49Z</time>
      </trkpt>
      <trkpt lat="44.83415" lon="5.48171">
        <ele>1628.13</ele>
        <time>2011-04-23T14:35:50Z</time>
      </trkpt>
      <trkpt lat="44.83412" lon="5.48171">
        <ele>1628.13</ele>
        <time>2011-04-23T14:35:51Z</time>
      </trkpt>
      <trkpt lat="44.83388" lon="5.4817">
        <ele>1627.65</ele>
        <time>2011-04-23T14:36:01Z</time>
      </trkpt>
      <trkpt lat="44.83373" lon="5.48178">
        <ele>1628.13</ele>
        <time>2011-04-23T14:36:14Z</time>
      </trkpt>
      <trkpt lat="44.83373" lon="5.48178">
        <ele>1620.92</ele>
        <time>2011-04-23T14:36:26Z</time>
      </trkpt>
      <trkpt lat="44.83373" lon="5.48178">
        <ele>1628.61</ele>
        <time>2011-04-23T14:36:27Z</time>
      </trkpt>
      <trkpt lat="44.83373" lon="5.48178">
        <ele>1627.17</ele>
        <time>2011-04-23T14:36:30Z</time>
      </trkpt>
      <trkpt lat="44.83374" lon="5.48179">
        <ele>1627.65</ele>
        <time>2011-04-23T14:37:40Z</time>
      </trkpt>
      <trkpt lat="44.83372" lon="5.4818">
        <ele>1627.65</ele>
        <time>2011-04-23T14:37:41Z</time>
      </trkpt>
      <trkpt lat="44.8337" lon="5.48181">
        <ele>1627.65</ele>
        <time>2011-04-23T14:37:42Z</time>
      </trkpt>
      <trkpt lat="44.83369" lon="5.48183">
        <ele>1627.65</ele>
        <time>2011-04-23T14:37:43Z</time>
      </trkpt>
      <trkpt lat="44.83368" lon="5.48184">
        <ele>1627.65</ele>
        <time>2011-04-23T14:37:44Z</time>
      </trkpt>
      <trkpt lat="44.83366" lon="5.48186">
        <ele>1628.13</ele>
        <time>2011-04-23T14:37:45Z</time>
      </trkpt>
      <trkpt lat="44.83341" lon="5.4821">
        <ele>1626.69</ele>
        <time>2011-04-23T14:38:00Z</time>
      </trkpt>
      <trkpt lat="44.83337" lon="5.4821">
        <ele>1626.21</ele>
        <time>2011-04-23T14:38:02Z</time>
      </trkpt>
      <trkpt lat="44.83323" lon="5.48202">
        <ele>1622.84</ele>
        <time>2011-04-23T14:38:06Z</time>
      </trkpt>
      <trkpt lat="44.8332" lon="5.48197">
        <ele>1621.88</ele>
        <time>2011-04-23T14:38:07Z</time>
      </trkpt>
      <trkpt lat="44.83312" lon="5.48181">
        <ele>1621.4</ele>
        <time>2011-04-23T14:38:10Z</time>
      </trkpt>
      <trkpt lat="44.8331" lon="5.48177">
        <ele>1621.4</ele>
        <time>2011-04-23T14:38:11Z</time>
      </trkpt>
      <trkpt lat="44.83307" lon="5.48174">
        <ele>1621.4</ele>
        <time>2011-04-23T14:38:12Z</time>
      </trkpt>
      <trkpt lat="44.83305" lon="5.48172">
        <ele>1621.88</ele>
        <time>2011-04-23T14:38:13Z</time>
      </trkpt>
      <trkpt lat="44.83303" lon="5.48171">
        <ele>1621.4</ele>
        <time>2011-04-23T14:38:14Z</time>
      </trkpt>
      <trkpt lat="44.83302" lon="5.4817">
        <ele>1621.88</ele>
        <time>2011-04-23T14:38:15Z</time>
      </trkpt>
      <trkpt lat="44.833" lon="5.48169">
        <ele>1622.36</ele>
        <time>2011-04-23T14:38:16Z</time>
      </trkpt>
      <trkpt lat="44.83298" lon="5.48168">
        <ele>1621.88</ele>
        <time>2011-04-23T14:38:17Z</time>
      </trkpt>
      <trkpt lat="44.83296" lon="5.48167">
        <ele>1622.36</ele>
        <time>2011-04-23T14:38:18Z</time>
      </trkpt>
      <trkpt lat="44.83294" lon="5.48167">
        <ele>1621.88</ele>
        <time>2011-04-23T14:38:19Z</time>
      </trkpt>
      <trkpt lat="44.83291" lon="5.48167">
        <ele>1621.88</ele>
        <time>2011-04-23T14:38:20Z</time>
      </trkpt>
      <trkpt lat="44.83289" lon="5.48167">
        <ele>1622.36</ele>
        <time>2011-04-23T14:38:21Z</time>
      </trkpt>
      <trkpt lat="44.83287" lon="5.48167">
        <ele>1621.4</ele>
        <time>2011-04-23T14:38:22Z</time>
      </trkpt>
      <trkpt lat="44.83284" lon="5.48167">
        <ele>1621.4</ele>
        <time>2011-04-23T14:38:23Z</time>
      </trkpt>
      <trkpt lat="44.83282" lon="5.48168">
        <ele>1621.88</ele>
        <time>2011-04-23T14:38:24Z</time>
      </trkpt>
      <trkpt lat="44.83257" lon="5.48159">
        <ele>1622.36</ele>
        <time>2011-04-23T14:38:37Z</time>
      </trkpt>
      <trkpt lat="44.83228" lon="5.48156">
        <ele>1621.4</ele>
        <time>2011-04-23T14:38:49Z</time>
      </trkpt>
      <trkpt lat="44.83202" lon="5.48137">
        <ele>1619.96</ele>
        <time>2011-04-23T14:38:58Z</time>
      </trkpt>
      <trkpt lat="44.83179" lon="5.48117">
        <ele>1619.48</ele>
        <time>2011-04-23T14:39:11Z</time>
      </trkpt>
      <trkpt lat="44.83175" lon="5.48116">
        <ele>1619</ele>
        <time>2011-04-23T14:39:12Z</time>
      </trkpt>
      <trkpt lat="44.8317" lon="5.48116">
        <ele>1618.52</ele>
        <time>2011-04-23T14:39:13Z</time>
      </trkpt>
      <trkpt lat="44.83165" lon="5.48117">
        <ele>1618.52</ele>
        <time>2011-04-23T14:39:14Z</time>
      </trkpt>
      <trkpt lat="44.83153" lon="5.48119">
        <ele>1619.96</ele>
        <time>2011-04-23T14:39:18Z</time>
      </trkpt>
      <trkpt lat="44.83146" lon="5.48123">
        <ele>1620.44</ele>
        <time>2011-04-23T14:39:23Z</time>
      </trkpt>
      <trkpt lat="44.83145" lon="5.48124">
        <ele>1620.44</ele>
        <time>2011-04-23T14:39:24Z</time>
      </trkpt>
      <trkpt lat="44.83136" lon="5.48139">
        <ele>1621.4</ele>
        <time>2011-04-23T14:39:32Z</time>
      </trkpt>
      <trkpt lat="44.83135" lon="5.4814">
        <ele>1620.92</ele>
        <time>2011-04-23T14:39:33Z</time>
      </trkpt>
      <trkpt lat="44.83133" lon="5.48141">
        <ele>1620.92</ele>
        <time>2011-04-23T14:39:34Z</time>
      </trkpt>
      <trkpt lat="44.83132" lon="5.48143">
        <ele>1621.4</ele>
        <time>2011-04-23T14:39:35Z</time>
      </trkpt>
      <trkpt lat="44.83132" lon="5.48146">
        <ele>1620.92</ele>
        <time>2011-04-23T14:39:36Z</time>
      </trkpt>
      <trkpt lat="44.83119" lon="5.48176">
        <ele>1621.88</ele>
        <time>2011-04-23T14:39:48Z</time>
      </trkpt>
      <trkpt lat="44.83117" lon="5.48178">
        <ele>1622.36</ele>
        <time>2011-04-23T14:39:50Z</time>
      </trkpt>
      <trkpt lat="44.83116" lon="5.4818">
        <ele>1622.84</ele>
        <time>2011-04-23T14:39:51Z</time>
      </trkpt>
      <trkpt lat="44.83108" lon="5.48218">
        <ele>1622.84</ele>
        <time>2011-04-23T14:40:06Z</time>
      </trkpt>
      <trkpt lat="44.831" lon="5.48248">
        <ele>1622.36</ele>
        <time>2011-04-23T14:40:18Z</time>
      </trkpt>
      <trkpt lat="44.83091" lon="5.48277">
        <ele>1621.4</ele>
        <time>2011-04-23T14:40:30Z</time>
      </trkpt>
      <trkpt lat="44.83091" lon="5.48277">
        <ele>1621.4</ele>
        <time>2011-04-23T14:40:53Z</time>
      </trkpt>
      <trkpt lat="44.83084" lon="5.48302">
        <ele>1619</ele>
        <time>2011-04-23T14:41:04Z</time>
      </trkpt>
      <trkpt lat="44.8308" lon="5.48317">
        <ele>1617.56</ele>
        <time>2011-04-23T14:41:07Z</time>
      </trkpt>
      <trkpt lat="44.83078" lon="5.48323">
        <ele>1616.59</ele>
        <time>2011-04-23T14:41:08Z</time>
      </trkpt>
      <trkpt lat="44.83071" lon="5.48346">
        <ele>1614.67</ele>
        <time>2011-04-23T14:41:12Z</time>
      </trkpt>
      <trkpt lat="44.83065" lon="5.48366">
        <ele>1612.75</ele>
        <time>2011-04-23T14:41:15Z</time>
      </trkpt>
      <trkpt lat="44.83052" lon="5.48417">
        <ele>1612.27</ele>
        <time>2011-04-23T14:41:26Z</time>
      </trkpt>
      <trkpt lat="44.83045" lon="5.48448">
        <ele>1612.27</ele>
        <time>2011-04-23T14:41:38Z</time>
      </trkpt>
      <trkpt lat="44.83039" lon="5.48482">
        <ele>1614.67</ele>
        <time>2011-04-23T14:41:52Z</time>
      </trkpt>
      <trkpt lat="44.83031" lon="5.48509">
        <ele>1617.07</ele>
        <time>2011-04-23T14:42:06Z</time>
      </trkpt>
      <trkpt lat="44.83025" lon="5.48514">
        <ele>1618.04</ele>
        <time>2011-04-23T14:42:11Z</time>
      </trkpt>
      <trkpt lat="44.83023" lon="5.48514">
        <ele>1618.52</ele>
        <time>2011-04-23T14:42:12Z</time>
      </trkpt>
      <trkpt lat="44.83022" lon="5.48514">
        <ele>1619</ele>
        <time>2011-04-23T14:42:13Z</time>
      </trkpt>
      <trkpt lat="44.83021" lon="5.48515">
        <ele>1619</ele>
        <time>2011-04-23T14:42:14Z</time>
      </trkpt>
      <trkpt lat="44.8302" lon="5.48516">
        <ele>1619</ele>
        <time>2011-04-23T14:42:15Z</time>
      </trkpt>
      <trkpt lat="44.83018" lon="5.48517">
        <ele>1619</ele>
        <time>2011-04-23T14:42:16Z</time>
      </trkpt>
      <trkpt lat="44.83017" lon="5.48518">
        <ele>1619.96</ele>
        <time>2011-04-23T14:42:17Z</time>
      </trkpt>
      <trkpt lat="44.83016" lon="5.48519">
        <ele>1619.48</ele>
        <time>2011-04-23T14:42:18Z</time>
      </trkpt>
      <trkpt lat="44.83002" lon="5.48534">
        <ele>1620.44</ele>
        <time>2011-04-23T14:42:31Z</time>
      </trkpt>
      <trkpt lat="44.83001" lon="5.48535">
        <ele>1620.44</ele>
        <time>2011-04-23T14:42:32Z</time>
      </trkpt>
      <trkpt lat="44.83" lon="5.48536">
        <ele>1620.44</ele>
        <time>2011-04-23T14:42:33Z</time>
      </trkpt>
      <trkpt lat="44.82999" lon="5.48538">
        <ele>1620.44</ele>
        <time>2011-04-23T14:42:34Z</time>
      </trkpt>
      <trkpt lat="44.82998" lon="5.48539">
        <ele>1620.44</ele>
        <time>2011-04-23T14:42:35Z</time>
      </trkpt>
      <trkpt lat="44.82997" lon="5.48541">
        <ele>1619.96</ele>
        <time>2011-04-23T14:42:36Z</time>
      </trkpt>
      <trkpt lat="44.82996" lon="5.48542">
        <ele>1620.44</ele>
        <time>2011-04-23T14:42:37Z</time>
      </trkpt>
      <trkpt lat="44.82995" lon="5.48544">
        <ele>1620.44</ele>
        <time>2011-04-23T14:42:38Z</time>
      </trkpt>
      <trkpt lat="44.82994" lon="5.48545">
        <ele>1619.96</ele>
        <time>2011-04-23T14:42:39Z</time>
      </trkpt>
      <trkpt lat="44.82992" lon="5.48546">
        <ele>1619.96</ele>
        <time>2011-04-23T14:42:40Z</time>
      </trkpt>
      <trkpt lat="44.82991" lon="5.48547">
        <ele>1619.96</ele>
        <time>2011-04-23T14:42:41Z</time>
      </trkpt>
      <trkpt lat="44.8299" lon="5.48549">
        <ele>1619.96</ele>
        <time>2011-04-23T14:42:42Z</time>
      </trkpt>
      <trkpt lat="44.82989" lon="5.48551">
        <ele>1620.44</ele>
        <time>2011-04-23T14:42:43Z</time>
      </trkpt>
      <trkpt lat="44.82988" lon="5.48553">
        <ele>1619.96</ele>
        <time>2011-04-23T14:42:44Z</time>
      </trkpt>
      <trkpt lat="44.82986" lon="5.48562">
        <ele>1620.92</ele>
        <time>2011-04-23T14:42:48Z</time>
      </trkpt>
      <trkpt lat="44.82986" lon="5.48564">
        <ele>1620.92</ele>
        <time>2011-04-23T14:42:49Z</time>
      </trkpt>
      <trkpt lat="44.82987" lon="5.48567">
        <ele>1620.44</ele>
        <time>2011-04-23T14:42:50Z</time>
      </trkpt>
      <trkpt lat="44.82986" lon="5.4857">
        <ele>1620.44</ele>
        <time>2011-04-23T14:42:51Z</time>
      </trkpt>
      <trkpt lat="44.82986" lon="5.48572">
        <ele>1619.96</ele>
        <time>2011-04-23T14:42:52Z</time>
      </trkpt>
      <trkpt lat="44.82985" lon="5.48574">
        <ele>1620.44</ele>
        <time>2011-04-23T14:42:53Z</time>
      </trkpt>
      <trkpt lat="44.82985" lon="5.48576">
        <ele>1620.44</ele>
        <time>2011-04-23T14:42:54Z</time>
      </trkpt>
      <trkpt lat="44.82984" lon="5.48579">
        <ele>1620.44</ele>
        <time>2011-04-23T14:42:55Z</time>
      </trkpt>
      <trkpt lat="44.82973" lon="5.48602">
        <ele>1621.4</ele>
        <time>2011-04-23T14:43:08Z</time>
      </trkpt>
      <trkpt lat="44.82956" lon="5.48611">
        <ele>1622.36</ele>
        <time>2011-04-23T14:43:20Z</time>
      </trkpt>
      <trkpt lat="44.82948" lon="5.48618">
        <ele>1622.36</ele>
        <time>2011-04-23T14:43:26Z</time>
      </trkpt>
      <trkpt lat="44.82947" lon="5.48619">
        <ele>1622.36</ele>
        <time>2011-04-23T14:43:27Z</time>
      </trkpt>
      <trkpt lat="44.82929" lon="5.48628">
        <ele>1619.96</ele>
        <time>2011-04-23T14:43:39Z</time>
      </trkpt>
      <trkpt lat="44.82913" lon="5.48633">
        <ele>1616.59</ele>
        <time>2011-04-23T14:43:45Z</time>
      </trkpt>
      <trkpt lat="44.82903" lon="5.48636">
        <ele>1615.63</ele>
        <time>2011-04-23T14:43:49Z</time>
      </trkpt>
      <trkpt lat="44.82898" lon="5.48635">
        <ele>1614.19</ele>
        <time>2011-04-23T14:43:51Z</time>
      </trkpt>
      <trkpt lat="44.82892" lon="5.48635">
        <ele>1612.75</ele>
        <time>2011-04-23T14:43:53Z</time>
      </trkpt>
      <trkpt lat="44.82882" lon="5.48635">
        <ele>1611.31</ele>
        <time>2011-04-23T14:43:57Z</time>
      </trkpt>
      <trkpt lat="44.82868" lon="5.48637">
        <ele>1608.42</ele>
        <time>2011-04-23T14:44:01Z</time>
      </trkpt>
      <trkpt lat="44.82864" lon="5.48639">
        <ele>1608.42</ele>
        <time>2011-04-23T14:44:02Z</time>
      </trkpt>
      <trkpt lat="44.8286" lon="5.48641">
        <ele>1608.42</ele>
        <time>2011-04-23T14:44:03Z</time>
      </trkpt>
      <trkpt lat="44.82833" lon="5.48655">
        <ele>1607.94</ele>
        <time>2011-04-23T14:44:14Z</time>
      </trkpt>
      <trkpt lat="44.8281" lon="5.48656">
        <ele>1610.35</ele>
        <time>2011-04-23T14:44:28Z</time>
      </trkpt>
      <trkpt lat="44.82789" lon="5.48648">
        <ele>1610.35</ele>
        <time>2011-04-23T14:44:41Z</time>
      </trkpt>
      <trkpt lat="44.82772" lon="5.48635">
        <ele>1610.83</ele>
        <time>2011-04-23T14:44:53Z</time>
      </trkpt>
      <trkpt lat="44.82759" lon="5.48611">
        <ele>1611.31</ele>
        <time>2011-04-23T14:45:06Z</time>
      </trkpt>
      <trkpt lat="44.82753" lon="5.48606">
        <ele>1611.31</ele>
        <time>2011-04-23T14:45:11Z</time>
      </trkpt>
      <trkpt lat="44.82752" lon="5.48606">
        <ele>1610.83</ele>
        <time>2011-04-23T14:45:27Z</time>
      </trkpt>
      <trkpt lat="44.82752" lon="5.48606">
        <ele>1610.83</ele>
        <time>2011-04-23T14:45:38Z</time>
      </trkpt>
      <trkpt lat="44.82751" lon="5.48604">
        <ele>1610.83</ele>
        <time>2011-04-23T14:45:39Z</time>
      </trkpt>
      <trkpt lat="44.8275" lon="5.48601">
        <ele>1611.31</ele>
        <time>2011-04-23T14:45:41Z</time>
      </trkpt>
      <trkpt lat="44.82744" lon="5.48569">
        <ele>1609.86</ele>
        <time>2011-04-23T14:45:53Z</time>
      </trkpt>
      <trkpt lat="44.82736" lon="5.48522">
        <ele>1607.94</ele>
        <time>2011-04-23T14:46:06Z</time>
      </trkpt>
      <trkpt lat="44.82727" lon="5.48492">
        <ele>1607.46</ele>
        <time>2011-04-23T14:46:16Z</time>
      </trkpt>
      <trkpt lat="44.82726" lon="5.48489">
        <ele>1606.98</ele>
        <time>2011-04-23T14:46:17Z</time>
      </trkpt>
      <trkpt lat="44.82719" lon="5.48453">
        <ele>1606.5</ele>
        <time>2011-04-23T14:46:29Z</time>
      </trkpt>
      <trkpt lat="44.82704" lon="5.48407">
        <ele>1605.06</ele>
        <time>2011-04-23T14:46:41Z</time>
      </trkpt>
      <trkpt lat="44.827" lon="5.4837">
        <ele>1603.62</ele>
        <time>2011-04-23T14:46:52Z</time>
      </trkpt>
      <trkpt lat="44.827" lon="5.48327">
        <ele>1602.66</ele>
        <time>2011-04-23T14:47:06Z</time>
      </trkpt>
      <trkpt lat="44.82695" lon="5.48289">
        <ele>1600.25</ele>
        <time>2011-04-23T14:47:19Z</time>
      </trkpt>
      <trkpt lat="44.82695" lon="5.48282">
        <ele>1600.73</ele>
        <time>2011-04-23T14:47:30Z</time>
      </trkpt>
      <trkpt lat="44.82696" lon="5.48283">
        <ele>1600.73</ele>
        <time>2011-04-23T14:47:31Z</time>
      </trkpt>
      <trkpt lat="44.82697" lon="5.48284">
        <ele>1601.21</ele>
        <time>2011-04-23T14:47:41Z</time>
      </trkpt>
      <trkpt lat="44.82697" lon="5.48284">
        <ele>1594.48</ele>
        <time>2011-04-23T14:48:00Z</time>
      </trkpt>
      <trkpt lat="44.82697" lon="5.48283">
        <ele>1605.54</ele>
        <time>2011-04-23T14:48:01Z</time>
      </trkpt>
      <trkpt lat="44.82697" lon="5.48283">
        <ele>1601.69</ele>
        <time>2011-04-23T14:48:02Z</time>
      </trkpt>
      <trkpt lat="44.82711" lon="5.48305">
        <ele>1601.69</ele>
        <time>2011-04-23T14:48:38Z</time>
      </trkpt>
    </trkseg>
  </trk>
</gpx>